<?xml version="1.0" encoding="UTF-8" standalone="no" ?>
<gpx xmlns="http://www.topografix.com/GPX/1/1" xmlns:xsi="http://www.w3.org/2001/XMLSchema-instance" xsi:schemaLocation="http://www.topografix.com/GPX/1/1 http://www.topografix.com/GPX/1/1/gpx.xsd" version="1.1" creator="VisuGPX - https://www.visugpx.com">
  <metadata>
    <name>Lambesc Durance 58km 750m</name>
    <desc><![CDATA[Longue Balade sans difficulté, qui nous fait découvrir l'ancien déversoir de Ponserot, le Château de Janson et la voie verte très roulante du Val de Durance. Un retour sur Lambesc par les collines, Château bas et le canal de Marseille. ]]></desc>
  </metadata>
  <trk>
    <name><![CDATA[2022-04-28 Lambesc Durance 58km 750m]]></name>
    <trkseg>
      <trkpt lat="43.64868" lon="5.26744">
        <ele>233.087219</ele>
        <time>2022-04-28T07:07:04Z</time>
      </trkpt>
      <trkpt lat="43.64867" lon="5.26745">
        <ele>233.085281</ele>
        <time>2022-04-28T07:07:07Z</time>
      </trkpt>
      <trkpt lat="43.64867" lon="5.26745">
        <ele>233.079025</ele>
        <time>2022-04-28T07:07:09Z</time>
      </trkpt>
      <trkpt lat="43.64867" lon="5.26746">
        <ele>233.081345</ele>
        <time>2022-04-28T07:07:11Z</time>
      </trkpt>
      <trkpt lat="43.64866" lon="5.26747">
        <ele>233.081299</ele>
        <time>2022-04-28T07:07:13Z</time>
      </trkpt>
      <trkpt lat="43.64866" lon="5.26747">
        <ele>233.082993</ele>
        <time>2022-04-28T07:07:15Z</time>
      </trkpt>
      <trkpt lat="43.64867" lon="5.26747">
        <ele>233.08667</ele>
        <time>2022-04-28T07:07:17Z</time>
      </trkpt>
      <trkpt lat="43.64867" lon="5.26747">
        <ele>233.088181</ele>
        <time>2022-04-28T07:07:19Z</time>
      </trkpt>
      <trkpt lat="43.64867" lon="5.26746">
        <ele>233.088638</ele>
        <time>2022-04-28T07:07:21Z</time>
      </trkpt>
      <trkpt lat="43.64867" lon="5.26747">
        <ele>233.09288</ele>
        <time>2022-04-28T07:07:23Z</time>
      </trkpt>
      <trkpt lat="43.64867" lon="5.26747">
        <ele>233.085083</ele>
        <time>2022-04-28T07:07:26Z</time>
      </trkpt>
      <trkpt lat="43.64865" lon="5.26747">
        <ele>233.064835</ele>
        <time>2022-04-28T07:07:29Z</time>
      </trkpt>
      <trkpt lat="43.64862" lon="5.26747">
        <ele>233.031631</ele>
        <time>2022-04-28T07:07:32Z</time>
      </trkpt>
      <trkpt lat="43.64862" lon="5.26747">
        <ele>233.02507</ele>
        <time>2022-04-28T07:07:34Z</time>
      </trkpt>
      <trkpt lat="43.64862" lon="5.26747">
        <ele>233.024155</ele>
        <time>2022-04-28T07:07:35Z</time>
      </trkpt>
      <trkpt lat="43.64861" lon="5.26746">
        <ele>233.018326</ele>
        <time>2022-04-28T07:07:39Z</time>
      </trkpt>
      <trkpt lat="43.64862" lon="5.26746">
        <ele>233.023026</ele>
        <time>2022-04-28T07:07:43Z</time>
      </trkpt>
      <trkpt lat="43.64861" lon="5.26746">
        <ele>233.01651</ele>
        <time>2022-04-28T07:07:48Z</time>
      </trkpt>
      <trkpt lat="43.64861" lon="5.26746">
        <ele>233.01059</ele>
        <time>2022-04-28T07:07:54Z</time>
      </trkpt>
      <trkpt lat="43.6486" lon="5.26747">
        <ele>233.006836</ele>
        <time>2022-04-28T07:08:02Z</time>
      </trkpt>
      <trkpt lat="43.6486" lon="5.26749">
        <ele>233.007202</ele>
        <time>2022-04-28T07:08:14Z</time>
      </trkpt>
      <trkpt lat="43.6486" lon="5.26748">
        <ele>233.004028</ele>
        <time>2022-04-28T07:08:32Z</time>
      </trkpt>
      <trkpt lat="43.6486" lon="5.26748">
        <ele>233.006989</ele>
        <time>2022-04-28T07:09:03Z</time>
      </trkpt>
      <trkpt lat="43.64861" lon="5.26745">
        <ele>233.011871</ele>
        <time>2022-04-28T07:09:27Z</time>
      </trkpt>
      <trkpt lat="43.64863" lon="5.26747">
        <ele>233.037048</ele>
        <time>2022-04-28T07:09:51Z</time>
      </trkpt>
      <trkpt lat="43.64864" lon="5.26747">
        <ele>233.046661</ele>
        <time>2022-04-28T07:10:08Z</time>
      </trkpt>
      <trkpt lat="43.64866" lon="5.26745">
        <ele>233.074814</ele>
        <time>2022-04-28T07:10:30Z</time>
      </trkpt>
      <trkpt lat="43.64864" lon="5.26745">
        <ele>233.046799</ele>
        <time>2022-04-28T07:10:54Z</time>
      </trkpt>
      <trkpt lat="43.64864" lon="5.26748">
        <ele>233.059326</ele>
        <time>2022-04-28T07:11:30Z</time>
      </trkpt>
      <trkpt lat="43.64863" lon="5.26746">
        <ele>233.041901</ele>
        <time>2022-04-28T07:11:58Z</time>
      </trkpt>
      <trkpt lat="43.64865" lon="5.26747">
        <ele>233.059967</ele>
        <time>2022-04-28T07:12:26Z</time>
      </trkpt>
      <trkpt lat="43.64863" lon="5.26744">
        <ele>233.035736</ele>
        <time>2022-04-28T07:12:56Z</time>
      </trkpt>
      <trkpt lat="43.64866" lon="5.26746">
        <ele>233.071793</ele>
        <time>2022-04-28T07:13:25Z</time>
      </trkpt>
      <trkpt lat="43.64867" lon="5.26749">
        <ele>233.089691</ele>
        <time>2022-04-28T07:13:42Z</time>
      </trkpt>
      <trkpt lat="43.64875" lon="5.26755">
        <ele>233.224655</ele>
        <time>2022-04-28T07:13:49Z</time>
      </trkpt>
      <trkpt lat="43.64887" lon="5.26767">
        <ele>233.513153</ele>
        <time>2022-04-28T07:13:57Z</time>
      </trkpt>
      <trkpt lat="43.64897" lon="5.26768">
        <ele>233.718018</ele>
        <time>2022-04-28T07:14:02Z</time>
      </trkpt>
      <trkpt lat="43.64899" lon="5.2677">
        <ele>233.77269</ele>
        <time>2022-04-28T07:14:03Z</time>
      </trkpt>
      <trkpt lat="43.649" lon="5.26771">
        <ele>233.821747</ele>
        <time>2022-04-28T07:14:04Z</time>
      </trkpt>
      <trkpt lat="43.649" lon="5.26773">
        <ele>233.863586</ele>
        <time>2022-04-28T07:14:05Z</time>
      </trkpt>
      <trkpt lat="43.649" lon="5.26776">
        <ele>233.904526</ele>
        <time>2022-04-28T07:14:06Z</time>
      </trkpt>
      <trkpt lat="43.64901" lon="5.26811">
        <ele>234.50769</ele>
        <time>2022-04-28T07:14:17Z</time>
      </trkpt>
      <trkpt lat="43.649" lon="5.26842">
        <ele>234.957794</ele>
        <time>2022-04-28T07:14:28Z</time>
      </trkpt>
      <trkpt lat="43.64896" lon="5.26875">
        <ele>234.951721</ele>
        <time>2022-04-28T07:14:40Z</time>
      </trkpt>
      <trkpt lat="43.64909" lon="5.26906">
        <ele>235.255722</ele>
        <time>2022-04-28T07:14:52Z</time>
      </trkpt>
      <trkpt lat="43.64907" lon="5.2695">
        <ele>235.816162</ele>
        <time>2022-04-28T07:15:06Z</time>
      </trkpt>
      <trkpt lat="43.64908" lon="5.26954">
        <ele>235.869904</ele>
        <time>2022-04-28T07:15:08Z</time>
      </trkpt>
      <trkpt lat="43.64916" lon="5.2696">
        <ele>235.955734</ele>
        <time>2022-04-28T07:15:13Z</time>
      </trkpt>
      <trkpt lat="43.64932" lon="5.26961">
        <ele>235.986389</ele>
        <time>2022-04-28T07:15:22Z</time>
      </trkpt>
      <trkpt lat="43.64946" lon="5.26967">
        <ele>236.001099</ele>
        <time>2022-04-28T07:15:28Z</time>
      </trkpt>
      <trkpt lat="43.64957" lon="5.26972">
        <ele>236.029724</ele>
        <time>2022-04-28T07:15:35Z</time>
      </trkpt>
      <trkpt lat="43.64964" lon="5.26969">
        <ele>236.019485</ele>
        <time>2022-04-28T07:15:37Z</time>
      </trkpt>
      <trkpt lat="43.65002" lon="5.26962">
        <ele>236</ele>
        <time>2022-04-28T07:15:51Z</time>
      </trkpt>
      <trkpt lat="43.65005" lon="5.26962">
        <ele>236</ele>
        <time>2022-04-28T07:15:53Z</time>
      </trkpt>
      <trkpt lat="43.6503" lon="5.2695">
        <ele>236</ele>
        <time>2022-04-28T07:16:03Z</time>
      </trkpt>
      <trkpt lat="43.65035" lon="5.26952">
        <ele>235.986191</ele>
        <time>2022-04-28T07:16:05Z</time>
      </trkpt>
      <trkpt lat="43.65046" lon="5.26967">
        <ele>235.731796</ele>
        <time>2022-04-28T07:16:12Z</time>
      </trkpt>
      <trkpt lat="43.65061" lon="5.27002">
        <ele>235.551422</ele>
        <time>2022-04-28T07:16:22Z</time>
      </trkpt>
      <trkpt lat="43.6509" lon="5.27027">
        <ele>234.454376</ele>
        <time>2022-04-28T07:16:33Z</time>
      </trkpt>
      <trkpt lat="43.6512" lon="5.2707">
        <ele>231.967941</ele>
        <time>2022-04-28T07:16:44Z</time>
      </trkpt>
      <trkpt lat="43.65122" lon="5.27076">
        <ele>231.57341</ele>
        <time>2022-04-28T07:16:45Z</time>
      </trkpt>
      <trkpt lat="43.65126" lon="5.27087">
        <ele>230.887726</ele>
        <time>2022-04-28T07:16:47Z</time>
      </trkpt>
      <trkpt lat="43.65127" lon="5.27093">
        <ele>230.570663</ele>
        <time>2022-04-28T07:16:48Z</time>
      </trkpt>
      <trkpt lat="43.65128" lon="5.27099">
        <ele>230.293488</ele>
        <time>2022-04-28T07:16:49Z</time>
      </trkpt>
      <trkpt lat="43.65128" lon="5.27104">
        <ele>229.505936</ele>
        <time>2022-04-28T07:16:50Z</time>
      </trkpt>
      <trkpt lat="43.65129" lon="5.27109">
        <ele>228.800461</ele>
        <time>2022-04-28T07:16:51Z</time>
      </trkpt>
      <trkpt lat="43.6513" lon="5.27118">
        <ele>227.634171</ele>
        <time>2022-04-28T07:16:53Z</time>
      </trkpt>
      <trkpt lat="43.65129" lon="5.27123">
        <ele>227.121002</ele>
        <time>2022-04-28T07:16:54Z</time>
      </trkpt>
      <trkpt lat="43.65129" lon="5.27127">
        <ele>226.637665</ele>
        <time>2022-04-28T07:16:55Z</time>
      </trkpt>
      <trkpt lat="43.6513" lon="5.2713">
        <ele>226.114792</ele>
        <time>2022-04-28T07:16:56Z</time>
      </trkpt>
      <trkpt lat="43.65131" lon="5.27133">
        <ele>225.641632</ele>
        <time>2022-04-28T07:16:57Z</time>
      </trkpt>
      <trkpt lat="43.65132" lon="5.27135">
        <ele>225.28717</ele>
        <time>2022-04-28T07:16:58Z</time>
      </trkpt>
      <trkpt lat="43.65134" lon="5.27136">
        <ele>225.035339</ele>
        <time>2022-04-28T07:16:59Z</time>
      </trkpt>
      <trkpt lat="43.65136" lon="5.27137">
        <ele>224.84021</ele>
        <time>2022-04-28T07:17:00Z</time>
      </trkpt>
      <trkpt lat="43.65138" lon="5.27137">
        <ele>224.662827</ele>
        <time>2022-04-28T07:17:01Z</time>
      </trkpt>
      <trkpt lat="43.65141" lon="5.27137">
        <ele>224.521027</ele>
        <time>2022-04-28T07:17:02Z</time>
      </trkpt>
      <trkpt lat="43.65143" lon="5.27136">
        <ele>224.398987</ele>
        <time>2022-04-28T07:17:03Z</time>
      </trkpt>
      <trkpt lat="43.65168" lon="5.27134">
        <ele>223.149506</ele>
        <time>2022-04-28T07:17:11Z</time>
      </trkpt>
      <trkpt lat="43.65185" lon="5.27134">
        <ele>222.650131</ele>
        <time>2022-04-28T07:17:14Z</time>
      </trkpt>
      <trkpt lat="43.6519" lon="5.27136">
        <ele>222.347702</ele>
        <time>2022-04-28T07:17:15Z</time>
      </trkpt>
      <trkpt lat="43.65203" lon="5.27142">
        <ele>221.61322</ele>
        <time>2022-04-28T07:17:17Z</time>
      </trkpt>
      <trkpt lat="43.65209" lon="5.27141">
        <ele>221.562546</ele>
        <time>2022-04-28T07:17:18Z</time>
      </trkpt>
      <trkpt lat="43.65214" lon="5.27137">
        <ele>221.602371</ele>
        <time>2022-04-28T07:17:19Z</time>
      </trkpt>
      <trkpt lat="43.65217" lon="5.27132">
        <ele>221.814301</ele>
        <time>2022-04-28T07:17:20Z</time>
      </trkpt>
      <trkpt lat="43.6522" lon="5.27127">
        <ele>222.08252</ele>
        <time>2022-04-28T07:17:21Z</time>
      </trkpt>
      <trkpt lat="43.65222" lon="5.27122">
        <ele>222.329865</ele>
        <time>2022-04-28T07:17:22Z</time>
      </trkpt>
      <trkpt lat="43.65224" lon="5.27118">
        <ele>222.553772</ele>
        <time>2022-04-28T07:17:23Z</time>
      </trkpt>
      <trkpt lat="43.65237" lon="5.27095">
        <ele>223.768066</ele>
        <time>2022-04-28T07:17:30Z</time>
      </trkpt>
      <trkpt lat="43.6526" lon="5.27052">
        <ele>224.440903</ele>
        <time>2022-04-28T07:17:42Z</time>
      </trkpt>
      <trkpt lat="43.65273" lon="5.27017">
        <ele>223.359848</ele>
        <time>2022-04-28T07:17:49Z</time>
      </trkpt>
      <trkpt lat="43.65275" lon="5.27012">
        <ele>223.114502</ele>
        <time>2022-04-28T07:17:50Z</time>
      </trkpt>
      <trkpt lat="43.65277" lon="5.27007">
        <ele>222.840195</ele>
        <time>2022-04-28T07:17:51Z</time>
      </trkpt>
      <trkpt lat="43.65279" lon="5.27001">
        <ele>222.514832</ele>
        <time>2022-04-28T07:17:52Z</time>
      </trkpt>
      <trkpt lat="43.65285" lon="5.26982">
        <ele>221.570007</ele>
        <time>2022-04-28T07:17:55Z</time>
      </trkpt>
      <trkpt lat="43.65296" lon="5.26943">
        <ele>219.424179</ele>
        <time>2022-04-28T07:18:01Z</time>
      </trkpt>
      <trkpt lat="43.65299" lon="5.26933">
        <ele>218.825714</ele>
        <time>2022-04-28T07:18:03Z</time>
      </trkpt>
      <trkpt lat="43.65301" lon="5.26927">
        <ele>218.459747</ele>
        <time>2022-04-28T07:18:04Z</time>
      </trkpt>
      <trkpt lat="43.65304" lon="5.26921">
        <ele>218.00293</ele>
        <time>2022-04-28T07:18:05Z</time>
      </trkpt>
      <trkpt lat="43.65315" lon="5.26902">
        <ele>216.156631</ele>
        <time>2022-04-28T07:18:08Z</time>
      </trkpt>
      <trkpt lat="43.65333" lon="5.26871">
        <ele>213.526566</ele>
        <time>2022-04-28T07:18:13Z</time>
      </trkpt>
      <trkpt lat="43.65339" lon="5.26862">
        <ele>212.797745</ele>
        <time>2022-04-28T07:18:15Z</time>
      </trkpt>
      <trkpt lat="43.65347" lon="5.26851">
        <ele>212.084244</ele>
        <time>2022-04-28T07:18:20Z</time>
      </trkpt>
      <trkpt lat="43.65349" lon="5.26853">
        <ele>212.004593</ele>
        <time>2022-04-28T07:18:21Z</time>
      </trkpt>
      <trkpt lat="43.6535" lon="5.26856">
        <ele>211.98819</ele>
        <time>2022-04-28T07:18:22Z</time>
      </trkpt>
      <trkpt lat="43.65351" lon="5.26858">
        <ele>211.957306</ele>
        <time>2022-04-28T07:18:23Z</time>
      </trkpt>
      <trkpt lat="43.65352" lon="5.26862">
        <ele>211.958237</ele>
        <time>2022-04-28T07:18:24Z</time>
      </trkpt>
      <trkpt lat="43.65353" lon="5.26866">
        <ele>212.012878</ele>
        <time>2022-04-28T07:18:25Z</time>
      </trkpt>
      <trkpt lat="43.65354" lon="5.26869">
        <ele>212.079376</ele>
        <time>2022-04-28T07:18:26Z</time>
      </trkpt>
      <trkpt lat="43.65376" lon="5.26909">
        <ele>212.297638</ele>
        <time>2022-04-28T07:18:38Z</time>
      </trkpt>
      <trkpt lat="43.6539" lon="5.26923">
        <ele>212.090744</ele>
        <time>2022-04-28T07:18:47Z</time>
      </trkpt>
      <trkpt lat="43.65392" lon="5.26922">
        <ele>211.959976</ele>
        <time>2022-04-28T07:18:48Z</time>
      </trkpt>
      <trkpt lat="43.65417" lon="5.26895">
        <ele>210.940109</ele>
        <time>2022-04-28T07:18:59Z</time>
      </trkpt>
      <trkpt lat="43.65459" lon="5.26827">
        <ele>210.219955</ele>
        <time>2022-04-28T07:19:16Z</time>
      </trkpt>
      <trkpt lat="43.65497" lon="5.26763">
        <ele>210.470825</ele>
        <time>2022-04-28T07:19:31Z</time>
      </trkpt>
      <trkpt lat="43.65525" lon="5.26678">
        <ele>210.126541</ele>
        <time>2022-04-28T07:19:47Z</time>
      </trkpt>
      <trkpt lat="43.65536" lon="5.2657">
        <ele>208.870544</ele>
        <time>2022-04-28T07:20:05Z</time>
      </trkpt>
      <trkpt lat="43.65537" lon="5.26563">
        <ele>208.821747</ele>
        <time>2022-04-28T07:20:06Z</time>
      </trkpt>
      <trkpt lat="43.65538" lon="5.26557">
        <ele>208.641159</ele>
        <time>2022-04-28T07:20:07Z</time>
      </trkpt>
      <trkpt lat="43.65548" lon="5.26504">
        <ele>206.772034</ele>
        <time>2022-04-28T07:20:16Z</time>
      </trkpt>
      <trkpt lat="43.65555" lon="5.26469">
        <ele>205.158813</ele>
        <time>2022-04-28T07:20:24Z</time>
      </trkpt>
      <trkpt lat="43.65558" lon="5.26467">
        <ele>205.133682</ele>
        <time>2022-04-28T07:20:25Z</time>
      </trkpt>
      <trkpt lat="43.6556" lon="5.26466">
        <ele>205.189392</ele>
        <time>2022-04-28T07:20:26Z</time>
      </trkpt>
      <trkpt lat="43.65578" lon="5.26471">
        <ele>206.456589</ele>
        <time>2022-04-28T07:20:31Z</time>
      </trkpt>
      <trkpt lat="43.65582" lon="5.26471">
        <ele>206.740082</ele>
        <time>2022-04-28T07:20:32Z</time>
      </trkpt>
      <trkpt lat="43.65605" lon="5.26466">
        <ele>206.198914</ele>
        <time>2022-04-28T07:20:39Z</time>
      </trkpt>
      <trkpt lat="43.65606" lon="5.26467">
        <ele>206.290482</ele>
        <time>2022-04-28T07:20:40Z</time>
      </trkpt>
      <trkpt lat="43.65608" lon="5.26469">
        <ele>206.372009</ele>
        <time>2022-04-28T07:20:41Z</time>
      </trkpt>
      <trkpt lat="43.65609" lon="5.26469">
        <ele>206.42366</ele>
        <time>2022-04-28T07:20:42Z</time>
      </trkpt>
      <trkpt lat="43.65612" lon="5.2647">
        <ele>206.459717</ele>
        <time>2022-04-28T07:20:43Z</time>
      </trkpt>
      <trkpt lat="43.65615" lon="5.26471">
        <ele>206.499634</ele>
        <time>2022-04-28T07:20:44Z</time>
      </trkpt>
      <trkpt lat="43.65618" lon="5.26473">
        <ele>206.57515</ele>
        <time>2022-04-28T07:20:45Z</time>
      </trkpt>
      <trkpt lat="43.65654" lon="5.26493">
        <ele>207.73378</ele>
        <time>2022-04-28T07:20:57Z</time>
      </trkpt>
      <trkpt lat="43.65702" lon="5.26522">
        <ele>208.214874</ele>
        <time>2022-04-28T07:21:09Z</time>
      </trkpt>
      <trkpt lat="43.65744" lon="5.26546">
        <ele>209.339981</ele>
        <time>2022-04-28T07:21:21Z</time>
      </trkpt>
      <trkpt lat="43.65768" lon="5.26554">
        <ele>210.16185</ele>
        <time>2022-04-28T07:21:29Z</time>
      </trkpt>
      <trkpt lat="43.65813" lon="5.26563">
        <ele>212.085281</ele>
        <time>2022-04-28T07:21:43Z</time>
      </trkpt>
      <trkpt lat="43.65855" lon="5.26578">
        <ele>213.036514</ele>
        <time>2022-04-28T07:21:55Z</time>
      </trkpt>
      <trkpt lat="43.65928" lon="5.26618">
        <ele>215.469177</ele>
        <time>2022-04-28T07:22:14Z</time>
      </trkpt>
      <trkpt lat="43.6598" lon="5.26655">
        <ele>218.865707</ele>
        <time>2022-04-28T07:22:29Z</time>
      </trkpt>
      <trkpt lat="43.66017" lon="5.26697">
        <ele>219.938019</ele>
        <time>2022-04-28T07:22:42Z</time>
      </trkpt>
      <trkpt lat="43.66061" lon="5.26772">
        <ele>222.666946</ele>
        <time>2022-04-28T07:23:00Z</time>
      </trkpt>
      <trkpt lat="43.66092" lon="5.26825">
        <ele>224.224609</ele>
        <time>2022-04-28T07:23:13Z</time>
      </trkpt>
      <trkpt lat="43.6612" lon="5.26895">
        <ele>226.099915</ele>
        <time>2022-04-28T07:23:28Z</time>
      </trkpt>
      <trkpt lat="43.66132" lon="5.26931">
        <ele>227.526352</ele>
        <time>2022-04-28T07:23:36Z</time>
      </trkpt>
      <trkpt lat="43.66132" lon="5.26935">
        <ele>227.636078</ele>
        <time>2022-04-28T07:23:37Z</time>
      </trkpt>
      <trkpt lat="43.66133" lon="5.26938">
        <ele>227.742233</ele>
        <time>2022-04-28T07:23:38Z</time>
      </trkpt>
      <trkpt lat="43.66134" lon="5.26942">
        <ele>227.875519</ele>
        <time>2022-04-28T07:23:39Z</time>
      </trkpt>
      <trkpt lat="43.66135" lon="5.26946">
        <ele>228.035049</ele>
        <time>2022-04-28T07:23:40Z</time>
      </trkpt>
      <trkpt lat="43.66174" lon="5.27013">
        <ele>230.898438</ele>
        <time>2022-04-28T07:23:57Z</time>
      </trkpt>
      <trkpt lat="43.66228" lon="5.27076">
        <ele>233.345963</ele>
        <time>2022-04-28T07:24:16Z</time>
      </trkpt>
      <trkpt lat="43.66262" lon="5.27113">
        <ele>234.689865</ele>
        <time>2022-04-28T07:24:29Z</time>
      </trkpt>
      <trkpt lat="43.66323" lon="5.27175">
        <ele>238.056168</ele>
        <time>2022-04-28T07:24:52Z</time>
      </trkpt>
      <trkpt lat="43.66358" lon="5.27229">
        <ele>240.752258</ele>
        <time>2022-04-28T07:25:09Z</time>
      </trkpt>
      <trkpt lat="43.66406" lon="5.27264">
        <ele>243.464676</ele>
        <time>2022-04-28T07:25:27Z</time>
      </trkpt>
      <trkpt lat="43.66425" lon="5.27268">
        <ele>244.395157</ele>
        <time>2022-04-28T07:25:34Z</time>
      </trkpt>
      <trkpt lat="43.66427" lon="5.2727">
        <ele>244.492584</ele>
        <time>2022-04-28T07:25:35Z</time>
      </trkpt>
      <trkpt lat="43.66428" lon="5.27273">
        <ele>244.577667</ele>
        <time>2022-04-28T07:25:36Z</time>
      </trkpt>
      <trkpt lat="43.66429" lon="5.2729">
        <ele>244.700607</ele>
        <time>2022-04-28T07:25:40Z</time>
      </trkpt>
      <trkpt lat="43.66429" lon="5.27384">
        <ele>245.554947</ele>
        <time>2022-04-28T07:26:00Z</time>
      </trkpt>
      <trkpt lat="43.66427" lon="5.27429">
        <ele>245.777649</ele>
        <time>2022-04-28T07:26:10Z</time>
      </trkpt>
      <trkpt lat="43.66447" lon="5.27432">
        <ele>246.719894</ele>
        <time>2022-04-28T07:26:18Z</time>
      </trkpt>
      <trkpt lat="43.66481" lon="5.27424">
        <ele>248.123932</ele>
        <time>2022-04-28T07:26:29Z</time>
      </trkpt>
      <trkpt lat="43.66491" lon="5.27422">
        <ele>248.507553</ele>
        <time>2022-04-28T07:26:32Z</time>
      </trkpt>
      <trkpt lat="43.66507" lon="5.27434">
        <ele>249.659363</ele>
        <time>2022-04-28T07:26:39Z</time>
      </trkpt>
      <trkpt lat="43.66511" lon="5.27454">
        <ele>250.551849</ele>
        <time>2022-04-28T07:26:46Z</time>
      </trkpt>
      <trkpt lat="43.66531" lon="5.27511">
        <ele>254.193573</ele>
        <time>2022-04-28T07:27:01Z</time>
      </trkpt>
      <trkpt lat="43.66532" lon="5.27515">
        <ele>254.442245</ele>
        <time>2022-04-28T07:27:02Z</time>
      </trkpt>
      <trkpt lat="43.66536" lon="5.2753">
        <ele>255.431702</ele>
        <time>2022-04-28T07:27:09Z</time>
      </trkpt>
      <trkpt lat="43.66541" lon="5.27537">
        <ele>256.136658</ele>
        <time>2022-04-28T07:27:20Z</time>
      </trkpt>
      <trkpt lat="43.66546" lon="5.27547">
        <ele>257.074677</ele>
        <time>2022-04-28T07:27:34Z</time>
      </trkpt>
      <trkpt lat="43.66547" lon="5.27548">
        <ele>257.207123</ele>
        <time>2022-04-28T07:27:54Z</time>
      </trkpt>
      <trkpt lat="43.66549" lon="5.27549">
        <ele>257.356232</ele>
        <time>2022-04-28T07:28:20Z</time>
      </trkpt>
      <trkpt lat="43.66549" lon="5.27549">
        <ele>257.391693</ele>
        <time>2022-04-28T07:28:43Z</time>
      </trkpt>
      <trkpt lat="43.66547" lon="5.27551">
        <ele>257.243225</ele>
        <time>2022-04-28T07:29:02Z</time>
      </trkpt>
      <trkpt lat="43.66548" lon="5.2755">
        <ele>257.342651</ele>
        <time>2022-04-28T07:29:31Z</time>
      </trkpt>
      <trkpt lat="43.66549" lon="5.2755">
        <ele>257.416229</ele>
        <time>2022-04-28T07:29:50Z</time>
      </trkpt>
      <trkpt lat="43.66549" lon="5.27549">
        <ele>257.396484</ele>
        <time>2022-04-28T07:30:08Z</time>
      </trkpt>
      <trkpt lat="43.66548" lon="5.2755">
        <ele>257.342926</ele>
        <time>2022-04-28T07:30:33Z</time>
      </trkpt>
      <trkpt lat="43.66551" lon="5.2755">
        <ele>257.60553</ele>
        <time>2022-04-28T07:30:56Z</time>
      </trkpt>
      <trkpt lat="43.66554" lon="5.27549">
        <ele>257.767395</ele>
        <time>2022-04-28T07:31:27Z</time>
      </trkpt>
      <trkpt lat="43.6655" lon="5.27551">
        <ele>257.497162</ele>
        <time>2022-04-28T07:31:55Z</time>
      </trkpt>
      <trkpt lat="43.66551" lon="5.27548">
        <ele>257.469391</ele>
        <time>2022-04-28T07:32:26Z</time>
      </trkpt>
      <trkpt lat="43.66549" lon="5.27547">
        <ele>257.347961</ele>
        <time>2022-04-28T07:32:55Z</time>
      </trkpt>
      <trkpt lat="43.6655" lon="5.27546">
        <ele>257.364716</ele>
        <time>2022-04-28T07:33:25Z</time>
      </trkpt>
      <trkpt lat="43.6655" lon="5.27551">
        <ele>257.534973</ele>
        <time>2022-04-28T07:33:48Z</time>
      </trkpt>
      <trkpt lat="43.66555" lon="5.27588">
        <ele>259.085754</ele>
        <time>2022-04-28T07:34:02Z</time>
      </trkpt>
      <trkpt lat="43.66558" lon="5.27595">
        <ele>259.521362</ele>
        <time>2022-04-28T07:34:05Z</time>
      </trkpt>
      <trkpt lat="43.66572" lon="5.27615">
        <ele>260.908966</ele>
        <time>2022-04-28T07:34:13Z</time>
      </trkpt>
      <trkpt lat="43.66602" lon="5.27628">
        <ele>263.122955</ele>
        <time>2022-04-28T07:34:26Z</time>
      </trkpt>
      <trkpt lat="43.66604" lon="5.27629">
        <ele>263.306305</ele>
        <time>2022-04-28T07:34:27Z</time>
      </trkpt>
      <trkpt lat="43.66614" lon="5.27627">
        <ele>263.922028</ele>
        <time>2022-04-28T07:34:31Z</time>
      </trkpt>
      <trkpt lat="43.66644" lon="5.2762">
        <ele>265.743225</ele>
        <time>2022-04-28T07:34:44Z</time>
      </trkpt>
      <trkpt lat="43.6667" lon="5.27605">
        <ele>267.187866</ele>
        <time>2022-04-28T07:34:55Z</time>
      </trkpt>
      <trkpt lat="43.6669" lon="5.2759">
        <ele>268.080658</ele>
        <time>2022-04-28T07:35:04Z</time>
      </trkpt>
      <trkpt lat="43.66714" lon="5.27608">
        <ele>269.391754</ele>
        <time>2022-04-28T07:35:14Z</time>
      </trkpt>
      <trkpt lat="43.66716" lon="5.27607">
        <ele>269.48349</ele>
        <time>2022-04-28T07:35:15Z</time>
      </trkpt>
      <trkpt lat="43.66741" lon="5.27591">
        <ele>269.815582</ele>
        <time>2022-04-28T07:35:26Z</time>
      </trkpt>
      <trkpt lat="43.66772" lon="5.27576">
        <ele>269.657349</ele>
        <time>2022-04-28T07:35:37Z</time>
      </trkpt>
      <trkpt lat="43.66775" lon="5.27578">
        <ele>269.675964</ele>
        <time>2022-04-28T07:35:38Z</time>
      </trkpt>
      <trkpt lat="43.66777" lon="5.27581">
        <ele>269.742554</ele>
        <time>2022-04-28T07:35:39Z</time>
      </trkpt>
      <trkpt lat="43.66778" lon="5.27584">
        <ele>269.851654</ele>
        <time>2022-04-28T07:35:40Z</time>
      </trkpt>
      <trkpt lat="43.66778" lon="5.27588">
        <ele>269.977478</ele>
        <time>2022-04-28T07:35:41Z</time>
      </trkpt>
      <trkpt lat="43.66778" lon="5.27592">
        <ele>270.117523</ele>
        <time>2022-04-28T07:35:42Z</time>
      </trkpt>
      <trkpt lat="43.66779" lon="5.27599">
        <ele>270.363953</ele>
        <time>2022-04-28T07:35:44Z</time>
      </trkpt>
      <trkpt lat="43.66781" lon="5.27602">
        <ele>270.426239</ele>
        <time>2022-04-28T07:35:45Z</time>
      </trkpt>
      <trkpt lat="43.66834" lon="5.27618">
        <ele>271.756592</ele>
        <time>2022-04-28T07:36:01Z</time>
      </trkpt>
      <trkpt lat="43.66871" lon="5.27629">
        <ele>273.813049</ele>
        <time>2022-04-28T07:36:14Z</time>
      </trkpt>
      <trkpt lat="43.66886" lon="5.27645">
        <ele>275.047211</ele>
        <time>2022-04-28T07:36:21Z</time>
      </trkpt>
      <trkpt lat="43.66894" lon="5.27633">
        <ele>275.417175</ele>
        <time>2022-04-28T07:36:27Z</time>
      </trkpt>
      <trkpt lat="43.66894" lon="5.27623">
        <ele>275.281616</ele>
        <time>2022-04-28T07:36:30Z</time>
      </trkpt>
      <trkpt lat="43.66925" lon="5.27626">
        <ele>276.959045</ele>
        <time>2022-04-28T07:36:42Z</time>
      </trkpt>
      <trkpt lat="43.6695" lon="5.2764">
        <ele>278.463104</ele>
        <time>2022-04-28T07:36:52Z</time>
      </trkpt>
      <trkpt lat="43.66969" lon="5.27645">
        <ele>279.247772</ele>
        <time>2022-04-28T07:36:59Z</time>
      </trkpt>
      <trkpt lat="43.66974" lon="5.27652">
        <ele>279.790253</ele>
        <time>2022-04-28T07:37:02Z</time>
      </trkpt>
      <trkpt lat="43.66975" lon="5.27656">
        <ele>280.029022</ele>
        <time>2022-04-28T07:37:03Z</time>
      </trkpt>
      <trkpt lat="43.66976" lon="5.2766">
        <ele>280.273529</ele>
        <time>2022-04-28T07:37:04Z</time>
      </trkpt>
      <trkpt lat="43.66977" lon="5.27664">
        <ele>280.525848</ele>
        <time>2022-04-28T07:37:05Z</time>
      </trkpt>
      <trkpt lat="43.66985" lon="5.27695">
        <ele>282.63324</ele>
        <time>2022-04-28T07:37:13Z</time>
      </trkpt>
      <trkpt lat="43.66987" lon="5.27719">
        <ele>283.498535</ele>
        <time>2022-04-28T07:37:19Z</time>
      </trkpt>
      <trkpt lat="43.66989" lon="5.27722">
        <ele>283.752411</ele>
        <time>2022-04-28T07:37:20Z</time>
      </trkpt>
      <trkpt lat="43.66991" lon="5.27724">
        <ele>284.035583</ele>
        <time>2022-04-28T07:37:21Z</time>
      </trkpt>
      <trkpt lat="43.66994" lon="5.27726">
        <ele>284.260101</ele>
        <time>2022-04-28T07:37:22Z</time>
      </trkpt>
      <trkpt lat="43.67006" lon="5.27725">
        <ele>284.909943</ele>
        <time>2022-04-28T07:37:26Z</time>
      </trkpt>
      <trkpt lat="43.6705" lon="5.27715">
        <ele>286.509644</ele>
        <time>2022-04-28T07:37:39Z</time>
      </trkpt>
      <trkpt lat="43.67057" lon="5.27709">
        <ele>286.538666</ele>
        <time>2022-04-28T07:37:49Z</time>
      </trkpt>
      <trkpt lat="43.67054" lon="5.27713">
        <ele>286.581299</ele>
        <time>2022-04-28T07:37:58Z</time>
      </trkpt>
      <trkpt lat="43.67051" lon="5.27722">
        <ele>286.865814</ele>
        <time>2022-04-28T07:38:02Z</time>
      </trkpt>
      <trkpt lat="43.67039" lon="5.27756">
        <ele>288.111298</ele>
        <time>2022-04-28T07:38:13Z</time>
      </trkpt>
      <trkpt lat="43.67034" lon="5.27773">
        <ele>288.49939</ele>
        <time>2022-04-28T07:38:18Z</time>
      </trkpt>
      <trkpt lat="43.67027" lon="5.27795">
        <ele>288.732605</ele>
        <time>2022-04-28T07:38:24Z</time>
      </trkpt>
      <trkpt lat="43.67034" lon="5.27809">
        <ele>289.706299</ele>
        <time>2022-04-28T07:38:28Z</time>
      </trkpt>
      <trkpt lat="43.67041" lon="5.27816">
        <ele>290.273956</ele>
        <time>2022-04-28T07:38:32Z</time>
      </trkpt>
      <trkpt lat="43.67065" lon="5.27833">
        <ele>291.22403</ele>
        <time>2022-04-28T07:38:43Z</time>
      </trkpt>
      <trkpt lat="43.67102" lon="5.27855">
        <ele>292.788177</ele>
        <time>2022-04-28T07:38:56Z</time>
      </trkpt>
      <trkpt lat="43.67112" lon="5.27861">
        <ele>293.324158</ele>
        <time>2022-04-28T07:39:00Z</time>
      </trkpt>
      <trkpt lat="43.67118" lon="5.27859">
        <ele>293.718628</ele>
        <time>2022-04-28T07:39:03Z</time>
      </trkpt>
      <trkpt lat="43.67146" lon="5.27855">
        <ele>294.783875</ele>
        <time>2022-04-28T07:39:13Z</time>
      </trkpt>
      <trkpt lat="43.67187" lon="5.27864">
        <ele>295.944275</ele>
        <time>2022-04-28T07:39:25Z</time>
      </trkpt>
      <trkpt lat="43.67211" lon="5.27881">
        <ele>296.098938</ele>
        <time>2022-04-28T07:39:33Z</time>
      </trkpt>
      <trkpt lat="43.67246" lon="5.27889">
        <ele>299.731903</ele>
        <time>2022-04-28T07:39:44Z</time>
      </trkpt>
      <trkpt lat="43.67277" lon="5.27911">
        <ele>301.536835</ele>
        <time>2022-04-28T07:39:55Z</time>
      </trkpt>
      <trkpt lat="43.67319" lon="5.27917">
        <ele>305.185944</ele>
        <time>2022-04-28T07:40:09Z</time>
      </trkpt>
      <trkpt lat="43.67347" lon="5.27905">
        <ele>307.470306</ele>
        <time>2022-04-28T07:40:20Z</time>
      </trkpt>
      <trkpt lat="43.67376" lon="5.27881">
        <ele>306.008636</ele>
        <time>2022-04-28T07:40:32Z</time>
      </trkpt>
      <trkpt lat="43.67386" lon="5.27863">
        <ele>304.716705</ele>
        <time>2022-04-28T07:40:36Z</time>
      </trkpt>
      <trkpt lat="43.67397" lon="5.27844">
        <ele>303.290833</ele>
        <time>2022-04-28T07:40:40Z</time>
      </trkpt>
      <trkpt lat="43.67405" lon="5.27833">
        <ele>302.344086</ele>
        <time>2022-04-28T07:40:43Z</time>
      </trkpt>
      <trkpt lat="43.67405" lon="5.27829">
        <ele>302.071899</ele>
        <time>2022-04-28T07:40:44Z</time>
      </trkpt>
      <trkpt lat="43.67406" lon="5.27826">
        <ele>301.794556</ele>
        <time>2022-04-28T07:40:45Z</time>
      </trkpt>
      <trkpt lat="43.67408" lon="5.27822">
        <ele>301.519623</ele>
        <time>2022-04-28T07:40:46Z</time>
      </trkpt>
      <trkpt lat="43.6741" lon="5.27821">
        <ele>301.32135</ele>
        <time>2022-04-28T07:40:47Z</time>
      </trkpt>
      <trkpt lat="43.67413" lon="5.27821">
        <ele>301.244202</ele>
        <time>2022-04-28T07:40:48Z</time>
      </trkpt>
      <trkpt lat="43.67416" lon="5.27822">
        <ele>301.208588</ele>
        <time>2022-04-28T07:40:49Z</time>
      </trkpt>
      <trkpt lat="43.6745" lon="5.27838">
        <ele>301.496338</ele>
        <time>2022-04-28T07:41:00Z</time>
      </trkpt>
      <trkpt lat="43.67478" lon="5.27856">
        <ele>303.882416</ele>
        <time>2022-04-28T07:41:14Z</time>
      </trkpt>
      <trkpt lat="43.67514" lon="5.27884">
        <ele>307.176392</ele>
        <time>2022-04-28T07:41:31Z</time>
      </trkpt>
      <trkpt lat="43.67549" lon="5.27921">
        <ele>309.75119</ele>
        <time>2022-04-28T07:41:48Z</time>
      </trkpt>
      <trkpt lat="43.67581" lon="5.27971">
        <ele>309.884399</ele>
        <time>2022-04-28T07:42:05Z</time>
      </trkpt>
      <trkpt lat="43.67601" lon="5.28024">
        <ele>308.431091</ele>
        <time>2022-04-28T07:42:17Z</time>
      </trkpt>
      <trkpt lat="43.67622" lon="5.28062">
        <ele>307.896118</ele>
        <time>2022-04-28T07:42:27Z</time>
      </trkpt>
      <trkpt lat="43.67652" lon="5.28115">
        <ele>308.371765</ele>
        <time>2022-04-28T07:42:40Z</time>
      </trkpt>
      <trkpt lat="43.67666" lon="5.28145">
        <ele>309.188873</ele>
        <time>2022-04-28T07:42:47Z</time>
      </trkpt>
      <trkpt lat="43.67691" lon="5.2822">
        <ele>310.609924</ele>
        <time>2022-04-28T07:43:01Z</time>
      </trkpt>
      <trkpt lat="43.67707" lon="5.28304">
        <ele>312.708679</ele>
        <time>2022-04-28T07:43:17Z</time>
      </trkpt>
      <trkpt lat="43.67712" lon="5.28345">
        <ele>312.559113</ele>
        <time>2022-04-28T07:43:25Z</time>
      </trkpt>
      <trkpt lat="43.67713" lon="5.28357">
        <ele>312.221466</ele>
        <time>2022-04-28T07:43:27Z</time>
      </trkpt>
      <trkpt lat="43.6772" lon="5.28449">
        <ele>310.575531</ele>
        <time>2022-04-28T07:43:42Z</time>
      </trkpt>
      <trkpt lat="43.67727" lon="5.28483">
        <ele>310.51947</ele>
        <time>2022-04-28T07:43:48Z</time>
      </trkpt>
      <trkpt lat="43.67733" lon="5.28498">
        <ele>310.540924</ele>
        <time>2022-04-28T07:43:51Z</time>
      </trkpt>
      <trkpt lat="43.67786" lon="5.28567">
        <ele>310.546112</ele>
        <time>2022-04-28T07:44:08Z</time>
      </trkpt>
      <trkpt lat="43.67788" lon="5.28572">
        <ele>310.553741</ele>
        <time>2022-04-28T07:44:09Z</time>
      </trkpt>
      <trkpt lat="43.6779" lon="5.28577">
        <ele>310.52951</ele>
        <time>2022-04-28T07:44:10Z</time>
      </trkpt>
      <trkpt lat="43.67808" lon="5.28651">
        <ele>311.118744</ele>
        <time>2022-04-28T07:44:24Z</time>
      </trkpt>
      <trkpt lat="43.67809" lon="5.28657">
        <ele>311.177856</ele>
        <time>2022-04-28T07:44:25Z</time>
      </trkpt>
      <trkpt lat="43.67813" lon="5.28698">
        <ele>312.694519</ele>
        <time>2022-04-28T07:44:32Z</time>
      </trkpt>
      <trkpt lat="43.67804" lon="5.28785">
        <ele>314.759796</ele>
        <time>2022-04-28T07:44:48Z</time>
      </trkpt>
      <trkpt lat="43.67797" lon="5.28847">
        <ele>315.292389</ele>
        <time>2022-04-28T07:45:02Z</time>
      </trkpt>
      <trkpt lat="43.67797" lon="5.2885">
        <ele>315.415009</ele>
        <time>2022-04-28T07:45:03Z</time>
      </trkpt>
      <trkpt lat="43.67799" lon="5.28852">
        <ele>315.606537</ele>
        <time>2022-04-28T07:45:04Z</time>
      </trkpt>
      <trkpt lat="43.67801" lon="5.28853">
        <ele>315.830444</ele>
        <time>2022-04-28T07:45:05Z</time>
      </trkpt>
      <trkpt lat="43.67804" lon="5.28854">
        <ele>316.100586</ele>
        <time>2022-04-28T07:45:06Z</time>
      </trkpt>
      <trkpt lat="43.67807" lon="5.28855">
        <ele>316.372772</ele>
        <time>2022-04-28T07:45:07Z</time>
      </trkpt>
      <trkpt lat="43.6781" lon="5.28857">
        <ele>316.648804</ele>
        <time>2022-04-28T07:45:08Z</time>
      </trkpt>
      <trkpt lat="43.67816" lon="5.28861">
        <ele>317.243103</ele>
        <time>2022-04-28T07:45:15Z</time>
      </trkpt>
      <trkpt lat="43.67818" lon="5.28862">
        <ele>317.404205</ele>
        <time>2022-04-28T07:45:17Z</time>
      </trkpt>
      <trkpt lat="43.67819" lon="5.28864">
        <ele>317.529449</ele>
        <time>2022-04-28T07:45:18Z</time>
      </trkpt>
      <trkpt lat="43.67821" lon="5.28867">
        <ele>317.704407</ele>
        <time>2022-04-28T07:45:19Z</time>
      </trkpt>
      <trkpt lat="43.67833" lon="5.28898">
        <ele>319.027405</ele>
        <time>2022-04-28T07:45:29Z</time>
      </trkpt>
      <trkpt lat="43.67834" lon="5.28911">
        <ele>319.315857</ele>
        <time>2022-04-28T07:45:32Z</time>
      </trkpt>
      <trkpt lat="43.67837" lon="5.28914">
        <ele>319.484985</ele>
        <time>2022-04-28T07:45:33Z</time>
      </trkpt>
      <trkpt lat="43.6784" lon="5.28915">
        <ele>319.679901</ele>
        <time>2022-04-28T07:45:34Z</time>
      </trkpt>
      <trkpt lat="43.67843" lon="5.28914">
        <ele>319.899719</ele>
        <time>2022-04-28T07:45:35Z</time>
      </trkpt>
      <trkpt lat="43.67846" lon="5.28913">
        <ele>320.145966</ele>
        <time>2022-04-28T07:45:36Z</time>
      </trkpt>
      <trkpt lat="43.6785" lon="5.28912">
        <ele>320.406616</ele>
        <time>2022-04-28T07:45:37Z</time>
      </trkpt>
      <trkpt lat="43.67899" lon="5.28898">
        <ele>323.401764</ele>
        <time>2022-04-28T07:45:51Z</time>
      </trkpt>
      <trkpt lat="43.67958" lon="5.28888">
        <ele>326.742889</ele>
        <time>2022-04-28T07:46:08Z</time>
      </trkpt>
      <trkpt lat="43.68002" lon="5.28862">
        <ele>330.468903</ele>
        <time>2022-04-28T07:46:22Z</time>
      </trkpt>
      <trkpt lat="43.68044" lon="5.28848">
        <ele>332.933075</ele>
        <time>2022-04-28T07:46:34Z</time>
      </trkpt>
      <trkpt lat="43.6807" lon="5.28855">
        <ele>335.475616</ele>
        <time>2022-04-28T07:46:42Z</time>
      </trkpt>
      <trkpt lat="43.6811" lon="5.28883">
        <ele>338.373413</ele>
        <time>2022-04-28T07:46:56Z</time>
      </trkpt>
      <trkpt lat="43.68157" lon="5.28908">
        <ele>341.652985</ele>
        <time>2022-04-28T07:47:11Z</time>
      </trkpt>
      <trkpt lat="43.68186" lon="5.28959">
        <ele>344.481354</ele>
        <time>2022-04-28T07:47:25Z</time>
      </trkpt>
      <trkpt lat="43.68206" lon="5.29003">
        <ele>346.630188</ele>
        <time>2022-04-28T07:47:37Z</time>
      </trkpt>
      <trkpt lat="43.68215" lon="5.29067">
        <ele>346.634674</ele>
        <time>2022-04-28T07:47:50Z</time>
      </trkpt>
      <trkpt lat="43.68219" lon="5.29081">
        <ele>347.003052</ele>
        <time>2022-04-28T07:47:53Z</time>
      </trkpt>
      <trkpt lat="43.68222" lon="5.29086">
        <ele>347.294861</ele>
        <time>2022-04-28T07:47:54Z</time>
      </trkpt>
      <trkpt lat="43.68225" lon="5.2909">
        <ele>347.601471</ele>
        <time>2022-04-28T07:47:55Z</time>
      </trkpt>
      <trkpt lat="43.68238" lon="5.29117">
        <ele>348.358124</ele>
        <time>2022-04-28T07:48:02Z</time>
      </trkpt>
      <trkpt lat="43.68247" lon="5.29176">
        <ele>347.711456</ele>
        <time>2022-04-28T07:48:15Z</time>
      </trkpt>
      <trkpt lat="43.6825" lon="5.29178">
        <ele>347.82193</ele>
        <time>2022-04-28T07:48:16Z</time>
      </trkpt>
      <trkpt lat="43.68276" lon="5.29194">
        <ele>350.798981</ele>
        <time>2022-04-28T07:48:25Z</time>
      </trkpt>
      <trkpt lat="43.68283" lon="5.29271">
        <ele>348.756317</ele>
        <time>2022-04-28T07:48:40Z</time>
      </trkpt>
      <trkpt lat="43.68296" lon="5.29275">
        <ele>350.187134</ele>
        <time>2022-04-28T07:48:44Z</time>
      </trkpt>
      <trkpt lat="43.68303" lon="5.29294">
        <ele>350.044189</ele>
        <time>2022-04-28T07:48:49Z</time>
      </trkpt>
      <trkpt lat="43.68321" lon="5.2935">
        <ele>352.166382</ele>
        <time>2022-04-28T07:49:01Z</time>
      </trkpt>
      <trkpt lat="43.68333" lon="5.29416">
        <ele>356.082825</ele>
        <time>2022-04-28T07:49:15Z</time>
      </trkpt>
      <trkpt lat="43.68345" lon="5.29478">
        <ele>357.69223</ele>
        <time>2022-04-28T07:49:29Z</time>
      </trkpt>
      <trkpt lat="43.68352" lon="5.29529">
        <ele>356.046143</ele>
        <time>2022-04-28T07:49:40Z</time>
      </trkpt>
      <trkpt lat="43.68365" lon="5.29537">
        <ele>356.815613</ele>
        <time>2022-04-28T07:49:45Z</time>
      </trkpt>
      <trkpt lat="43.68364" lon="5.29559">
        <ele>354.838501</ele>
        <time>2022-04-28T07:49:53Z</time>
      </trkpt>
      <trkpt lat="43.68366" lon="5.29588">
        <ele>353.480438</ele>
        <time>2022-04-28T07:50:00Z</time>
      </trkpt>
      <trkpt lat="43.68375" lon="5.29633">
        <ele>353.414673</ele>
        <time>2022-04-28T07:50:10Z</time>
      </trkpt>
      <trkpt lat="43.68383" lon="5.29642">
        <ele>355.037018</ele>
        <time>2022-04-28T07:50:14Z</time>
      </trkpt>
      <trkpt lat="43.68387" lon="5.29677">
        <ele>355.140442</ele>
        <time>2022-04-28T07:50:23Z</time>
      </trkpt>
      <trkpt lat="43.68387" lon="5.29698">
        <ele>354.129425</ele>
        <time>2022-04-28T07:50:28Z</time>
      </trkpt>
      <trkpt lat="43.68409" lon="5.29768">
        <ele>358.464691</ele>
        <time>2022-04-28T07:50:43Z</time>
      </trkpt>
      <trkpt lat="43.68414" lon="5.2978">
        <ele>359.295532</ele>
        <time>2022-04-28T07:50:46Z</time>
      </trkpt>
      <trkpt lat="43.68414" lon="5.29799">
        <ele>358.751373</ele>
        <time>2022-04-28T07:50:50Z</time>
      </trkpt>
      <trkpt lat="43.68423" lon="5.29865">
        <ele>359.545898</ele>
        <time>2022-04-28T07:51:03Z</time>
      </trkpt>
      <trkpt lat="43.68427" lon="5.29888">
        <ele>358.964478</ele>
        <time>2022-04-28T07:51:07Z</time>
      </trkpt>
      <trkpt lat="43.68427" lon="5.29923">
        <ele>355.576935</ele>
        <time>2022-04-28T07:51:13Z</time>
      </trkpt>
      <trkpt lat="43.68413" lon="5.2993">
        <ele>351.399353</ele>
        <time>2022-04-28T07:51:16Z</time>
      </trkpt>
      <trkpt lat="43.6841" lon="5.2993">
        <ele>351.359161</ele>
        <time>2022-04-28T07:51:17Z</time>
      </trkpt>
      <trkpt lat="43.6839" lon="5.29936">
        <ele>350.911957</ele>
        <time>2022-04-28T07:51:21Z</time>
      </trkpt>
      <trkpt lat="43.68385" lon="5.29936">
        <ele>350.932465</ele>
        <time>2022-04-28T07:51:22Z</time>
      </trkpt>
      <trkpt lat="43.68381" lon="5.29936">
        <ele>350.982788</ele>
        <time>2022-04-28T07:51:23Z</time>
      </trkpt>
      <trkpt lat="43.68378" lon="5.29937">
        <ele>350.954315</ele>
        <time>2022-04-28T07:51:24Z</time>
      </trkpt>
      <trkpt lat="43.68375" lon="5.29939">
        <ele>350.743347</ele>
        <time>2022-04-28T07:51:25Z</time>
      </trkpt>
      <trkpt lat="43.68374" lon="5.29942">
        <ele>350.332489</ele>
        <time>2022-04-28T07:51:26Z</time>
      </trkpt>
      <trkpt lat="43.68374" lon="5.29945">
        <ele>349.862946</ele>
        <time>2022-04-28T07:51:27Z</time>
      </trkpt>
      <trkpt lat="43.68376" lon="5.29947">
        <ele>349.504303</ele>
        <time>2022-04-28T07:51:28Z</time>
      </trkpt>
      <trkpt lat="43.68378" lon="5.29949">
        <ele>349.203247</ele>
        <time>2022-04-28T07:51:29Z</time>
      </trkpt>
      <trkpt lat="43.6838" lon="5.2995">
        <ele>348.976471</ele>
        <time>2022-04-28T07:51:30Z</time>
      </trkpt>
      <trkpt lat="43.68384" lon="5.29951">
        <ele>348.855194</ele>
        <time>2022-04-28T07:51:31Z</time>
      </trkpt>
      <trkpt lat="43.68388" lon="5.2995">
        <ele>348.86969</ele>
        <time>2022-04-28T07:51:32Z</time>
      </trkpt>
      <trkpt lat="43.68392" lon="5.29949">
        <ele>348.9711</ele>
        <time>2022-04-28T07:51:33Z</time>
      </trkpt>
      <trkpt lat="43.68402" lon="5.2995">
        <ele>348.680878</ele>
        <time>2022-04-28T07:51:36Z</time>
      </trkpt>
      <trkpt lat="43.68403" lon="5.29953">
        <ele>348.173004</ele>
        <time>2022-04-28T07:51:37Z</time>
      </trkpt>
      <trkpt lat="43.68404" lon="5.29965">
        <ele>346.473633</ele>
        <time>2022-04-28T07:51:39Z</time>
      </trkpt>
      <trkpt lat="43.68406" lon="5.29972">
        <ele>345.373199</ele>
        <time>2022-04-28T07:51:40Z</time>
      </trkpt>
      <trkpt lat="43.68409" lon="5.29979">
        <ele>344.333832</ele>
        <time>2022-04-28T07:51:41Z</time>
      </trkpt>
      <trkpt lat="43.68417" lon="5.29991">
        <ele>343.452728</ele>
        <time>2022-04-28T07:51:43Z</time>
      </trkpt>
      <trkpt lat="43.6842" lon="5.29997">
        <ele>343.846222</ele>
        <time>2022-04-28T07:51:44Z</time>
      </trkpt>
      <trkpt lat="43.68471" lon="5.30101">
        <ele>343.57547</ele>
        <time>2022-04-28T07:52:02Z</time>
      </trkpt>
      <trkpt lat="43.68507" lon="5.30173">
        <ele>341.897095</ele>
        <time>2022-04-28T07:52:18Z</time>
      </trkpt>
      <trkpt lat="43.6853" lon="5.30185">
        <ele>342.281036</ele>
        <time>2022-04-28T07:52:28Z</time>
      </trkpt>
      <trkpt lat="43.68535" lon="5.30185">
        <ele>342.596161</ele>
        <time>2022-04-28T07:52:39Z</time>
      </trkpt>
      <trkpt lat="43.68536" lon="5.30183">
        <ele>342.860992</ele>
        <time>2022-04-28T07:52:58Z</time>
      </trkpt>
      <trkpt lat="43.68537" lon="5.30185">
        <ele>342.799744</ele>
        <time>2022-04-28T07:53:11Z</time>
      </trkpt>
      <trkpt lat="43.68537" lon="5.30185">
        <ele>342.764893</ele>
        <time>2022-04-28T07:53:13Z</time>
      </trkpt>
      <trkpt lat="43.68538" lon="5.30186">
        <ele>342.712952</ele>
        <time>2022-04-28T07:53:14Z</time>
      </trkpt>
      <trkpt lat="43.6854" lon="5.30187">
        <ele>342.756226</ele>
        <time>2022-04-28T07:53:15Z</time>
      </trkpt>
      <trkpt lat="43.68542" lon="5.30189">
        <ele>342.91153</ele>
        <time>2022-04-28T07:53:16Z</time>
      </trkpt>
      <trkpt lat="43.68543" lon="5.3019">
        <ele>343.073029</ele>
        <time>2022-04-28T07:53:17Z</time>
      </trkpt>
      <trkpt lat="43.68545" lon="5.30192">
        <ele>343.338654</ele>
        <time>2022-04-28T07:53:18Z</time>
      </trkpt>
      <trkpt lat="43.68546" lon="5.30193">
        <ele>343.630035</ele>
        <time>2022-04-28T07:53:19Z</time>
      </trkpt>
      <trkpt lat="43.68548" lon="5.30194">
        <ele>343.891113</ele>
        <time>2022-04-28T07:53:20Z</time>
      </trkpt>
      <trkpt lat="43.68549" lon="5.30195">
        <ele>344.15097</ele>
        <time>2022-04-28T07:53:21Z</time>
      </trkpt>
      <trkpt lat="43.68551" lon="5.30197">
        <ele>344.380554</ele>
        <time>2022-04-28T07:53:22Z</time>
      </trkpt>
      <trkpt lat="43.68551" lon="5.30198">
        <ele>344.568695</ele>
        <time>2022-04-28T07:53:23Z</time>
      </trkpt>
      <trkpt lat="43.68556" lon="5.30201">
        <ele>345.385925</ele>
        <time>2022-04-28T07:53:33Z</time>
      </trkpt>
      <trkpt lat="43.68564" lon="5.30205">
        <ele>346.596863</ele>
        <time>2022-04-28T07:53:45Z</time>
      </trkpt>
      <trkpt lat="43.68575" lon="5.30208">
        <ele>348.450623</ele>
        <time>2022-04-28T07:53:59Z</time>
      </trkpt>
      <trkpt lat="43.68584" lon="5.3022">
        <ele>349.920532</ele>
        <time>2022-04-28T07:54:14Z</time>
      </trkpt>
      <trkpt lat="43.68584" lon="5.30222">
        <ele>349.995422</ele>
        <time>2022-04-28T07:54:15Z</time>
      </trkpt>
      <trkpt lat="43.68584" lon="5.30225">
        <ele>350.117584</ele>
        <time>2022-04-28T07:54:16Z</time>
      </trkpt>
      <trkpt lat="43.68592" lon="5.30267">
        <ele>351.729889</ele>
        <time>2022-04-28T07:54:29Z</time>
      </trkpt>
      <trkpt lat="43.68582" lon="5.30306">
        <ele>351.326538</ele>
        <time>2022-04-28T07:54:40Z</time>
      </trkpt>
      <trkpt lat="43.68575" lon="5.30319">
        <ele>349.940918</ele>
        <time>2022-04-28T07:54:43Z</time>
      </trkpt>
      <trkpt lat="43.68565" lon="5.30347">
        <ele>346.942413</ele>
        <time>2022-04-28T07:54:49Z</time>
      </trkpt>
      <trkpt lat="43.68569" lon="5.30386">
        <ele>345.393799</ele>
        <time>2022-04-28T07:54:57Z</time>
      </trkpt>
      <trkpt lat="43.68572" lon="5.30392">
        <ele>345.434906</ele>
        <time>2022-04-28T07:54:58Z</time>
      </trkpt>
      <trkpt lat="43.68583" lon="5.30414">
        <ele>345.257904</ele>
        <time>2022-04-28T07:55:02Z</time>
      </trkpt>
      <trkpt lat="43.68587" lon="5.30418">
        <ele>344.980255</ele>
        <time>2022-04-28T07:55:03Z</time>
      </trkpt>
      <trkpt lat="43.68591" lon="5.30421">
        <ele>344.860443</ele>
        <time>2022-04-28T07:55:04Z</time>
      </trkpt>
      <trkpt lat="43.68593" lon="5.30422">
        <ele>344.836121</ele>
        <time>2022-04-28T07:55:05Z</time>
      </trkpt>
      <trkpt lat="43.68596" lon="5.30422">
        <ele>344.901489</ele>
        <time>2022-04-28T07:55:06Z</time>
      </trkpt>
      <trkpt lat="43.68597" lon="5.30422">
        <ele>344.944397</ele>
        <time>2022-04-28T07:55:07Z</time>
      </trkpt>
      <trkpt lat="43.68599" lon="5.30422">
        <ele>345.023132</ele>
        <time>2022-04-28T07:55:08Z</time>
      </trkpt>
      <trkpt lat="43.68601" lon="5.30421">
        <ele>345.173798</ele>
        <time>2022-04-28T07:55:09Z</time>
      </trkpt>
      <trkpt lat="43.68603" lon="5.30419">
        <ele>345.341614</ele>
        <time>2022-04-28T07:55:10Z</time>
      </trkpt>
      <trkpt lat="43.68606" lon="5.30418">
        <ele>345.492432</ele>
        <time>2022-04-28T07:55:11Z</time>
      </trkpt>
      <trkpt lat="43.68608" lon="5.30417">
        <ele>345.643616</ele>
        <time>2022-04-28T07:55:12Z</time>
      </trkpt>
      <trkpt lat="43.68622" lon="5.30413">
        <ele>346.199951</ele>
        <time>2022-04-28T07:55:17Z</time>
      </trkpt>
      <trkpt lat="43.68662" lon="5.304">
        <ele>348.80896</ele>
        <time>2022-04-28T07:55:31Z</time>
      </trkpt>
      <trkpt lat="43.68684" lon="5.30385">
        <ele>350.832092</ele>
        <time>2022-04-28T07:55:41Z</time>
      </trkpt>
      <trkpt lat="43.6869" lon="5.30383">
        <ele>351.404968</ele>
        <time>2022-04-28T07:55:44Z</time>
      </trkpt>
      <trkpt lat="43.68691" lon="5.30385">
        <ele>351.505371</ele>
        <time>2022-04-28T07:55:45Z</time>
      </trkpt>
      <trkpt lat="43.68691" lon="5.30387">
        <ele>351.495819</ele>
        <time>2022-04-28T07:55:46Z</time>
      </trkpt>
      <trkpt lat="43.68691" lon="5.30391">
        <ele>351.418701</ele>
        <time>2022-04-28T07:55:47Z</time>
      </trkpt>
      <trkpt lat="43.68691" lon="5.30396">
        <ele>351.344177</ele>
        <time>2022-04-28T07:55:48Z</time>
      </trkpt>
      <trkpt lat="43.68691" lon="5.304">
        <ele>351.315033</ele>
        <time>2022-04-28T07:55:49Z</time>
      </trkpt>
      <trkpt lat="43.68692" lon="5.30404">
        <ele>351.307434</ele>
        <time>2022-04-28T07:55:50Z</time>
      </trkpt>
      <trkpt lat="43.68706" lon="5.30476">
        <ele>354.004181</ele>
        <time>2022-04-28T07:56:07Z</time>
      </trkpt>
      <trkpt lat="43.68713" lon="5.30521">
        <ele>357.55957</ele>
        <time>2022-04-28T07:56:19Z</time>
      </trkpt>
      <trkpt lat="43.68724" lon="5.3053">
        <ele>359.914215</ele>
        <time>2022-04-28T07:56:25Z</time>
      </trkpt>
      <trkpt lat="43.68725" lon="5.30533">
        <ele>360.288239</ele>
        <time>2022-04-28T07:56:26Z</time>
      </trkpt>
      <trkpt lat="43.68725" lon="5.30535">
        <ele>360.454956</ele>
        <time>2022-04-28T07:56:27Z</time>
      </trkpt>
      <trkpt lat="43.68725" lon="5.30538">
        <ele>360.509125</ele>
        <time>2022-04-28T07:56:28Z</time>
      </trkpt>
      <trkpt lat="43.68725" lon="5.30541">
        <ele>360.572693</ele>
        <time>2022-04-28T07:56:29Z</time>
      </trkpt>
      <trkpt lat="43.68726" lon="5.30562">
        <ele>361.796295</ele>
        <time>2022-04-28T07:56:36Z</time>
      </trkpt>
      <trkpt lat="43.68726" lon="5.306">
        <ele>363.138519</ele>
        <time>2022-04-28T07:56:48Z</time>
      </trkpt>
      <trkpt lat="43.68729" lon="5.30642">
        <ele>364.270782</ele>
        <time>2022-04-28T07:57:01Z</time>
      </trkpt>
      <trkpt lat="43.68738" lon="5.30695">
        <ele>363.190216</ele>
        <time>2022-04-28T07:57:15Z</time>
      </trkpt>
      <trkpt lat="43.68743" lon="5.30731">
        <ele>360.088226</ele>
        <time>2022-04-28T07:57:23Z</time>
      </trkpt>
      <trkpt lat="43.68748" lon="5.3076">
        <ele>357.377319</ele>
        <time>2022-04-28T07:57:30Z</time>
      </trkpt>
      <trkpt lat="43.6875" lon="5.30765">
        <ele>357.062805</ele>
        <time>2022-04-28T07:57:32Z</time>
      </trkpt>
      <trkpt lat="43.68751" lon="5.30767">
        <ele>357.031036</ele>
        <time>2022-04-28T07:57:33Z</time>
      </trkpt>
      <trkpt lat="43.68753" lon="5.30768">
        <ele>357.06012</ele>
        <time>2022-04-28T07:57:34Z</time>
      </trkpt>
      <trkpt lat="43.68755" lon="5.30769">
        <ele>357.132019</ele>
        <time>2022-04-28T07:57:35Z</time>
      </trkpt>
      <trkpt lat="43.68757" lon="5.30769">
        <ele>357.253784</ele>
        <time>2022-04-28T07:57:36Z</time>
      </trkpt>
      <trkpt lat="43.68758" lon="5.30768">
        <ele>357.411896</ele>
        <time>2022-04-28T07:57:37Z</time>
      </trkpt>
      <trkpt lat="43.6876" lon="5.30767">
        <ele>357.60968</ele>
        <time>2022-04-28T07:57:38Z</time>
      </trkpt>
      <trkpt lat="43.68778" lon="5.30762">
        <ele>358.967651</ele>
        <time>2022-04-28T07:57:47Z</time>
      </trkpt>
      <trkpt lat="43.68783" lon="5.30766">
        <ele>359.100525</ele>
        <time>2022-04-28T07:57:50Z</time>
      </trkpt>
      <trkpt lat="43.68783" lon="5.30768">
        <ele>359.109894</ele>
        <time>2022-04-28T07:57:51Z</time>
      </trkpt>
      <trkpt lat="43.68784" lon="5.30771">
        <ele>359.107056</ele>
        <time>2022-04-28T07:57:52Z</time>
      </trkpt>
      <trkpt lat="43.68785" lon="5.30774">
        <ele>359.073425</ele>
        <time>2022-04-28T07:57:53Z</time>
      </trkpt>
      <trkpt lat="43.68785" lon="5.30777">
        <ele>359.042603</ele>
        <time>2022-04-28T07:57:54Z</time>
      </trkpt>
      <trkpt lat="43.68785" lon="5.30779">
        <ele>359.009247</ele>
        <time>2022-04-28T07:57:55Z</time>
      </trkpt>
      <trkpt lat="43.68785" lon="5.30781">
        <ele>358.964935</ele>
        <time>2022-04-28T07:57:56Z</time>
      </trkpt>
      <trkpt lat="43.68785" lon="5.30789">
        <ele>358.840057</ele>
        <time>2022-04-28T07:58:01Z</time>
      </trkpt>
      <trkpt lat="43.68785" lon="5.30791">
        <ele>358.810913</ele>
        <time>2022-04-28T07:58:02Z</time>
      </trkpt>
      <trkpt lat="43.68786" lon="5.30812">
        <ele>358.52002</ele>
        <time>2022-04-28T07:58:11Z</time>
      </trkpt>
      <trkpt lat="43.68785" lon="5.30814">
        <ele>358.414032</ele>
        <time>2022-04-28T07:58:12Z</time>
      </trkpt>
      <trkpt lat="43.68786" lon="5.30817">
        <ele>358.464142</ele>
        <time>2022-04-28T07:58:13Z</time>
      </trkpt>
      <trkpt lat="43.68787" lon="5.3082">
        <ele>358.515289</ele>
        <time>2022-04-28T07:58:14Z</time>
      </trkpt>
      <trkpt lat="43.68786" lon="5.30823">
        <ele>358.563812</ele>
        <time>2022-04-28T07:58:15Z</time>
      </trkpt>
      <trkpt lat="43.68786" lon="5.30825">
        <ele>358.626068</ele>
        <time>2022-04-28T07:58:16Z</time>
      </trkpt>
      <trkpt lat="43.68786" lon="5.30829">
        <ele>358.714386</ele>
        <time>2022-04-28T07:58:17Z</time>
      </trkpt>
      <trkpt lat="43.68789" lon="5.30879">
        <ele>360.791595</ele>
        <time>2022-04-28T07:58:31Z</time>
      </trkpt>
      <trkpt lat="43.68794" lon="5.30934">
        <ele>363.168365</ele>
        <time>2022-04-28T07:58:45Z</time>
      </trkpt>
      <trkpt lat="43.68806" lon="5.30976">
        <ele>363.214844</ele>
        <time>2022-04-28T07:58:58Z</time>
      </trkpt>
      <trkpt lat="43.6882" lon="5.30997">
        <ele>361.176971</ele>
        <time>2022-04-28T07:59:04Z</time>
      </trkpt>
      <trkpt lat="43.68829" lon="5.31013">
        <ele>358.365173</ele>
        <time>2022-04-28T07:59:08Z</time>
      </trkpt>
      <trkpt lat="43.68831" lon="5.31019">
        <ele>357.47113</ele>
        <time>2022-04-28T07:59:09Z</time>
      </trkpt>
      <trkpt lat="43.68833" lon="5.31026">
        <ele>356.481506</ele>
        <time>2022-04-28T07:59:10Z</time>
      </trkpt>
      <trkpt lat="43.68832" lon="5.31032">
        <ele>355.488861</ele>
        <time>2022-04-28T07:59:11Z</time>
      </trkpt>
      <trkpt lat="43.68831" lon="5.31038">
        <ele>354.567993</ele>
        <time>2022-04-28T07:59:12Z</time>
      </trkpt>
      <trkpt lat="43.68828" lon="5.31044">
        <ele>353.772156</ele>
        <time>2022-04-28T07:59:13Z</time>
      </trkpt>
      <trkpt lat="43.68824" lon="5.31047">
        <ele>353.197266</ele>
        <time>2022-04-28T07:59:14Z</time>
      </trkpt>
      <trkpt lat="43.6882" lon="5.3105">
        <ele>352.641357</ele>
        <time>2022-04-28T07:59:15Z</time>
      </trkpt>
      <trkpt lat="43.68816" lon="5.31055">
        <ele>351.85675</ele>
        <time>2022-04-28T07:59:16Z</time>
      </trkpt>
      <trkpt lat="43.68813" lon="5.31061">
        <ele>350.888184</ele>
        <time>2022-04-28T07:59:17Z</time>
      </trkpt>
      <trkpt lat="43.68812" lon="5.31067">
        <ele>349.848022</ele>
        <time>2022-04-28T07:59:18Z</time>
      </trkpt>
      <trkpt lat="43.68812" lon="5.31073">
        <ele>349.173828</ele>
        <time>2022-04-28T07:59:19Z</time>
      </trkpt>
      <trkpt lat="43.68811" lon="5.31079">
        <ele>348.700256</ele>
        <time>2022-04-28T07:59:20Z</time>
      </trkpt>
      <trkpt lat="43.68812" lon="5.31084">
        <ele>348.319</ele>
        <time>2022-04-28T07:59:21Z</time>
      </trkpt>
      <trkpt lat="43.68813" lon="5.31089">
        <ele>348.048828</ele>
        <time>2022-04-28T07:59:22Z</time>
      </trkpt>
      <trkpt lat="43.68815" lon="5.31094">
        <ele>347.834961</ele>
        <time>2022-04-28T07:59:23Z</time>
      </trkpt>
      <trkpt lat="43.68818" lon="5.31104">
        <ele>347.537994</ele>
        <time>2022-04-28T07:59:25Z</time>
      </trkpt>
      <trkpt lat="43.68819" lon="5.3111">
        <ele>347.337921</ele>
        <time>2022-04-28T07:59:26Z</time>
      </trkpt>
      <trkpt lat="43.68819" lon="5.31115">
        <ele>347.101715</ele>
        <time>2022-04-28T07:59:27Z</time>
      </trkpt>
      <trkpt lat="43.68819" lon="5.3112">
        <ele>346.810516</ele>
        <time>2022-04-28T07:59:28Z</time>
      </trkpt>
      <trkpt lat="43.68818" lon="5.31126">
        <ele>346.401459</ele>
        <time>2022-04-28T07:59:29Z</time>
      </trkpt>
      <trkpt lat="43.68817" lon="5.31132">
        <ele>345.926117</ele>
        <time>2022-04-28T07:59:30Z</time>
      </trkpt>
      <trkpt lat="43.68816" lon="5.31138">
        <ele>345.413239</ele>
        <time>2022-04-28T07:59:31Z</time>
      </trkpt>
      <trkpt lat="43.68815" lon="5.31144">
        <ele>344.943634</ele>
        <time>2022-04-28T07:59:32Z</time>
      </trkpt>
      <trkpt lat="43.68813" lon="5.31149">
        <ele>344.510529</ele>
        <time>2022-04-28T07:59:33Z</time>
      </trkpt>
      <trkpt lat="43.68812" lon="5.31153">
        <ele>344.046265</ele>
        <time>2022-04-28T07:59:34Z</time>
      </trkpt>
      <trkpt lat="43.68811" lon="5.31157">
        <ele>343.609161</ele>
        <time>2022-04-28T07:59:35Z</time>
      </trkpt>
      <trkpt lat="43.6881" lon="5.3116">
        <ele>343.324432</ele>
        <time>2022-04-28T07:59:36Z</time>
      </trkpt>
      <trkpt lat="43.6881" lon="5.31162">
        <ele>343.191132</ele>
        <time>2022-04-28T07:59:37Z</time>
      </trkpt>
      <trkpt lat="43.6881" lon="5.31165">
        <ele>343.009491</ele>
        <time>2022-04-28T07:59:38Z</time>
      </trkpt>
      <trkpt lat="43.68809" lon="5.31168">
        <ele>342.783539</ele>
        <time>2022-04-28T07:59:39Z</time>
      </trkpt>
      <trkpt lat="43.68818" lon="5.31206">
        <ele>343.172974</ele>
        <time>2022-04-28T07:59:49Z</time>
      </trkpt>
      <trkpt lat="43.68838" lon="5.31249">
        <ele>342.555511</ele>
        <time>2022-04-28T08:00:00Z</time>
      </trkpt>
      <trkpt lat="43.6886" lon="5.31272">
        <ele>340.095001</ele>
        <time>2022-04-28T08:00:06Z</time>
      </trkpt>
      <trkpt lat="43.68864" lon="5.31278">
        <ele>339.15155</ele>
        <time>2022-04-28T08:00:07Z</time>
      </trkpt>
      <trkpt lat="43.68867" lon="5.31286">
        <ele>337.821594</ele>
        <time>2022-04-28T08:00:08Z</time>
      </trkpt>
      <trkpt lat="43.68869" lon="5.31293">
        <ele>336.521881</ele>
        <time>2022-04-28T08:00:09Z</time>
      </trkpt>
      <trkpt lat="43.6887" lon="5.31299">
        <ele>335.323944</ele>
        <time>2022-04-28T08:00:10Z</time>
      </trkpt>
      <trkpt lat="43.68871" lon="5.31304">
        <ele>334.184235</ele>
        <time>2022-04-28T08:00:11Z</time>
      </trkpt>
      <trkpt lat="43.68871" lon="5.3131">
        <ele>333.080078</ele>
        <time>2022-04-28T08:00:12Z</time>
      </trkpt>
      <trkpt lat="43.68872" lon="5.31314">
        <ele>332.161774</ele>
        <time>2022-04-28T08:00:13Z</time>
      </trkpt>
      <trkpt lat="43.68872" lon="5.31319">
        <ele>331.162781</ele>
        <time>2022-04-28T08:00:14Z</time>
      </trkpt>
      <trkpt lat="43.68873" lon="5.31324">
        <ele>330.669739</ele>
        <time>2022-04-28T08:00:15Z</time>
      </trkpt>
      <trkpt lat="43.68876" lon="5.31328">
        <ele>330.493439</ele>
        <time>2022-04-28T08:00:16Z</time>
      </trkpt>
      <trkpt lat="43.68879" lon="5.31332">
        <ele>330.431641</ele>
        <time>2022-04-28T08:00:17Z</time>
      </trkpt>
      <trkpt lat="43.68881" lon="5.31337">
        <ele>330.41687</ele>
        <time>2022-04-28T08:00:18Z</time>
      </trkpt>
      <trkpt lat="43.68882" lon="5.31342">
        <ele>330.335663</ele>
        <time>2022-04-28T08:00:19Z</time>
      </trkpt>
      <trkpt lat="43.68882" lon="5.31347">
        <ele>330.247223</ele>
        <time>2022-04-28T08:00:20Z</time>
      </trkpt>
      <trkpt lat="43.68881" lon="5.31353">
        <ele>329.990234</ele>
        <time>2022-04-28T08:00:21Z</time>
      </trkpt>
      <trkpt lat="43.6888" lon="5.31358">
        <ele>329.552002</ele>
        <time>2022-04-28T08:00:22Z</time>
      </trkpt>
      <trkpt lat="43.68877" lon="5.31363">
        <ele>328.855682</ele>
        <time>2022-04-28T08:00:23Z</time>
      </trkpt>
      <trkpt lat="43.68874" lon="5.31368">
        <ele>327.939972</ele>
        <time>2022-04-28T08:00:24Z</time>
      </trkpt>
      <trkpt lat="43.68871" lon="5.31374">
        <ele>326.82608</ele>
        <time>2022-04-28T08:00:25Z</time>
      </trkpt>
      <trkpt lat="43.68869" lon="5.3138">
        <ele>325.994965</ele>
        <time>2022-04-28T08:00:26Z</time>
      </trkpt>
      <trkpt lat="43.68867" lon="5.31386">
        <ele>326.041016</ele>
        <time>2022-04-28T08:00:27Z</time>
      </trkpt>
      <trkpt lat="43.68866" lon="5.31392">
        <ele>326.619202</ele>
        <time>2022-04-28T08:00:28Z</time>
      </trkpt>
      <trkpt lat="43.68865" lon="5.31396">
        <ele>327.00589</ele>
        <time>2022-04-28T08:00:29Z</time>
      </trkpt>
      <trkpt lat="43.68857" lon="5.31428">
        <ele>328.904053</ele>
        <time>2022-04-28T08:00:36Z</time>
      </trkpt>
      <trkpt lat="43.68844" lon="5.31459">
        <ele>328.890839</ele>
        <time>2022-04-28T08:00:42Z</time>
      </trkpt>
      <trkpt lat="43.68842" lon="5.31465">
        <ele>328.958221</ele>
        <time>2022-04-28T08:00:43Z</time>
      </trkpt>
      <trkpt lat="43.6884" lon="5.31471">
        <ele>329.000946</ele>
        <time>2022-04-28T08:00:44Z</time>
      </trkpt>
      <trkpt lat="43.68838" lon="5.31477">
        <ele>329.052032</ele>
        <time>2022-04-28T08:00:45Z</time>
      </trkpt>
      <trkpt lat="43.68837" lon="5.31482">
        <ele>329.108032</ele>
        <time>2022-04-28T08:00:46Z</time>
      </trkpt>
      <trkpt lat="43.68835" lon="5.31488">
        <ele>329.12207</ele>
        <time>2022-04-28T08:00:47Z</time>
      </trkpt>
      <trkpt lat="43.68834" lon="5.31494">
        <ele>329.122009</ele>
        <time>2022-04-28T08:00:48Z</time>
      </trkpt>
      <trkpt lat="43.68833" lon="5.31499">
        <ele>329.063354</ele>
        <time>2022-04-28T08:00:49Z</time>
      </trkpt>
      <trkpt lat="43.68829" lon="5.3151">
        <ele>328.367432</ele>
        <time>2022-04-28T08:00:51Z</time>
      </trkpt>
      <trkpt lat="43.68827" lon="5.31516">
        <ele>327.764191</ele>
        <time>2022-04-28T08:00:52Z</time>
      </trkpt>
      <trkpt lat="43.68825" lon="5.31522">
        <ele>327.391998</ele>
        <time>2022-04-28T08:00:53Z</time>
      </trkpt>
      <trkpt lat="43.68819" lon="5.31552">
        <ele>327.326691</ele>
        <time>2022-04-28T08:00:58Z</time>
      </trkpt>
      <trkpt lat="43.68819" lon="5.31558">
        <ele>327.567871</ele>
        <time>2022-04-28T08:00:59Z</time>
      </trkpt>
      <trkpt lat="43.6882" lon="5.31572">
        <ele>327.347137</ele>
        <time>2022-04-28T08:01:01Z</time>
      </trkpt>
      <trkpt lat="43.68821" lon="5.31578">
        <ele>326.884399</ele>
        <time>2022-04-28T08:01:02Z</time>
      </trkpt>
      <trkpt lat="43.68825" lon="5.31589">
        <ele>326.158051</ele>
        <time>2022-04-28T08:01:04Z</time>
      </trkpt>
      <trkpt lat="43.68831" lon="5.316">
        <ele>325.534271</ele>
        <time>2022-04-28T08:01:06Z</time>
      </trkpt>
      <trkpt lat="43.68843" lon="5.31616">
        <ele>324.179474</ele>
        <time>2022-04-28T08:01:09Z</time>
      </trkpt>
      <trkpt lat="43.68876" lon="5.31658">
        <ele>322.049622</ele>
        <time>2022-04-28T08:01:16Z</time>
      </trkpt>
      <trkpt lat="43.68893" lon="5.31684">
        <ele>321.868805</ele>
        <time>2022-04-28T08:01:21Z</time>
      </trkpt>
      <trkpt lat="43.68895" lon="5.3169">
        <ele>321.538086</ele>
        <time>2022-04-28T08:01:22Z</time>
      </trkpt>
      <trkpt lat="43.68902" lon="5.31717">
        <ele>319.636932</ele>
        <time>2022-04-28T08:01:32Z</time>
      </trkpt>
      <trkpt lat="43.68903" lon="5.31716">
        <ele>319.969391</ele>
        <time>2022-04-28T08:01:57Z</time>
      </trkpt>
      <trkpt lat="43.68904" lon="5.31719">
        <ele>319.879761</ele>
        <time>2022-04-28T08:02:08Z</time>
      </trkpt>
      <trkpt lat="43.68905" lon="5.3172">
        <ele>319.787323</ele>
        <time>2022-04-28T08:02:09Z</time>
      </trkpt>
      <trkpt lat="43.68915" lon="5.31739">
        <ele>317.985107</ele>
        <time>2022-04-28T08:02:14Z</time>
      </trkpt>
      <trkpt lat="43.68925" lon="5.31746">
        <ele>316.999084</ele>
        <time>2022-04-28T08:02:16Z</time>
      </trkpt>
      <trkpt lat="43.68942" lon="5.31759">
        <ele>314.970978</ele>
        <time>2022-04-28T08:02:19Z</time>
      </trkpt>
      <trkpt lat="43.68981" lon="5.31789">
        <ele>314.325592</ele>
        <time>2022-04-28T08:02:26Z</time>
      </trkpt>
      <trkpt lat="43.68985" lon="5.31796">
        <ele>313.843842</ele>
        <time>2022-04-28T08:02:27Z</time>
      </trkpt>
      <trkpt lat="43.68989" lon="5.31803">
        <ele>313.247986</ele>
        <time>2022-04-28T08:02:28Z</time>
      </trkpt>
      <trkpt lat="43.68992" lon="5.31811">
        <ele>312.451416</ele>
        <time>2022-04-28T08:02:29Z</time>
      </trkpt>
      <trkpt lat="43.68996" lon="5.3182">
        <ele>311.456573</ele>
        <time>2022-04-28T08:02:30Z</time>
      </trkpt>
      <trkpt lat="43.69001" lon="5.31828">
        <ele>310.857574</ele>
        <time>2022-04-28T08:02:31Z</time>
      </trkpt>
      <trkpt lat="43.69006" lon="5.31835">
        <ele>310.448669</ele>
        <time>2022-04-28T08:02:32Z</time>
      </trkpt>
      <trkpt lat="43.69011" lon="5.31842">
        <ele>310.109833</ele>
        <time>2022-04-28T08:02:33Z</time>
      </trkpt>
      <trkpt lat="43.69022" lon="5.31854">
        <ele>309.718384</ele>
        <time>2022-04-28T08:02:35Z</time>
      </trkpt>
      <trkpt lat="43.69027" lon="5.31857">
        <ele>309.757324</ele>
        <time>2022-04-28T08:02:36Z</time>
      </trkpt>
      <trkpt lat="43.69032" lon="5.3186">
        <ele>309.837097</ele>
        <time>2022-04-28T08:02:37Z</time>
      </trkpt>
      <trkpt lat="43.69037" lon="5.31865">
        <ele>309.74527</ele>
        <time>2022-04-28T08:02:38Z</time>
      </trkpt>
      <trkpt lat="43.69041" lon="5.3187">
        <ele>309.659729</ele>
        <time>2022-04-28T08:02:39Z</time>
      </trkpt>
      <trkpt lat="43.69044" lon="5.31875">
        <ele>309.588745</ele>
        <time>2022-04-28T08:02:40Z</time>
      </trkpt>
      <trkpt lat="43.69072" lon="5.31902">
        <ele>309.826508</ele>
        <time>2022-04-28T08:02:48Z</time>
      </trkpt>
      <trkpt lat="43.69076" lon="5.31904">
        <ele>309.880096</ele>
        <time>2022-04-28T08:02:49Z</time>
      </trkpt>
      <trkpt lat="43.69081" lon="5.31905">
        <ele>309.933685</ele>
        <time>2022-04-28T08:02:50Z</time>
      </trkpt>
      <trkpt lat="43.6909" lon="5.31908">
        <ele>310.700836</ele>
        <time>2022-04-28T08:02:52Z</time>
      </trkpt>
      <trkpt lat="43.69094" lon="5.31911">
        <ele>310.826019</ele>
        <time>2022-04-28T08:02:53Z</time>
      </trkpt>
      <trkpt lat="43.69098" lon="5.31915">
        <ele>310.73645</ele>
        <time>2022-04-28T08:02:54Z</time>
      </trkpt>
      <trkpt lat="43.6912" lon="5.31937">
        <ele>308.936249</ele>
        <time>2022-04-28T08:03:03Z</time>
      </trkpt>
      <trkpt lat="43.69131" lon="5.31951">
        <ele>307.886108</ele>
        <time>2022-04-28T08:03:12Z</time>
      </trkpt>
      <trkpt lat="43.69134" lon="5.31957">
        <ele>307.483582</ele>
        <time>2022-04-28T08:03:33Z</time>
      </trkpt>
      <trkpt lat="43.69143" lon="5.31969">
        <ele>307.290985</ele>
        <time>2022-04-28T08:03:56Z</time>
      </trkpt>
      <trkpt lat="43.69157" lon="5.31992">
        <ele>305.954102</ele>
        <time>2022-04-28T08:04:01Z</time>
      </trkpt>
      <trkpt lat="43.6917" lon="5.32023">
        <ele>303.03598</ele>
        <time>2022-04-28T08:04:06Z</time>
      </trkpt>
      <trkpt lat="43.69171" lon="5.3203">
        <ele>302.630096</ele>
        <time>2022-04-28T08:04:07Z</time>
      </trkpt>
      <trkpt lat="43.69171" lon="5.32036">
        <ele>301.911377</ele>
        <time>2022-04-28T08:04:08Z</time>
      </trkpt>
      <trkpt lat="43.69171" lon="5.32043">
        <ele>301.13205</ele>
        <time>2022-04-28T08:04:09Z</time>
      </trkpt>
      <trkpt lat="43.69171" lon="5.32049">
        <ele>300.398407</ele>
        <time>2022-04-28T08:04:10Z</time>
      </trkpt>
      <trkpt lat="43.6917" lon="5.32055">
        <ele>299.519806</ele>
        <time>2022-04-28T08:04:11Z</time>
      </trkpt>
      <trkpt lat="43.69169" lon="5.32062">
        <ele>298.451538</ele>
        <time>2022-04-28T08:04:12Z</time>
      </trkpt>
      <trkpt lat="43.69167" lon="5.32069">
        <ele>297.281219</ele>
        <time>2022-04-28T08:04:13Z</time>
      </trkpt>
      <trkpt lat="43.69164" lon="5.32075">
        <ele>296.041901</ele>
        <time>2022-04-28T08:04:14Z</time>
      </trkpt>
      <trkpt lat="43.69162" lon="5.3208">
        <ele>294.9505</ele>
        <time>2022-04-28T08:04:15Z</time>
      </trkpt>
      <trkpt lat="43.69162" lon="5.32086">
        <ele>294.106201</ele>
        <time>2022-04-28T08:04:16Z</time>
      </trkpt>
      <trkpt lat="43.69161" lon="5.32092">
        <ele>293.329102</ele>
        <time>2022-04-28T08:04:17Z</time>
      </trkpt>
      <trkpt lat="43.69162" lon="5.32099">
        <ele>292.695709</ele>
        <time>2022-04-28T08:04:18Z</time>
      </trkpt>
      <trkpt lat="43.69164" lon="5.32106">
        <ele>292.216217</ele>
        <time>2022-04-28T08:04:19Z</time>
      </trkpt>
      <trkpt lat="43.69167" lon="5.32113">
        <ele>291.93512</ele>
        <time>2022-04-28T08:04:20Z</time>
      </trkpt>
      <trkpt lat="43.6917" lon="5.3212">
        <ele>291.92337</ele>
        <time>2022-04-28T08:04:21Z</time>
      </trkpt>
      <trkpt lat="43.69174" lon="5.32127">
        <ele>291.878235</ele>
        <time>2022-04-28T08:04:22Z</time>
      </trkpt>
      <trkpt lat="43.69177" lon="5.32134">
        <ele>291.781891</ele>
        <time>2022-04-28T08:04:23Z</time>
      </trkpt>
      <trkpt lat="43.69184" lon="5.3215">
        <ele>291.549286</ele>
        <time>2022-04-28T08:04:25Z</time>
      </trkpt>
      <trkpt lat="43.69186" lon="5.32157">
        <ele>291.195892</ele>
        <time>2022-04-28T08:04:26Z</time>
      </trkpt>
      <trkpt lat="43.69187" lon="5.32165">
        <ele>290.607697</ele>
        <time>2022-04-28T08:04:27Z</time>
      </trkpt>
      <trkpt lat="43.69188" lon="5.32173">
        <ele>289.749908</ele>
        <time>2022-04-28T08:04:28Z</time>
      </trkpt>
      <trkpt lat="43.69187" lon="5.32181">
        <ele>288.769531</ele>
        <time>2022-04-28T08:04:29Z</time>
      </trkpt>
      <trkpt lat="43.69186" lon="5.32188">
        <ele>287.778442</ele>
        <time>2022-04-28T08:04:30Z</time>
      </trkpt>
      <trkpt lat="43.69185" lon="5.32196">
        <ele>286.898132</ele>
        <time>2022-04-28T08:04:31Z</time>
      </trkpt>
      <trkpt lat="43.69186" lon="5.32203">
        <ele>286.271545</ele>
        <time>2022-04-28T08:04:32Z</time>
      </trkpt>
      <trkpt lat="43.69188" lon="5.3221">
        <ele>286.24295</ele>
        <time>2022-04-28T08:04:33Z</time>
      </trkpt>
      <trkpt lat="43.69197" lon="5.3223">
        <ele>286.60675</ele>
        <time>2022-04-28T08:04:36Z</time>
      </trkpt>
      <trkpt lat="43.69199" lon="5.32234">
        <ele>286.817474</ele>
        <time>2022-04-28T08:04:37Z</time>
      </trkpt>
      <trkpt lat="43.69239" lon="5.3229">
        <ele>287.088165</ele>
        <time>2022-04-28T08:04:48Z</time>
      </trkpt>
      <trkpt lat="43.69269" lon="5.32332">
        <ele>284.759766</ele>
        <time>2022-04-28T08:04:59Z</time>
      </trkpt>
      <trkpt lat="43.69272" lon="5.32336">
        <ele>284.663696</ele>
        <time>2022-04-28T08:05:00Z</time>
      </trkpt>
      <trkpt lat="43.69276" lon="5.3234">
        <ele>284.524384</ele>
        <time>2022-04-28T08:05:01Z</time>
      </trkpt>
      <trkpt lat="43.69283" lon="5.3235">
        <ele>283.983887</ele>
        <time>2022-04-28T08:05:03Z</time>
      </trkpt>
      <trkpt lat="43.69286" lon="5.32356">
        <ele>283.392761</ele>
        <time>2022-04-28T08:05:04Z</time>
      </trkpt>
      <trkpt lat="43.69287" lon="5.32364">
        <ele>282.550842</ele>
        <time>2022-04-28T08:05:05Z</time>
      </trkpt>
      <trkpt lat="43.69289" lon="5.32372">
        <ele>281.744659</ele>
        <time>2022-04-28T08:05:06Z</time>
      </trkpt>
      <trkpt lat="43.69292" lon="5.32378">
        <ele>281.17392</ele>
        <time>2022-04-28T08:05:07Z</time>
      </trkpt>
      <trkpt lat="43.69296" lon="5.32383">
        <ele>281.018524</ele>
        <time>2022-04-28T08:05:08Z</time>
      </trkpt>
      <trkpt lat="43.69301" lon="5.32387">
        <ele>281.088165</ele>
        <time>2022-04-28T08:05:09Z</time>
      </trkpt>
      <trkpt lat="43.69305" lon="5.3239">
        <ele>281.231628</ele>
        <time>2022-04-28T08:05:10Z</time>
      </trkpt>
      <trkpt lat="43.69309" lon="5.32393">
        <ele>281.364258</ele>
        <time>2022-04-28T08:05:11Z</time>
      </trkpt>
      <trkpt lat="43.69313" lon="5.32396">
        <ele>281.453003</ele>
        <time>2022-04-28T08:05:12Z</time>
      </trkpt>
      <trkpt lat="43.69317" lon="5.32399">
        <ele>281.566071</ele>
        <time>2022-04-28T08:05:13Z</time>
      </trkpt>
      <trkpt lat="43.69328" lon="5.32409">
        <ele>281.856995</ele>
        <time>2022-04-28T08:05:16Z</time>
      </trkpt>
      <trkpt lat="43.69331" lon="5.32413">
        <ele>281.902557</ele>
        <time>2022-04-28T08:05:17Z</time>
      </trkpt>
      <trkpt lat="43.69334" lon="5.32418">
        <ele>281.725586</ele>
        <time>2022-04-28T08:05:18Z</time>
      </trkpt>
      <trkpt lat="43.69335" lon="5.32424">
        <ele>281.232056</ele>
        <time>2022-04-28T08:05:19Z</time>
      </trkpt>
      <trkpt lat="43.69334" lon="5.32432">
        <ele>280.44165</ele>
        <time>2022-04-28T08:05:20Z</time>
      </trkpt>
      <trkpt lat="43.69332" lon="5.32441">
        <ele>279.497162</ele>
        <time>2022-04-28T08:05:21Z</time>
      </trkpt>
      <trkpt lat="43.69331" lon="5.3245">
        <ele>278.48468</ele>
        <time>2022-04-28T08:05:22Z</time>
      </trkpt>
      <trkpt lat="43.69329" lon="5.3247">
        <ele>276.85672</ele>
        <time>2022-04-28T08:05:24Z</time>
      </trkpt>
      <trkpt lat="43.69329" lon="5.3248">
        <ele>276.395691</ele>
        <time>2022-04-28T08:05:25Z</time>
      </trkpt>
      <trkpt lat="43.69331" lon="5.32488">
        <ele>276.239319</ele>
        <time>2022-04-28T08:05:26Z</time>
      </trkpt>
      <trkpt lat="43.69335" lon="5.32494">
        <ele>276.368683</ele>
        <time>2022-04-28T08:05:27Z</time>
      </trkpt>
      <trkpt lat="43.6935" lon="5.32515">
        <ele>277.558228</ele>
        <time>2022-04-28T08:05:31Z</time>
      </trkpt>
      <trkpt lat="43.69358" lon="5.32524">
        <ele>278.045685</ele>
        <time>2022-04-28T08:05:33Z</time>
      </trkpt>
      <trkpt lat="43.69361" lon="5.3253">
        <ele>277.910461</ele>
        <time>2022-04-28T08:05:34Z</time>
      </trkpt>
      <trkpt lat="43.69364" lon="5.32536">
        <ele>277.796631</ele>
        <time>2022-04-28T08:05:35Z</time>
      </trkpt>
      <trkpt lat="43.69368" lon="5.32541">
        <ele>277.859985</ele>
        <time>2022-04-28T08:05:36Z</time>
      </trkpt>
      <trkpt lat="43.69374" lon="5.32546">
        <ele>277.96051</ele>
        <time>2022-04-28T08:05:37Z</time>
      </trkpt>
      <trkpt lat="43.69377" lon="5.32549">
        <ele>278.002716</ele>
        <time>2022-04-28T08:05:38Z</time>
      </trkpt>
      <trkpt lat="43.6938" lon="5.32552">
        <ele>278.179749</ele>
        <time>2022-04-28T08:05:39Z</time>
      </trkpt>
      <trkpt lat="43.69387" lon="5.32559">
        <ele>278.689789</ele>
        <time>2022-04-28T08:05:41Z</time>
      </trkpt>
      <trkpt lat="43.694" lon="5.32569">
        <ele>279.969879</ele>
        <time>2022-04-28T08:05:45Z</time>
      </trkpt>
      <trkpt lat="43.69403" lon="5.32573">
        <ele>280.196503</ele>
        <time>2022-04-28T08:05:46Z</time>
      </trkpt>
      <trkpt lat="43.69434" lon="5.32612">
        <ele>281.855774</ele>
        <time>2022-04-28T08:05:58Z</time>
      </trkpt>
      <trkpt lat="43.69457" lon="5.32656">
        <ele>280.246155</ele>
        <time>2022-04-28T08:06:07Z</time>
      </trkpt>
      <trkpt lat="43.69473" lon="5.32704">
        <ele>278.082001</ele>
        <time>2022-04-28T08:06:13Z</time>
      </trkpt>
      <trkpt lat="43.69473" lon="5.32711">
        <ele>277.238892</ele>
        <time>2022-04-28T08:06:14Z</time>
      </trkpt>
      <trkpt lat="43.69472" lon="5.32726">
        <ele>275.081604</ele>
        <time>2022-04-28T08:06:16Z</time>
      </trkpt>
      <trkpt lat="43.6947" lon="5.32734">
        <ele>273.803955</ele>
        <time>2022-04-28T08:06:17Z</time>
      </trkpt>
      <trkpt lat="43.69467" lon="5.32741">
        <ele>272.298706</ele>
        <time>2022-04-28T08:06:18Z</time>
      </trkpt>
      <trkpt lat="43.6946" lon="5.32759">
        <ele>268.539795</ele>
        <time>2022-04-28T08:06:21Z</time>
      </trkpt>
      <trkpt lat="43.69455" lon="5.3277">
        <ele>266.398315</ele>
        <time>2022-04-28T08:06:24Z</time>
      </trkpt>
      <trkpt lat="43.69448" lon="5.32781">
        <ele>264.353943</ele>
        <time>2022-04-28T08:06:27Z</time>
      </trkpt>
      <trkpt lat="43.69446" lon="5.32786">
        <ele>263.775085</ele>
        <time>2022-04-28T08:06:28Z</time>
      </trkpt>
      <trkpt lat="43.69437" lon="5.32802">
        <ele>261.507172</ele>
        <time>2022-04-28T08:06:31Z</time>
      </trkpt>
      <trkpt lat="43.69432" lon="5.32808">
        <ele>260.441559</ele>
        <time>2022-04-28T08:06:32Z</time>
      </trkpt>
      <trkpt lat="43.69417" lon="5.32824">
        <ele>256.804382</ele>
        <time>2022-04-28T08:06:35Z</time>
      </trkpt>
      <trkpt lat="43.69413" lon="5.3283">
        <ele>255.993286</ele>
        <time>2022-04-28T08:06:36Z</time>
      </trkpt>
      <trkpt lat="43.6941" lon="5.32836">
        <ele>255.367264</ele>
        <time>2022-04-28T08:06:37Z</time>
      </trkpt>
      <trkpt lat="43.69408" lon="5.32843">
        <ele>255.015289</ele>
        <time>2022-04-28T08:06:38Z</time>
      </trkpt>
      <trkpt lat="43.69407" lon="5.32851">
        <ele>254.710739</ele>
        <time>2022-04-28T08:06:39Z</time>
      </trkpt>
      <trkpt lat="43.69406" lon="5.3286">
        <ele>254.430359</ele>
        <time>2022-04-28T08:06:40Z</time>
      </trkpt>
      <trkpt lat="43.69406" lon="5.32869">
        <ele>254.167343</ele>
        <time>2022-04-28T08:06:41Z</time>
      </trkpt>
      <trkpt lat="43.69403" lon="5.32897">
        <ele>252.888947</ele>
        <time>2022-04-28T08:06:44Z</time>
      </trkpt>
      <trkpt lat="43.694" lon="5.32905">
        <ele>252.157318</ele>
        <time>2022-04-28T08:06:45Z</time>
      </trkpt>
      <trkpt lat="43.69396" lon="5.32913">
        <ele>251.304291</ele>
        <time>2022-04-28T08:06:46Z</time>
      </trkpt>
      <trkpt lat="43.69364" lon="5.32955">
        <ele>246.440765</ele>
        <time>2022-04-28T08:06:52Z</time>
      </trkpt>
      <trkpt lat="43.69349" lon="5.32974">
        <ele>243.548721</ele>
        <time>2022-04-28T08:06:55Z</time>
      </trkpt>
      <trkpt lat="43.69344" lon="5.32982">
        <ele>242.751297</ele>
        <time>2022-04-28T08:06:56Z</time>
      </trkpt>
      <trkpt lat="43.69341" lon="5.3299">
        <ele>242.095047</ele>
        <time>2022-04-28T08:06:57Z</time>
      </trkpt>
      <trkpt lat="43.69338" lon="5.32999">
        <ele>241.642334</ele>
        <time>2022-04-28T08:06:58Z</time>
      </trkpt>
      <trkpt lat="43.69337" lon="5.33008">
        <ele>241.290955</ele>
        <time>2022-04-28T08:06:59Z</time>
      </trkpt>
      <trkpt lat="43.6933" lon="5.33035">
        <ele>239.308182</ele>
        <time>2022-04-28T08:07:02Z</time>
      </trkpt>
      <trkpt lat="43.69328" lon="5.33045">
        <ele>238.426941</ele>
        <time>2022-04-28T08:07:03Z</time>
      </trkpt>
      <trkpt lat="43.69323" lon="5.33077">
        <ele>235.554443</ele>
        <time>2022-04-28T08:07:06Z</time>
      </trkpt>
      <trkpt lat="43.69318" lon="5.33099">
        <ele>233.028351</ele>
        <time>2022-04-28T08:07:08Z</time>
      </trkpt>
      <trkpt lat="43.69316" lon="5.33109">
        <ele>231.884048</ele>
        <time>2022-04-28T08:07:09Z</time>
      </trkpt>
      <trkpt lat="43.69316" lon="5.33121">
        <ele>230.824783</ele>
        <time>2022-04-28T08:07:10Z</time>
      </trkpt>
      <trkpt lat="43.69318" lon="5.33133">
        <ele>229.904419</ele>
        <time>2022-04-28T08:07:11Z</time>
      </trkpt>
      <trkpt lat="43.6932" lon="5.33145">
        <ele>229.242615</ele>
        <time>2022-04-28T08:07:12Z</time>
      </trkpt>
      <trkpt lat="43.69325" lon="5.33182">
        <ele>227.803711</ele>
        <time>2022-04-28T08:07:15Z</time>
      </trkpt>
      <trkpt lat="43.69326" lon="5.33193">
        <ele>227.213654</ele>
        <time>2022-04-28T08:07:16Z</time>
      </trkpt>
      <trkpt lat="43.69325" lon="5.33205">
        <ele>226.435013</ele>
        <time>2022-04-28T08:07:17Z</time>
      </trkpt>
      <trkpt lat="43.69323" lon="5.33214">
        <ele>225.525711</ele>
        <time>2022-04-28T08:07:18Z</time>
      </trkpt>
      <trkpt lat="43.69319" lon="5.33233">
        <ele>223.657578</ele>
        <time>2022-04-28T08:07:20Z</time>
      </trkpt>
      <trkpt lat="43.69319" lon="5.33242">
        <ele>223.025482</ele>
        <time>2022-04-28T08:07:21Z</time>
      </trkpt>
      <trkpt lat="43.6932" lon="5.33252">
        <ele>222.584274</ele>
        <time>2022-04-28T08:07:22Z</time>
      </trkpt>
      <trkpt lat="43.69323" lon="5.3327">
        <ele>221.665344</ele>
        <time>2022-04-28T08:07:24Z</time>
      </trkpt>
      <trkpt lat="43.69326" lon="5.33285">
        <ele>220.707321</ele>
        <time>2022-04-28T08:07:26Z</time>
      </trkpt>
      <trkpt lat="43.69325" lon="5.33291">
        <ele>220.126083</ele>
        <time>2022-04-28T08:07:27Z</time>
      </trkpt>
      <trkpt lat="43.69321" lon="5.33295">
        <ele>219.439072</ele>
        <time>2022-04-28T08:07:28Z</time>
      </trkpt>
      <trkpt lat="43.69315" lon="5.33298">
        <ele>218.549728</ele>
        <time>2022-04-28T08:07:29Z</time>
      </trkpt>
      <trkpt lat="43.69312" lon="5.33301">
        <ele>218.061951</ele>
        <time>2022-04-28T08:07:30Z</time>
      </trkpt>
      <trkpt lat="43.69308" lon="5.33306">
        <ele>217.46524</ele>
        <time>2022-04-28T08:07:31Z</time>
      </trkpt>
      <trkpt lat="43.69304" lon="5.33312">
        <ele>216.89035</ele>
        <time>2022-04-28T08:07:32Z</time>
      </trkpt>
      <trkpt lat="43.69301" lon="5.33318">
        <ele>216.301575</ele>
        <time>2022-04-28T08:07:33Z</time>
      </trkpt>
      <trkpt lat="43.69297" lon="5.33325">
        <ele>215.724304</ele>
        <time>2022-04-28T08:07:34Z</time>
      </trkpt>
      <trkpt lat="43.69251" lon="5.33425">
        <ele>212.123978</ele>
        <time>2022-04-28T08:07:47Z</time>
      </trkpt>
      <trkpt lat="43.69248" lon="5.33434">
        <ele>211.723343</ele>
        <time>2022-04-28T08:07:48Z</time>
      </trkpt>
      <trkpt lat="43.69246" lon="5.33444">
        <ele>211.315979</ele>
        <time>2022-04-28T08:07:49Z</time>
      </trkpt>
      <trkpt lat="43.69242" lon="5.33474">
        <ele>210.405807</ele>
        <time>2022-04-28T08:07:52Z</time>
      </trkpt>
      <trkpt lat="43.69242" lon="5.33484">
        <ele>210.167801</ele>
        <time>2022-04-28T08:07:53Z</time>
      </trkpt>
      <trkpt lat="43.69244" lon="5.33494">
        <ele>209.984314</ele>
        <time>2022-04-28T08:07:54Z</time>
      </trkpt>
      <trkpt lat="43.69247" lon="5.33503">
        <ele>209.839355</ele>
        <time>2022-04-28T08:07:55Z</time>
      </trkpt>
      <trkpt lat="43.69251" lon="5.33511">
        <ele>209.695236</ele>
        <time>2022-04-28T08:07:56Z</time>
      </trkpt>
      <trkpt lat="43.69255" lon="5.3352">
        <ele>209.525726</ele>
        <time>2022-04-28T08:07:57Z</time>
      </trkpt>
      <trkpt lat="43.69284" lon="5.33588">
        <ele>207.498871</ele>
        <time>2022-04-28T08:08:06Z</time>
      </trkpt>
      <trkpt lat="43.69286" lon="5.33596">
        <ele>207.248886</ele>
        <time>2022-04-28T08:08:07Z</time>
      </trkpt>
      <trkpt lat="43.69287" lon="5.33604">
        <ele>207.002426</ele>
        <time>2022-04-28T08:08:08Z</time>
      </trkpt>
      <trkpt lat="43.69287" lon="5.33611">
        <ele>206.775696</ele>
        <time>2022-04-28T08:08:09Z</time>
      </trkpt>
      <trkpt lat="43.69286" lon="5.33618">
        <ele>206.550537</ele>
        <time>2022-04-28T08:08:10Z</time>
      </trkpt>
      <trkpt lat="43.69285" lon="5.33625">
        <ele>206.334686</ele>
        <time>2022-04-28T08:08:11Z</time>
      </trkpt>
      <trkpt lat="43.69283" lon="5.33631">
        <ele>206.135284</ele>
        <time>2022-04-28T08:08:12Z</time>
      </trkpt>
      <trkpt lat="43.69276" lon="5.33652">
        <ele>205.544357</ele>
        <time>2022-04-28T08:08:21Z</time>
      </trkpt>
      <trkpt lat="43.69275" lon="5.33653">
        <ele>205.52681</ele>
        <time>2022-04-28T08:08:41Z</time>
      </trkpt>
      <trkpt lat="43.69275" lon="5.33654">
        <ele>205.488327</ele>
        <time>2022-04-28T08:08:42Z</time>
      </trkpt>
      <trkpt lat="43.69276" lon="5.33659">
        <ele>205.375565</ele>
        <time>2022-04-28T08:08:53Z</time>
      </trkpt>
      <trkpt lat="43.69277" lon="5.3366">
        <ele>205.348969</ele>
        <time>2022-04-28T08:09:15Z</time>
      </trkpt>
      <trkpt lat="43.69304" lon="5.33676">
        <ele>205.366577</ele>
        <time>2022-04-28T08:09:28Z</time>
      </trkpt>
      <trkpt lat="43.69318" lon="5.33684">
        <ele>205.317001</ele>
        <time>2022-04-28T08:09:33Z</time>
      </trkpt>
      <trkpt lat="43.6936" lon="5.33711">
        <ele>204.667801</ele>
        <time>2022-04-28T08:09:46Z</time>
      </trkpt>
      <trkpt lat="43.69401" lon="5.33739">
        <ele>203.835846</ele>
        <time>2022-04-28T08:09:59Z</time>
      </trkpt>
      <trkpt lat="43.69476" lon="5.33801">
        <ele>202.941147</ele>
        <time>2022-04-28T08:10:19Z</time>
      </trkpt>
      <trkpt lat="43.69554" lon="5.33881">
        <ele>201.514069</ele>
        <time>2022-04-28T08:10:40Z</time>
      </trkpt>
      <trkpt lat="43.69596" lon="5.33926">
        <ele>200.13028</ele>
        <time>2022-04-28T08:10:54Z</time>
      </trkpt>
      <trkpt lat="43.69624" lon="5.33957">
        <ele>199.52121</ele>
        <time>2022-04-28T08:11:08Z</time>
      </trkpt>
      <trkpt lat="43.69661" lon="5.33987">
        <ele>199.486755</ele>
        <time>2022-04-28T08:11:22Z</time>
      </trkpt>
      <trkpt lat="43.69701" lon="5.34013">
        <ele>199.124374</ele>
        <time>2022-04-28T08:11:34Z</time>
      </trkpt>
      <trkpt lat="43.69726" lon="5.34026">
        <ele>198.91803</ele>
        <time>2022-04-28T08:11:41Z</time>
      </trkpt>
      <trkpt lat="43.69778" lon="5.34067">
        <ele>198.176147</ele>
        <time>2022-04-28T08:11:54Z</time>
      </trkpt>
      <trkpt lat="43.69833" lon="5.34112">
        <ele>197.650726</ele>
        <time>2022-04-28T08:12:09Z</time>
      </trkpt>
      <trkpt lat="43.69836" lon="5.34115">
        <ele>197.675156</ele>
        <time>2022-04-28T08:12:10Z</time>
      </trkpt>
      <trkpt lat="43.69895" lon="5.34171">
        <ele>196.691559</ele>
        <time>2022-04-28T08:12:27Z</time>
      </trkpt>
      <trkpt lat="43.69898" lon="5.34174">
        <ele>196.674347</ele>
        <time>2022-04-28T08:12:28Z</time>
      </trkpt>
      <trkpt lat="43.69904" lon="5.34183">
        <ele>196.550003</ele>
        <time>2022-04-28T08:12:30Z</time>
      </trkpt>
      <trkpt lat="43.69907" lon="5.34188">
        <ele>196.442139</ele>
        <time>2022-04-28T08:12:31Z</time>
      </trkpt>
      <trkpt lat="43.69943" lon="5.34253">
        <ele>195.895615</ele>
        <time>2022-04-28T08:12:45Z</time>
      </trkpt>
      <trkpt lat="43.6998" lon="5.343">
        <ele>195.160461</ele>
        <time>2022-04-28T08:13:01Z</time>
      </trkpt>
      <trkpt lat="43.69983" lon="5.3431">
        <ele>194.928329</ele>
        <time>2022-04-28T08:13:11Z</time>
      </trkpt>
      <trkpt lat="43.69982" lon="5.34308">
        <ele>194.992355</ele>
        <time>2022-04-28T08:13:41Z</time>
      </trkpt>
      <trkpt lat="43.69984" lon="5.34309">
        <ele>194.99202</ele>
        <time>2022-04-28T08:14:13Z</time>
      </trkpt>
      <trkpt lat="43.69985" lon="5.3431">
        <ele>195.001434</ele>
        <time>2022-04-28T08:14:42Z</time>
      </trkpt>
      <trkpt lat="43.69986" lon="5.34311">
        <ele>194.952789</ele>
        <time>2022-04-28T08:15:11Z</time>
      </trkpt>
      <trkpt lat="43.69981" lon="5.34309">
        <ele>194.921906</ele>
        <time>2022-04-28T08:15:46Z</time>
      </trkpt>
      <trkpt lat="43.69982" lon="5.34307">
        <ele>195.004166</ele>
        <time>2022-04-28T08:16:15Z</time>
      </trkpt>
      <trkpt lat="43.69982" lon="5.34308">
        <ele>194.993591</ele>
        <time>2022-04-28T08:16:43Z</time>
      </trkpt>
      <trkpt lat="43.69983" lon="5.34309">
        <ele>194.954208</ele>
        <time>2022-04-28T08:17:12Z</time>
      </trkpt>
      <trkpt lat="43.69982" lon="5.3431">
        <ele>194.913437</ele>
        <time>2022-04-28T08:17:40Z</time>
      </trkpt>
      <trkpt lat="43.69989" lon="5.34327">
        <ele>194.532913</ele>
        <time>2022-04-28T08:17:59Z</time>
      </trkpt>
      <trkpt lat="43.70018" lon="5.34398">
        <ele>193.248199</ele>
        <time>2022-04-28T08:18:13Z</time>
      </trkpt>
      <trkpt lat="43.70049" lon="5.34425">
        <ele>193.641724</ele>
        <time>2022-04-28T08:18:24Z</time>
      </trkpt>
      <trkpt lat="43.70051" lon="5.34423">
        <ele>193.771408</ele>
        <time>2022-04-28T08:18:25Z</time>
      </trkpt>
      <trkpt lat="43.70052" lon="5.3442">
        <ele>193.976257</ele>
        <time>2022-04-28T08:18:26Z</time>
      </trkpt>
      <trkpt lat="43.70052" lon="5.34416">
        <ele>194.082062</ele>
        <time>2022-04-28T08:18:27Z</time>
      </trkpt>
      <trkpt lat="43.70061" lon="5.34368">
        <ele>195.585159</ele>
        <time>2022-04-28T08:18:39Z</time>
      </trkpt>
      <trkpt lat="43.70066" lon="5.34356">
        <ele>196.292267</ele>
        <time>2022-04-28T08:18:43Z</time>
      </trkpt>
      <trkpt lat="43.70068" lon="5.34354">
        <ele>196.496078</ele>
        <time>2022-04-28T08:18:44Z</time>
      </trkpt>
      <trkpt lat="43.70094" lon="5.34332">
        <ele>199.364151</ele>
        <time>2022-04-28T08:18:56Z</time>
      </trkpt>
      <trkpt lat="43.70106" lon="5.34317">
        <ele>200.896973</ele>
        <time>2022-04-28T08:19:02Z</time>
      </trkpt>
      <trkpt lat="43.70122" lon="5.34284">
        <ele>204.570313</ele>
        <time>2022-04-28T08:19:13Z</time>
      </trkpt>
      <trkpt lat="43.70123" lon="5.34278">
        <ele>205.25676</ele>
        <time>2022-04-28T08:19:15Z</time>
      </trkpt>
      <trkpt lat="43.70127" lon="5.34269">
        <ele>206.180527</ele>
        <time>2022-04-28T08:19:18Z</time>
      </trkpt>
      <trkpt lat="43.70129" lon="5.34269">
        <ele>206.450211</ele>
        <time>2022-04-28T08:19:19Z</time>
      </trkpt>
      <trkpt lat="43.70131" lon="5.34269">
        <ele>206.684387</ele>
        <time>2022-04-28T08:19:20Z</time>
      </trkpt>
      <trkpt lat="43.70134" lon="5.3427">
        <ele>206.839691</ele>
        <time>2022-04-28T08:19:21Z</time>
      </trkpt>
      <trkpt lat="43.70137" lon="5.34271">
        <ele>207.000565</ele>
        <time>2022-04-28T08:19:22Z</time>
      </trkpt>
      <trkpt lat="43.7014" lon="5.34273">
        <ele>207.198273</ele>
        <time>2022-04-28T08:19:23Z</time>
      </trkpt>
      <trkpt lat="43.70144" lon="5.34274">
        <ele>207.10408</ele>
        <time>2022-04-28T08:19:24Z</time>
      </trkpt>
      <trkpt lat="43.70148" lon="5.34275">
        <ele>207.059311</ele>
        <time>2022-04-28T08:19:25Z</time>
      </trkpt>
      <trkpt lat="43.70152" lon="5.34275">
        <ele>207.066254</ele>
        <time>2022-04-28T08:19:26Z</time>
      </trkpt>
      <trkpt lat="43.70191" lon="5.34296">
        <ele>205.366959</ele>
        <time>2022-04-28T08:19:36Z</time>
      </trkpt>
      <trkpt lat="43.70196" lon="5.34301">
        <ele>204.922836</ele>
        <time>2022-04-28T08:19:37Z</time>
      </trkpt>
      <trkpt lat="43.702" lon="5.34304">
        <ele>204.524414</ele>
        <time>2022-04-28T08:19:38Z</time>
      </trkpt>
      <trkpt lat="43.70224" lon="5.34315">
        <ele>203.36972</ele>
        <time>2022-04-28T08:19:43Z</time>
      </trkpt>
      <trkpt lat="43.70233" lon="5.34317">
        <ele>203.36734</ele>
        <time>2022-04-28T08:19:45Z</time>
      </trkpt>
      <trkpt lat="43.70237" lon="5.3432">
        <ele>203.428009</ele>
        <time>2022-04-28T08:19:46Z</time>
      </trkpt>
      <trkpt lat="43.7024" lon="5.34323">
        <ele>203.406372</ele>
        <time>2022-04-28T08:19:47Z</time>
      </trkpt>
      <trkpt lat="43.70243" lon="5.34327">
        <ele>203.320023</ele>
        <time>2022-04-28T08:19:48Z</time>
      </trkpt>
      <trkpt lat="43.70245" lon="5.34333">
        <ele>203.134674</ele>
        <time>2022-04-28T08:19:49Z</time>
      </trkpt>
      <trkpt lat="43.70248" lon="5.34341">
        <ele>202.845642</ele>
        <time>2022-04-28T08:19:50Z</time>
      </trkpt>
      <trkpt lat="43.70249" lon="5.34349">
        <ele>202.512527</ele>
        <time>2022-04-28T08:19:51Z</time>
      </trkpt>
      <trkpt lat="43.7025" lon="5.34356">
        <ele>202.16478</ele>
        <time>2022-04-28T08:19:52Z</time>
      </trkpt>
      <trkpt lat="43.70249" lon="5.34362">
        <ele>201.772034</ele>
        <time>2022-04-28T08:19:53Z</time>
      </trkpt>
      <trkpt lat="43.70248" lon="5.34369">
        <ele>201.344955</ele>
        <time>2022-04-28T08:19:54Z</time>
      </trkpt>
      <trkpt lat="43.70246" lon="5.34382">
        <ele>200.520813</ele>
        <time>2022-04-28T08:19:56Z</time>
      </trkpt>
      <trkpt lat="43.70245" lon="5.3439">
        <ele>200.112839</ele>
        <time>2022-04-28T08:19:57Z</time>
      </trkpt>
      <trkpt lat="43.70244" lon="5.34397">
        <ele>199.683609</ele>
        <time>2022-04-28T08:19:58Z</time>
      </trkpt>
      <trkpt lat="43.70241" lon="5.34413">
        <ele>198.773941</ele>
        <time>2022-04-28T08:20:00Z</time>
      </trkpt>
      <trkpt lat="43.70242" lon="5.34422">
        <ele>198.446167</ele>
        <time>2022-04-28T08:20:01Z</time>
      </trkpt>
      <trkpt lat="43.70244" lon="5.34429">
        <ele>198.232635</ele>
        <time>2022-04-28T08:20:02Z</time>
      </trkpt>
      <trkpt lat="43.70255" lon="5.34457">
        <ele>198.151733</ele>
        <time>2022-04-28T08:20:06Z</time>
      </trkpt>
      <trkpt lat="43.7028" lon="5.34516">
        <ele>198.096146</ele>
        <time>2022-04-28T08:20:16Z</time>
      </trkpt>
      <trkpt lat="43.70282" lon="5.34522">
        <ele>198.044464</ele>
        <time>2022-04-28T08:20:17Z</time>
      </trkpt>
      <trkpt lat="43.70283" lon="5.34529">
        <ele>197.865509</ele>
        <time>2022-04-28T08:20:18Z</time>
      </trkpt>
      <trkpt lat="43.70284" lon="5.34536">
        <ele>197.646927</ele>
        <time>2022-04-28T08:20:19Z</time>
      </trkpt>
      <trkpt lat="43.70285" lon="5.34543">
        <ele>197.448074</ele>
        <time>2022-04-28T08:20:20Z</time>
      </trkpt>
      <trkpt lat="43.70288" lon="5.34558">
        <ele>197.140137</ele>
        <time>2022-04-28T08:20:22Z</time>
      </trkpt>
      <trkpt lat="43.7029" lon="5.34565">
        <ele>197.052841</ele>
        <time>2022-04-28T08:20:23Z</time>
      </trkpt>
      <trkpt lat="43.70294" lon="5.34571">
        <ele>197.102585</ele>
        <time>2022-04-28T08:20:24Z</time>
      </trkpt>
      <trkpt lat="43.70297" lon="5.34577">
        <ele>197.152634</ele>
        <time>2022-04-28T08:20:25Z</time>
      </trkpt>
      <trkpt lat="43.703" lon="5.34583">
        <ele>197.085709</ele>
        <time>2022-04-28T08:20:26Z</time>
      </trkpt>
      <trkpt lat="43.70302" lon="5.3459">
        <ele>196.950058</ele>
        <time>2022-04-28T08:20:27Z</time>
      </trkpt>
      <trkpt lat="43.70306" lon="5.34604">
        <ele>196.523376</ele>
        <time>2022-04-28T08:20:29Z</time>
      </trkpt>
      <trkpt lat="43.70311" lon="5.34624">
        <ele>195.989227</ele>
        <time>2022-04-28T08:20:32Z</time>
      </trkpt>
      <trkpt lat="43.70314" lon="5.34638">
        <ele>196.039825</ele>
        <time>2022-04-28T08:20:34Z</time>
      </trkpt>
      <trkpt lat="43.70326" lon="5.34677">
        <ele>195.139084</ele>
        <time>2022-04-28T08:20:40Z</time>
      </trkpt>
      <trkpt lat="43.70335" lon="5.34704">
        <ele>193.86174</ele>
        <time>2022-04-28T08:20:44Z</time>
      </trkpt>
      <trkpt lat="43.70335" lon="5.34712">
        <ele>193.151352</ele>
        <time>2022-04-28T08:20:45Z</time>
      </trkpt>
      <trkpt lat="43.70335" lon="5.34719">
        <ele>192.191269</ele>
        <time>2022-04-28T08:20:46Z</time>
      </trkpt>
      <trkpt lat="43.70334" lon="5.34728">
        <ele>191.226379</ele>
        <time>2022-04-28T08:20:47Z</time>
      </trkpt>
      <trkpt lat="43.70334" lon="5.34735">
        <ele>190.444336</ele>
        <time>2022-04-28T08:20:48Z</time>
      </trkpt>
      <trkpt lat="43.70336" lon="5.34742">
        <ele>189.797104</ele>
        <time>2022-04-28T08:20:49Z</time>
      </trkpt>
      <trkpt lat="43.70338" lon="5.34749">
        <ele>189.568008</ele>
        <time>2022-04-28T08:20:50Z</time>
      </trkpt>
      <trkpt lat="43.7034" lon="5.34754">
        <ele>189.497437</ele>
        <time>2022-04-28T08:20:51Z</time>
      </trkpt>
      <trkpt lat="43.70342" lon="5.3476">
        <ele>189.41481</ele>
        <time>2022-04-28T08:20:52Z</time>
      </trkpt>
      <trkpt lat="43.70344" lon="5.34765">
        <ele>189.259842</ele>
        <time>2022-04-28T08:20:53Z</time>
      </trkpt>
      <trkpt lat="43.70348" lon="5.34781">
        <ele>188.562866</ele>
        <time>2022-04-28T08:20:56Z</time>
      </trkpt>
      <trkpt lat="43.70347" lon="5.34785">
        <ele>188.298767</ele>
        <time>2022-04-28T08:20:57Z</time>
      </trkpt>
      <trkpt lat="43.70345" lon="5.34787">
        <ele>188.135056</ele>
        <time>2022-04-28T08:20:58Z</time>
      </trkpt>
      <trkpt lat="43.70343" lon="5.34787">
        <ele>188.017029</ele>
        <time>2022-04-28T08:20:59Z</time>
      </trkpt>
      <trkpt lat="43.70342" lon="5.34788">
        <ele>187.968658</ele>
        <time>2022-04-28T08:21:00Z</time>
      </trkpt>
      <trkpt lat="43.70341" lon="5.34788">
        <ele>187.928329</ele>
        <time>2022-04-28T08:21:01Z</time>
      </trkpt>
      <trkpt lat="43.70314" lon="5.34803">
        <ele>187.028809</ele>
        <time>2022-04-28T08:21:10Z</time>
      </trkpt>
      <trkpt lat="43.7031" lon="5.34807">
        <ele>186.936035</ele>
        <time>2022-04-28T08:21:11Z</time>
      </trkpt>
      <trkpt lat="43.70304" lon="5.34815">
        <ele>186.63327</ele>
        <time>2022-04-28T08:21:13Z</time>
      </trkpt>
      <trkpt lat="43.703" lon="5.34819">
        <ele>186.408249</ele>
        <time>2022-04-28T08:21:14Z</time>
      </trkpt>
      <trkpt lat="43.70296" lon="5.34822">
        <ele>186.204865</ele>
        <time>2022-04-28T08:21:15Z</time>
      </trkpt>
      <trkpt lat="43.70282" lon="5.34837">
        <ele>185.730179</ele>
        <time>2022-04-28T08:21:19Z</time>
      </trkpt>
      <trkpt lat="43.70251" lon="5.34868">
        <ele>186.239395</ele>
        <time>2022-04-28T08:21:29Z</time>
      </trkpt>
      <trkpt lat="43.70252" lon="5.34872">
        <ele>186.490372</ele>
        <time>2022-04-28T08:21:30Z</time>
      </trkpt>
      <trkpt lat="43.70253" lon="5.34876">
        <ele>186.677094</ele>
        <time>2022-04-28T08:21:31Z</time>
      </trkpt>
      <trkpt lat="43.70255" lon="5.34878">
        <ele>186.765778</ele>
        <time>2022-04-28T08:21:32Z</time>
      </trkpt>
      <trkpt lat="43.70257" lon="5.34882">
        <ele>186.883286</ele>
        <time>2022-04-28T08:21:33Z</time>
      </trkpt>
      <trkpt lat="43.7027" lon="5.34893">
        <ele>186.849213</ele>
        <time>2022-04-28T08:21:38Z</time>
      </trkpt>
      <trkpt lat="43.70272" lon="5.34894">
        <ele>186.82222</ele>
        <time>2022-04-28T08:21:39Z</time>
      </trkpt>
      <trkpt lat="43.70286" lon="5.34915">
        <ele>186.721146</ele>
        <time>2022-04-28T08:21:45Z</time>
      </trkpt>
      <trkpt lat="43.70337" lon="5.34987">
        <ele>186.110718</ele>
        <time>2022-04-28T08:22:02Z</time>
      </trkpt>
      <trkpt lat="43.70367" lon="5.35022">
        <ele>186.115891</ele>
        <time>2022-04-28T08:22:11Z</time>
      </trkpt>
      <trkpt lat="43.7039" lon="5.35056">
        <ele>185.891464</ele>
        <time>2022-04-28T08:22:21Z</time>
      </trkpt>
      <trkpt lat="43.70423" lon="5.3508">
        <ele>186.186203</ele>
        <time>2022-04-28T08:22:32Z</time>
      </trkpt>
      <trkpt lat="43.70462" lon="5.35115">
        <ele>185.992584</ele>
        <time>2022-04-28T08:22:45Z</time>
      </trkpt>
      <trkpt lat="43.7051" lon="5.35163">
        <ele>189.258698</ele>
        <time>2022-04-28T08:23:01Z</time>
      </trkpt>
      <trkpt lat="43.70569" lon="5.35213">
        <ele>187.08873</ele>
        <time>2022-04-28T08:23:20Z</time>
      </trkpt>
      <trkpt lat="43.70582" lon="5.35237">
        <ele>186.888443</ele>
        <time>2022-04-28T08:23:31Z</time>
      </trkpt>
      <trkpt lat="43.70585" lon="5.35237">
        <ele>186.555542</ele>
        <time>2022-04-28T08:23:50Z</time>
      </trkpt>
      <trkpt lat="43.70583" lon="5.35241">
        <ele>186.825607</ele>
        <time>2022-04-28T08:24:05Z</time>
      </trkpt>
      <trkpt lat="43.70586" lon="5.35242">
        <ele>186.590256</ele>
        <time>2022-04-28T08:24:33Z</time>
      </trkpt>
      <trkpt lat="43.70578" lon="5.35281">
        <ele>186.699585</ele>
        <time>2022-04-28T08:24:44Z</time>
      </trkpt>
      <trkpt lat="43.70548" lon="5.35361">
        <ele>186.803513</ele>
        <time>2022-04-28T08:25:01Z</time>
      </trkpt>
      <trkpt lat="43.70525" lon="5.3543">
        <ele>185.830902</ele>
        <time>2022-04-28T08:25:16Z</time>
      </trkpt>
      <trkpt lat="43.70506" lon="5.35492">
        <ele>184.697662</ele>
        <time>2022-04-28T08:25:29Z</time>
      </trkpt>
      <trkpt lat="43.70474" lon="5.3555">
        <ele>185.13974</ele>
        <time>2022-04-28T08:25:43Z</time>
      </trkpt>
      <trkpt lat="43.70473" lon="5.35609">
        <ele>185.420898</ele>
        <time>2022-04-28T08:25:55Z</time>
      </trkpt>
      <trkpt lat="43.70471" lon="5.3565">
        <ele>186.446365</ele>
        <time>2022-04-28T08:26:07Z</time>
      </trkpt>
      <trkpt lat="43.70471" lon="5.35652">
        <ele>186.505112</ele>
        <time>2022-04-28T08:26:08Z</time>
      </trkpt>
      <trkpt lat="43.70472" lon="5.35654">
        <ele>186.535065</ele>
        <time>2022-04-28T08:26:09Z</time>
      </trkpt>
      <trkpt lat="43.70474" lon="5.3567">
        <ele>186.823868</ele>
        <time>2022-04-28T08:26:15Z</time>
      </trkpt>
      <trkpt lat="43.70473" lon="5.35672">
        <ele>186.950333</ele>
        <time>2022-04-28T08:26:16Z</time>
      </trkpt>
      <trkpt lat="43.70472" lon="5.35674">
        <ele>187.044647</ele>
        <time>2022-04-28T08:26:17Z</time>
      </trkpt>
      <trkpt lat="43.70472" lon="5.35677">
        <ele>187.13475</ele>
        <time>2022-04-28T08:26:18Z</time>
      </trkpt>
      <trkpt lat="43.70473" lon="5.35681">
        <ele>187.171814</ele>
        <time>2022-04-28T08:26:19Z</time>
      </trkpt>
      <trkpt lat="43.70474" lon="5.35685">
        <ele>186.997696</ele>
        <time>2022-04-28T08:26:20Z</time>
      </trkpt>
      <trkpt lat="43.70475" lon="5.35689">
        <ele>186.819366</ele>
        <time>2022-04-28T08:26:21Z</time>
      </trkpt>
      <trkpt lat="43.70489" lon="5.3574">
        <ele>185.683258</ele>
        <time>2022-04-28T08:26:34Z</time>
      </trkpt>
      <trkpt lat="43.70502" lon="5.35788">
        <ele>190.832687</ele>
        <time>2022-04-28T08:26:46Z</time>
      </trkpt>
      <trkpt lat="43.70499" lon="5.35793">
        <ele>191.550613</ele>
        <time>2022-04-28T08:26:48Z</time>
      </trkpt>
      <trkpt lat="43.70497" lon="5.35794">
        <ele>191.730011</ele>
        <time>2022-04-28T08:26:49Z</time>
      </trkpt>
      <trkpt lat="43.70494" lon="5.35794">
        <ele>191.894012</ele>
        <time>2022-04-28T08:26:50Z</time>
      </trkpt>
      <trkpt lat="43.70491" lon="5.35794">
        <ele>192.02832</ele>
        <time>2022-04-28T08:26:51Z</time>
      </trkpt>
      <trkpt lat="43.70488" lon="5.35794">
        <ele>192.085434</ele>
        <time>2022-04-28T08:26:52Z</time>
      </trkpt>
      <trkpt lat="43.70485" lon="5.35793">
        <ele>192.106842</ele>
        <time>2022-04-28T08:26:53Z</time>
      </trkpt>
      <trkpt lat="43.70482" lon="5.35792">
        <ele>192.094986</ele>
        <time>2022-04-28T08:26:54Z</time>
      </trkpt>
      <trkpt lat="43.7044" lon="5.35784">
        <ele>192.928436</ele>
        <time>2022-04-28T08:27:09Z</time>
      </trkpt>
      <trkpt lat="43.70404" lon="5.35785">
        <ele>195.193771</ele>
        <time>2022-04-28T08:27:22Z</time>
      </trkpt>
      <trkpt lat="43.7037" lon="5.3579">
        <ele>196.964279</ele>
        <time>2022-04-28T08:27:35Z</time>
      </trkpt>
      <trkpt lat="43.70339" lon="5.35799">
        <ele>199.361786</ele>
        <time>2022-04-28T08:27:47Z</time>
      </trkpt>
      <trkpt lat="43.70307" lon="5.35805">
        <ele>202.789627</ele>
        <time>2022-04-28T08:28:00Z</time>
      </trkpt>
      <trkpt lat="43.70272" lon="5.35813">
        <ele>206.45192</ele>
        <time>2022-04-28T08:28:14Z</time>
      </trkpt>
      <trkpt lat="43.70232" lon="5.35824">
        <ele>209.500885</ele>
        <time>2022-04-28T08:28:29Z</time>
      </trkpt>
      <trkpt lat="43.70204" lon="5.35838">
        <ele>212.371445</ele>
        <time>2022-04-28T08:28:41Z</time>
      </trkpt>
      <trkpt lat="43.70176" lon="5.35853">
        <ele>214.903351</ele>
        <time>2022-04-28T08:28:53Z</time>
      </trkpt>
      <trkpt lat="43.70146" lon="5.35862">
        <ele>218.4104</ele>
        <time>2022-04-28T08:29:06Z</time>
      </trkpt>
      <trkpt lat="43.7012" lon="5.35873">
        <ele>222.454208</ele>
        <time>2022-04-28T08:29:17Z</time>
      </trkpt>
      <trkpt lat="43.70097" lon="5.35884">
        <ele>226.237213</ele>
        <time>2022-04-28T08:29:27Z</time>
      </trkpt>
      <trkpt lat="43.70087" lon="5.35887">
        <ele>226.704895</ele>
        <time>2022-04-28T08:29:31Z</time>
      </trkpt>
      <trkpt lat="43.70048" lon="5.35904">
        <ele>228.603546</ele>
        <time>2022-04-28T08:29:46Z</time>
      </trkpt>
      <trkpt lat="43.70014" lon="5.35922">
        <ele>233.768921</ele>
        <time>2022-04-28T08:30:00Z</time>
      </trkpt>
      <trkpt lat="43.69971" lon="5.35926">
        <ele>235.520767</ele>
        <time>2022-04-28T08:30:16Z</time>
      </trkpt>
      <trkpt lat="43.69944" lon="5.35933">
        <ele>235.70607</ele>
        <time>2022-04-28T08:30:28Z</time>
      </trkpt>
      <trkpt lat="43.69936" lon="5.35942">
        <ele>236.427628</ele>
        <time>2022-04-28T08:30:40Z</time>
      </trkpt>
      <trkpt lat="43.69938" lon="5.35942">
        <ele>236.694214</ele>
        <time>2022-04-28T08:31:03Z</time>
      </trkpt>
      <trkpt lat="43.69937" lon="5.35942">
        <ele>236.644958</ele>
        <time>2022-04-28T08:31:27Z</time>
      </trkpt>
      <trkpt lat="43.69939" lon="5.35946">
        <ele>237.523514</ele>
        <time>2022-04-28T08:31:50Z</time>
      </trkpt>
      <trkpt lat="43.69937" lon="5.35942">
        <ele>236.535416</ele>
        <time>2022-04-28T08:32:28Z</time>
      </trkpt>
      <trkpt lat="43.69939" lon="5.35943">
        <ele>236.975494</ele>
        <time>2022-04-28T08:33:00Z</time>
      </trkpt>
      <trkpt lat="43.69937" lon="5.35943">
        <ele>236.743317</ele>
        <time>2022-04-28T08:33:27Z</time>
      </trkpt>
      <trkpt lat="43.69937" lon="5.35945">
        <ele>237.171234</ele>
        <time>2022-04-28T08:33:51Z</time>
      </trkpt>
      <trkpt lat="43.69935" lon="5.35941">
        <ele>236.177567</ele>
        <time>2022-04-28T08:34:22Z</time>
      </trkpt>
      <trkpt lat="43.69936" lon="5.35943">
        <ele>236.672791</ele>
        <time>2022-04-28T08:34:52Z</time>
      </trkpt>
      <trkpt lat="43.69935" lon="5.35939">
        <ele>235.945618</ele>
        <time>2022-04-28T08:35:20Z</time>
      </trkpt>
      <trkpt lat="43.69933" lon="5.35939">
        <ele>235.687408</ele>
        <time>2022-04-28T08:35:45Z</time>
      </trkpt>
      <trkpt lat="43.69934" lon="5.35938">
        <ele>235.646973</ele>
        <time>2022-04-28T08:36:11Z</time>
      </trkpt>
      <trkpt lat="43.69933" lon="5.35939">
        <ele>235.568665</ele>
        <time>2022-04-28T08:36:34Z</time>
      </trkpt>
      <trkpt lat="43.69935" lon="5.35939">
        <ele>235.799911</ele>
        <time>2022-04-28T08:37:06Z</time>
      </trkpt>
      <trkpt lat="43.69935" lon="5.3594">
        <ele>235.996445</ele>
        <time>2022-04-28T08:37:35Z</time>
      </trkpt>
      <trkpt lat="43.69933" lon="5.35941">
        <ele>235.947983</ele>
        <time>2022-04-28T08:37:54Z</time>
      </trkpt>
      <trkpt lat="43.69933" lon="5.35938">
        <ele>235.484604</ele>
        <time>2022-04-28T08:38:19Z</time>
      </trkpt>
      <trkpt lat="43.69931" lon="5.3594">
        <ele>235.564774</ele>
        <time>2022-04-28T08:38:31Z</time>
      </trkpt>
      <trkpt lat="43.6993" lon="5.3594">
        <ele>235.514771</ele>
        <time>2022-04-28T08:38:32Z</time>
      </trkpt>
      <trkpt lat="43.69928" lon="5.35941">
        <ele>235.518188</ele>
        <time>2022-04-28T08:38:33Z</time>
      </trkpt>
      <trkpt lat="43.69927" lon="5.35942">
        <ele>235.552002</ele>
        <time>2022-04-28T08:38:34Z</time>
      </trkpt>
      <trkpt lat="43.69926" lon="5.35943">
        <ele>235.618927</ele>
        <time>2022-04-28T08:38:35Z</time>
      </trkpt>
      <trkpt lat="43.699" lon="5.35963">
        <ele>237.047272</ele>
        <time>2022-04-28T08:38:47Z</time>
      </trkpt>
      <trkpt lat="43.69857" lon="5.35982">
        <ele>240.4543</ele>
        <time>2022-04-28T08:39:04Z</time>
      </trkpt>
      <trkpt lat="43.69824" lon="5.35988">
        <ele>242.962189</ele>
        <time>2022-04-28T08:39:17Z</time>
      </trkpt>
      <trkpt lat="43.69793" lon="5.35997">
        <ele>246.528122</ele>
        <time>2022-04-28T08:39:29Z</time>
      </trkpt>
      <trkpt lat="43.69758" lon="5.36013">
        <ele>249.150223</ele>
        <time>2022-04-28T08:39:43Z</time>
      </trkpt>
      <trkpt lat="43.69725" lon="5.36033">
        <ele>251.27124</ele>
        <time>2022-04-28T08:39:58Z</time>
      </trkpt>
      <trkpt lat="43.69704" lon="5.36034">
        <ele>250.26123</ele>
        <time>2022-04-28T08:40:08Z</time>
      </trkpt>
      <trkpt lat="43.69703" lon="5.36035">
        <ele>250.173004</ele>
        <time>2022-04-28T08:40:09Z</time>
      </trkpt>
      <trkpt lat="43.69702" lon="5.36035">
        <ele>250.089203</ele>
        <time>2022-04-28T08:40:10Z</time>
      </trkpt>
      <trkpt lat="43.697" lon="5.36037">
        <ele>249.933167</ele>
        <time>2022-04-28T08:40:12Z</time>
      </trkpt>
      <trkpt lat="43.69699" lon="5.36038">
        <ele>249.834641</ele>
        <time>2022-04-28T08:40:13Z</time>
      </trkpt>
      <trkpt lat="43.69698" lon="5.36038">
        <ele>249.735931</ele>
        <time>2022-04-28T08:40:14Z</time>
      </trkpt>
      <trkpt lat="43.69697" lon="5.36039">
        <ele>249.633194</ele>
        <time>2022-04-28T08:40:15Z</time>
      </trkpt>
      <trkpt lat="43.69696" lon="5.36039">
        <ele>249.539368</ele>
        <time>2022-04-28T08:40:16Z</time>
      </trkpt>
      <trkpt lat="43.69694" lon="5.36039">
        <ele>249.423157</ele>
        <time>2022-04-28T08:40:17Z</time>
      </trkpt>
      <trkpt lat="43.69693" lon="5.3604">
        <ele>249.284225</ele>
        <time>2022-04-28T08:40:18Z</time>
      </trkpt>
      <trkpt lat="43.69681" lon="5.36045">
        <ele>248.301041</ele>
        <time>2022-04-28T08:40:26Z</time>
      </trkpt>
      <trkpt lat="43.6968" lon="5.36043">
        <ele>248.460907</ele>
        <time>2022-04-28T08:40:40Z</time>
      </trkpt>
      <trkpt lat="43.69678" lon="5.36044">
        <ele>248.33168</ele>
        <time>2022-04-28T08:41:13Z</time>
      </trkpt>
      <trkpt lat="43.69677" lon="5.36045">
        <ele>248.290665</ele>
        <time>2022-04-28T08:41:14Z</time>
      </trkpt>
      <trkpt lat="43.69676" lon="5.36046">
        <ele>248.238174</ele>
        <time>2022-04-28T08:41:15Z</time>
      </trkpt>
      <trkpt lat="43.6964" lon="5.36064">
        <ele>247.331131</ele>
        <time>2022-04-28T08:41:30Z</time>
      </trkpt>
      <trkpt lat="43.69613" lon="5.36066">
        <ele>244.752991</ele>
        <time>2022-04-28T08:41:41Z</time>
      </trkpt>
      <trkpt lat="43.69598" lon="5.3606">
        <ele>243.814377</ele>
        <time>2022-04-28T08:41:48Z</time>
      </trkpt>
      <trkpt lat="43.69596" lon="5.3606">
        <ele>243.628372</ele>
        <time>2022-04-28T08:41:49Z</time>
      </trkpt>
      <trkpt lat="43.69594" lon="5.3606">
        <ele>243.412369</ele>
        <time>2022-04-28T08:41:50Z</time>
      </trkpt>
      <trkpt lat="43.69591" lon="5.36059">
        <ele>243.189789</ele>
        <time>2022-04-28T08:41:51Z</time>
      </trkpt>
      <trkpt lat="43.69588" lon="5.36059">
        <ele>242.972244</ele>
        <time>2022-04-28T08:41:52Z</time>
      </trkpt>
      <trkpt lat="43.69586" lon="5.3606">
        <ele>242.772263</ele>
        <time>2022-04-28T08:41:53Z</time>
      </trkpt>
      <trkpt lat="43.69584" lon="5.3606">
        <ele>242.558289</ele>
        <time>2022-04-28T08:41:54Z</time>
      </trkpt>
      <trkpt lat="43.69557" lon="5.36058">
        <ele>240.22377</ele>
        <time>2022-04-28T08:42:05Z</time>
      </trkpt>
      <trkpt lat="43.69544" lon="5.36062">
        <ele>239.177399</ele>
        <time>2022-04-28T08:42:10Z</time>
      </trkpt>
      <trkpt lat="43.69544" lon="5.36081">
        <ele>237.28421</ele>
        <time>2022-04-28T08:42:18Z</time>
      </trkpt>
      <trkpt lat="43.69545" lon="5.36087">
        <ele>236.623337</ele>
        <time>2022-04-28T08:42:31Z</time>
      </trkpt>
      <trkpt lat="43.69549" lon="5.36106">
        <ele>234.471558</ele>
        <time>2022-04-28T08:42:42Z</time>
      </trkpt>
      <trkpt lat="43.6955" lon="5.36112">
        <ele>233.930557</ele>
        <time>2022-04-28T08:42:45Z</time>
      </trkpt>
      <trkpt lat="43.69549" lon="5.36119">
        <ele>233.049759</ele>
        <time>2022-04-28T08:42:49Z</time>
      </trkpt>
      <trkpt lat="43.69549" lon="5.36121">
        <ele>232.886658</ele>
        <time>2022-04-28T08:42:50Z</time>
      </trkpt>
      <trkpt lat="43.69556" lon="5.36125">
        <ele>233.025848</ele>
        <time>2022-04-28T08:43:00Z</time>
      </trkpt>
      <trkpt lat="43.69556" lon="5.36125">
        <ele>233.002258</ele>
        <time>2022-04-28T08:43:06Z</time>
      </trkpt>
      <trkpt lat="43.69558" lon="5.36129">
        <ele>232.863037</ele>
        <time>2022-04-28T08:43:09Z</time>
      </trkpt>
      <trkpt lat="43.69552" lon="5.36153">
        <ele>230.212372</ele>
        <time>2022-04-28T08:43:17Z</time>
      </trkpt>
      <trkpt lat="43.69547" lon="5.36158">
        <ele>229.611008</ele>
        <time>2022-04-28T08:43:20Z</time>
      </trkpt>
      <trkpt lat="43.69546" lon="5.36162">
        <ele>229.343369</ele>
        <time>2022-04-28T08:43:21Z</time>
      </trkpt>
      <trkpt lat="43.69549" lon="5.36175">
        <ele>228.266571</ele>
        <time>2022-04-28T08:43:25Z</time>
      </trkpt>
      <trkpt lat="43.69552" lon="5.36187">
        <ele>227.180466</ele>
        <time>2022-04-28T08:43:30Z</time>
      </trkpt>
      <trkpt lat="43.69559" lon="5.36194">
        <ele>226.306641</ele>
        <time>2022-04-28T08:43:34Z</time>
      </trkpt>
      <trkpt lat="43.69568" lon="5.36197">
        <ele>225.801636</ele>
        <time>2022-04-28T08:43:39Z</time>
      </trkpt>
      <trkpt lat="43.69577" lon="5.36211">
        <ele>224.026749</ele>
        <time>2022-04-28T08:43:45Z</time>
      </trkpt>
      <trkpt lat="43.69604" lon="5.36241">
        <ele>222.041214</ele>
        <time>2022-04-28T08:43:59Z</time>
      </trkpt>
      <trkpt lat="43.69608" lon="5.36246">
        <ele>221.916122</ele>
        <time>2022-04-28T08:44:22Z</time>
      </trkpt>
      <trkpt lat="43.69625" lon="5.36272">
        <ele>221.050232</ele>
        <time>2022-04-28T08:44:32Z</time>
      </trkpt>
      <trkpt lat="43.69647" lon="5.36307">
        <ele>221.026382</ele>
        <time>2022-04-28T08:44:42Z</time>
      </trkpt>
      <trkpt lat="43.69655" lon="5.36342">
        <ele>219.783722</ele>
        <time>2022-04-28T08:44:50Z</time>
      </trkpt>
      <trkpt lat="43.69673" lon="5.3639">
        <ele>217.270676</ele>
        <time>2022-04-28T08:45:02Z</time>
      </trkpt>
      <trkpt lat="43.69685" lon="5.36418">
        <ele>216.484589</ele>
        <time>2022-04-28T08:45:10Z</time>
      </trkpt>
      <trkpt lat="43.69699" lon="5.36439">
        <ele>214.61026</ele>
        <time>2022-04-28T08:45:19Z</time>
      </trkpt>
      <trkpt lat="43.697" lon="5.3644">
        <ele>214.567093</ele>
        <time>2022-04-28T08:45:20Z</time>
      </trkpt>
      <trkpt lat="43.69715" lon="5.36468">
        <ele>213.260727</ele>
        <time>2022-04-28T08:45:30Z</time>
      </trkpt>
      <trkpt lat="43.69724" lon="5.36474">
        <ele>212.638428</ele>
        <time>2022-04-28T08:45:34Z</time>
      </trkpt>
      <trkpt lat="43.69742" lon="5.36475">
        <ele>212.29158</ele>
        <time>2022-04-28T08:45:41Z</time>
      </trkpt>
      <trkpt lat="43.69782" lon="5.3648">
        <ele>210.789047</ele>
        <time>2022-04-28T08:45:54Z</time>
      </trkpt>
      <trkpt lat="43.69797" lon="5.36482">
        <ele>210.080643</ele>
        <time>2022-04-28T08:45:59Z</time>
      </trkpt>
      <trkpt lat="43.69816" lon="5.3649">
        <ele>208.867386</ele>
        <time>2022-04-28T08:46:06Z</time>
      </trkpt>
      <trkpt lat="43.69855" lon="5.36492">
        <ele>208.461151</ele>
        <time>2022-04-28T08:46:17Z</time>
      </trkpt>
      <trkpt lat="43.69869" lon="5.36496">
        <ele>207.296646</ele>
        <time>2022-04-28T08:46:22Z</time>
      </trkpt>
      <trkpt lat="43.69871" lon="5.36499">
        <ele>206.667938</ele>
        <time>2022-04-28T08:46:23Z</time>
      </trkpt>
      <trkpt lat="43.69879" lon="5.36508">
        <ele>204.438736</ele>
        <time>2022-04-28T08:46:26Z</time>
      </trkpt>
      <trkpt lat="43.69883" lon="5.36511">
        <ele>203.689987</ele>
        <time>2022-04-28T08:46:27Z</time>
      </trkpt>
      <trkpt lat="43.69887" lon="5.36512">
        <ele>203.120239</ele>
        <time>2022-04-28T08:46:28Z</time>
      </trkpt>
      <trkpt lat="43.69891" lon="5.36513">
        <ele>202.828903</ele>
        <time>2022-04-28T08:46:29Z</time>
      </trkpt>
      <trkpt lat="43.69894" lon="5.36512">
        <ele>202.758698</ele>
        <time>2022-04-28T08:46:30Z</time>
      </trkpt>
      <trkpt lat="43.69897" lon="5.36512">
        <ele>202.657104</ele>
        <time>2022-04-28T08:46:31Z</time>
      </trkpt>
      <trkpt lat="43.699" lon="5.36513">
        <ele>202.453827</ele>
        <time>2022-04-28T08:46:32Z</time>
      </trkpt>
      <trkpt lat="43.69902" lon="5.36515">
        <ele>202.017532</ele>
        <time>2022-04-28T08:46:33Z</time>
      </trkpt>
      <trkpt lat="43.69904" lon="5.36517">
        <ele>201.543884</ele>
        <time>2022-04-28T08:46:34Z</time>
      </trkpt>
      <trkpt lat="43.69906" lon="5.36517">
        <ele>201.665695</ele>
        <time>2022-04-28T08:46:43Z</time>
      </trkpt>
      <trkpt lat="43.69908" lon="5.3652">
        <ele>201.032776</ele>
        <time>2022-04-28T08:47:08Z</time>
      </trkpt>
      <trkpt lat="43.6991" lon="5.36521">
        <ele>201.078506</ele>
        <time>2022-04-28T08:47:09Z</time>
      </trkpt>
      <trkpt lat="43.69939" lon="5.36537">
        <ele>199.925095</ele>
        <time>2022-04-28T08:47:20Z</time>
      </trkpt>
      <trkpt lat="43.69943" lon="5.36551">
        <ele>199.618973</ele>
        <time>2022-04-28T08:47:25Z</time>
      </trkpt>
      <trkpt lat="43.69943" lon="5.36554">
        <ele>199.085144</ele>
        <time>2022-04-28T08:47:26Z</time>
      </trkpt>
      <trkpt lat="43.69943" lon="5.36556">
        <ele>198.901215</ele>
        <time>2022-04-28T08:47:27Z</time>
      </trkpt>
      <trkpt lat="43.69943" lon="5.36561">
        <ele>198.56955</ele>
        <time>2022-04-28T08:47:36Z</time>
      </trkpt>
      <trkpt lat="43.69944" lon="5.36571">
        <ele>198.783249</ele>
        <time>2022-04-28T08:47:46Z</time>
      </trkpt>
      <trkpt lat="43.69944" lon="5.36574">
        <ele>198.372467</ele>
        <time>2022-04-28T08:47:47Z</time>
      </trkpt>
      <trkpt lat="43.69943" lon="5.36578">
        <ele>197.759567</ele>
        <time>2022-04-28T08:47:48Z</time>
      </trkpt>
      <trkpt lat="43.69942" lon="5.36582">
        <ele>197.020966</ele>
        <time>2022-04-28T08:47:49Z</time>
      </trkpt>
      <trkpt lat="43.69941" lon="5.36585">
        <ele>196.110458</ele>
        <time>2022-04-28T08:47:50Z</time>
      </trkpt>
      <trkpt lat="43.69939" lon="5.36588">
        <ele>196.501007</ele>
        <time>2022-04-28T08:47:51Z</time>
      </trkpt>
      <trkpt lat="43.69921" lon="5.36619">
        <ele>199.866486</ele>
        <time>2022-04-28T08:48:00Z</time>
      </trkpt>
      <trkpt lat="43.6992" lon="5.36626">
        <ele>199.698868</ele>
        <time>2022-04-28T08:48:02Z</time>
      </trkpt>
      <trkpt lat="43.6992" lon="5.3663">
        <ele>199.565369</ele>
        <time>2022-04-28T08:48:03Z</time>
      </trkpt>
      <trkpt lat="43.69921" lon="5.36634">
        <ele>199.39682</ele>
        <time>2022-04-28T08:48:04Z</time>
      </trkpt>
      <trkpt lat="43.69922" lon="5.36652">
        <ele>199.76178</ele>
        <time>2022-04-28T08:48:09Z</time>
      </trkpt>
      <trkpt lat="43.69923" lon="5.36655">
        <ele>199.785721</ele>
        <time>2022-04-28T08:48:10Z</time>
      </trkpt>
      <trkpt lat="43.69925" lon="5.36657">
        <ele>199.583878</ele>
        <time>2022-04-28T08:48:11Z</time>
      </trkpt>
      <trkpt lat="43.69928" lon="5.36658">
        <ele>199.257828</ele>
        <time>2022-04-28T08:48:12Z</time>
      </trkpt>
      <trkpt lat="43.69931" lon="5.3666">
        <ele>198.884094</ele>
        <time>2022-04-28T08:48:13Z</time>
      </trkpt>
      <trkpt lat="43.69941" lon="5.3668">
        <ele>198.332092</ele>
        <time>2022-04-28T08:48:21Z</time>
      </trkpt>
      <trkpt lat="43.69942" lon="5.36682">
        <ele>198.416916</ele>
        <time>2022-04-28T08:48:22Z</time>
      </trkpt>
      <trkpt lat="43.69944" lon="5.36684">
        <ele>198.475601</ele>
        <time>2022-04-28T08:48:23Z</time>
      </trkpt>
      <trkpt lat="43.69946" lon="5.36686">
        <ele>198.476776</ele>
        <time>2022-04-28T08:48:24Z</time>
      </trkpt>
      <trkpt lat="43.69948" lon="5.36689">
        <ele>198.36644</ele>
        <time>2022-04-28T08:48:25Z</time>
      </trkpt>
      <trkpt lat="43.6995" lon="5.36692">
        <ele>198.188309</ele>
        <time>2022-04-28T08:48:26Z</time>
      </trkpt>
      <trkpt lat="43.69952" lon="5.36694">
        <ele>197.946716</ele>
        <time>2022-04-28T08:48:27Z</time>
      </trkpt>
      <trkpt lat="43.69954" lon="5.36696">
        <ele>197.636581</ele>
        <time>2022-04-28T08:48:28Z</time>
      </trkpt>
      <trkpt lat="43.69956" lon="5.36699">
        <ele>197.203827</ele>
        <time>2022-04-28T08:48:29Z</time>
      </trkpt>
      <trkpt lat="43.69958" lon="5.36701">
        <ele>196.697968</ele>
        <time>2022-04-28T08:48:30Z</time>
      </trkpt>
      <trkpt lat="43.69979" lon="5.36718">
        <ele>194.841156</ele>
        <time>2022-04-28T08:48:41Z</time>
      </trkpt>
      <trkpt lat="43.69982" lon="5.36718">
        <ele>194.400558</ele>
        <time>2022-04-28T08:48:42Z</time>
      </trkpt>
      <trkpt lat="43.69997" lon="5.36728">
        <ele>197.171249</ele>
        <time>2022-04-28T08:48:51Z</time>
      </trkpt>
      <trkpt lat="43.70001" lon="5.3673">
        <ele>197.411591</ele>
        <time>2022-04-28T08:48:53Z</time>
      </trkpt>
      <trkpt lat="43.70021" lon="5.36746">
        <ele>196.14505</ele>
        <time>2022-04-28T08:49:04Z</time>
      </trkpt>
      <trkpt lat="43.70024" lon="5.36749">
        <ele>195.411972</ele>
        <time>2022-04-28T08:49:15Z</time>
      </trkpt>
      <trkpt lat="43.70031" lon="5.36756">
        <ele>196.759476</ele>
        <time>2022-04-28T08:49:27Z</time>
      </trkpt>
      <trkpt lat="43.70032" lon="5.36757">
        <ele>197.289536</ele>
        <time>2022-04-28T08:49:32Z</time>
      </trkpt>
      <trkpt lat="43.70046" lon="5.36792">
        <ele>198.1763</ele>
        <time>2022-04-28T08:49:45Z</time>
      </trkpt>
      <trkpt lat="43.70043" lon="5.36821">
        <ele>192.831955</ele>
        <time>2022-04-28T08:49:54Z</time>
      </trkpt>
      <trkpt lat="43.70036" lon="5.36853">
        <ele>195.422867</ele>
        <time>2022-04-28T08:50:03Z</time>
      </trkpt>
      <trkpt lat="43.70064" lon="5.36851">
        <ele>191.525909</ele>
        <time>2022-04-28T08:50:15Z</time>
      </trkpt>
      <trkpt lat="43.70075" lon="5.36855">
        <ele>191.441788</ele>
        <time>2022-04-28T08:50:19Z</time>
      </trkpt>
      <trkpt lat="43.70076" lon="5.36857">
        <ele>191.721588</ele>
        <time>2022-04-28T08:50:20Z</time>
      </trkpt>
      <trkpt lat="43.70078" lon="5.36859">
        <ele>192.018127</ele>
        <time>2022-04-28T08:50:21Z</time>
      </trkpt>
      <trkpt lat="43.70079" lon="5.36862">
        <ele>192.280884</ele>
        <time>2022-04-28T08:50:22Z</time>
      </trkpt>
      <trkpt lat="43.70087" lon="5.36872">
        <ele>192.84256</ele>
        <time>2022-04-28T08:50:27Z</time>
      </trkpt>
      <trkpt lat="43.7009" lon="5.36872">
        <ele>192.511673</ele>
        <time>2022-04-28T08:50:28Z</time>
      </trkpt>
      <trkpt lat="43.70092" lon="5.36871">
        <ele>192.10907</ele>
        <time>2022-04-28T08:50:29Z</time>
      </trkpt>
      <trkpt lat="43.70095" lon="5.3687">
        <ele>191.662537</ele>
        <time>2022-04-28T08:50:30Z</time>
      </trkpt>
      <trkpt lat="43.70098" lon="5.36869">
        <ele>191.216263</ele>
        <time>2022-04-28T08:50:31Z</time>
      </trkpt>
      <trkpt lat="43.70101" lon="5.36868">
        <ele>190.807541</ele>
        <time>2022-04-28T08:50:32Z</time>
      </trkpt>
      <trkpt lat="43.70104" lon="5.36869">
        <ele>190.460663</ele>
        <time>2022-04-28T08:50:33Z</time>
      </trkpt>
      <trkpt lat="43.70107" lon="5.3687">
        <ele>190.182297</ele>
        <time>2022-04-28T08:50:34Z</time>
      </trkpt>
      <trkpt lat="43.7011" lon="5.36872">
        <ele>189.908051</ele>
        <time>2022-04-28T08:50:35Z</time>
      </trkpt>
      <trkpt lat="43.70112" lon="5.36875">
        <ele>189.60759</ele>
        <time>2022-04-28T08:50:36Z</time>
      </trkpt>
      <trkpt lat="43.7013" lon="5.36906">
        <ele>187.242172</ele>
        <time>2022-04-28T08:50:46Z</time>
      </trkpt>
      <trkpt lat="43.7014" lon="5.36948">
        <ele>185.712112</ele>
        <time>2022-04-28T08:50:57Z</time>
      </trkpt>
      <trkpt lat="43.70139" lon="5.36952">
        <ele>185.965759</ele>
        <time>2022-04-28T08:50:58Z</time>
      </trkpt>
      <trkpt lat="43.70137" lon="5.36955">
        <ele>186.436874</ele>
        <time>2022-04-28T08:50:59Z</time>
      </trkpt>
      <trkpt lat="43.70136" lon="5.36958">
        <ele>186.907501</ele>
        <time>2022-04-28T08:51:00Z</time>
      </trkpt>
      <trkpt lat="43.70134" lon="5.36961">
        <ele>187.313446</ele>
        <time>2022-04-28T08:51:01Z</time>
      </trkpt>
      <trkpt lat="43.70133" lon="5.36965">
        <ele>187.682114</ele>
        <time>2022-04-28T08:51:02Z</time>
      </trkpt>
      <trkpt lat="43.70132" lon="5.36968">
        <ele>188.206345</ele>
        <time>2022-04-28T08:51:03Z</time>
      </trkpt>
      <trkpt lat="43.70131" lon="5.36972">
        <ele>188.745682</ele>
        <time>2022-04-28T08:51:04Z</time>
      </trkpt>
      <trkpt lat="43.7013" lon="5.36976">
        <ele>189.269409</ele>
        <time>2022-04-28T08:51:05Z</time>
      </trkpt>
      <trkpt lat="43.70129" lon="5.36978">
        <ele>189.595642</ele>
        <time>2022-04-28T08:51:06Z</time>
      </trkpt>
      <trkpt lat="43.70129" lon="5.36981">
        <ele>189.959778</ele>
        <time>2022-04-28T08:51:07Z</time>
      </trkpt>
      <trkpt lat="43.70129" lon="5.36984">
        <ele>190.291672</ele>
        <time>2022-04-28T08:51:08Z</time>
      </trkpt>
      <trkpt lat="43.70128" lon="5.36988">
        <ele>190.555435</ele>
        <time>2022-04-28T08:51:09Z</time>
      </trkpt>
      <trkpt lat="43.70128" lon="5.36991">
        <ele>190.834991</ele>
        <time>2022-04-28T08:51:10Z</time>
      </trkpt>
      <trkpt lat="43.70128" lon="5.36995">
        <ele>190.907089</ele>
        <time>2022-04-28T08:51:11Z</time>
      </trkpt>
      <trkpt lat="43.70129" lon="5.36999">
        <ele>190.639984</ele>
        <time>2022-04-28T08:51:12Z</time>
      </trkpt>
      <trkpt lat="43.70131" lon="5.37001">
        <ele>190.053055</ele>
        <time>2022-04-28T08:51:13Z</time>
      </trkpt>
      <trkpt lat="43.70132" lon="5.37004">
        <ele>189.449051</ele>
        <time>2022-04-28T08:51:14Z</time>
      </trkpt>
      <trkpt lat="43.70133" lon="5.37007">
        <ele>189.142166</ele>
        <time>2022-04-28T08:51:15Z</time>
      </trkpt>
      <trkpt lat="43.70133" lon="5.37009">
        <ele>188.905304</ele>
        <time>2022-04-28T08:51:23Z</time>
      </trkpt>
      <trkpt lat="43.70133" lon="5.37011">
        <ele>189.171387</ele>
        <time>2022-04-28T08:51:24Z</time>
      </trkpt>
      <trkpt lat="43.70132" lon="5.37018">
        <ele>189.851318</ele>
        <time>2022-04-28T08:51:34Z</time>
      </trkpt>
      <trkpt lat="43.70132" lon="5.3702">
        <ele>189.94574</ele>
        <time>2022-04-28T08:51:59Z</time>
      </trkpt>
      <trkpt lat="43.70134" lon="5.37044">
        <ele>187.512222</ele>
        <time>2022-04-28T08:52:09Z</time>
      </trkpt>
      <trkpt lat="43.70135" lon="5.37047">
        <ele>186.33757</ele>
        <time>2022-04-28T08:52:10Z</time>
      </trkpt>
      <trkpt lat="43.70137" lon="5.37051">
        <ele>185.206665</ele>
        <time>2022-04-28T08:52:11Z</time>
      </trkpt>
      <trkpt lat="43.70138" lon="5.37055">
        <ele>184.347488</ele>
        <time>2022-04-28T08:52:12Z</time>
      </trkpt>
      <trkpt lat="43.70138" lon="5.37059">
        <ele>183.866409</ele>
        <time>2022-04-28T08:52:13Z</time>
      </trkpt>
      <trkpt lat="43.70138" lon="5.37064">
        <ele>183.636871</ele>
        <time>2022-04-28T08:52:14Z</time>
      </trkpt>
      <trkpt lat="43.70137" lon="5.37068">
        <ele>183.705063</ele>
        <time>2022-04-28T08:52:15Z</time>
      </trkpt>
      <trkpt lat="43.70136" lon="5.37071">
        <ele>183.721832</ele>
        <time>2022-04-28T08:52:16Z</time>
      </trkpt>
      <trkpt lat="43.70136" lon="5.37075">
        <ele>183.729156</ele>
        <time>2022-04-28T08:52:17Z</time>
      </trkpt>
      <trkpt lat="43.70135" lon="5.37079">
        <ele>183.99617</ele>
        <time>2022-04-28T08:52:18Z</time>
      </trkpt>
      <trkpt lat="43.70124" lon="5.37097">
        <ele>188.49086</ele>
        <time>2022-04-28T08:52:24Z</time>
      </trkpt>
      <trkpt lat="43.70124" lon="5.37101">
        <ele>189.095718</ele>
        <time>2022-04-28T08:52:25Z</time>
      </trkpt>
      <trkpt lat="43.70124" lon="5.37105">
        <ele>189.371078</ele>
        <time>2022-04-28T08:52:26Z</time>
      </trkpt>
      <trkpt lat="43.70126" lon="5.37109">
        <ele>189.2854</ele>
        <time>2022-04-28T08:52:27Z</time>
      </trkpt>
      <trkpt lat="43.70127" lon="5.37113">
        <ele>189.083069</ele>
        <time>2022-04-28T08:52:28Z</time>
      </trkpt>
      <trkpt lat="43.70145" lon="5.37164">
        <ele>186.022812</ele>
        <time>2022-04-28T08:52:42Z</time>
      </trkpt>
      <trkpt lat="43.70156" lon="5.37201">
        <ele>185.682556</ele>
        <time>2022-04-28T08:52:54Z</time>
      </trkpt>
      <trkpt lat="43.70157" lon="5.3721">
        <ele>186.198349</ele>
        <time>2022-04-28T08:52:58Z</time>
      </trkpt>
      <trkpt lat="43.70156" lon="5.37212">
        <ele>186.502411</ele>
        <time>2022-04-28T08:52:59Z</time>
      </trkpt>
      <trkpt lat="43.70156" lon="5.37215">
        <ele>186.745743</ele>
        <time>2022-04-28T08:53:00Z</time>
      </trkpt>
      <trkpt lat="43.70157" lon="5.37218">
        <ele>186.436691</ele>
        <time>2022-04-28T08:53:02Z</time>
      </trkpt>
      <trkpt lat="43.70158" lon="5.3722">
        <ele>186.164551</ele>
        <time>2022-04-28T08:53:03Z</time>
      </trkpt>
      <trkpt lat="43.70161" lon="5.37224">
        <ele>185.548386</ele>
        <time>2022-04-28T08:53:05Z</time>
      </trkpt>
      <trkpt lat="43.70163" lon="5.37225">
        <ele>185.239151</ele>
        <time>2022-04-28T08:53:06Z</time>
      </trkpt>
      <trkpt lat="43.70165" lon="5.37225">
        <ele>184.841385</ele>
        <time>2022-04-28T08:53:07Z</time>
      </trkpt>
      <trkpt lat="43.70167" lon="5.37224">
        <ele>184.557983</ele>
        <time>2022-04-28T08:53:08Z</time>
      </trkpt>
      <trkpt lat="43.70169" lon="5.37224">
        <ele>184.325653</ele>
        <time>2022-04-28T08:53:09Z</time>
      </trkpt>
      <trkpt lat="43.7017" lon="5.37224">
        <ele>184.135956</ele>
        <time>2022-04-28T08:53:10Z</time>
      </trkpt>
      <trkpt lat="43.70171" lon="5.37225">
        <ele>183.976044</ele>
        <time>2022-04-28T08:53:11Z</time>
      </trkpt>
      <trkpt lat="43.70172" lon="5.37226">
        <ele>183.806488</ele>
        <time>2022-04-28T08:53:12Z</time>
      </trkpt>
      <trkpt lat="43.70172" lon="5.37227">
        <ele>183.645447</ele>
        <time>2022-04-28T08:53:13Z</time>
      </trkpt>
      <trkpt lat="43.70173" lon="5.3723">
        <ele>183.495865</ele>
        <time>2022-04-28T08:53:14Z</time>
      </trkpt>
      <trkpt lat="43.70174" lon="5.37233">
        <ele>183.165298</ele>
        <time>2022-04-28T08:53:25Z</time>
      </trkpt>
      <trkpt lat="43.70172" lon="5.37234">
        <ele>183.399185</ele>
        <time>2022-04-28T08:53:42Z</time>
      </trkpt>
      <trkpt lat="43.7017" lon="5.37238">
        <ele>183.585434</ele>
        <time>2022-04-28T08:54:06Z</time>
      </trkpt>
      <trkpt lat="43.70149" lon="5.37279">
        <ele>184.422668</ele>
        <time>2022-04-28T08:54:17Z</time>
      </trkpt>
      <trkpt lat="43.70108" lon="5.37347">
        <ele>183.773712</ele>
        <time>2022-04-28T08:54:33Z</time>
      </trkpt>
      <trkpt lat="43.70076" lon="5.37401">
        <ele>182.669006</ele>
        <time>2022-04-28T08:54:46Z</time>
      </trkpt>
      <trkpt lat="43.70035" lon="5.3747">
        <ele>185.671143</ele>
        <time>2022-04-28T08:55:02Z</time>
      </trkpt>
      <trkpt lat="43.6998" lon="5.37563">
        <ele>185.700287</ele>
        <time>2022-04-28T08:55:23Z</time>
      </trkpt>
      <trkpt lat="43.69945" lon="5.37619">
        <ele>183.454605</ele>
        <time>2022-04-28T08:55:38Z</time>
      </trkpt>
      <trkpt lat="43.69942" lon="5.3762">
        <ele>183.592255</ele>
        <time>2022-04-28T08:55:40Z</time>
      </trkpt>
      <trkpt lat="43.69937" lon="5.3763">
        <ele>182.982239</ele>
        <time>2022-04-28T08:55:45Z</time>
      </trkpt>
      <trkpt lat="43.69928" lon="5.37635">
        <ele>183.085266</ele>
        <time>2022-04-28T08:55:50Z</time>
      </trkpt>
      <trkpt lat="43.69926" lon="5.37634">
        <ele>183.273743</ele>
        <time>2022-04-28T08:55:51Z</time>
      </trkpt>
      <trkpt lat="43.69908" lon="5.3763">
        <ele>184.805069</ele>
        <time>2022-04-28T08:56:01Z</time>
      </trkpt>
      <trkpt lat="43.69907" lon="5.37629">
        <ele>184.960876</ele>
        <time>2022-04-28T08:56:02Z</time>
      </trkpt>
      <trkpt lat="43.69882" lon="5.37615">
        <ele>187.385223</ele>
        <time>2022-04-28T08:56:13Z</time>
      </trkpt>
      <trkpt lat="43.6987" lon="5.37613">
        <ele>187.79747</ele>
        <time>2022-04-28T08:56:17Z</time>
      </trkpt>
      <trkpt lat="43.69868" lon="5.37617">
        <ele>187.526779</ele>
        <time>2022-04-28T08:56:18Z</time>
      </trkpt>
      <trkpt lat="43.69867" lon="5.37621">
        <ele>187.125137</ele>
        <time>2022-04-28T08:56:19Z</time>
      </trkpt>
      <trkpt lat="43.69867" lon="5.37625">
        <ele>186.695541</ele>
        <time>2022-04-28T08:56:20Z</time>
      </trkpt>
      <trkpt lat="43.69869" lon="5.3763">
        <ele>186.229095</ele>
        <time>2022-04-28T08:56:21Z</time>
      </trkpt>
      <trkpt lat="43.69871" lon="5.37633">
        <ele>185.832458</ele>
        <time>2022-04-28T08:56:22Z</time>
      </trkpt>
      <trkpt lat="43.69873" lon="5.37637">
        <ele>185.644257</ele>
        <time>2022-04-28T08:56:23Z</time>
      </trkpt>
      <trkpt lat="43.69875" lon="5.37641">
        <ele>185.437653</ele>
        <time>2022-04-28T08:56:24Z</time>
      </trkpt>
      <trkpt lat="43.69877" lon="5.37694">
        <ele>183.347916</ele>
        <time>2022-04-28T08:56:36Z</time>
      </trkpt>
      <trkpt lat="43.69838" lon="5.37724">
        <ele>184.348618</ele>
        <time>2022-04-28T08:56:48Z</time>
      </trkpt>
      <trkpt lat="43.69829" lon="5.37732">
        <ele>184.583527</ele>
        <time>2022-04-28T08:56:50Z</time>
      </trkpt>
      <trkpt lat="43.69806" lon="5.3775">
        <ele>184.859375</ele>
        <time>2022-04-28T08:56:55Z</time>
      </trkpt>
      <trkpt lat="43.69802" lon="5.37751">
        <ele>185.106583</ele>
        <time>2022-04-28T08:56:56Z</time>
      </trkpt>
      <trkpt lat="43.69798" lon="5.37751">
        <ele>185.557495</ele>
        <time>2022-04-28T08:56:57Z</time>
      </trkpt>
      <trkpt lat="43.69794" lon="5.3775">
        <ele>186.11795</ele>
        <time>2022-04-28T08:56:58Z</time>
      </trkpt>
      <trkpt lat="43.69791" lon="5.37747">
        <ele>186.742767</ele>
        <time>2022-04-28T08:56:59Z</time>
      </trkpt>
      <trkpt lat="43.69788" lon="5.37745">
        <ele>187.400879</ele>
        <time>2022-04-28T08:57:00Z</time>
      </trkpt>
      <trkpt lat="43.69785" lon="5.37743">
        <ele>187.961853</ele>
        <time>2022-04-28T08:57:01Z</time>
      </trkpt>
      <trkpt lat="43.69781" lon="5.37743">
        <ele>188.340988</ele>
        <time>2022-04-28T08:57:02Z</time>
      </trkpt>
      <trkpt lat="43.69778" lon="5.37744">
        <ele>188.594406</ele>
        <time>2022-04-28T08:57:03Z</time>
      </trkpt>
      <trkpt lat="43.69774" lon="5.37746">
        <ele>188.682983</ele>
        <time>2022-04-28T08:57:04Z</time>
      </trkpt>
      <trkpt lat="43.69771" lon="5.37748">
        <ele>188.720856</ele>
        <time>2022-04-28T08:57:05Z</time>
      </trkpt>
      <trkpt lat="43.69768" lon="5.37751">
        <ele>188.694016</ele>
        <time>2022-04-28T08:57:06Z</time>
      </trkpt>
      <trkpt lat="43.69765" lon="5.37755">
        <ele>188.726959</ele>
        <time>2022-04-28T08:57:07Z</time>
      </trkpt>
      <trkpt lat="43.69741" lon="5.37787">
        <ele>188.530426</ele>
        <time>2022-04-28T08:57:15Z</time>
      </trkpt>
      <trkpt lat="43.69739" lon="5.37792">
        <ele>188.33284</ele>
        <time>2022-04-28T08:57:16Z</time>
      </trkpt>
      <trkpt lat="43.69735" lon="5.37802">
        <ele>187.901855</ele>
        <time>2022-04-28T08:57:18Z</time>
      </trkpt>
      <trkpt lat="43.69723" lon="5.37827">
        <ele>187.501648</ele>
        <time>2022-04-28T08:57:23Z</time>
      </trkpt>
      <trkpt lat="43.69704" lon="5.37855">
        <ele>188.988052</ele>
        <time>2022-04-28T08:57:33Z</time>
      </trkpt>
      <trkpt lat="43.69677" lon="5.37903">
        <ele>186.739044</ele>
        <time>2022-04-28T08:57:45Z</time>
      </trkpt>
      <trkpt lat="43.69673" lon="5.37907">
        <ele>186.133881</ele>
        <time>2022-04-28T08:57:46Z</time>
      </trkpt>
      <trkpt lat="43.69669" lon="5.37909">
        <ele>185.930939</ele>
        <time>2022-04-28T08:57:47Z</time>
      </trkpt>
      <trkpt lat="43.69665" lon="5.37908">
        <ele>186.080353</ele>
        <time>2022-04-28T08:57:48Z</time>
      </trkpt>
      <trkpt lat="43.69661" lon="5.37905">
        <ele>186.431488</ele>
        <time>2022-04-28T08:57:49Z</time>
      </trkpt>
      <trkpt lat="43.69658" lon="5.37902">
        <ele>186.825287</ele>
        <time>2022-04-28T08:57:50Z</time>
      </trkpt>
      <trkpt lat="43.69655" lon="5.37899">
        <ele>187.128418</ele>
        <time>2022-04-28T08:57:51Z</time>
      </trkpt>
      <trkpt lat="43.69651" lon="5.37898">
        <ele>187.240875</ele>
        <time>2022-04-28T08:57:52Z</time>
      </trkpt>
      <trkpt lat="43.69647" lon="5.37899">
        <ele>187.108978</ele>
        <time>2022-04-28T08:57:53Z</time>
      </trkpt>
      <trkpt lat="43.69643" lon="5.37902">
        <ele>186.83606</ele>
        <time>2022-04-28T08:57:54Z</time>
      </trkpt>
      <trkpt lat="43.69639" lon="5.37906">
        <ele>186.523346</ele>
        <time>2022-04-28T08:57:55Z</time>
      </trkpt>
      <trkpt lat="43.69636" lon="5.37911">
        <ele>186.179031</ele>
        <time>2022-04-28T08:57:56Z</time>
      </trkpt>
      <trkpt lat="43.69634" lon="5.37917">
        <ele>185.852905</ele>
        <time>2022-04-28T08:57:57Z</time>
      </trkpt>
      <trkpt lat="43.69633" lon="5.37922">
        <ele>185.633926</ele>
        <time>2022-04-28T08:57:58Z</time>
      </trkpt>
      <trkpt lat="43.69632" lon="5.37926">
        <ele>185.484756</ele>
        <time>2022-04-28T08:57:59Z</time>
      </trkpt>
      <trkpt lat="43.69632" lon="5.37931">
        <ele>185.211349</ele>
        <time>2022-04-28T08:58:00Z</time>
      </trkpt>
      <trkpt lat="43.69631" lon="5.37935">
        <ele>184.825043</ele>
        <time>2022-04-28T08:58:01Z</time>
      </trkpt>
      <trkpt lat="43.69631" lon="5.37939">
        <ele>184.571884</ele>
        <time>2022-04-28T08:58:02Z</time>
      </trkpt>
      <trkpt lat="43.6963" lon="5.37943">
        <ele>184.318268</ele>
        <time>2022-04-28T08:58:03Z</time>
      </trkpt>
      <trkpt lat="43.69627" lon="5.3795">
        <ele>184.046448</ele>
        <time>2022-04-28T08:58:05Z</time>
      </trkpt>
      <trkpt lat="43.69597" lon="5.37986">
        <ele>186.16066</ele>
        <time>2022-04-28T08:58:18Z</time>
      </trkpt>
      <trkpt lat="43.69587" lon="5.37997">
        <ele>186.277939</ele>
        <time>2022-04-28T08:58:21Z</time>
      </trkpt>
      <trkpt lat="43.69584" lon="5.38001">
        <ele>185.970428</ele>
        <time>2022-04-28T08:58:22Z</time>
      </trkpt>
      <trkpt lat="43.6958" lon="5.38003">
        <ele>185.593063</ele>
        <time>2022-04-28T08:58:23Z</time>
      </trkpt>
      <trkpt lat="43.69576" lon="5.38004">
        <ele>185.393692</ele>
        <time>2022-04-28T08:58:24Z</time>
      </trkpt>
      <trkpt lat="43.69572" lon="5.38006">
        <ele>185.257172</ele>
        <time>2022-04-28T08:58:25Z</time>
      </trkpt>
      <trkpt lat="43.69556" lon="5.3801">
        <ele>184.828445</ele>
        <time>2022-04-28T08:58:29Z</time>
      </trkpt>
      <trkpt lat="43.69552" lon="5.3801">
        <ele>185.041611</ele>
        <time>2022-04-28T08:58:30Z</time>
      </trkpt>
      <trkpt lat="43.69547" lon="5.38008">
        <ele>185.484604</ele>
        <time>2022-04-28T08:58:31Z</time>
      </trkpt>
      <trkpt lat="43.69543" lon="5.38005">
        <ele>186.061935</ele>
        <time>2022-04-28T08:58:32Z</time>
      </trkpt>
      <trkpt lat="43.69538" lon="5.38002">
        <ele>186.299454</ele>
        <time>2022-04-28T08:58:33Z</time>
      </trkpt>
      <trkpt lat="43.69534" lon="5.37999">
        <ele>186.15715</ele>
        <time>2022-04-28T08:58:34Z</time>
      </trkpt>
      <trkpt lat="43.69528" lon="5.37997">
        <ele>185.704681</ele>
        <time>2022-04-28T08:58:35Z</time>
      </trkpt>
      <trkpt lat="43.69523" lon="5.37997">
        <ele>185.021332</ele>
        <time>2022-04-28T08:58:36Z</time>
      </trkpt>
      <trkpt lat="43.69506" lon="5.37998">
        <ele>182.831314</ele>
        <time>2022-04-28T08:58:39Z</time>
      </trkpt>
      <trkpt lat="43.69503" lon="5.38002">
        <ele>182.189468</ele>
        <time>2022-04-28T08:58:40Z</time>
      </trkpt>
      <trkpt lat="43.69502" lon="5.3801">
        <ele>181.743118</ele>
        <time>2022-04-28T08:58:41Z</time>
      </trkpt>
      <trkpt lat="43.69504" lon="5.38017">
        <ele>181.501419</ele>
        <time>2022-04-28T08:58:42Z</time>
      </trkpt>
      <trkpt lat="43.69505" lon="5.38023">
        <ele>181.259048</ele>
        <time>2022-04-28T08:58:43Z</time>
      </trkpt>
      <trkpt lat="43.69516" lon="5.3806">
        <ele>179.831161</ele>
        <time>2022-04-28T08:58:48Z</time>
      </trkpt>
      <trkpt lat="43.69519" lon="5.38066">
        <ele>179.809738</ele>
        <time>2022-04-28T08:58:49Z</time>
      </trkpt>
      <trkpt lat="43.69522" lon="5.3807">
        <ele>179.675232</ele>
        <time>2022-04-28T08:58:50Z</time>
      </trkpt>
      <trkpt lat="43.69526" lon="5.38074">
        <ele>179.458817</ele>
        <time>2022-04-28T08:58:51Z</time>
      </trkpt>
      <trkpt lat="43.6953" lon="5.38078">
        <ele>179.192886</ele>
        <time>2022-04-28T08:58:52Z</time>
      </trkpt>
      <trkpt lat="43.69559" lon="5.38109">
        <ele>173.119965</ele>
        <time>2022-04-28T08:58:59Z</time>
      </trkpt>
      <trkpt lat="43.69563" lon="5.38115">
        <ele>171.638092</ele>
        <time>2022-04-28T08:59:00Z</time>
      </trkpt>
      <trkpt lat="43.69567" lon="5.38123">
        <ele>169.965393</ele>
        <time>2022-04-28T08:59:01Z</time>
      </trkpt>
      <trkpt lat="43.69572" lon="5.38131">
        <ele>168.359695</ele>
        <time>2022-04-28T08:59:02Z</time>
      </trkpt>
      <trkpt lat="43.69577" lon="5.38139">
        <ele>167.052628</ele>
        <time>2022-04-28T08:59:03Z</time>
      </trkpt>
      <trkpt lat="43.69605" lon="5.38182">
        <ele>163.848495</ele>
        <time>2022-04-28T08:59:08Z</time>
      </trkpt>
      <trkpt lat="43.69631" lon="5.38219">
        <ele>162.914078</ele>
        <time>2022-04-28T08:59:12Z</time>
      </trkpt>
      <trkpt lat="43.6966" lon="5.38265">
        <ele>161.813339</ele>
        <time>2022-04-28T08:59:18Z</time>
      </trkpt>
      <trkpt lat="43.69664" lon="5.38269">
        <ele>161.672485</ele>
        <time>2022-04-28T08:59:19Z</time>
      </trkpt>
      <trkpt lat="43.69667" lon="5.38272">
        <ele>161.558594</ele>
        <time>2022-04-28T08:59:20Z</time>
      </trkpt>
      <trkpt lat="43.69669" lon="5.38276">
        <ele>161.455658</ele>
        <time>2022-04-28T08:59:21Z</time>
      </trkpt>
      <trkpt lat="43.69669" lon="5.3828">
        <ele>161.37793</ele>
        <time>2022-04-28T08:59:22Z</time>
      </trkpt>
      <trkpt lat="43.69667" lon="5.38284">
        <ele>161.337662</ele>
        <time>2022-04-28T08:59:23Z</time>
      </trkpt>
      <trkpt lat="43.69666" lon="5.38287">
        <ele>161.316635</ele>
        <time>2022-04-28T08:59:24Z</time>
      </trkpt>
      <trkpt lat="43.69656" lon="5.38311">
        <ele>161.219406</ele>
        <time>2022-04-28T08:59:29Z</time>
      </trkpt>
      <trkpt lat="43.69649" lon="5.38327">
        <ele>161.242554</ele>
        <time>2022-04-28T08:59:32Z</time>
      </trkpt>
      <trkpt lat="43.69647" lon="5.38333">
        <ele>161.230392</ele>
        <time>2022-04-28T08:59:33Z</time>
      </trkpt>
      <trkpt lat="43.69597" lon="5.38447">
        <ele>160.81218</ele>
        <time>2022-04-28T08:59:51Z</time>
      </trkpt>
      <trkpt lat="43.69571" lon="5.38501">
        <ele>160.739883</ele>
        <time>2022-04-28T09:00:00Z</time>
      </trkpt>
      <trkpt lat="43.69512" lon="5.38587">
        <ele>160.296753</ele>
        <time>2022-04-28T09:00:17Z</time>
      </trkpt>
      <trkpt lat="43.69455" lon="5.38668">
        <ele>160.058594</ele>
        <time>2022-04-28T09:00:34Z</time>
      </trkpt>
      <trkpt lat="43.69452" lon="5.38673">
        <ele>160.138733</ele>
        <time>2022-04-28T09:00:35Z</time>
      </trkpt>
      <trkpt lat="43.69449" lon="5.38678">
        <ele>160.219925</ele>
        <time>2022-04-28T09:00:36Z</time>
      </trkpt>
      <trkpt lat="43.6944" lon="5.38708">
        <ele>160.715958</ele>
        <time>2022-04-28T09:00:43Z</time>
      </trkpt>
      <trkpt lat="43.69446" lon="5.38714">
        <ele>160.801086</ele>
        <time>2022-04-28T09:00:47Z</time>
      </trkpt>
      <trkpt lat="43.69449" lon="5.38713">
        <ele>160.782471</ele>
        <time>2022-04-28T09:00:49Z</time>
      </trkpt>
      <trkpt lat="43.69451" lon="5.3871">
        <ele>160.738541</ele>
        <time>2022-04-28T09:00:50Z</time>
      </trkpt>
      <trkpt lat="43.69452" lon="5.38708">
        <ele>160.700684</ele>
        <time>2022-04-28T09:00:51Z</time>
      </trkpt>
      <trkpt lat="43.69464" lon="5.38696">
        <ele>160.502289</ele>
        <time>2022-04-28T09:01:00Z</time>
      </trkpt>
      <trkpt lat="43.69465" lon="5.38695">
        <ele>160.481918</ele>
        <time>2022-04-28T09:01:20Z</time>
      </trkpt>
      <trkpt lat="43.69465" lon="5.38692">
        <ele>160.439301</ele>
        <time>2022-04-28T09:01:41Z</time>
      </trkpt>
      <trkpt lat="43.69466" lon="5.38691">
        <ele>160.420624</ele>
        <time>2022-04-28T09:01:42Z</time>
      </trkpt>
      <trkpt lat="43.69469" lon="5.38689">
        <ele>160.387482</ele>
        <time>2022-04-28T09:01:57Z</time>
      </trkpt>
      <trkpt lat="43.6947" lon="5.3869">
        <ele>160.395447</ele>
        <time>2022-04-28T09:02:23Z</time>
      </trkpt>
      <trkpt lat="43.69472" lon="5.38688">
        <ele>160.367828</ele>
        <time>2022-04-28T09:02:36Z</time>
      </trkpt>
      <trkpt lat="43.6947" lon="5.38689">
        <ele>160.37178</ele>
        <time>2022-04-28T09:03:02Z</time>
      </trkpt>
      <trkpt lat="43.69472" lon="5.38686">
        <ele>160.332184</ele>
        <time>2022-04-28T09:03:25Z</time>
      </trkpt>
      <trkpt lat="43.69472" lon="5.38683">
        <ele>160.281403</ele>
        <time>2022-04-28T09:04:03Z</time>
      </trkpt>
      <trkpt lat="43.69472" lon="5.38683">
        <ele>160.275162</ele>
        <time>2022-04-28T09:04:34Z</time>
      </trkpt>
      <trkpt lat="43.69472" lon="5.38679">
        <ele>160.214371</ele>
        <time>2022-04-28T09:05:10Z</time>
      </trkpt>
      <trkpt lat="43.69471" lon="5.38685">
        <ele>160.308594</ele>
        <time>2022-04-28T09:05:30Z</time>
      </trkpt>
      <trkpt lat="43.69472" lon="5.38685">
        <ele>160.317627</ele>
        <time>2022-04-28T09:05:35Z</time>
      </trkpt>
      <trkpt lat="43.69473" lon="5.38684">
        <ele>160.299759</ele>
        <time>2022-04-28T09:05:36Z</time>
      </trkpt>
      <trkpt lat="43.69474" lon="5.38683">
        <ele>160.280319</ele>
        <time>2022-04-28T09:05:37Z</time>
      </trkpt>
      <trkpt lat="43.69475" lon="5.38683">
        <ele>160.270416</ele>
        <time>2022-04-28T09:05:38Z</time>
      </trkpt>
      <trkpt lat="43.69478" lon="5.38683">
        <ele>160.321716</ele>
        <time>2022-04-28T09:05:41Z</time>
      </trkpt>
      <trkpt lat="43.6948" lon="5.38683">
        <ele>160.378937</ele>
        <time>2022-04-28T09:05:42Z</time>
      </trkpt>
      <trkpt lat="43.69481" lon="5.38684">
        <ele>160.444855</ele>
        <time>2022-04-28T09:05:43Z</time>
      </trkpt>
      <trkpt lat="43.69483" lon="5.38684">
        <ele>160.510941</ele>
        <time>2022-04-28T09:05:44Z</time>
      </trkpt>
      <trkpt lat="43.69484" lon="5.38685">
        <ele>160.579651</ele>
        <time>2022-04-28T09:05:45Z</time>
      </trkpt>
      <trkpt lat="43.69501" lon="5.38692">
        <ele>161.261749</ele>
        <time>2022-04-28T09:05:56Z</time>
      </trkpt>
      <trkpt lat="43.69508" lon="5.38695">
        <ele>161.535294</ele>
        <time>2022-04-28T09:06:00Z</time>
      </trkpt>
      <trkpt lat="43.6951" lon="5.38695">
        <ele>161.584061</ele>
        <time>2022-04-28T09:06:01Z</time>
      </trkpt>
      <trkpt lat="43.69514" lon="5.38696">
        <ele>161.74823</ele>
        <time>2022-04-28T09:06:15Z</time>
      </trkpt>
      <trkpt lat="43.69516" lon="5.38697">
        <ele>161.810089</ele>
        <time>2022-04-28T09:06:45Z</time>
      </trkpt>
      <trkpt lat="43.69517" lon="5.387">
        <ele>161.841904</ele>
        <time>2022-04-28T09:07:15Z</time>
      </trkpt>
      <trkpt lat="43.69517" lon="5.387">
        <ele>161.843781</ele>
        <time>2022-04-28T09:07:45Z</time>
      </trkpt>
      <trkpt lat="43.69519" lon="5.38702">
        <ele>161.93396</ele>
        <time>2022-04-28T09:07:56Z</time>
      </trkpt>
      <trkpt lat="43.69521" lon="5.38704">
        <ele>161.990967</ele>
        <time>2022-04-28T09:07:57Z</time>
      </trkpt>
      <trkpt lat="43.69558" lon="5.38731">
        <ele>162.858902</ele>
        <time>2022-04-28T09:08:10Z</time>
      </trkpt>
      <trkpt lat="43.69596" lon="5.38768">
        <ele>162.136475</ele>
        <time>2022-04-28T09:08:21Z</time>
      </trkpt>
      <trkpt lat="43.696" lon="5.38771">
        <ele>162.089325</ele>
        <time>2022-04-28T09:08:22Z</time>
      </trkpt>
      <trkpt lat="43.69603" lon="5.38773">
        <ele>162.050766</ele>
        <time>2022-04-28T09:08:23Z</time>
      </trkpt>
      <trkpt lat="43.69644" lon="5.38806">
        <ele>162</ele>
        <time>2022-04-28T09:08:35Z</time>
      </trkpt>
      <trkpt lat="43.6969" lon="5.3884">
        <ele>162.53009</ele>
        <time>2022-04-28T09:08:48Z</time>
      </trkpt>
      <trkpt lat="43.69731" lon="5.38868">
        <ele>163</ele>
        <time>2022-04-28T09:08:59Z</time>
      </trkpt>
      <trkpt lat="43.69735" lon="5.38871">
        <ele>163</ele>
        <time>2022-04-28T09:09:00Z</time>
      </trkpt>
      <trkpt lat="43.69752" lon="5.38877">
        <ele>162.638992</ele>
        <time>2022-04-28T09:09:04Z</time>
      </trkpt>
      <trkpt lat="43.69795" lon="5.38916">
        <ele>162.905396</ele>
        <time>2022-04-28T09:09:18Z</time>
      </trkpt>
      <trkpt lat="43.69828" lon="5.3894">
        <ele>162.179184</ele>
        <time>2022-04-28T09:09:29Z</time>
      </trkpt>
      <trkpt lat="43.69831" lon="5.38938">
        <ele>162.026855</ele>
        <time>2022-04-28T09:09:30Z</time>
      </trkpt>
      <trkpt lat="43.69833" lon="5.38935">
        <ele>161.877151</ele>
        <time>2022-04-28T09:09:31Z</time>
      </trkpt>
      <trkpt lat="43.69835" lon="5.38931">
        <ele>161.70697</ele>
        <time>2022-04-28T09:09:32Z</time>
      </trkpt>
      <trkpt lat="43.69837" lon="5.38927">
        <ele>161.517395</ele>
        <time>2022-04-28T09:09:33Z</time>
      </trkpt>
      <trkpt lat="43.69839" lon="5.38922">
        <ele>161.341263</ele>
        <time>2022-04-28T09:09:34Z</time>
      </trkpt>
      <trkpt lat="43.69859" lon="5.3885">
        <ele>160.596359</ele>
        <time>2022-04-28T09:09:49Z</time>
      </trkpt>
      <trkpt lat="43.69875" lon="5.38779">
        <ele>160.398621</ele>
        <time>2022-04-28T09:10:03Z</time>
      </trkpt>
      <trkpt lat="43.69878" lon="5.38775">
        <ele>160.373672</ele>
        <time>2022-04-28T09:10:04Z</time>
      </trkpt>
      <trkpt lat="43.69881" lon="5.38771">
        <ele>160.359268</ele>
        <time>2022-04-28T09:10:05Z</time>
      </trkpt>
      <trkpt lat="43.69884" lon="5.38768">
        <ele>160.330353</ele>
        <time>2022-04-28T09:10:06Z</time>
      </trkpt>
      <trkpt lat="43.69886" lon="5.38763">
        <ele>160.30246</ele>
        <time>2022-04-28T09:10:07Z</time>
      </trkpt>
      <trkpt lat="43.69888" lon="5.38758">
        <ele>160.273895</ele>
        <time>2022-04-28T09:10:08Z</time>
      </trkpt>
      <trkpt lat="43.6989" lon="5.38753">
        <ele>160.249771</ele>
        <time>2022-04-28T09:10:09Z</time>
      </trkpt>
      <trkpt lat="43.69896" lon="5.38738">
        <ele>160.353058</ele>
        <time>2022-04-28T09:10:12Z</time>
      </trkpt>
      <trkpt lat="43.69898" lon="5.38733">
        <ele>160.385712</ele>
        <time>2022-04-28T09:10:13Z</time>
      </trkpt>
      <trkpt lat="43.69906" lon="5.38707">
        <ele>160.546509</ele>
        <time>2022-04-28T09:10:18Z</time>
      </trkpt>
      <trkpt lat="43.69908" lon="5.38702">
        <ele>160.58754</ele>
        <time>2022-04-28T09:10:19Z</time>
      </trkpt>
      <trkpt lat="43.69909" lon="5.38696">
        <ele>160.619278</ele>
        <time>2022-04-28T09:10:20Z</time>
      </trkpt>
      <trkpt lat="43.6991" lon="5.38691">
        <ele>160.643616</ele>
        <time>2022-04-28T09:10:21Z</time>
      </trkpt>
      <trkpt lat="43.69912" lon="5.38686">
        <ele>160.606308</ele>
        <time>2022-04-28T09:10:22Z</time>
      </trkpt>
      <trkpt lat="43.69934" lon="5.38622">
        <ele>159.909439</ele>
        <time>2022-04-28T09:10:35Z</time>
      </trkpt>
      <trkpt lat="43.69959" lon="5.38572">
        <ele>159.666138</ele>
        <time>2022-04-28T09:10:46Z</time>
      </trkpt>
      <trkpt lat="43.6998" lon="5.3853">
        <ele>160</ele>
        <time>2022-04-28T09:10:55Z</time>
      </trkpt>
      <trkpt lat="43.70007" lon="5.38483">
        <ele>159.713394</ele>
        <time>2022-04-28T09:11:06Z</time>
      </trkpt>
      <trkpt lat="43.70009" lon="5.38482">
        <ele>159.751663</ele>
        <time>2022-04-28T09:11:07Z</time>
      </trkpt>
      <trkpt lat="43.70012" lon="5.38484">
        <ele>159.822281</ele>
        <time>2022-04-28T09:11:18Z</time>
      </trkpt>
      <trkpt lat="43.70012" lon="5.38483">
        <ele>159.816422</ele>
        <time>2022-04-28T09:11:33Z</time>
      </trkpt>
      <trkpt lat="43.7001" lon="5.38481">
        <ele>159.75766</ele>
        <time>2022-04-28T09:11:50Z</time>
      </trkpt>
      <trkpt lat="43.70009" lon="5.3848">
        <ele>159.71788</ele>
        <time>2022-04-28T09:12:05Z</time>
      </trkpt>
      <trkpt lat="43.70009" lon="5.38481">
        <ele>159.739365</ele>
        <time>2022-04-28T09:12:22Z</time>
      </trkpt>
      <trkpt lat="43.70008" lon="5.38479">
        <ele>159.696777</ele>
        <time>2022-04-28T09:12:40Z</time>
      </trkpt>
      <trkpt lat="43.70006" lon="5.38479">
        <ele>159.656906</ele>
        <time>2022-04-28T09:13:07Z</time>
      </trkpt>
      <trkpt lat="43.70007" lon="5.3848">
        <ele>159.687027</ele>
        <time>2022-04-28T09:13:30Z</time>
      </trkpt>
      <trkpt lat="43.7002" lon="5.38448">
        <ele>159.839691</ele>
        <time>2022-04-28T09:13:42Z</time>
      </trkpt>
      <trkpt lat="43.70046" lon="5.38394">
        <ele>160</ele>
        <time>2022-04-28T09:13:55Z</time>
      </trkpt>
      <trkpt lat="43.70072" lon="5.38343">
        <ele>160</ele>
        <time>2022-04-28T09:14:08Z</time>
      </trkpt>
      <trkpt lat="43.70102" lon="5.38281">
        <ele>159.729111</ele>
        <time>2022-04-28T09:14:22Z</time>
      </trkpt>
      <trkpt lat="43.70123" lon="5.38238">
        <ele>159.906082</ele>
        <time>2022-04-28T09:14:33Z</time>
      </trkpt>
      <trkpt lat="43.70122" lon="5.38236">
        <ele>159.92926</ele>
        <time>2022-04-28T09:14:34Z</time>
      </trkpt>
      <trkpt lat="43.70121" lon="5.38235">
        <ele>159.962265</ele>
        <time>2022-04-28T09:14:35Z</time>
      </trkpt>
      <trkpt lat="43.70121" lon="5.38213">
        <ele>159.985031</ele>
        <time>2022-04-28T09:14:45Z</time>
      </trkpt>
      <trkpt lat="43.70122" lon="5.38208">
        <ele>159.952072</ele>
        <time>2022-04-28T09:14:48Z</time>
      </trkpt>
      <trkpt lat="43.70123" lon="5.38206">
        <ele>159.933136</ele>
        <time>2022-04-28T09:14:49Z</time>
      </trkpt>
      <trkpt lat="43.70134" lon="5.38198">
        <ele>159.565186</ele>
        <time>2022-04-28T09:14:58Z</time>
      </trkpt>
      <trkpt lat="43.70144" lon="5.38191">
        <ele>159.37735</ele>
        <time>2022-04-28T09:15:05Z</time>
      </trkpt>
      <trkpt lat="43.70158" lon="5.38164">
        <ele>159.49379</ele>
        <time>2022-04-28T09:15:15Z</time>
      </trkpt>
      <trkpt lat="43.70159" lon="5.38162">
        <ele>159.543228</ele>
        <time>2022-04-28T09:15:16Z</time>
      </trkpt>
      <trkpt lat="43.70179" lon="5.38121">
        <ele>159.294876</ele>
        <time>2022-04-28T09:15:29Z</time>
      </trkpt>
      <trkpt lat="43.70201" lon="5.38076">
        <ele>158.960724</ele>
        <time>2022-04-28T09:15:40Z</time>
      </trkpt>
      <trkpt lat="43.70208" lon="5.38058">
        <ele>158.939789</ele>
        <time>2022-04-28T09:15:49Z</time>
      </trkpt>
      <trkpt lat="43.70208" lon="5.38058">
        <ele>158.935822</ele>
        <time>2022-04-28T09:16:05Z</time>
      </trkpt>
      <trkpt lat="43.70209" lon="5.38059">
        <ele>158.955856</ele>
        <time>2022-04-28T09:16:29Z</time>
      </trkpt>
      <trkpt lat="43.70219" lon="5.38041">
        <ele>158.888611</ele>
        <time>2022-04-28T09:16:40Z</time>
      </trkpt>
      <trkpt lat="43.70234" lon="5.38012">
        <ele>158.633957</ele>
        <time>2022-04-28T09:16:49Z</time>
      </trkpt>
      <trkpt lat="43.70236" lon="5.38011">
        <ele>158.625916</ele>
        <time>2022-04-28T09:16:50Z</time>
      </trkpt>
      <trkpt lat="43.70237" lon="5.3801">
        <ele>158.622345</ele>
        <time>2022-04-28T09:16:51Z</time>
      </trkpt>
      <trkpt lat="43.70239" lon="5.38008">
        <ele>158.629028</ele>
        <time>2022-04-28T09:16:52Z</time>
      </trkpt>
      <trkpt lat="43.70239" lon="5.38006">
        <ele>158.650375</ele>
        <time>2022-04-28T09:16:53Z</time>
      </trkpt>
      <trkpt lat="43.7024" lon="5.38003">
        <ele>158.682037</ele>
        <time>2022-04-28T09:16:54Z</time>
      </trkpt>
      <trkpt lat="43.70242" lon="5.37999">
        <ele>158.726273</ele>
        <time>2022-04-28T09:16:55Z</time>
      </trkpt>
      <trkpt lat="43.70243" lon="5.37995">
        <ele>158.783615</ele>
        <time>2022-04-28T09:16:56Z</time>
      </trkpt>
      <trkpt lat="43.70245" lon="5.37991">
        <ele>158.856644</ele>
        <time>2022-04-28T09:16:57Z</time>
      </trkpt>
      <trkpt lat="43.70247" lon="5.37988">
        <ele>158.948273</ele>
        <time>2022-04-28T09:16:58Z</time>
      </trkpt>
      <trkpt lat="43.70249" lon="5.37984">
        <ele>159.061218</ele>
        <time>2022-04-28T09:16:59Z</time>
      </trkpt>
      <trkpt lat="43.70273" lon="5.37939">
        <ele>159.402756</ele>
        <time>2022-04-28T09:17:10Z</time>
      </trkpt>
      <trkpt lat="43.7028" lon="5.37915">
        <ele>159.164825</ele>
        <time>2022-04-28T09:17:16Z</time>
      </trkpt>
      <trkpt lat="43.70279" lon="5.37912">
        <ele>159.248917</ele>
        <time>2022-04-28T09:17:17Z</time>
      </trkpt>
      <trkpt lat="43.70273" lon="5.37904">
        <ele>159.55687</ele>
        <time>2022-04-28T09:17:20Z</time>
      </trkpt>
      <trkpt lat="43.70266" lon="5.37888">
        <ele>159.703247</ele>
        <time>2022-04-28T09:17:29Z</time>
      </trkpt>
      <trkpt lat="43.70264" lon="5.37886">
        <ele>159.731934</ele>
        <time>2022-04-28T09:17:35Z</time>
      </trkpt>
      <trkpt lat="43.70263" lon="5.37884">
        <ele>159.801788</ele>
        <time>2022-04-28T09:17:36Z</time>
      </trkpt>
      <trkpt lat="43.70262" lon="5.37881">
        <ele>159.905197</ele>
        <time>2022-04-28T09:17:37Z</time>
      </trkpt>
      <trkpt lat="43.70242" lon="5.37854">
        <ele>161.742798</ele>
        <time>2022-04-28T09:17:48Z</time>
      </trkpt>
      <trkpt lat="43.70242" lon="5.3785">
        <ele>161.743515</ele>
        <time>2022-04-28T09:17:49Z</time>
      </trkpt>
      <trkpt lat="43.70227" lon="5.37807">
        <ele>161.647842</ele>
        <time>2022-04-28T09:17:59Z</time>
      </trkpt>
      <trkpt lat="43.70225" lon="5.37779">
        <ele>160.132874</ele>
        <time>2022-04-28T09:18:05Z</time>
      </trkpt>
      <trkpt lat="43.70226" lon="5.37775">
        <ele>159.904251</ele>
        <time>2022-04-28T09:18:06Z</time>
      </trkpt>
      <trkpt lat="43.70229" lon="5.37771">
        <ele>159.838013</ele>
        <time>2022-04-28T09:18:07Z</time>
      </trkpt>
      <trkpt lat="43.70232" lon="5.37766">
        <ele>159.758957</ele>
        <time>2022-04-28T09:18:08Z</time>
      </trkpt>
      <trkpt lat="43.70234" lon="5.37761">
        <ele>159.688736</ele>
        <time>2022-04-28T09:18:09Z</time>
      </trkpt>
      <trkpt lat="43.70235" lon="5.37755">
        <ele>159.618286</ele>
        <time>2022-04-28T09:18:10Z</time>
      </trkpt>
      <trkpt lat="43.70249" lon="5.37707">
        <ele>158.891403</ele>
        <time>2022-04-28T09:18:19Z</time>
      </trkpt>
      <trkpt lat="43.70244" lon="5.37683">
        <ele>159.1819</ele>
        <time>2022-04-28T09:18:25Z</time>
      </trkpt>
      <trkpt lat="43.70245" lon="5.37679">
        <ele>159.188553</ele>
        <time>2022-04-28T09:18:26Z</time>
      </trkpt>
      <trkpt lat="43.70245" lon="5.37675">
        <ele>159.198486</ele>
        <time>2022-04-28T09:18:27Z</time>
      </trkpt>
      <trkpt lat="43.70245" lon="5.37667">
        <ele>159.191452</ele>
        <time>2022-04-28T09:18:29Z</time>
      </trkpt>
      <trkpt lat="43.70261" lon="5.37614">
        <ele>158.807983</ele>
        <time>2022-04-28T09:18:41Z</time>
      </trkpt>
      <trkpt lat="43.70286" lon="5.37551">
        <ele>158.947433</ele>
        <time>2022-04-28T09:18:54Z</time>
      </trkpt>
      <trkpt lat="43.70292" lon="5.37534">
        <ele>158.791824</ele>
        <time>2022-04-28T09:18:57Z</time>
      </trkpt>
      <trkpt lat="43.70323" lon="5.37457">
        <ele>159.109909</ele>
        <time>2022-04-28T09:19:12Z</time>
      </trkpt>
      <trkpt lat="43.70328" lon="5.37447">
        <ele>159.063843</ele>
        <time>2022-04-28T09:19:14Z</time>
      </trkpt>
      <trkpt lat="43.70332" lon="5.37437">
        <ele>158.971634</ele>
        <time>2022-04-28T09:19:16Z</time>
      </trkpt>
      <trkpt lat="43.70334" lon="5.37431">
        <ele>158.939423</ele>
        <time>2022-04-28T09:19:17Z</time>
      </trkpt>
      <trkpt lat="43.70336" lon="5.37426">
        <ele>158.888214</ele>
        <time>2022-04-28T09:19:18Z</time>
      </trkpt>
      <trkpt lat="43.70363" lon="5.37358">
        <ele>158.892853</ele>
        <time>2022-04-28T09:19:31Z</time>
      </trkpt>
      <trkpt lat="43.70375" lon="5.37326">
        <ele>159.107162</ele>
        <time>2022-04-28T09:19:37Z</time>
      </trkpt>
      <trkpt lat="43.70377" lon="5.37321">
        <ele>159.071991</ele>
        <time>2022-04-28T09:19:38Z</time>
      </trkpt>
      <trkpt lat="43.70412" lon="5.37235">
        <ele>158.915939</ele>
        <time>2022-04-28T09:19:55Z</time>
      </trkpt>
      <trkpt lat="43.70444" lon="5.37161">
        <ele>158.916092</ele>
        <time>2022-04-28T09:20:10Z</time>
      </trkpt>
      <trkpt lat="43.70453" lon="5.37132">
        <ele>158.527924</ele>
        <time>2022-04-28T09:20:16Z</time>
      </trkpt>
      <trkpt lat="43.70461" lon="5.3711">
        <ele>158.192383</ele>
        <time>2022-04-28T09:20:20Z</time>
      </trkpt>
      <trkpt lat="43.70474" lon="5.37085">
        <ele>158.426193</ele>
        <time>2022-04-28T09:20:25Z</time>
      </trkpt>
      <trkpt lat="43.70477" lon="5.37081">
        <ele>158.444336</ele>
        <time>2022-04-28T09:20:26Z</time>
      </trkpt>
      <trkpt lat="43.70479" lon="5.37075">
        <ele>158.470367</ele>
        <time>2022-04-28T09:20:27Z</time>
      </trkpt>
      <trkpt lat="43.70515" lon="5.36997">
        <ele>158.58371</ele>
        <time>2022-04-28T09:20:42Z</time>
      </trkpt>
      <trkpt lat="43.70524" lon="5.36976">
        <ele>158.868301</ele>
        <time>2022-04-28T09:20:46Z</time>
      </trkpt>
      <trkpt lat="43.70537" lon="5.36952">
        <ele>158.89212</ele>
        <time>2022-04-28T09:20:51Z</time>
      </trkpt>
      <trkpt lat="43.7054" lon="5.36947">
        <ele>158.845383</ele>
        <time>2022-04-28T09:20:52Z</time>
      </trkpt>
      <trkpt lat="43.70559" lon="5.36916">
        <ele>158.590042</ele>
        <time>2022-04-28T09:20:59Z</time>
      </trkpt>
      <trkpt lat="43.70588" lon="5.36886">
        <ele>159.026154</ele>
        <time>2022-04-28T09:21:10Z</time>
      </trkpt>
      <trkpt lat="43.70624" lon="5.36836">
        <ele>158.62355</ele>
        <time>2022-04-28T09:21:23Z</time>
      </trkpt>
      <trkpt lat="43.70648" lon="5.36811">
        <ele>158.137665</ele>
        <time>2022-04-28T09:21:32Z</time>
      </trkpt>
      <trkpt lat="43.70649" lon="5.36809">
        <ele>158.165497</ele>
        <time>2022-04-28T09:21:33Z</time>
      </trkpt>
      <trkpt lat="43.7065" lon="5.36808">
        <ele>158.149002</ele>
        <time>2022-04-28T09:21:34Z</time>
      </trkpt>
      <trkpt lat="43.70651" lon="5.36806">
        <ele>158.148254</ele>
        <time>2022-04-28T09:21:35Z</time>
      </trkpt>
      <trkpt lat="43.70652" lon="5.36803">
        <ele>158.182022</ele>
        <time>2022-04-28T09:21:36Z</time>
      </trkpt>
      <trkpt lat="43.70654" lon="5.368">
        <ele>158.218018</ele>
        <time>2022-04-28T09:21:37Z</time>
      </trkpt>
      <trkpt lat="43.70656" lon="5.36797">
        <ele>158.214203</ele>
        <time>2022-04-28T09:21:38Z</time>
      </trkpt>
      <trkpt lat="43.70658" lon="5.36794">
        <ele>158.204056</ele>
        <time>2022-04-28T09:21:39Z</time>
      </trkpt>
      <trkpt lat="43.70661" lon="5.3679">
        <ele>158.200272</ele>
        <time>2022-04-28T09:21:40Z</time>
      </trkpt>
      <trkpt lat="43.7068" lon="5.36762">
        <ele>158.230408</ele>
        <time>2022-04-28T09:21:47Z</time>
      </trkpt>
      <trkpt lat="43.70736" lon="5.36698">
        <ele>158.016754</ele>
        <time>2022-04-28T09:22:04Z</time>
      </trkpt>
      <trkpt lat="43.70739" lon="5.36694">
        <ele>158.094131</ele>
        <time>2022-04-28T09:22:05Z</time>
      </trkpt>
      <trkpt lat="43.70741" lon="5.36689">
        <ele>158.212387</ele>
        <time>2022-04-28T09:22:06Z</time>
      </trkpt>
      <trkpt lat="43.70744" lon="5.36684">
        <ele>158.298737</ele>
        <time>2022-04-28T09:22:07Z</time>
      </trkpt>
      <trkpt lat="43.70746" lon="5.36679">
        <ele>158.359146</ele>
        <time>2022-04-28T09:22:08Z</time>
      </trkpt>
      <trkpt lat="43.70749" lon="5.36674">
        <ele>158.356567</ele>
        <time>2022-04-28T09:22:09Z</time>
      </trkpt>
      <trkpt lat="43.70752" lon="5.36669">
        <ele>158.296265</ele>
        <time>2022-04-28T09:22:10Z</time>
      </trkpt>
      <trkpt lat="43.70775" lon="5.36625">
        <ele>158.345139</ele>
        <time>2022-04-28T09:22:21Z</time>
      </trkpt>
      <trkpt lat="43.70803" lon="5.36582">
        <ele>158.930588</ele>
        <time>2022-04-28T09:22:35Z</time>
      </trkpt>
      <trkpt lat="43.70846" lon="5.36524">
        <ele>159.340347</ele>
        <time>2022-04-28T09:22:50Z</time>
      </trkpt>
      <trkpt lat="43.70873" lon="5.36476">
        <ele>159.688004</ele>
        <time>2022-04-28T09:23:04Z</time>
      </trkpt>
      <trkpt lat="43.70898" lon="5.36445">
        <ele>160</ele>
        <time>2022-04-28T09:23:18Z</time>
      </trkpt>
      <trkpt lat="43.70906" lon="5.36435">
        <ele>160</ele>
        <time>2022-04-28T09:23:31Z</time>
      </trkpt>
      <trkpt lat="43.70916" lon="5.36426">
        <ele>160</ele>
        <time>2022-04-28T09:23:44Z</time>
      </trkpt>
      <trkpt lat="43.70917" lon="5.36424">
        <ele>160</ele>
        <time>2022-04-28T09:23:45Z</time>
      </trkpt>
      <trkpt lat="43.70917" lon="5.36422">
        <ele>160</ele>
        <time>2022-04-28T09:23:46Z</time>
      </trkpt>
      <trkpt lat="43.70918" lon="5.36419">
        <ele>160</ele>
        <time>2022-04-28T09:23:47Z</time>
      </trkpt>
      <trkpt lat="43.70918" lon="5.36416">
        <ele>160</ele>
        <time>2022-04-28T09:23:48Z</time>
      </trkpt>
      <trkpt lat="43.70919" lon="5.36413">
        <ele>160</ele>
        <time>2022-04-28T09:23:49Z</time>
      </trkpt>
      <trkpt lat="43.7092" lon="5.3641">
        <ele>160</ele>
        <time>2022-04-28T09:23:50Z</time>
      </trkpt>
      <trkpt lat="43.70922" lon="5.36407">
        <ele>160</ele>
        <time>2022-04-28T09:23:51Z</time>
      </trkpt>
      <trkpt lat="43.70945" lon="5.36368">
        <ele>159.7957</ele>
        <time>2022-04-28T09:24:03Z</time>
      </trkpt>
      <trkpt lat="43.70972" lon="5.36326">
        <ele>159.245316</ele>
        <time>2022-04-28T09:24:17Z</time>
      </trkpt>
      <trkpt lat="43.70999" lon="5.36286">
        <ele>159.805222</ele>
        <time>2022-04-28T09:24:30Z</time>
      </trkpt>
      <trkpt lat="43.71031" lon="5.36251">
        <ele>159.871597</ele>
        <time>2022-04-28T09:24:43Z</time>
      </trkpt>
      <trkpt lat="43.71058" lon="5.3622">
        <ele>158.418457</ele>
        <time>2022-04-28T09:24:55Z</time>
      </trkpt>
      <trkpt lat="43.71059" lon="5.36217">
        <ele>158.442505</ele>
        <time>2022-04-28T09:24:56Z</time>
      </trkpt>
      <trkpt lat="43.71059" lon="5.36215">
        <ele>158.517685</ele>
        <time>2022-04-28T09:24:57Z</time>
      </trkpt>
      <trkpt lat="43.7106" lon="5.36212">
        <ele>158.581757</ele>
        <time>2022-04-28T09:24:58Z</time>
      </trkpt>
      <trkpt lat="43.71061" lon="5.3621">
        <ele>158.621262</ele>
        <time>2022-04-28T09:24:59Z</time>
      </trkpt>
      <trkpt lat="43.71062" lon="5.36208">
        <ele>158.634094</ele>
        <time>2022-04-28T09:25:00Z</time>
      </trkpt>
      <trkpt lat="43.71063" lon="5.36205">
        <ele>158.663742</ele>
        <time>2022-04-28T09:25:01Z</time>
      </trkpt>
      <trkpt lat="43.71064" lon="5.36201">
        <ele>158.746231</ele>
        <time>2022-04-28T09:25:02Z</time>
      </trkpt>
      <trkpt lat="43.71064" lon="5.36198">
        <ele>158.870483</ele>
        <time>2022-04-28T09:25:03Z</time>
      </trkpt>
      <trkpt lat="43.71064" lon="5.36194">
        <ele>159.027161</ele>
        <time>2022-04-28T09:25:04Z</time>
      </trkpt>
      <trkpt lat="43.71064" lon="5.3619">
        <ele>159.155014</ele>
        <time>2022-04-28T09:25:05Z</time>
      </trkpt>
      <trkpt lat="43.71064" lon="5.36186">
        <ele>159.242325</ele>
        <time>2022-04-28T09:25:06Z</time>
      </trkpt>
      <trkpt lat="43.71066" lon="5.36183">
        <ele>159.279602</ele>
        <time>2022-04-28T09:25:07Z</time>
      </trkpt>
      <trkpt lat="43.71068" lon="5.3618">
        <ele>159.306992</ele>
        <time>2022-04-28T09:25:08Z</time>
      </trkpt>
      <trkpt lat="43.71111" lon="5.36113">
        <ele>159.227402</ele>
        <time>2022-04-28T09:25:26Z</time>
      </trkpt>
      <trkpt lat="43.71154" lon="5.36029">
        <ele>159.307739</ele>
        <time>2022-04-28T09:25:45Z</time>
      </trkpt>
      <trkpt lat="43.71188" lon="5.35921">
        <ele>159.192795</ele>
        <time>2022-04-28T09:26:07Z</time>
      </trkpt>
      <trkpt lat="43.71201" lon="5.35857">
        <ele>159.32309</ele>
        <time>2022-04-28T09:26:20Z</time>
      </trkpt>
      <trkpt lat="43.71216" lon="5.3577">
        <ele>159.402802</ele>
        <time>2022-04-28T09:26:37Z</time>
      </trkpt>
      <trkpt lat="43.71233" lon="5.35659">
        <ele>159.489914</ele>
        <time>2022-04-28T09:26:59Z</time>
      </trkpt>
      <trkpt lat="43.71237" lon="5.35617">
        <ele>159.035614</ele>
        <time>2022-04-28T09:27:12Z</time>
      </trkpt>
      <trkpt lat="43.71239" lon="5.35613">
        <ele>158.859268</ele>
        <time>2022-04-28T09:27:23Z</time>
      </trkpt>
      <trkpt lat="43.71238" lon="5.35611">
        <ele>158.868866</ele>
        <time>2022-04-28T09:27:25Z</time>
      </trkpt>
      <trkpt lat="43.71239" lon="5.356">
        <ele>158.709229</ele>
        <time>2022-04-28T09:27:37Z</time>
      </trkpt>
      <trkpt lat="43.71237" lon="5.35597">
        <ele>158.95755</ele>
        <time>2022-04-28T09:27:51Z</time>
      </trkpt>
      <trkpt lat="43.71237" lon="5.35588">
        <ele>158.806335</ele>
        <time>2022-04-28T09:28:06Z</time>
      </trkpt>
      <trkpt lat="43.71239" lon="5.35584">
        <ele>158.604263</ele>
        <time>2022-04-28T09:28:14Z</time>
      </trkpt>
      <trkpt lat="43.71239" lon="5.35582">
        <ele>158.521439</ele>
        <time>2022-04-28T09:28:15Z</time>
      </trkpt>
      <trkpt lat="43.71239" lon="5.3558">
        <ele>158.446335</ele>
        <time>2022-04-28T09:28:16Z</time>
      </trkpt>
      <trkpt lat="43.7124" lon="5.35578">
        <ele>158.372269</ele>
        <time>2022-04-28T09:28:17Z</time>
      </trkpt>
      <trkpt lat="43.7124" lon="5.35576">
        <ele>158.244522</ele>
        <time>2022-04-28T09:28:18Z</time>
      </trkpt>
      <trkpt lat="43.7124" lon="5.35574">
        <ele>158.313568</ele>
        <time>2022-04-28T09:28:30Z</time>
      </trkpt>
      <trkpt lat="43.71239" lon="5.35571">
        <ele>158.454346</ele>
        <time>2022-04-28T09:28:40Z</time>
      </trkpt>
      <trkpt lat="43.71238" lon="5.35569">
        <ele>158.482635</ele>
        <time>2022-04-28T09:28:41Z</time>
      </trkpt>
      <trkpt lat="43.71238" lon="5.35567">
        <ele>158.498749</ele>
        <time>2022-04-28T09:28:42Z</time>
      </trkpt>
      <trkpt lat="43.71238" lon="5.35564">
        <ele>158.467346</ele>
        <time>2022-04-28T09:28:43Z</time>
      </trkpt>
      <trkpt lat="43.71238" lon="5.3556">
        <ele>158.396744</ele>
        <time>2022-04-28T09:28:44Z</time>
      </trkpt>
      <trkpt lat="43.71242" lon="5.35484">
        <ele>157.801178</ele>
        <time>2022-04-28T09:28:59Z</time>
      </trkpt>
      <trkpt lat="43.71248" lon="5.35442">
        <ele>157.767715</ele>
        <time>2022-04-28T09:29:14Z</time>
      </trkpt>
      <trkpt lat="43.7125" lon="5.35437">
        <ele>157.604858</ele>
        <time>2022-04-28T09:29:17Z</time>
      </trkpt>
      <trkpt lat="43.7125" lon="5.35435">
        <ele>157.629456</ele>
        <time>2022-04-28T09:29:18Z</time>
      </trkpt>
      <trkpt lat="43.7125" lon="5.35432">
        <ele>157.695465</ele>
        <time>2022-04-28T09:29:19Z</time>
      </trkpt>
      <trkpt lat="43.71253" lon="5.35371">
        <ele>157.861389</ele>
        <time>2022-04-28T09:29:33Z</time>
      </trkpt>
      <trkpt lat="43.71258" lon="5.35324">
        <ele>157.504105</ele>
        <time>2022-04-28T09:29:47Z</time>
      </trkpt>
      <trkpt lat="43.71264" lon="5.35275">
        <ele>157.376205</ele>
        <time>2022-04-28T09:30:03Z</time>
      </trkpt>
      <trkpt lat="43.71271" lon="5.35229">
        <ele>158.49823</ele>
        <time>2022-04-28T09:30:16Z</time>
      </trkpt>
      <trkpt lat="43.7129" lon="5.35123">
        <ele>158.594437</ele>
        <time>2022-04-28T09:30:39Z</time>
      </trkpt>
      <trkpt lat="43.71308" lon="5.35031">
        <ele>157.948288</ele>
        <time>2022-04-28T09:30:58Z</time>
      </trkpt>
      <trkpt lat="43.71329" lon="5.34921">
        <ele>158.445892</ele>
        <time>2022-04-28T09:31:20Z</time>
      </trkpt>
      <trkpt lat="43.71354" lon="5.34795">
        <ele>158.421768</ele>
        <time>2022-04-28T09:31:45Z</time>
      </trkpt>
      <trkpt lat="43.71375" lon="5.34692">
        <ele>157.112991</ele>
        <time>2022-04-28T09:32:05Z</time>
      </trkpt>
      <trkpt lat="43.71397" lon="5.34581">
        <ele>159.256577</ele>
        <time>2022-04-28T09:32:26Z</time>
      </trkpt>
      <trkpt lat="43.71405" lon="5.34535">
        <ele>158.709885</ele>
        <time>2022-04-28T09:32:36Z</time>
      </trkpt>
      <trkpt lat="43.71405" lon="5.3453">
        <ele>158.780472</ele>
        <time>2022-04-28T09:32:38Z</time>
      </trkpt>
      <trkpt lat="43.71406" lon="5.34528">
        <ele>158.708588</ele>
        <time>2022-04-28T09:32:39Z</time>
      </trkpt>
      <trkpt lat="43.71408" lon="5.34528">
        <ele>158.567322</ele>
        <time>2022-04-28T09:32:40Z</time>
      </trkpt>
      <trkpt lat="43.71409" lon="5.34527">
        <ele>158.420609</ele>
        <time>2022-04-28T09:32:41Z</time>
      </trkpt>
      <trkpt lat="43.71411" lon="5.34527">
        <ele>158.262558</ele>
        <time>2022-04-28T09:32:42Z</time>
      </trkpt>
      <trkpt lat="43.71413" lon="5.34524">
        <ele>158.127731</ele>
        <time>2022-04-28T09:32:43Z</time>
      </trkpt>
      <trkpt lat="43.71415" lon="5.34521">
        <ele>158.056061</ele>
        <time>2022-04-28T09:32:44Z</time>
      </trkpt>
      <trkpt lat="43.71416" lon="5.34517">
        <ele>158.028015</ele>
        <time>2022-04-28T09:32:45Z</time>
      </trkpt>
      <trkpt lat="43.71417" lon="5.34513">
        <ele>158.026337</ele>
        <time>2022-04-28T09:32:46Z</time>
      </trkpt>
      <trkpt lat="43.7142" lon="5.34503">
        <ele>157.980698</ele>
        <time>2022-04-28T09:32:49Z</time>
      </trkpt>
      <trkpt lat="43.71427" lon="5.34491">
        <ele>157.772842</ele>
        <time>2022-04-28T09:33:00Z</time>
      </trkpt>
      <trkpt lat="43.71426" lon="5.3449">
        <ele>157.84761</ele>
        <time>2022-04-28T09:33:27Z</time>
      </trkpt>
      <trkpt lat="43.71426" lon="5.34487">
        <ele>157.928574</ele>
        <time>2022-04-28T09:33:45Z</time>
      </trkpt>
      <trkpt lat="43.71426" lon="5.34485">
        <ele>157.957703</ele>
        <time>2022-04-28T09:33:46Z</time>
      </trkpt>
      <trkpt lat="43.71427" lon="5.34484">
        <ele>157.980942</ele>
        <time>2022-04-28T09:33:47Z</time>
      </trkpt>
      <trkpt lat="43.71439" lon="5.34439">
        <ele>158.75737</ele>
        <time>2022-04-28T09:33:59Z</time>
      </trkpt>
      <trkpt lat="43.71441" lon="5.34433">
        <ele>158.746201</ele>
        <time>2022-04-28T09:34:00Z</time>
      </trkpt>
      <trkpt lat="43.71446" lon="5.34421">
        <ele>158.528351</ele>
        <time>2022-04-28T09:34:02Z</time>
      </trkpt>
      <trkpt lat="43.71475" lon="5.34355">
        <ele>157.046341</ele>
        <time>2022-04-28T09:34:10Z</time>
      </trkpt>
      <trkpt lat="43.71493" lon="5.34329">
        <ele>157.17186</ele>
        <time>2022-04-28T09:34:13Z</time>
      </trkpt>
      <trkpt lat="43.71504" lon="5.34312">
        <ele>156.772995</ele>
        <time>2022-04-28T09:34:15Z</time>
      </trkpt>
      <trkpt lat="43.71509" lon="5.34303">
        <ele>156.481842</ele>
        <time>2022-04-28T09:34:16Z</time>
      </trkpt>
      <trkpt lat="43.71515" lon="5.34295">
        <ele>156.122025</ele>
        <time>2022-04-28T09:34:17Z</time>
      </trkpt>
      <trkpt lat="43.71522" lon="5.3429">
        <ele>155.618835</ele>
        <time>2022-04-28T09:34:18Z</time>
      </trkpt>
      <trkpt lat="43.7153" lon="5.34287">
        <ele>154.972366</ele>
        <time>2022-04-28T09:34:19Z</time>
      </trkpt>
      <trkpt lat="43.71537" lon="5.34286">
        <ele>154.437103</ele>
        <time>2022-04-28T09:34:20Z</time>
      </trkpt>
      <trkpt lat="43.71543" lon="5.34286">
        <ele>153.983353</ele>
        <time>2022-04-28T09:34:21Z</time>
      </trkpt>
      <trkpt lat="43.71549" lon="5.34288">
        <ele>153.487183</ele>
        <time>2022-04-28T09:34:22Z</time>
      </trkpt>
      <trkpt lat="43.71555" lon="5.3429">
        <ele>153.026138</ele>
        <time>2022-04-28T09:34:23Z</time>
      </trkpt>
      <trkpt lat="43.71586" lon="5.34301">
        <ele>151.209229</ele>
        <time>2022-04-28T09:34:30Z</time>
      </trkpt>
      <trkpt lat="43.71591" lon="5.34301">
        <ele>151.209366</ele>
        <time>2022-04-28T09:34:31Z</time>
      </trkpt>
      <trkpt lat="43.716" lon="5.34301">
        <ele>151.229752</ele>
        <time>2022-04-28T09:34:33Z</time>
      </trkpt>
      <trkpt lat="43.71605" lon="5.34299">
        <ele>151.257736</ele>
        <time>2022-04-28T09:34:34Z</time>
      </trkpt>
      <trkpt lat="43.7161" lon="5.34297">
        <ele>151.302887</ele>
        <time>2022-04-28T09:34:35Z</time>
      </trkpt>
      <trkpt lat="43.71614" lon="5.34293">
        <ele>151.35881</ele>
        <time>2022-04-28T09:34:36Z</time>
      </trkpt>
      <trkpt lat="43.71618" lon="5.34289">
        <ele>151.427414</ele>
        <time>2022-04-28T09:34:37Z</time>
      </trkpt>
      <trkpt lat="43.71622" lon="5.34285">
        <ele>151.501022</ele>
        <time>2022-04-28T09:34:38Z</time>
      </trkpt>
      <trkpt lat="43.71625" lon="5.3428">
        <ele>151.569366</ele>
        <time>2022-04-28T09:34:39Z</time>
      </trkpt>
      <trkpt lat="43.71628" lon="5.34275">
        <ele>151.611252</ele>
        <time>2022-04-28T09:34:40Z</time>
      </trkpt>
      <trkpt lat="43.7163" lon="5.34269">
        <ele>151.658218</ele>
        <time>2022-04-28T09:34:41Z</time>
      </trkpt>
      <trkpt lat="43.71633" lon="5.34263">
        <ele>151.705917</ele>
        <time>2022-04-28T09:34:42Z</time>
      </trkpt>
      <trkpt lat="43.71634" lon="5.34257">
        <ele>151.757553</ele>
        <time>2022-04-28T09:34:43Z</time>
      </trkpt>
      <trkpt lat="43.71636" lon="5.3425">
        <ele>151.834091</ele>
        <time>2022-04-28T09:34:44Z</time>
      </trkpt>
      <trkpt lat="43.71637" lon="5.34244">
        <ele>151.925644</ele>
        <time>2022-04-28T09:34:45Z</time>
      </trkpt>
      <trkpt lat="43.71643" lon="5.34202">
        <ele>152.488129</ele>
        <time>2022-04-28T09:34:51Z</time>
      </trkpt>
      <trkpt lat="43.71644" lon="5.34196">
        <ele>152.559036</ele>
        <time>2022-04-28T09:34:52Z</time>
      </trkpt>
      <trkpt lat="43.71672" lon="5.34128">
        <ele>152.189438</ele>
        <time>2022-04-28T09:35:04Z</time>
      </trkpt>
      <trkpt lat="43.71675" lon="5.34124">
        <ele>152.116577</ele>
        <time>2022-04-28T09:35:05Z</time>
      </trkpt>
      <trkpt lat="43.71678" lon="5.3412">
        <ele>152.116196</ele>
        <time>2022-04-28T09:35:06Z</time>
      </trkpt>
      <trkpt lat="43.71681" lon="5.34115">
        <ele>152.130905</ele>
        <time>2022-04-28T09:35:07Z</time>
      </trkpt>
      <trkpt lat="43.71683" lon="5.34111">
        <ele>152.159088</ele>
        <time>2022-04-28T09:35:08Z</time>
      </trkpt>
      <trkpt lat="43.71685" lon="5.34105">
        <ele>152.198868</ele>
        <time>2022-04-28T09:35:09Z</time>
      </trkpt>
      <trkpt lat="43.71687" lon="5.341">
        <ele>152.242844</ele>
        <time>2022-04-28T09:35:10Z</time>
      </trkpt>
      <trkpt lat="43.71689" lon="5.34095">
        <ele>152.295044</ele>
        <time>2022-04-28T09:35:11Z</time>
      </trkpt>
      <trkpt lat="43.7169" lon="5.34089">
        <ele>152.368179</ele>
        <time>2022-04-28T09:35:12Z</time>
      </trkpt>
      <trkpt lat="43.71691" lon="5.34083">
        <ele>152.449341</ele>
        <time>2022-04-28T09:35:13Z</time>
      </trkpt>
      <trkpt lat="43.71692" lon="5.34077">
        <ele>152.528549</ele>
        <time>2022-04-28T09:35:14Z</time>
      </trkpt>
      <trkpt lat="43.71693" lon="5.34071">
        <ele>152.615173</ele>
        <time>2022-04-28T09:35:15Z</time>
      </trkpt>
      <trkpt lat="43.71694" lon="5.34065">
        <ele>152.761307</ele>
        <time>2022-04-28T09:35:16Z</time>
      </trkpt>
      <trkpt lat="43.71729" lon="5.33963">
        <ele>153.914749</ele>
        <time>2022-04-28T09:35:33Z</time>
      </trkpt>
      <trkpt lat="43.71734" lon="5.33952">
        <ele>153.948608</ele>
        <time>2022-04-28T09:35:35Z</time>
      </trkpt>
      <trkpt lat="43.71737" lon="5.33947">
        <ele>153.930038</ele>
        <time>2022-04-28T09:35:36Z</time>
      </trkpt>
      <trkpt lat="43.7174" lon="5.33942">
        <ele>153.944504</ele>
        <time>2022-04-28T09:35:37Z</time>
      </trkpt>
      <trkpt lat="43.71795" lon="5.3385">
        <ele>154.195175</ele>
        <time>2022-04-28T09:35:54Z</time>
      </trkpt>
      <trkpt lat="43.71801" lon="5.33839">
        <ele>154.171997</ele>
        <time>2022-04-28T09:35:56Z</time>
      </trkpt>
      <trkpt lat="43.71808" lon="5.33828">
        <ele>153.956223</ele>
        <time>2022-04-28T09:35:58Z</time>
      </trkpt>
      <trkpt lat="43.71861" lon="5.33735">
        <ele>153.03157</ele>
        <time>2022-04-28T09:36:15Z</time>
      </trkpt>
      <trkpt lat="43.71902" lon="5.33667">
        <ele>152.651108</ele>
        <time>2022-04-28T09:36:28Z</time>
      </trkpt>
      <trkpt lat="43.71905" lon="5.33662">
        <ele>152.47879</ele>
        <time>2022-04-28T09:36:29Z</time>
      </trkpt>
      <trkpt lat="43.71947" lon="5.33593">
        <ele>152.518082</ele>
        <time>2022-04-28T09:36:42Z</time>
      </trkpt>
      <trkpt lat="43.71989" lon="5.33554">
        <ele>150.852478</ele>
        <time>2022-04-28T09:36:52Z</time>
      </trkpt>
      <trkpt lat="43.71993" lon="5.33549">
        <ele>150.697311</ele>
        <time>2022-04-28T09:36:53Z</time>
      </trkpt>
      <trkpt lat="43.71996" lon="5.33544">
        <ele>150.603531</ele>
        <time>2022-04-28T09:36:54Z</time>
      </trkpt>
      <trkpt lat="43.71998" lon="5.33537">
        <ele>150.548996</ele>
        <time>2022-04-28T09:36:55Z</time>
      </trkpt>
      <trkpt lat="43.72" lon="5.33531">
        <ele>150.506088</ele>
        <time>2022-04-28T09:36:56Z</time>
      </trkpt>
      <trkpt lat="43.72002" lon="5.33525">
        <ele>150.612885</ele>
        <time>2022-04-28T09:36:57Z</time>
      </trkpt>
      <trkpt lat="43.72016" lon="5.3349">
        <ele>151.421707</ele>
        <time>2022-04-28T09:37:03Z</time>
      </trkpt>
      <trkpt lat="43.7202" lon="5.33484">
        <ele>151.566925</ele>
        <time>2022-04-28T09:37:04Z</time>
      </trkpt>
      <trkpt lat="43.72022" lon="5.33481">
        <ele>151.622452</ele>
        <time>2022-04-28T09:37:05Z</time>
      </trkpt>
      <trkpt lat="43.72066" lon="5.33421">
        <ele>151.401672</ele>
        <time>2022-04-28T09:37:18Z</time>
      </trkpt>
      <trkpt lat="43.72071" lon="5.33409">
        <ele>151.432373</ele>
        <time>2022-04-28T09:37:20Z</time>
      </trkpt>
      <trkpt lat="43.72072" lon="5.33403">
        <ele>151.522934</ele>
        <time>2022-04-28T09:37:21Z</time>
      </trkpt>
      <trkpt lat="43.72075" lon="5.3339">
        <ele>151.689514</ele>
        <time>2022-04-28T09:37:23Z</time>
      </trkpt>
      <trkpt lat="43.72083" lon="5.33372">
        <ele>151.504211</ele>
        <time>2022-04-28T09:37:26Z</time>
      </trkpt>
      <trkpt lat="43.72086" lon="5.33367">
        <ele>151.279251</ele>
        <time>2022-04-28T09:37:27Z</time>
      </trkpt>
      <trkpt lat="43.72143" lon="5.33278">
        <ele>148.954361</ele>
        <time>2022-04-28T09:37:44Z</time>
      </trkpt>
      <trkpt lat="43.72169" lon="5.33236">
        <ele>149.298309</ele>
        <time>2022-04-28T09:37:52Z</time>
      </trkpt>
      <trkpt lat="43.72172" lon="5.33231">
        <ele>149.316406</ele>
        <time>2022-04-28T09:37:53Z</time>
      </trkpt>
      <trkpt lat="43.72174" lon="5.33225">
        <ele>149.546188</ele>
        <time>2022-04-28T09:37:54Z</time>
      </trkpt>
      <trkpt lat="43.72182" lon="5.332">
        <ele>150.452393</ele>
        <time>2022-04-28T09:37:58Z</time>
      </trkpt>
      <trkpt lat="43.72188" lon="5.33188">
        <ele>150.308243</ele>
        <time>2022-04-28T09:38:00Z</time>
      </trkpt>
      <trkpt lat="43.72216" lon="5.33147">
        <ele>150.400696</ele>
        <time>2022-04-28T09:38:08Z</time>
      </trkpt>
      <trkpt lat="43.72224" lon="5.33137">
        <ele>150.240967</ele>
        <time>2022-04-28T09:38:10Z</time>
      </trkpt>
      <trkpt lat="43.72228" lon="5.33132">
        <ele>150.044891</ele>
        <time>2022-04-28T09:38:11Z</time>
      </trkpt>
      <trkpt lat="43.72232" lon="5.33129">
        <ele>149.645981</ele>
        <time>2022-04-28T09:38:12Z</time>
      </trkpt>
      <trkpt lat="43.72238" lon="5.33127">
        <ele>149.065842</ele>
        <time>2022-04-28T09:38:13Z</time>
      </trkpt>
      <trkpt lat="43.72243" lon="5.33125">
        <ele>148.655411</ele>
        <time>2022-04-28T09:38:14Z</time>
      </trkpt>
      <trkpt lat="43.72246" lon="5.33123">
        <ele>148.552338</ele>
        <time>2022-04-28T09:38:15Z</time>
      </trkpt>
      <trkpt lat="43.7225" lon="5.3312">
        <ele>148.431961</ele>
        <time>2022-04-28T09:38:16Z</time>
      </trkpt>
      <trkpt lat="43.72255" lon="5.33116">
        <ele>148.310074</ele>
        <time>2022-04-28T09:38:17Z</time>
      </trkpt>
      <trkpt lat="43.72258" lon="5.33112">
        <ele>148.20311</ele>
        <time>2022-04-28T09:38:18Z</time>
      </trkpt>
      <trkpt lat="43.72262" lon="5.33107">
        <ele>148.173416</ele>
        <time>2022-04-28T09:38:19Z</time>
      </trkpt>
      <trkpt lat="43.72265" lon="5.33103">
        <ele>148.225006</ele>
        <time>2022-04-28T09:38:20Z</time>
      </trkpt>
      <trkpt lat="43.72268" lon="5.33097">
        <ele>148.288086</ele>
        <time>2022-04-28T09:38:21Z</time>
      </trkpt>
      <trkpt lat="43.72269" lon="5.33091">
        <ele>148.404831</ele>
        <time>2022-04-28T09:38:22Z</time>
      </trkpt>
      <trkpt lat="43.7227" lon="5.33085">
        <ele>148.590256</ele>
        <time>2022-04-28T09:38:23Z</time>
      </trkpt>
      <trkpt lat="43.72271" lon="5.33078">
        <ele>148.781006</ele>
        <time>2022-04-28T09:38:24Z</time>
      </trkpt>
      <trkpt lat="43.72281" lon="5.33041">
        <ele>149.086166</ele>
        <time>2022-04-28T09:38:33Z</time>
      </trkpt>
      <trkpt lat="43.72284" lon="5.33036">
        <ele>148.949722</ele>
        <time>2022-04-28T09:38:34Z</time>
      </trkpt>
      <trkpt lat="43.72325" lon="5.32973">
        <ele>148.523651</ele>
        <time>2022-04-28T09:38:47Z</time>
      </trkpt>
      <trkpt lat="43.72329" lon="5.32968">
        <ele>148.431213</ele>
        <time>2022-04-28T09:38:48Z</time>
      </trkpt>
      <trkpt lat="43.72332" lon="5.32963">
        <ele>148.300507</ele>
        <time>2022-04-28T09:38:49Z</time>
      </trkpt>
      <trkpt lat="43.72335" lon="5.32957">
        <ele>148.15004</ele>
        <time>2022-04-28T09:38:50Z</time>
      </trkpt>
      <trkpt lat="43.72337" lon="5.32951">
        <ele>148.13591</ele>
        <time>2022-04-28T09:38:51Z</time>
      </trkpt>
      <trkpt lat="43.72381" lon="5.32867">
        <ele>147.421677</ele>
        <time>2022-04-28T09:39:08Z</time>
      </trkpt>
      <trkpt lat="43.72386" lon="5.32858">
        <ele>147.743759</ele>
        <time>2022-04-28T09:39:18Z</time>
      </trkpt>
      <trkpt lat="43.72386" lon="5.32859">
        <ele>147.693176</ele>
        <time>2022-04-28T09:39:38Z</time>
      </trkpt>
      <trkpt lat="43.72387" lon="5.32858">
        <ele>147.761047</ele>
        <time>2022-04-28T09:39:57Z</time>
      </trkpt>
      <trkpt lat="43.72387" lon="5.32858">
        <ele>147.756378</ele>
        <time>2022-04-28T09:40:20Z</time>
      </trkpt>
      <trkpt lat="43.72387" lon="5.32858">
        <ele>147.74939</ele>
        <time>2022-04-28T09:40:44Z</time>
      </trkpt>
      <trkpt lat="43.72386" lon="5.32858">
        <ele>147.795929</ele>
        <time>2022-04-28T09:41:06Z</time>
      </trkpt>
      <trkpt lat="43.72385" lon="5.32858">
        <ele>147.790878</ele>
        <time>2022-04-28T09:41:40Z</time>
      </trkpt>
      <trkpt lat="43.72387" lon="5.32858">
        <ele>147.773468</ele>
        <time>2022-04-28T09:42:00Z</time>
      </trkpt>
      <trkpt lat="43.72388" lon="5.32858">
        <ele>147.736923</ele>
        <time>2022-04-28T09:42:32Z</time>
      </trkpt>
      <trkpt lat="43.72388" lon="5.32855">
        <ele>147.912872</ele>
        <time>2022-04-28T09:42:48Z</time>
      </trkpt>
      <trkpt lat="43.72389" lon="5.32854">
        <ele>147.975693</ele>
        <time>2022-04-28T09:43:00Z</time>
      </trkpt>
      <trkpt lat="43.7239" lon="5.32852">
        <ele>148.108383</ele>
        <time>2022-04-28T09:43:02Z</time>
      </trkpt>
      <trkpt lat="43.72391" lon="5.3285">
        <ele>148.225677</ele>
        <time>2022-04-28T09:43:03Z</time>
      </trkpt>
      <trkpt lat="43.72392" lon="5.32847">
        <ele>148.352875</ele>
        <time>2022-04-28T09:43:04Z</time>
      </trkpt>
      <trkpt lat="43.72394" lon="5.32844">
        <ele>148.497269</ele>
        <time>2022-04-28T09:43:05Z</time>
      </trkpt>
      <trkpt lat="43.72395" lon="5.32841">
        <ele>148.693588</ele>
        <time>2022-04-28T09:43:06Z</time>
      </trkpt>
      <trkpt lat="43.72396" lon="5.32837">
        <ele>148.934464</ele>
        <time>2022-04-28T09:43:07Z</time>
      </trkpt>
      <trkpt lat="43.72397" lon="5.32833">
        <ele>149.126266</ele>
        <time>2022-04-28T09:43:08Z</time>
      </trkpt>
      <trkpt lat="43.72398" lon="5.3283">
        <ele>149.37146</ele>
        <time>2022-04-28T09:43:09Z</time>
      </trkpt>
      <trkpt lat="43.72397" lon="5.32826">
        <ele>149.682404</ele>
        <time>2022-04-28T09:43:10Z</time>
      </trkpt>
      <trkpt lat="43.72397" lon="5.32823">
        <ele>150.00293</ele>
        <time>2022-04-28T09:43:11Z</time>
      </trkpt>
      <trkpt lat="43.72397" lon="5.32816">
        <ele>150.556488</ele>
        <time>2022-04-28T09:43:13Z</time>
      </trkpt>
      <trkpt lat="43.72398" lon="5.32813">
        <ele>150.633743</ele>
        <time>2022-04-28T09:43:14Z</time>
      </trkpt>
      <trkpt lat="43.72417" lon="5.32781">
        <ele>150.499298</ele>
        <time>2022-04-28T09:43:22Z</time>
      </trkpt>
      <trkpt lat="43.72454" lon="5.32715">
        <ele>151.02803</ele>
        <time>2022-04-28T09:43:36Z</time>
      </trkpt>
      <trkpt lat="43.72477" lon="5.32681">
        <ele>149.69194</ele>
        <time>2022-04-28T09:43:49Z</time>
      </trkpt>
      <trkpt lat="43.72477" lon="5.32683">
        <ele>149.512268</ele>
        <time>2022-04-28T09:44:06Z</time>
      </trkpt>
      <trkpt lat="43.72478" lon="5.32678">
        <ele>149.745544</ele>
        <time>2022-04-28T09:44:16Z</time>
      </trkpt>
      <trkpt lat="43.72479" lon="5.32676">
        <ele>149.87207</ele>
        <time>2022-04-28T09:44:17Z</time>
      </trkpt>
      <trkpt lat="43.72481" lon="5.32674">
        <ele>149.923553</ele>
        <time>2022-04-28T09:44:18Z</time>
      </trkpt>
      <trkpt lat="43.72483" lon="5.32672">
        <ele>149.964157</ele>
        <time>2022-04-28T09:44:19Z</time>
      </trkpt>
      <trkpt lat="43.72485" lon="5.32669">
        <ele>149.964142</ele>
        <time>2022-04-28T09:44:20Z</time>
      </trkpt>
      <trkpt lat="43.72519" lon="5.32611">
        <ele>148.571381</ele>
        <time>2022-04-28T09:44:34Z</time>
      </trkpt>
      <trkpt lat="43.72524" lon="5.32601">
        <ele>148.024231</ele>
        <time>2022-04-28T09:44:36Z</time>
      </trkpt>
      <trkpt lat="43.72532" lon="5.3258">
        <ele>148.004791</ele>
        <time>2022-04-28T09:44:40Z</time>
      </trkpt>
      <trkpt lat="43.7255" lon="5.32507">
        <ele>149.496582</ele>
        <time>2022-04-28T09:44:54Z</time>
      </trkpt>
      <trkpt lat="43.72578" lon="5.32473">
        <ele>145.838211</ele>
        <time>2022-04-28T09:45:05Z</time>
      </trkpt>
      <trkpt lat="43.72603" lon="5.3245">
        <ele>144.994385</ele>
        <time>2022-04-28T09:45:12Z</time>
      </trkpt>
      <trkpt lat="43.72615" lon="5.32431">
        <ele>144.532867</ele>
        <time>2022-04-28T09:45:16Z</time>
      </trkpt>
      <trkpt lat="43.72635" lon="5.32366">
        <ele>144.995377</ele>
        <time>2022-04-28T09:45:27Z</time>
      </trkpt>
      <trkpt lat="43.72655" lon="5.32303">
        <ele>145.190643</ele>
        <time>2022-04-28T09:45:38Z</time>
      </trkpt>
      <trkpt lat="43.72697" lon="5.32243">
        <ele>144.599304</ele>
        <time>2022-04-28T09:45:51Z</time>
      </trkpt>
      <trkpt lat="43.72752" lon="5.32172">
        <ele>144.637527</ele>
        <time>2022-04-28T09:46:07Z</time>
      </trkpt>
      <trkpt lat="43.72762" lon="5.3216">
        <ele>144.735718</ele>
        <time>2022-04-28T09:46:10Z</time>
      </trkpt>
      <trkpt lat="43.72787" lon="5.32129">
        <ele>145.257187</ele>
        <time>2022-04-28T09:46:17Z</time>
      </trkpt>
      <trkpt lat="43.72799" lon="5.32119">
        <ele>145.430023</ele>
        <time>2022-04-28T09:46:20Z</time>
      </trkpt>
      <trkpt lat="43.72826" lon="5.32113">
        <ele>145.548813</ele>
        <time>2022-04-28T09:46:26Z</time>
      </trkpt>
      <trkpt lat="43.72839" lon="5.32106">
        <ele>145.675262</ele>
        <time>2022-04-28T09:46:29Z</time>
      </trkpt>
      <trkpt lat="43.72842" lon="5.32101">
        <ele>145.745377</ele>
        <time>2022-04-28T09:46:30Z</time>
      </trkpt>
      <trkpt lat="43.72845" lon="5.32095">
        <ele>145.842972</ele>
        <time>2022-04-28T09:46:31Z</time>
      </trkpt>
      <trkpt lat="43.72847" lon="5.3209">
        <ele>145.938843</ele>
        <time>2022-04-28T09:46:32Z</time>
      </trkpt>
      <trkpt lat="43.72896" lon="5.32008">
        <ele>145.081467</ele>
        <time>2022-04-28T09:46:48Z</time>
      </trkpt>
      <trkpt lat="43.72957" lon="5.31935">
        <ele>145</ele>
        <time>2022-04-28T09:47:05Z</time>
      </trkpt>
      <trkpt lat="43.73016" lon="5.31865">
        <ele>144.526978</ele>
        <time>2022-04-28T09:47:21Z</time>
      </trkpt>
      <trkpt lat="43.73027" lon="5.31852">
        <ele>144.303574</ele>
        <time>2022-04-28T09:47:24Z</time>
      </trkpt>
      <trkpt lat="43.73095" lon="5.31771">
        <ele>144</ele>
        <time>2022-04-28T09:47:43Z</time>
      </trkpt>
      <trkpt lat="43.73135" lon="5.31718">
        <ele>144</ele>
        <time>2022-04-28T09:47:55Z</time>
      </trkpt>
      <trkpt lat="43.73159" lon="5.31626">
        <ele>144</ele>
        <time>2022-04-28T09:48:10Z</time>
      </trkpt>
      <trkpt lat="43.73177" lon="5.31618">
        <ele>144</ele>
        <time>2022-04-28T09:48:16Z</time>
      </trkpt>
      <trkpt lat="43.7325" lon="5.31654">
        <ele>143</ele>
        <time>2022-04-28T09:48:34Z</time>
      </trkpt>
      <trkpt lat="43.73261" lon="5.31664">
        <ele>143</ele>
        <time>2022-04-28T09:48:38Z</time>
      </trkpt>
      <trkpt lat="43.73289" lon="5.31669">
        <ele>143</ele>
        <time>2022-04-28T09:48:46Z</time>
      </trkpt>
      <trkpt lat="43.7333" lon="5.31689">
        <ele>143</ele>
        <time>2022-04-28T09:48:58Z</time>
      </trkpt>
      <trkpt lat="43.7334" lon="5.31681">
        <ele>143</ele>
        <time>2022-04-28T09:49:02Z</time>
      </trkpt>
      <trkpt lat="43.73342" lon="5.31677">
        <ele>143</ele>
        <time>2022-04-28T09:49:03Z</time>
      </trkpt>
      <trkpt lat="43.73343" lon="5.31675">
        <ele>143</ele>
        <time>2022-04-28T09:49:04Z</time>
      </trkpt>
      <trkpt lat="43.73344" lon="5.31673">
        <ele>143</ele>
        <time>2022-04-28T09:49:05Z</time>
      </trkpt>
      <trkpt lat="43.73345" lon="5.31668">
        <ele>143</ele>
        <time>2022-04-28T09:49:08Z</time>
      </trkpt>
      <trkpt lat="43.7337" lon="5.31649">
        <ele>143</ele>
        <time>2022-04-28T09:49:19Z</time>
      </trkpt>
      <trkpt lat="43.73387" lon="5.31639">
        <ele>143</ele>
        <time>2022-04-28T09:49:23Z</time>
      </trkpt>
      <trkpt lat="43.73391" lon="5.31637">
        <ele>143</ele>
        <time>2022-04-28T09:49:24Z</time>
      </trkpt>
      <trkpt lat="43.73394" lon="5.31635">
        <ele>143</ele>
        <time>2022-04-28T09:49:25Z</time>
      </trkpt>
      <trkpt lat="43.73397" lon="5.31632">
        <ele>143</ele>
        <time>2022-04-28T09:49:26Z</time>
      </trkpt>
      <trkpt lat="43.73401" lon="5.3163">
        <ele>143</ele>
        <time>2022-04-28T09:49:27Z</time>
      </trkpt>
      <trkpt lat="43.7343" lon="5.31605">
        <ele>142.615753</ele>
        <time>2022-04-28T09:49:40Z</time>
      </trkpt>
      <trkpt lat="43.73432" lon="5.31603">
        <ele>142.603088</ele>
        <time>2022-04-28T09:50:04Z</time>
      </trkpt>
      <trkpt lat="43.73433" lon="5.31603">
        <ele>142.57518</ele>
        <time>2022-04-28T09:50:32Z</time>
      </trkpt>
      <trkpt lat="43.73441" lon="5.3159">
        <ele>142.624313</ele>
        <time>2022-04-28T09:50:41Z</time>
      </trkpt>
      <trkpt lat="43.7346" lon="5.31566">
        <ele>142.775894</ele>
        <time>2022-04-28T09:50:47Z</time>
      </trkpt>
      <trkpt lat="43.73462" lon="5.31563">
        <ele>142.778961</ele>
        <time>2022-04-28T09:50:48Z</time>
      </trkpt>
      <trkpt lat="43.73499" lon="5.31501">
        <ele>142.021088</ele>
        <time>2022-04-28T09:51:03Z</time>
      </trkpt>
      <trkpt lat="43.73515" lon="5.31488">
        <ele>142.130676</ele>
        <time>2022-04-28T09:51:16Z</time>
      </trkpt>
      <trkpt lat="43.73517" lon="5.31487">
        <ele>142.132523</ele>
        <time>2022-04-28T09:51:28Z</time>
      </trkpt>
      <trkpt lat="43.73522" lon="5.31488">
        <ele>142.106476</ele>
        <time>2022-04-28T09:51:47Z</time>
      </trkpt>
      <trkpt lat="43.73525" lon="5.31488">
        <ele>142.09465</ele>
        <time>2022-04-28T11:11:33Z</time>
      </trkpt>
      <trkpt lat="43.73527" lon="5.31488">
        <ele>142.087189</ele>
        <time>2022-04-28T11:11:46Z</time>
      </trkpt>
      <trkpt lat="43.73527" lon="5.31486">
        <ele>142.097839</ele>
        <time>2022-04-28T11:12:06Z</time>
      </trkpt>
      <trkpt lat="43.73527" lon="5.3149">
        <ele>142.072662</ele>
        <time>2022-04-28T11:12:28Z</time>
      </trkpt>
      <trkpt lat="43.73526" lon="5.31489">
        <ele>142.082504</ele>
        <time>2022-04-28T11:13:01Z</time>
      </trkpt>
      <trkpt lat="43.73528" lon="5.31489">
        <ele>142.073517</ele>
        <time>2022-04-28T11:13:30Z</time>
      </trkpt>
      <trkpt lat="43.73525" lon="5.31488">
        <ele>142.092819</ele>
        <time>2022-04-28T11:14:12Z</time>
      </trkpt>
      <trkpt lat="43.73525" lon="5.3149">
        <ele>142.083145</ele>
        <time>2022-04-28T11:14:46Z</time>
      </trkpt>
      <trkpt lat="43.73524" lon="5.31488">
        <ele>142.09584</ele>
        <time>2022-04-28T11:15:23Z</time>
      </trkpt>
      <trkpt lat="43.73525" lon="5.3149">
        <ele>142.081848</ele>
        <time>2022-04-28T11:16:03Z</time>
      </trkpt>
      <trkpt lat="43.73524" lon="5.3149">
        <ele>142.08168</ele>
        <time>2022-04-28T11:16:38Z</time>
      </trkpt>
      <trkpt lat="43.73522" lon="5.31488">
        <ele>142.106476</ele>
        <time>2022-04-28T11:17:15Z</time>
      </trkpt>
      <trkpt lat="43.73524" lon="5.31487">
        <ele>142.108109</ele>
        <time>2022-04-28T11:17:52Z</time>
      </trkpt>
      <trkpt lat="43.73524" lon="5.31487">
        <ele>142.106567</ele>
        <time>2022-04-28T11:18:28Z</time>
      </trkpt>
      <trkpt lat="43.73523" lon="5.31485">
        <ele>142.126038</ele>
        <time>2022-04-28T11:18:39Z</time>
      </trkpt>
      <trkpt lat="43.73517" lon="5.31475">
        <ele>142.261475</ele>
        <time>2022-04-28T11:18:53Z</time>
      </trkpt>
      <trkpt lat="43.73518" lon="5.31475">
        <ele>142.257446</ele>
        <time>2022-04-28T11:19:14Z</time>
      </trkpt>
      <trkpt lat="43.73517" lon="5.31473">
        <ele>142.287521</ele>
        <time>2022-04-28T11:19:25Z</time>
      </trkpt>
      <trkpt lat="43.73519" lon="5.31463">
        <ele>142.356339</ele>
        <time>2022-04-28T11:19:30Z</time>
      </trkpt>
      <trkpt lat="43.7352" lon="5.3146">
        <ele>142.374954</ele>
        <time>2022-04-28T11:19:31Z</time>
      </trkpt>
      <trkpt lat="43.73536" lon="5.31389">
        <ele>142.050995</ele>
        <time>2022-04-28T11:19:47Z</time>
      </trkpt>
      <trkpt lat="43.73552" lon="5.31312">
        <ele>141</ele>
        <time>2022-04-28T11:20:03Z</time>
      </trkpt>
      <trkpt lat="43.73566" lon="5.3122">
        <ele>141</ele>
        <time>2022-04-28T11:20:21Z</time>
      </trkpt>
      <trkpt lat="43.73577" lon="5.31136">
        <ele>140.534302</ele>
        <time>2022-04-28T11:20:37Z</time>
      </trkpt>
      <trkpt lat="43.73586" lon="5.31081">
        <ele>140.653259</ele>
        <time>2022-04-28T11:20:47Z</time>
      </trkpt>
      <trkpt lat="43.73594" lon="5.31031">
        <ele>140.808746</ele>
        <time>2022-04-28T11:20:56Z</time>
      </trkpt>
      <trkpt lat="43.73606" lon="5.30968">
        <ele>140.365768</ele>
        <time>2022-04-28T11:21:10Z</time>
      </trkpt>
      <trkpt lat="43.73634" lon="5.3088">
        <ele>140.611359</ele>
        <time>2022-04-28T11:21:28Z</time>
      </trkpt>
      <trkpt lat="43.73639" lon="5.30871">
        <ele>140.714767</ele>
        <time>2022-04-28T11:21:30Z</time>
      </trkpt>
      <trkpt lat="43.73672" lon="5.30815">
        <ele>140.892563</ele>
        <time>2022-04-28T11:21:45Z</time>
      </trkpt>
      <trkpt lat="43.73675" lon="5.30806">
        <ele>140.822067</ele>
        <time>2022-04-28T11:21:52Z</time>
      </trkpt>
      <trkpt lat="43.73674" lon="5.30798">
        <ele>140.753113</ele>
        <time>2022-04-28T11:21:56Z</time>
      </trkpt>
      <trkpt lat="43.73663" lon="5.30749">
        <ele>140.1362</ele>
        <time>2022-04-28T11:22:09Z</time>
      </trkpt>
      <trkpt lat="43.73655" lon="5.30706">
        <ele>140</ele>
        <time>2022-04-28T11:22:20Z</time>
      </trkpt>
      <trkpt lat="43.73652" lon="5.30669">
        <ele>139.548431</ele>
        <time>2022-04-28T11:22:29Z</time>
      </trkpt>
      <trkpt lat="43.73644" lon="5.30615">
        <ele>139.331314</ele>
        <time>2022-04-28T11:22:39Z</time>
      </trkpt>
      <trkpt lat="43.73626" lon="5.30567">
        <ele>139.753632</ele>
        <time>2022-04-28T11:22:50Z</time>
      </trkpt>
      <trkpt lat="43.73593" lon="5.30522">
        <ele>140.084915</ele>
        <time>2022-04-28T11:23:03Z</time>
      </trkpt>
      <trkpt lat="43.73589" lon="5.30435">
        <ele>139.917633</ele>
        <time>2022-04-28T11:23:19Z</time>
      </trkpt>
      <trkpt lat="43.73585" lon="5.30351">
        <ele>139.811661</ele>
        <time>2022-04-28T11:23:35Z</time>
      </trkpt>
      <trkpt lat="43.73578" lon="5.30269">
        <ele>140</ele>
        <time>2022-04-28T11:23:50Z</time>
      </trkpt>
      <trkpt lat="43.73575" lon="5.30189">
        <ele>139.102737</ele>
        <time>2022-04-28T11:24:05Z</time>
      </trkpt>
      <trkpt lat="43.73578" lon="5.30168">
        <ele>139.030685</ele>
        <time>2022-04-28T11:24:09Z</time>
      </trkpt>
      <trkpt lat="43.73589" lon="5.30138">
        <ele>138.816925</ele>
        <time>2022-04-28T11:24:15Z</time>
      </trkpt>
      <trkpt lat="43.7361" lon="5.30111">
        <ele>138.204224</ele>
        <time>2022-04-28T11:24:22Z</time>
      </trkpt>
      <trkpt lat="43.73618" lon="5.30096">
        <ele>138.060715</ele>
        <time>2022-04-28T11:24:26Z</time>
      </trkpt>
      <trkpt lat="43.73634" lon="5.30087">
        <ele>138</ele>
        <time>2022-04-28T11:24:30Z</time>
      </trkpt>
      <trkpt lat="43.73642" lon="5.30072">
        <ele>138</ele>
        <time>2022-04-28T11:24:34Z</time>
      </trkpt>
      <trkpt lat="43.73637" lon="5.29967">
        <ele>137.274994</ele>
        <time>2022-04-28T11:24:52Z</time>
      </trkpt>
      <trkpt lat="43.73628" lon="5.29929">
        <ele>137.061707</ele>
        <time>2022-04-28T11:24:59Z</time>
      </trkpt>
      <trkpt lat="43.73638" lon="5.29915">
        <ele>137.112228</ele>
        <time>2022-04-28T11:25:03Z</time>
      </trkpt>
      <trkpt lat="43.73671" lon="5.29884">
        <ele>137.828354</ele>
        <time>2022-04-28T11:25:13Z</time>
      </trkpt>
      <trkpt lat="43.73674" lon="5.2988">
        <ele>137.880157</ele>
        <time>2022-04-28T11:25:14Z</time>
      </trkpt>
      <trkpt lat="43.73676" lon="5.29875">
        <ele>137.921524</ele>
        <time>2022-04-28T11:25:15Z</time>
      </trkpt>
      <trkpt lat="43.73677" lon="5.29869">
        <ele>137.94809</ele>
        <time>2022-04-28T11:25:16Z</time>
      </trkpt>
      <trkpt lat="43.73678" lon="5.29864">
        <ele>137.962036</ele>
        <time>2022-04-28T11:25:17Z</time>
      </trkpt>
      <trkpt lat="43.73678" lon="5.29858">
        <ele>137.96257</ele>
        <time>2022-04-28T11:25:18Z</time>
      </trkpt>
      <trkpt lat="43.73678" lon="5.29852">
        <ele>137.95047</ele>
        <time>2022-04-28T11:25:19Z</time>
      </trkpt>
      <trkpt lat="43.73677" lon="5.29846">
        <ele>137.934494</ele>
        <time>2022-04-28T11:25:20Z</time>
      </trkpt>
      <trkpt lat="43.73675" lon="5.29824">
        <ele>137.885635</ele>
        <time>2022-04-28T11:25:24Z</time>
      </trkpt>
      <trkpt lat="43.73672" lon="5.29801">
        <ele>137.906342</ele>
        <time>2022-04-28T11:25:28Z</time>
      </trkpt>
      <trkpt lat="43.73673" lon="5.29795">
        <ele>137.925308</ele>
        <time>2022-04-28T11:25:29Z</time>
      </trkpt>
      <trkpt lat="43.73673" lon="5.29789">
        <ele>137.949265</ele>
        <time>2022-04-28T11:25:30Z</time>
      </trkpt>
      <trkpt lat="43.73675" lon="5.29784">
        <ele>137.970032</ele>
        <time>2022-04-28T11:25:31Z</time>
      </trkpt>
      <trkpt lat="43.73676" lon="5.29778">
        <ele>137.987518</ele>
        <time>2022-04-28T11:25:32Z</time>
      </trkpt>
      <trkpt lat="43.73701" lon="5.29714">
        <ele>138</ele>
        <time>2022-04-28T11:25:44Z</time>
      </trkpt>
      <trkpt lat="43.73704" lon="5.2971">
        <ele>138</ele>
        <time>2022-04-28T11:25:45Z</time>
      </trkpt>
      <trkpt lat="43.73708" lon="5.29706">
        <ele>138</ele>
        <time>2022-04-28T11:25:46Z</time>
      </trkpt>
      <trkpt lat="43.73712" lon="5.29703">
        <ele>138</ele>
        <time>2022-04-28T11:25:47Z</time>
      </trkpt>
      <trkpt lat="43.73716" lon="5.297">
        <ele>138</ele>
        <time>2022-04-28T11:25:48Z</time>
      </trkpt>
      <trkpt lat="43.73723" lon="5.29693">
        <ele>138</ele>
        <time>2022-04-28T11:25:50Z</time>
      </trkpt>
      <trkpt lat="43.73726" lon="5.29689">
        <ele>138</ele>
        <time>2022-04-28T11:25:51Z</time>
      </trkpt>
      <trkpt lat="43.7373" lon="5.29684">
        <ele>138</ele>
        <time>2022-04-28T11:25:52Z</time>
      </trkpt>
      <trkpt lat="43.73732" lon="5.29679">
        <ele>138</ele>
        <time>2022-04-28T11:25:53Z</time>
      </trkpt>
      <trkpt lat="43.73735" lon="5.29674">
        <ele>138</ele>
        <time>2022-04-28T11:25:54Z</time>
      </trkpt>
      <trkpt lat="43.73758" lon="5.29633">
        <ele>138</ele>
        <time>2022-04-28T11:26:03Z</time>
      </trkpt>
      <trkpt lat="43.7376" lon="5.29628">
        <ele>138</ele>
        <time>2022-04-28T11:26:04Z</time>
      </trkpt>
      <trkpt lat="43.73761" lon="5.29622">
        <ele>138</ele>
        <time>2022-04-28T11:26:05Z</time>
      </trkpt>
      <trkpt lat="43.73761" lon="5.29617">
        <ele>138</ele>
        <time>2022-04-28T11:26:06Z</time>
      </trkpt>
      <trkpt lat="43.7376" lon="5.29611">
        <ele>138</ele>
        <time>2022-04-28T11:26:07Z</time>
      </trkpt>
      <trkpt lat="43.73762" lon="5.29593">
        <ele>138</ele>
        <time>2022-04-28T11:26:13Z</time>
      </trkpt>
      <trkpt lat="43.73763" lon="5.29592">
        <ele>138</ele>
        <time>2022-04-28T11:26:14Z</time>
      </trkpt>
      <trkpt lat="43.73767" lon="5.29588">
        <ele>137.868164</ele>
        <time>2022-04-28T11:26:24Z</time>
      </trkpt>
      <trkpt lat="43.73767" lon="5.29587">
        <ele>137.830246</ele>
        <time>2022-04-28T11:26:47Z</time>
      </trkpt>
      <trkpt lat="43.73766" lon="5.29584">
        <ele>137.661026</ele>
        <time>2022-04-28T11:27:06Z</time>
      </trkpt>
      <trkpt lat="43.73764" lon="5.29583">
        <ele>137.639908</ele>
        <time>2022-04-28T11:27:34Z</time>
      </trkpt>
      <trkpt lat="43.73766" lon="5.29582">
        <ele>137.587067</ele>
        <time>2022-04-28T11:27:58Z</time>
      </trkpt>
      <trkpt lat="43.73767" lon="5.29584">
        <ele>137.679886</ele>
        <time>2022-04-28T11:28:26Z</time>
      </trkpt>
      <trkpt lat="43.73765" lon="5.29586">
        <ele>137.753479</ele>
        <time>2022-04-28T11:28:54Z</time>
      </trkpt>
      <trkpt lat="43.73764" lon="5.29588">
        <ele>137.858063</ele>
        <time>2022-04-28T11:29:17Z</time>
      </trkpt>
      <trkpt lat="43.73764" lon="5.29588">
        <ele>137.876434</ele>
        <time>2022-04-28T11:29:39Z</time>
      </trkpt>
      <trkpt lat="43.73765" lon="5.29589">
        <ele>137.909821</ele>
        <time>2022-04-28T11:30:01Z</time>
      </trkpt>
      <trkpt lat="43.73767" lon="5.29584">
        <ele>137.653976</ele>
        <time>2022-04-28T11:30:27Z</time>
      </trkpt>
      <trkpt lat="43.73761" lon="5.29583">
        <ele>137.657135</ele>
        <time>2022-04-28T11:30:54Z</time>
      </trkpt>
      <trkpt lat="43.73763" lon="5.29584">
        <ele>137.677444</ele>
        <time>2022-04-28T11:31:20Z</time>
      </trkpt>
      <trkpt lat="43.73764" lon="5.29585">
        <ele>137.750473</ele>
        <time>2022-04-28T11:31:45Z</time>
      </trkpt>
      <trkpt lat="43.73763" lon="5.29584">
        <ele>137.69725</ele>
        <time>2022-04-28T11:32:18Z</time>
      </trkpt>
      <trkpt lat="43.73765" lon="5.29583">
        <ele>137.636993</ele>
        <time>2022-04-28T11:32:51Z</time>
      </trkpt>
      <trkpt lat="43.73766" lon="5.29578">
        <ele>137.395035</ele>
        <time>2022-04-28T11:33:24Z</time>
      </trkpt>
      <trkpt lat="43.73764" lon="5.29586">
        <ele>137.792175</ele>
        <time>2022-04-28T11:33:57Z</time>
      </trkpt>
      <trkpt lat="43.73762" lon="5.29586">
        <ele>137.769638</ele>
        <time>2022-04-28T11:34:13Z</time>
      </trkpt>
      <trkpt lat="43.7376" lon="5.29584">
        <ele>137.679367</ele>
        <time>2022-04-28T11:34:45Z</time>
      </trkpt>
      <trkpt lat="43.73765" lon="5.29587">
        <ele>137.810837</ele>
        <time>2022-04-28T11:35:14Z</time>
      </trkpt>
      <trkpt lat="43.73763" lon="5.29586">
        <ele>137.775497</ele>
        <time>2022-04-28T11:35:20Z</time>
      </trkpt>
      <trkpt lat="43.73744" lon="5.29577">
        <ele>137.404816</ele>
        <time>2022-04-28T11:35:34Z</time>
      </trkpt>
      <trkpt lat="43.73706" lon="5.29558">
        <ele>137.122299</ele>
        <time>2022-04-28T11:35:47Z</time>
      </trkpt>
      <trkpt lat="43.7366" lon="5.29536">
        <ele>137.704025</ele>
        <time>2022-04-28T11:36:02Z</time>
      </trkpt>
      <trkpt lat="43.73597" lon="5.29509">
        <ele>137.831223</ele>
        <time>2022-04-28T11:36:19Z</time>
      </trkpt>
      <trkpt lat="43.73544" lon="5.29488">
        <ele>137.63797</ele>
        <time>2022-04-28T11:36:35Z</time>
      </trkpt>
      <trkpt lat="43.73541" lon="5.29484">
        <ele>137.633026</ele>
        <time>2022-04-28T11:36:37Z</time>
      </trkpt>
      <trkpt lat="43.7354" lon="5.29481">
        <ele>137.612991</ele>
        <time>2022-04-28T11:36:38Z</time>
      </trkpt>
      <trkpt lat="43.7354" lon="5.29478">
        <ele>137.582474</ele>
        <time>2022-04-28T11:36:39Z</time>
      </trkpt>
      <trkpt lat="43.73541" lon="5.29475">
        <ele>137.540207</ele>
        <time>2022-04-28T11:36:40Z</time>
      </trkpt>
      <trkpt lat="43.73541" lon="5.29472">
        <ele>137.499268</ele>
        <time>2022-04-28T11:36:41Z</time>
      </trkpt>
      <trkpt lat="43.73541" lon="5.29468">
        <ele>137.462936</ele>
        <time>2022-04-28T11:36:42Z</time>
      </trkpt>
      <trkpt lat="43.73541" lon="5.29464">
        <ele>137.419525</ele>
        <time>2022-04-28T11:36:43Z</time>
      </trkpt>
      <trkpt lat="43.73542" lon="5.2946">
        <ele>137.368103</ele>
        <time>2022-04-28T11:36:44Z</time>
      </trkpt>
      <trkpt lat="43.73542" lon="5.29456">
        <ele>137.317657</ele>
        <time>2022-04-28T11:36:45Z</time>
      </trkpt>
      <trkpt lat="43.7354" lon="5.29438">
        <ele>137.366745</ele>
        <time>2022-04-28T11:36:49Z</time>
      </trkpt>
      <trkpt lat="43.73537" lon="5.29436">
        <ele>137.432358</ele>
        <time>2022-04-28T11:36:50Z</time>
      </trkpt>
      <trkpt lat="43.73533" lon="5.29435">
        <ele>137.512711</ele>
        <time>2022-04-28T11:36:51Z</time>
      </trkpt>
      <trkpt lat="43.73477" lon="5.29439">
        <ele>138</ele>
        <time>2022-04-28T11:37:04Z</time>
      </trkpt>
      <trkpt lat="43.73396" lon="5.29446">
        <ele>138</ele>
        <time>2022-04-28T11:37:23Z</time>
      </trkpt>
      <trkpt lat="43.7332" lon="5.29453">
        <ele>138</ele>
        <time>2022-04-28T11:37:41Z</time>
      </trkpt>
      <trkpt lat="43.73268" lon="5.29461">
        <ele>138</ele>
        <time>2022-04-28T11:37:57Z</time>
      </trkpt>
      <trkpt lat="43.73267" lon="5.2946">
        <ele>138</ele>
        <time>2022-04-28T11:37:58Z</time>
      </trkpt>
      <trkpt lat="43.73266" lon="5.29458">
        <ele>138</ele>
        <time>2022-04-28T11:37:59Z</time>
      </trkpt>
      <trkpt lat="43.73267" lon="5.29457">
        <ele>138</ele>
        <time>2022-04-28T11:38:00Z</time>
      </trkpt>
      <trkpt lat="43.7327" lon="5.29454">
        <ele>138</ele>
        <time>2022-04-28T11:38:13Z</time>
      </trkpt>
      <trkpt lat="43.73273" lon="5.2945">
        <ele>138</ele>
        <time>2022-04-28T11:38:23Z</time>
      </trkpt>
      <trkpt lat="43.73273" lon="5.29448">
        <ele>138</ele>
        <time>2022-04-28T11:38:24Z</time>
      </trkpt>
      <trkpt lat="43.73273" lon="5.29446">
        <ele>138</ele>
        <time>2022-04-28T11:38:25Z</time>
      </trkpt>
      <trkpt lat="43.73275" lon="5.29398">
        <ele>138</ele>
        <time>2022-04-28T11:38:35Z</time>
      </trkpt>
      <trkpt lat="43.73285" lon="5.29269">
        <ele>137.19519</ele>
        <time>2022-04-28T11:38:58Z</time>
      </trkpt>
      <trkpt lat="43.73301" lon="5.29161">
        <ele>137</ele>
        <time>2022-04-28T11:39:18Z</time>
      </trkpt>
      <trkpt lat="43.7331" lon="5.29061">
        <ele>137</ele>
        <time>2022-04-28T11:39:38Z</time>
      </trkpt>
      <trkpt lat="43.73324" lon="5.29022">
        <ele>137</ele>
        <time>2022-04-28T11:39:49Z</time>
      </trkpt>
      <trkpt lat="43.73351" lon="5.28992">
        <ele>136.699524</ele>
        <time>2022-04-28T11:39:56Z</time>
      </trkpt>
      <trkpt lat="43.73391" lon="5.28958">
        <ele>136.108276</ele>
        <time>2022-04-28T11:40:07Z</time>
      </trkpt>
      <trkpt lat="43.73409" lon="5.28946">
        <ele>136</ele>
        <time>2022-04-28T11:40:12Z</time>
      </trkpt>
      <trkpt lat="43.73412" lon="5.28942">
        <ele>136</ele>
        <time>2022-04-28T11:40:13Z</time>
      </trkpt>
      <trkpt lat="43.73413" lon="5.28937">
        <ele>136</ele>
        <time>2022-04-28T11:40:14Z</time>
      </trkpt>
      <trkpt lat="43.73422" lon="5.28898">
        <ele>136</ele>
        <time>2022-04-28T11:40:21Z</time>
      </trkpt>
      <trkpt lat="43.73447" lon="5.28789">
        <ele>135.34108</ele>
        <time>2022-04-28T11:40:40Z</time>
      </trkpt>
      <trkpt lat="43.73463" lon="5.28689">
        <ele>135</ele>
        <time>2022-04-28T11:40:57Z</time>
      </trkpt>
      <trkpt lat="43.73461" lon="5.28627">
        <ele>135</ele>
        <time>2022-04-28T11:41:10Z</time>
      </trkpt>
      <trkpt lat="43.7346" lon="5.28525">
        <ele>135</ele>
        <time>2022-04-28T11:41:29Z</time>
      </trkpt>
      <trkpt lat="43.73461" lon="5.2852">
        <ele>135</ele>
        <time>2022-04-28T11:41:30Z</time>
      </trkpt>
      <trkpt lat="43.73469" lon="5.28454">
        <ele>135</ele>
        <time>2022-04-28T11:41:44Z</time>
      </trkpt>
      <trkpt lat="43.73472" lon="5.28453">
        <ele>135</ele>
        <time>2022-04-28T11:41:46Z</time>
      </trkpt>
      <trkpt lat="43.73508" lon="5.28455">
        <ele>135</ele>
        <time>2022-04-28T11:41:55Z</time>
      </trkpt>
      <trkpt lat="43.73579" lon="5.28468">
        <ele>135</ele>
        <time>2022-04-28T11:42:13Z</time>
      </trkpt>
      <trkpt lat="43.73602" lon="5.28472">
        <ele>135</ele>
        <time>2022-04-28T11:42:19Z</time>
      </trkpt>
      <trkpt lat="43.73605" lon="5.28469">
        <ele>135</ele>
        <time>2022-04-28T11:42:20Z</time>
      </trkpt>
      <trkpt lat="43.73607" lon="5.28464">
        <ele>134.98616</ele>
        <time>2022-04-28T11:42:21Z</time>
      </trkpt>
      <trkpt lat="43.73609" lon="5.28458">
        <ele>134.928864</ele>
        <time>2022-04-28T11:42:22Z</time>
      </trkpt>
      <trkpt lat="43.7361" lon="5.28452">
        <ele>134.864227</ele>
        <time>2022-04-28T11:42:23Z</time>
      </trkpt>
      <trkpt lat="43.73625" lon="5.28367">
        <ele>133.506714</ele>
        <time>2022-04-28T11:42:38Z</time>
      </trkpt>
      <trkpt lat="43.73644" lon="5.28255">
        <ele>131.901962</ele>
        <time>2022-04-28T11:42:58Z</time>
      </trkpt>
      <trkpt lat="43.73658" lon="5.28177">
        <ele>131.510651</ele>
        <time>2022-04-28T11:43:12Z</time>
      </trkpt>
      <trkpt lat="43.73679" lon="5.2806">
        <ele>132</ele>
        <time>2022-04-28T11:43:32Z</time>
      </trkpt>
      <trkpt lat="43.73697" lon="5.27935">
        <ele>132.493057</ele>
        <time>2022-04-28T11:43:53Z</time>
      </trkpt>
      <trkpt lat="43.73712" lon="5.2782">
        <ele>132.242996</ele>
        <time>2022-04-28T11:44:12Z</time>
      </trkpt>
      <trkpt lat="43.73722" lon="5.27747">
        <ele>132.663391</ele>
        <time>2022-04-28T11:44:25Z</time>
      </trkpt>
      <trkpt lat="43.7373" lon="5.27702">
        <ele>132.800369</ele>
        <time>2022-04-28T11:44:34Z</time>
      </trkpt>
      <trkpt lat="43.7373" lon="5.27696">
        <ele>132.81163</ele>
        <time>2022-04-28T11:44:35Z</time>
      </trkpt>
      <trkpt lat="43.73739" lon="5.27624">
        <ele>132.962219</ele>
        <time>2022-04-28T11:44:47Z</time>
      </trkpt>
      <trkpt lat="43.73756" lon="5.27496">
        <ele>133</ele>
        <time>2022-04-28T11:45:08Z</time>
      </trkpt>
      <trkpt lat="43.73768" lon="5.27401">
        <ele>132.477936</ele>
        <time>2022-04-28T11:45:23Z</time>
      </trkpt>
      <trkpt lat="43.73782" lon="5.27323">
        <ele>132.89032</ele>
        <time>2022-04-28T11:45:38Z</time>
      </trkpt>
      <trkpt lat="43.73785" lon="5.27313">
        <ele>132.95018</ele>
        <time>2022-04-28T11:45:40Z</time>
      </trkpt>
      <trkpt lat="43.73789" lon="5.273">
        <ele>132.992477</ele>
        <time>2022-04-28T11:45:42Z</time>
      </trkpt>
      <trkpt lat="43.73831" lon="5.27191">
        <ele>132</ele>
        <time>2022-04-28T11:46:00Z</time>
      </trkpt>
      <trkpt lat="43.73879" lon="5.27066">
        <ele>132</ele>
        <time>2022-04-28T11:46:20Z</time>
      </trkpt>
      <trkpt lat="43.73896" lon="5.27022">
        <ele>131.952148</ele>
        <time>2022-04-28T11:46:27Z</time>
      </trkpt>
      <trkpt lat="43.73899" lon="5.27015">
        <ele>131.9086</ele>
        <time>2022-04-28T11:46:28Z</time>
      </trkpt>
      <trkpt lat="43.73935" lon="5.26919">
        <ele>131</ele>
        <time>2022-04-28T11:46:44Z</time>
      </trkpt>
      <trkpt lat="43.73967" lon="5.26803">
        <ele>131</ele>
        <time>2022-04-28T11:47:04Z</time>
      </trkpt>
      <trkpt lat="43.73968" lon="5.26797">
        <ele>131</ele>
        <time>2022-04-28T11:47:05Z</time>
      </trkpt>
      <trkpt lat="43.73969" lon="5.26791">
        <ele>131</ele>
        <time>2022-04-28T11:47:06Z</time>
      </trkpt>
      <trkpt lat="43.73995" lon="5.26689">
        <ele>131</ele>
        <time>2022-04-28T11:47:23Z</time>
      </trkpt>
      <trkpt lat="43.74015" lon="5.26611">
        <ele>130.880173</ele>
        <time>2022-04-28T11:47:36Z</time>
      </trkpt>
      <trkpt lat="43.74045" lon="5.26491">
        <ele>131</ele>
        <time>2022-04-28T11:47:57Z</time>
      </trkpt>
      <trkpt lat="43.74078" lon="5.26363">
        <ele>130.706589</ele>
        <time>2022-04-28T11:48:19Z</time>
      </trkpt>
      <trkpt lat="43.74094" lon="5.263">
        <ele>130.042374</ele>
        <time>2022-04-28T11:48:34Z</time>
      </trkpt>
      <trkpt lat="43.74104" lon="5.26267">
        <ele>130.035645</ele>
        <time>2022-04-28T11:48:44Z</time>
      </trkpt>
      <trkpt lat="43.74096" lon="5.26251">
        <ele>130</ele>
        <time>2022-04-28T11:48:48Z</time>
      </trkpt>
      <trkpt lat="43.7409" lon="5.26245">
        <ele>130</ele>
        <time>2022-04-28T11:48:50Z</time>
      </trkpt>
      <trkpt lat="43.74078" lon="5.26228">
        <ele>130</ele>
        <time>2022-04-28T11:48:54Z</time>
      </trkpt>
      <trkpt lat="43.74072" lon="5.26212">
        <ele>130</ele>
        <time>2022-04-28T11:48:57Z</time>
      </trkpt>
      <trkpt lat="43.74072" lon="5.26201">
        <ele>130</ele>
        <time>2022-04-28T11:48:59Z</time>
      </trkpt>
      <trkpt lat="43.74078" lon="5.26098">
        <ele>130.179031</ele>
        <time>2022-04-28T11:49:16Z</time>
      </trkpt>
      <trkpt lat="43.74087" lon="5.25987">
        <ele>129.18956</ele>
        <time>2022-04-28T11:49:34Z</time>
      </trkpt>
      <trkpt lat="43.74098" lon="5.25881">
        <ele>128.182541</ele>
        <time>2022-04-28T11:49:52Z</time>
      </trkpt>
      <trkpt lat="43.74099" lon="5.2583">
        <ele>129.012924</ele>
        <time>2022-04-28T11:50:04Z</time>
      </trkpt>
      <trkpt lat="43.74098" lon="5.25787">
        <ele>130.352219</ele>
        <time>2022-04-28T11:50:11Z</time>
      </trkpt>
      <trkpt lat="43.74097" lon="5.25781">
        <ele>130.548355</ele>
        <time>2022-04-28T11:50:12Z</time>
      </trkpt>
      <trkpt lat="43.74099" lon="5.25708">
        <ele>132.230835</ele>
        <time>2022-04-28T11:50:26Z</time>
      </trkpt>
      <trkpt lat="43.74099" lon="5.25671">
        <ele>133.266571</ele>
        <time>2022-04-28T11:50:32Z</time>
      </trkpt>
      <trkpt lat="43.74098" lon="5.25665">
        <ele>133.446396</ele>
        <time>2022-04-28T11:50:33Z</time>
      </trkpt>
      <trkpt lat="43.74097" lon="5.25661">
        <ele>133.612244</ele>
        <time>2022-04-28T11:50:34Z</time>
      </trkpt>
      <trkpt lat="43.74096" lon="5.25656">
        <ele>133.769287</ele>
        <time>2022-04-28T11:50:35Z</time>
      </trkpt>
      <trkpt lat="43.74095" lon="5.25652">
        <ele>133.92572</ele>
        <time>2022-04-28T11:50:36Z</time>
      </trkpt>
      <trkpt lat="43.74081" lon="5.256">
        <ele>134.655487</ele>
        <time>2022-04-28T11:50:45Z</time>
      </trkpt>
      <trkpt lat="43.74081" lon="5.25594">
        <ele>134.660995</ele>
        <time>2022-04-28T11:50:46Z</time>
      </trkpt>
      <trkpt lat="43.74083" lon="5.25537">
        <ele>134.244644</ele>
        <time>2022-04-28T11:50:55Z</time>
      </trkpt>
      <trkpt lat="43.74087" lon="5.25452">
        <ele>132.429123</ele>
        <time>2022-04-28T11:51:09Z</time>
      </trkpt>
      <trkpt lat="43.74088" lon="5.25441">
        <ele>132.079865</ele>
        <time>2022-04-28T11:51:11Z</time>
      </trkpt>
      <trkpt lat="43.7409" lon="5.25404">
        <ele>130.907303</ele>
        <time>2022-04-28T11:51:20Z</time>
      </trkpt>
      <trkpt lat="43.74073" lon="5.25376">
        <ele>129.826477</ele>
        <time>2022-04-28T11:51:28Z</time>
      </trkpt>
      <trkpt lat="43.74069" lon="5.25373">
        <ele>129.743835</ele>
        <time>2022-04-28T11:51:29Z</time>
      </trkpt>
      <trkpt lat="43.74065" lon="5.25371">
        <ele>129.681137</ele>
        <time>2022-04-28T11:51:30Z</time>
      </trkpt>
      <trkpt lat="43.74061" lon="5.25369">
        <ele>129.625107</ele>
        <time>2022-04-28T11:51:31Z</time>
      </trkpt>
      <trkpt lat="43.74057" lon="5.25367">
        <ele>129.570038</ele>
        <time>2022-04-28T11:51:32Z</time>
      </trkpt>
      <trkpt lat="43.73993" lon="5.25338">
        <ele>129.074799</ele>
        <time>2022-04-28T11:51:48Z</time>
      </trkpt>
      <trkpt lat="43.73941" lon="5.25303">
        <ele>128.740005</ele>
        <time>2022-04-28T11:52:03Z</time>
      </trkpt>
      <trkpt lat="43.73939" lon="5.25299">
        <ele>128.678314</ele>
        <time>2022-04-28T11:52:04Z</time>
      </trkpt>
      <trkpt lat="43.73939" lon="5.25279">
        <ele>128.35083</ele>
        <time>2022-04-28T11:52:08Z</time>
      </trkpt>
      <trkpt lat="43.73933" lon="5.25245">
        <ele>127.812965</ele>
        <time>2022-04-28T11:52:14Z</time>
      </trkpt>
      <trkpt lat="43.73932" lon="5.25239">
        <ele>127.704353</ele>
        <time>2022-04-28T11:52:15Z</time>
      </trkpt>
      <trkpt lat="43.73931" lon="5.25227">
        <ele>127.514259</ele>
        <time>2022-04-28T11:52:17Z</time>
      </trkpt>
      <trkpt lat="43.7393" lon="5.25221">
        <ele>127.414276</ele>
        <time>2022-04-28T11:52:18Z</time>
      </trkpt>
      <trkpt lat="43.73942" lon="5.25131">
        <ele>127</ele>
        <time>2022-04-28T11:52:33Z</time>
      </trkpt>
      <trkpt lat="43.73962" lon="5.25037">
        <ele>127</ele>
        <time>2022-04-28T11:52:49Z</time>
      </trkpt>
      <trkpt lat="43.73964" lon="5.25032">
        <ele>127</ele>
        <time>2022-04-28T11:52:50Z</time>
      </trkpt>
      <trkpt lat="43.73966" lon="5.25026">
        <ele>127</ele>
        <time>2022-04-28T11:52:51Z</time>
      </trkpt>
      <trkpt lat="43.73969" lon="5.2502">
        <ele>127</ele>
        <time>2022-04-28T11:52:52Z</time>
      </trkpt>
      <trkpt lat="43.73972" lon="5.25016">
        <ele>127</ele>
        <time>2022-04-28T11:52:53Z</time>
      </trkpt>
      <trkpt lat="43.73976" lon="5.25012">
        <ele>127</ele>
        <time>2022-04-28T11:52:54Z</time>
      </trkpt>
      <trkpt lat="43.7398" lon="5.25009">
        <ele>127</ele>
        <time>2022-04-28T11:52:55Z</time>
      </trkpt>
      <trkpt lat="43.73993" lon="5.25004">
        <ele>127</ele>
        <time>2022-04-28T11:52:58Z</time>
      </trkpt>
      <trkpt lat="43.74031" lon="5.24999">
        <ele>127</ele>
        <time>2022-04-28T11:53:06Z</time>
      </trkpt>
      <trkpt lat="43.74051" lon="5.24982">
        <ele>127</ele>
        <time>2022-04-28T11:53:11Z</time>
      </trkpt>
      <trkpt lat="43.7409" lon="5.24911">
        <ele>127</ele>
        <time>2022-04-28T11:53:26Z</time>
      </trkpt>
      <trkpt lat="43.74104" lon="5.24883">
        <ele>127</ele>
        <time>2022-04-28T11:53:32Z</time>
      </trkpt>
      <trkpt lat="43.74113" lon="5.24832">
        <ele>127</ele>
        <time>2022-04-28T11:53:40Z</time>
      </trkpt>
      <trkpt lat="43.74114" lon="5.24821">
        <ele>127</ele>
        <time>2022-04-28T11:53:42Z</time>
      </trkpt>
      <trkpt lat="43.74116" lon="5.24788">
        <ele>127</ele>
        <time>2022-04-28T11:53:47Z</time>
      </trkpt>
      <trkpt lat="43.74116" lon="5.24775">
        <ele>127</ele>
        <time>2022-04-28T11:53:49Z</time>
      </trkpt>
      <trkpt lat="43.74127" lon="5.24647">
        <ele>127</ele>
        <time>2022-04-28T11:54:08Z</time>
      </trkpt>
      <trkpt lat="43.74129" lon="5.24641">
        <ele>126.899902</ele>
        <time>2022-04-28T11:54:09Z</time>
      </trkpt>
      <trkpt lat="43.74134" lon="5.24622">
        <ele>126.601692</ele>
        <time>2022-04-28T11:54:12Z</time>
      </trkpt>
      <trkpt lat="43.74145" lon="5.24599">
        <ele>126.354019</ele>
        <time>2022-04-28T11:54:16Z</time>
      </trkpt>
      <trkpt lat="43.74192" lon="5.24484">
        <ele>126</ele>
        <time>2022-04-28T11:54:36Z</time>
      </trkpt>
      <trkpt lat="43.74201" lon="5.24438">
        <ele>126</ele>
        <time>2022-04-28T11:54:43Z</time>
      </trkpt>
      <trkpt lat="43.74211" lon="5.24347">
        <ele>126</ele>
        <time>2022-04-28T11:54:57Z</time>
      </trkpt>
      <trkpt lat="43.74215" lon="5.24302">
        <ele>126</ele>
        <time>2022-04-28T11:55:04Z</time>
      </trkpt>
      <trkpt lat="43.74226" lon="5.24193">
        <ele>126</ele>
        <time>2022-04-28T11:55:21Z</time>
      </trkpt>
      <trkpt lat="43.74228" lon="5.24158">
        <ele>126</ele>
        <time>2022-04-28T11:55:27Z</time>
      </trkpt>
      <trkpt lat="43.74228" lon="5.24146">
        <ele>125.85228</ele>
        <time>2022-04-28T11:55:29Z</time>
      </trkpt>
      <trkpt lat="43.74229" lon="5.24141">
        <ele>125.760117</ele>
        <time>2022-04-28T11:55:30Z</time>
      </trkpt>
      <trkpt lat="43.74232" lon="5.24116">
        <ele>125.36132</ele>
        <time>2022-04-28T11:55:34Z</time>
      </trkpt>
      <trkpt lat="43.74235" lon="5.2404">
        <ele>124.127838</ele>
        <time>2022-04-28T11:55:49Z</time>
      </trkpt>
      <trkpt lat="43.74234" lon="5.24039">
        <ele>124.109283</ele>
        <time>2022-04-28T11:56:01Z</time>
      </trkpt>
      <trkpt lat="43.74236" lon="5.24037">
        <ele>124.079178</ele>
        <time>2022-04-28T11:56:24Z</time>
      </trkpt>
      <trkpt lat="43.74238" lon="5.24038">
        <ele>124.099869</ele>
        <time>2022-04-28T11:56:28Z</time>
      </trkpt>
      <trkpt lat="43.74239" lon="5.24039">
        <ele>124.105606</ele>
        <time>2022-04-28T11:56:29Z</time>
      </trkpt>
      <trkpt lat="43.74246" lon="5.24039">
        <ele>124.097176</ele>
        <time>2022-04-28T11:56:40Z</time>
      </trkpt>
      <trkpt lat="43.74243" lon="5.24039">
        <ele>124.111008</ele>
        <time>2022-04-28T11:57:02Z</time>
      </trkpt>
      <trkpt lat="43.74246" lon="5.24039">
        <ele>124.091759</ele>
        <time>2022-04-28T11:57:40Z</time>
      </trkpt>
      <trkpt lat="43.74246" lon="5.2404">
        <ele>124.106255</ele>
        <time>2022-04-28T11:58:15Z</time>
      </trkpt>
      <trkpt lat="43.74243" lon="5.2404">
        <ele>124.126747</ele>
        <time>2022-04-28T11:58:49Z</time>
      </trkpt>
      <trkpt lat="43.74246" lon="5.24039">
        <ele>124.097977</ele>
        <time>2022-04-28T11:59:24Z</time>
      </trkpt>
      <trkpt lat="43.74245" lon="5.24039">
        <ele>124.107254</ele>
        <time>2022-04-28T11:59:33Z</time>
      </trkpt>
      <trkpt lat="43.74244" lon="5.24039">
        <ele>124.106522</ele>
        <time>2022-04-28T12:00:13Z</time>
      </trkpt>
      <trkpt lat="43.74244" lon="5.2404">
        <ele>124.114059</ele>
        <time>2022-04-28T12:00:50Z</time>
      </trkpt>
      <trkpt lat="43.74246" lon="5.2404">
        <ele>124.103149</ele>
        <time>2022-04-28T12:01:19Z</time>
      </trkpt>
      <trkpt lat="43.74247" lon="5.24039">
        <ele>124.09877</ele>
        <time>2022-04-28T12:01:46Z</time>
      </trkpt>
      <trkpt lat="43.74245" lon="5.2404">
        <ele>124.109627</ele>
        <time>2022-04-28T12:02:11Z</time>
      </trkpt>
      <trkpt lat="43.74246" lon="5.24041">
        <ele>124.125916</ele>
        <time>2022-04-28T12:02:50Z</time>
      </trkpt>
      <trkpt lat="43.74248" lon="5.24039">
        <ele>124.097664</ele>
        <time>2022-04-28T12:03:13Z</time>
      </trkpt>
      <trkpt lat="43.74247" lon="5.2404">
        <ele>124.100769</ele>
        <time>2022-04-28T12:03:39Z</time>
      </trkpt>
      <trkpt lat="43.74246" lon="5.24039">
        <ele>124.097816</ele>
        <time>2022-04-28T12:04:10Z</time>
      </trkpt>
      <trkpt lat="43.74246" lon="5.2404">
        <ele>124.104355</ele>
        <time>2022-04-28T12:04:43Z</time>
      </trkpt>
      <trkpt lat="43.7425" lon="5.2404">
        <ele>124.102562</ele>
        <time>2022-04-28T12:04:58Z</time>
      </trkpt>
      <trkpt lat="43.74252" lon="5.2404">
        <ele>124.090759</ele>
        <time>2022-04-28T12:04:59Z</time>
      </trkpt>
      <trkpt lat="43.74297" lon="5.2403">
        <ele>124.081787</ele>
        <time>2022-04-28T12:05:12Z</time>
      </trkpt>
      <trkpt lat="43.74331" lon="5.24025">
        <ele>124.194046</ele>
        <time>2022-04-28T12:05:19Z</time>
      </trkpt>
      <trkpt lat="43.74409" lon="5.24014">
        <ele>125.43837</ele>
        <time>2022-04-28T12:05:35Z</time>
      </trkpt>
      <trkpt lat="43.74423" lon="5.24011">
        <ele>125.500023</ele>
        <time>2022-04-28T12:05:38Z</time>
      </trkpt>
      <trkpt lat="43.74498" lon="5.23995">
        <ele>126.935341</ele>
        <time>2022-04-28T12:05:56Z</time>
      </trkpt>
      <trkpt lat="43.74498" lon="5.23991">
        <ele>126.956718</ele>
        <time>2022-04-28T12:05:57Z</time>
      </trkpt>
      <trkpt lat="43.74498" lon="5.23987">
        <ele>126.977814</ele>
        <time>2022-04-28T12:05:58Z</time>
      </trkpt>
      <trkpt lat="43.74499" lon="5.23922">
        <ele>127.639824</ele>
        <time>2022-04-28T12:06:10Z</time>
      </trkpt>
      <trkpt lat="43.74501" lon="5.23829">
        <ele>128.175415</ele>
        <time>2022-04-28T12:06:25Z</time>
      </trkpt>
      <trkpt lat="43.74504" lon="5.23772">
        <ele>128.607193</ele>
        <time>2022-04-28T12:06:34Z</time>
      </trkpt>
      <trkpt lat="43.74505" lon="5.23766">
        <ele>128.664749</ele>
        <time>2022-04-28T12:06:35Z</time>
      </trkpt>
      <trkpt lat="43.74506" lon="5.23753">
        <ele>128.800446</ele>
        <time>2022-04-28T12:06:37Z</time>
      </trkpt>
      <trkpt lat="43.7451" lon="5.23665">
        <ele>128.966171</ele>
        <time>2022-04-28T12:06:51Z</time>
      </trkpt>
      <trkpt lat="43.74513" lon="5.23641">
        <ele>128.887268</ele>
        <time>2022-04-28T12:06:55Z</time>
      </trkpt>
      <trkpt lat="43.74516" lon="5.23587">
        <ele>128.767044</ele>
        <time>2022-04-28T12:07:03Z</time>
      </trkpt>
      <trkpt lat="43.74518" lon="5.23582">
        <ele>128.807678</ele>
        <time>2022-04-28T12:07:04Z</time>
      </trkpt>
      <trkpt lat="43.74521" lon="5.23576">
        <ele>128.889969</ele>
        <time>2022-04-28T12:07:05Z</time>
      </trkpt>
      <trkpt lat="43.74525" lon="5.23573">
        <ele>129.010239</ele>
        <time>2022-04-28T12:07:06Z</time>
      </trkpt>
      <trkpt lat="43.74529" lon="5.2357">
        <ele>129.10434</ele>
        <time>2022-04-28T12:07:07Z</time>
      </trkpt>
      <trkpt lat="43.74534" lon="5.2357">
        <ele>129.203888</ele>
        <time>2022-04-28T12:07:08Z</time>
      </trkpt>
      <trkpt lat="43.74538" lon="5.23569">
        <ele>129.298477</ele>
        <time>2022-04-28T12:07:09Z</time>
      </trkpt>
      <trkpt lat="43.74553" lon="5.23564">
        <ele>129.62355</ele>
        <time>2022-04-28T12:07:13Z</time>
      </trkpt>
      <trkpt lat="43.74555" lon="5.23559">
        <ele>129.673721</ele>
        <time>2022-04-28T12:07:14Z</time>
      </trkpt>
      <trkpt lat="43.74556" lon="5.23554">
        <ele>129.698715</ele>
        <time>2022-04-28T12:07:15Z</time>
      </trkpt>
      <trkpt lat="43.74558" lon="5.23541">
        <ele>129.558823</ele>
        <time>2022-04-28T12:07:17Z</time>
      </trkpt>
      <trkpt lat="43.74558" lon="5.23535">
        <ele>129.452286</ele>
        <time>2022-04-28T12:07:18Z</time>
      </trkpt>
      <trkpt lat="43.74558" lon="5.23528">
        <ele>129.342987</ele>
        <time>2022-04-28T12:07:19Z</time>
      </trkpt>
      <trkpt lat="43.74557" lon="5.23522">
        <ele>129.224655</ele>
        <time>2022-04-28T12:07:20Z</time>
      </trkpt>
      <trkpt lat="43.74557" lon="5.23516">
        <ele>129.107086</ele>
        <time>2022-04-28T12:07:21Z</time>
      </trkpt>
      <trkpt lat="43.74556" lon="5.2351">
        <ele>128.988525</ele>
        <time>2022-04-28T12:07:22Z</time>
      </trkpt>
      <trkpt lat="43.74555" lon="5.2349">
        <ele>128.629517</ele>
        <time>2022-04-28T12:07:25Z</time>
      </trkpt>
      <trkpt lat="43.74548" lon="5.23435">
        <ele>127.561211</ele>
        <time>2022-04-28T12:07:34Z</time>
      </trkpt>
      <trkpt lat="43.74547" lon="5.23429">
        <ele>127.439796</ele>
        <time>2022-04-28T12:07:35Z</time>
      </trkpt>
      <trkpt lat="43.74542" lon="5.234">
        <ele>126.549438</ele>
        <time>2022-04-28T12:07:40Z</time>
      </trkpt>
      <trkpt lat="43.74522" lon="5.23336">
        <ele>123.906517</ele>
        <time>2022-04-28T12:07:52Z</time>
      </trkpt>
      <trkpt lat="43.7452" lon="5.2333">
        <ele>123.671921</ele>
        <time>2022-04-28T12:07:53Z</time>
      </trkpt>
      <trkpt lat="43.74507" lon="5.23304">
        <ele>122.538101</ele>
        <time>2022-04-28T12:07:58Z</time>
      </trkpt>
      <trkpt lat="43.74505" lon="5.23299">
        <ele>122.36248</ele>
        <time>2022-04-28T12:07:59Z</time>
      </trkpt>
      <trkpt lat="43.74503" lon="5.23294">
        <ele>122.234245</ele>
        <time>2022-04-28T12:08:00Z</time>
      </trkpt>
      <trkpt lat="43.74494" lon="5.23273">
        <ele>121.715218</ele>
        <time>2022-04-28T12:08:04Z</time>
      </trkpt>
      <trkpt lat="43.74473" lon="5.23225">
        <ele>121</ele>
        <time>2022-04-28T12:08:12Z</time>
      </trkpt>
      <trkpt lat="43.7446" lon="5.23174">
        <ele>121</ele>
        <time>2022-04-28T12:08:20Z</time>
      </trkpt>
      <trkpt lat="43.74452" lon="5.23129">
        <ele>121</ele>
        <time>2022-04-28T12:08:27Z</time>
      </trkpt>
      <trkpt lat="43.74448" lon="5.23117">
        <ele>121</ele>
        <time>2022-04-28T12:08:29Z</time>
      </trkpt>
      <trkpt lat="43.74432" lon="5.23045">
        <ele>121</ele>
        <time>2022-04-28T12:08:43Z</time>
      </trkpt>
      <trkpt lat="43.74419" lon="5.22981">
        <ele>121</ele>
        <time>2022-04-28T12:08:54Z</time>
      </trkpt>
      <trkpt lat="43.74407" lon="5.22932">
        <ele>121</ele>
        <time>2022-04-28T12:09:01Z</time>
      </trkpt>
      <trkpt lat="43.74391" lon="5.22845">
        <ele>120</ele>
        <time>2022-04-28T12:09:15Z</time>
      </trkpt>
      <trkpt lat="43.7439" lon="5.2284">
        <ele>120</ele>
        <time>2022-04-28T12:09:16Z</time>
      </trkpt>
      <trkpt lat="43.7438" lon="5.22791">
        <ele>120.041023</ele>
        <time>2022-04-28T12:09:24Z</time>
      </trkpt>
      <trkpt lat="43.74378" lon="5.22784">
        <ele>120.063896</ele>
        <time>2022-04-28T12:09:25Z</time>
      </trkpt>
      <trkpt lat="43.74365" lon="5.22731">
        <ele>120</ele>
        <time>2022-04-28T12:09:34Z</time>
      </trkpt>
      <trkpt lat="43.74346" lon="5.22638">
        <ele>120</ele>
        <time>2022-04-28T12:09:49Z</time>
      </trkpt>
      <trkpt lat="43.74344" lon="5.22631">
        <ele>120</ele>
        <time>2022-04-28T12:09:50Z</time>
      </trkpt>
      <trkpt lat="43.74343" lon="5.22625">
        <ele>120</ele>
        <time>2022-04-28T12:09:51Z</time>
      </trkpt>
      <trkpt lat="43.74341" lon="5.22619">
        <ele>120</ele>
        <time>2022-04-28T12:09:52Z</time>
      </trkpt>
      <trkpt lat="43.74333" lon="5.2258">
        <ele>120</ele>
        <time>2022-04-28T12:09:58Z</time>
      </trkpt>
      <trkpt lat="43.74313" lon="5.22479">
        <ele>120</ele>
        <time>2022-04-28T12:10:14Z</time>
      </trkpt>
      <trkpt lat="43.74303" lon="5.22429">
        <ele>120</ele>
        <time>2022-04-28T12:10:22Z</time>
      </trkpt>
      <trkpt lat="43.74298" lon="5.22405">
        <ele>120</ele>
        <time>2022-04-28T12:10:26Z</time>
      </trkpt>
      <trkpt lat="43.74274" lon="5.22283">
        <ele>120</ele>
        <time>2022-04-28T12:10:45Z</time>
      </trkpt>
      <trkpt lat="43.74255" lon="5.22201">
        <ele>120</ele>
        <time>2022-04-28T12:10:58Z</time>
      </trkpt>
      <trkpt lat="43.74233" lon="5.22097">
        <ele>120</ele>
        <time>2022-04-28T12:11:16Z</time>
      </trkpt>
      <trkpt lat="43.74223" lon="5.22027">
        <ele>120</ele>
        <time>2022-04-28T12:11:28Z</time>
      </trkpt>
      <trkpt lat="43.7422" lon="5.2201">
        <ele>120</ele>
        <time>2022-04-28T12:11:31Z</time>
      </trkpt>
      <trkpt lat="43.74197" lon="5.21906">
        <ele>120</ele>
        <time>2022-04-28T12:11:48Z</time>
      </trkpt>
      <trkpt lat="43.74179" lon="5.21831">
        <ele>120</ele>
        <time>2022-04-28T12:12:04Z</time>
      </trkpt>
      <trkpt lat="43.74173" lon="5.21815">
        <ele>120</ele>
        <time>2022-04-28T12:12:07Z</time>
      </trkpt>
      <trkpt lat="43.74166" lon="5.21803">
        <ele>120</ele>
        <time>2022-04-28T12:12:10Z</time>
      </trkpt>
      <trkpt lat="43.74126" lon="5.21742">
        <ele>120</ele>
        <time>2022-04-28T12:12:23Z</time>
      </trkpt>
      <trkpt lat="43.74084" lon="5.21656">
        <ele>120</ele>
        <time>2022-04-28T12:12:38Z</time>
      </trkpt>
      <trkpt lat="43.74082" lon="5.21651">
        <ele>120</ele>
        <time>2022-04-28T12:12:39Z</time>
      </trkpt>
      <trkpt lat="43.74079" lon="5.21645">
        <ele>120</ele>
        <time>2022-04-28T12:12:40Z</time>
      </trkpt>
      <trkpt lat="43.74078" lon="5.21639">
        <ele>120</ele>
        <time>2022-04-28T12:12:41Z</time>
      </trkpt>
      <trkpt lat="43.74076" lon="5.21634">
        <ele>120</ele>
        <time>2022-04-28T12:12:42Z</time>
      </trkpt>
      <trkpt lat="43.74074" lon="5.21628">
        <ele>120</ele>
        <time>2022-04-28T12:12:43Z</time>
      </trkpt>
      <trkpt lat="43.74073" lon="5.21621">
        <ele>120</ele>
        <time>2022-04-28T12:12:44Z</time>
      </trkpt>
      <trkpt lat="43.74044" lon="5.21513">
        <ele>120</ele>
        <time>2022-04-28T12:13:00Z</time>
      </trkpt>
      <trkpt lat="43.74015" lon="5.21387">
        <ele>119.087105</ele>
        <time>2022-04-28T12:13:19Z</time>
      </trkpt>
      <trkpt lat="43.73986" lon="5.21257">
        <ele>118</ele>
        <time>2022-04-28T12:13:38Z</time>
      </trkpt>
      <trkpt lat="43.73972" lon="5.21166">
        <ele>118</ele>
        <time>2022-04-28T12:13:51Z</time>
      </trkpt>
      <trkpt lat="43.73965" lon="5.21024">
        <ele>117.795174</ele>
        <time>2022-04-28T12:14:11Z</time>
      </trkpt>
      <trkpt lat="43.73961" lon="5.20888">
        <ele>116.711113</ele>
        <time>2022-04-28T12:14:30Z</time>
      </trkpt>
      <trkpt lat="43.73956" lon="5.20854">
        <ele>116.497017</ele>
        <time>2022-04-28T12:14:35Z</time>
      </trkpt>
      <trkpt lat="43.73948" lon="5.20821">
        <ele>116.590538</ele>
        <time>2022-04-28T12:14:40Z</time>
      </trkpt>
      <trkpt lat="43.73944" lon="5.20809">
        <ele>116.756546</ele>
        <time>2022-04-28T12:14:42Z</time>
      </trkpt>
      <trkpt lat="43.73896" lon="5.20732">
        <ele>117.736961</ele>
        <time>2022-04-28T12:14:57Z</time>
      </trkpt>
      <trkpt lat="43.73853" lon="5.20682">
        <ele>117.503555</ele>
        <time>2022-04-28T12:15:08Z</time>
      </trkpt>
      <trkpt lat="43.73804" lon="5.20635">
        <ele>116.747925</ele>
        <time>2022-04-28T12:15:20Z</time>
      </trkpt>
      <trkpt lat="43.7376" lon="5.20566">
        <ele>115.518051</ele>
        <time>2022-04-28T12:15:33Z</time>
      </trkpt>
      <trkpt lat="43.73717" lon="5.20467">
        <ele>115</ele>
        <time>2022-04-28T12:15:49Z</time>
      </trkpt>
      <trkpt lat="43.73703" lon="5.20404">
        <ele>115.145981</ele>
        <time>2022-04-28T12:15:59Z</time>
      </trkpt>
      <trkpt lat="43.73696" lon="5.20382">
        <ele>115.31665</ele>
        <time>2022-04-28T12:16:04Z</time>
      </trkpt>
      <trkpt lat="43.73695" lon="5.20378">
        <ele>115.326233</ele>
        <time>2022-04-28T12:16:05Z</time>
      </trkpt>
      <trkpt lat="43.73684" lon="5.20331">
        <ele>115.728294</ele>
        <time>2022-04-28T12:16:16Z</time>
      </trkpt>
      <trkpt lat="43.73662" lon="5.2026">
        <ele>117.671051</ele>
        <time>2022-04-28T12:16:29Z</time>
      </trkpt>
      <trkpt lat="43.73646" lon="5.20196">
        <ele>117.964584</ele>
        <time>2022-04-28T12:16:44Z</time>
      </trkpt>
      <trkpt lat="43.73646" lon="5.20193">
        <ele>117.966217</ele>
        <time>2022-04-28T12:16:45Z</time>
      </trkpt>
      <trkpt lat="43.73647" lon="5.20191">
        <ele>117.979561</ele>
        <time>2022-04-28T12:16:46Z</time>
      </trkpt>
      <trkpt lat="43.73648" lon="5.20189">
        <ele>118.003113</ele>
        <time>2022-04-28T12:16:47Z</time>
      </trkpt>
      <trkpt lat="43.73649" lon="5.20187">
        <ele>118.040451</ele>
        <time>2022-04-28T12:16:48Z</time>
      </trkpt>
      <trkpt lat="43.73651" lon="5.20187">
        <ele>118.086517</ele>
        <time>2022-04-28T12:16:49Z</time>
      </trkpt>
      <trkpt lat="43.73654" lon="5.20187">
        <ele>118.142242</ele>
        <time>2022-04-28T12:16:50Z</time>
      </trkpt>
      <trkpt lat="43.73656" lon="5.20188">
        <ele>118.204239</ele>
        <time>2022-04-28T12:16:51Z</time>
      </trkpt>
      <trkpt lat="43.73659" lon="5.2019">
        <ele>118.271248</ele>
        <time>2022-04-28T12:16:52Z</time>
      </trkpt>
      <trkpt lat="43.737" lon="5.202">
        <ele>118.196899</ele>
        <time>2022-04-28T12:17:06Z</time>
      </trkpt>
      <trkpt lat="43.73735" lon="5.20204">
        <ele>118.944778</ele>
        <time>2022-04-28T12:17:18Z</time>
      </trkpt>
      <trkpt lat="43.73736" lon="5.20202">
        <ele>118.950485</ele>
        <time>2022-04-28T12:17:19Z</time>
      </trkpt>
      <trkpt lat="43.73737" lon="5.202">
        <ele>118.943512</ele>
        <time>2022-04-28T12:17:20Z</time>
      </trkpt>
      <trkpt lat="43.73742" lon="5.20161">
        <ele>118.399429</ele>
        <time>2022-04-28T12:17:32Z</time>
      </trkpt>
      <trkpt lat="43.73738" lon="5.20145">
        <ele>117.802246</ele>
        <time>2022-04-28T12:17:35Z</time>
      </trkpt>
      <trkpt lat="43.73737" lon="5.20139">
        <ele>117.655106</ele>
        <time>2022-04-28T12:17:36Z</time>
      </trkpt>
      <trkpt lat="43.73737" lon="5.20133">
        <ele>117.596115</ele>
        <time>2022-04-28T12:17:37Z</time>
      </trkpt>
      <trkpt lat="43.73737" lon="5.20127">
        <ele>117.59977</ele>
        <time>2022-04-28T12:17:38Z</time>
      </trkpt>
      <trkpt lat="43.73738" lon="5.20121">
        <ele>117.62616</ele>
        <time>2022-04-28T12:17:39Z</time>
      </trkpt>
      <trkpt lat="43.73739" lon="5.20116">
        <ele>117.656654</ele>
        <time>2022-04-28T12:17:40Z</time>
      </trkpt>
      <trkpt lat="43.73743" lon="5.20102">
        <ele>117.728027</ele>
        <time>2022-04-28T12:17:44Z</time>
      </trkpt>
      <trkpt lat="43.73742" lon="5.20098">
        <ele>117.653786</ele>
        <time>2022-04-28T12:17:45Z</time>
      </trkpt>
      <trkpt lat="43.73741" lon="5.20095">
        <ele>117.548286</ele>
        <time>2022-04-28T12:17:46Z</time>
      </trkpt>
      <trkpt lat="43.73717" lon="5.20018">
        <ele>116.219322</ele>
        <time>2022-04-28T12:18:00Z</time>
      </trkpt>
      <trkpt lat="43.73702" lon="5.19973">
        <ele>116.192078</ele>
        <time>2022-04-28T12:18:08Z</time>
      </trkpt>
      <trkpt lat="43.73683" lon="5.19912">
        <ele>116.247398</ele>
        <time>2022-04-28T12:18:19Z</time>
      </trkpt>
      <trkpt lat="43.73682" lon="5.19906">
        <ele>116.269516</ele>
        <time>2022-04-28T12:18:20Z</time>
      </trkpt>
      <trkpt lat="43.7368" lon="5.199">
        <ele>116.291023</ele>
        <time>2022-04-28T12:18:21Z</time>
      </trkpt>
      <trkpt lat="43.73679" lon="5.19894">
        <ele>116.299385</ele>
        <time>2022-04-28T12:18:22Z</time>
      </trkpt>
      <trkpt lat="43.73677" lon="5.19889">
        <ele>116.310066</ele>
        <time>2022-04-28T12:18:23Z</time>
      </trkpt>
      <trkpt lat="43.73675" lon="5.19883">
        <ele>116.343925</ele>
        <time>2022-04-28T12:18:24Z</time>
      </trkpt>
      <trkpt lat="43.73639" lon="5.19763">
        <ele>115.862198</ele>
        <time>2022-04-28T12:18:44Z</time>
      </trkpt>
      <trkpt lat="43.73612" lon="5.19677">
        <ele>116.384491</ele>
        <time>2022-04-28T12:18:59Z</time>
      </trkpt>
      <trkpt lat="43.73594" lon="5.19617">
        <ele>115.641365</ele>
        <time>2022-04-28T12:19:09Z</time>
      </trkpt>
      <trkpt lat="43.73589" lon="5.19599">
        <ele>115.796112</ele>
        <time>2022-04-28T12:19:12Z</time>
      </trkpt>
      <trkpt lat="43.73585" lon="5.19586">
        <ele>115.875244</ele>
        <time>2022-04-28T12:19:14Z</time>
      </trkpt>
      <trkpt lat="43.73584" lon="5.1958">
        <ele>115.911476</ele>
        <time>2022-04-28T12:19:15Z</time>
      </trkpt>
      <trkpt lat="43.73556" lon="5.1949">
        <ele>115.08226</ele>
        <time>2022-04-28T12:19:30Z</time>
      </trkpt>
      <trkpt lat="43.73541" lon="5.19433">
        <ele>115</ele>
        <time>2022-04-28T12:19:40Z</time>
      </trkpt>
      <trkpt lat="43.73539" lon="5.19428">
        <ele>115</ele>
        <time>2022-04-28T12:19:41Z</time>
      </trkpt>
      <trkpt lat="43.7353" lon="5.19407">
        <ele>115</ele>
        <time>2022-04-28T12:19:45Z</time>
      </trkpt>
      <trkpt lat="43.73495" lon="5.1929">
        <ele>115</ele>
        <time>2022-04-28T12:20:05Z</time>
      </trkpt>
      <trkpt lat="43.73466" lon="5.19195">
        <ele>115</ele>
        <time>2022-04-28T12:20:21Z</time>
      </trkpt>
      <trkpt lat="43.73461" lon="5.19178">
        <ele>115</ele>
        <time>2022-04-28T12:20:24Z</time>
      </trkpt>
      <trkpt lat="43.73454" lon="5.1915">
        <ele>115</ele>
        <time>2022-04-28T12:20:29Z</time>
      </trkpt>
      <trkpt lat="43.73452" lon="5.19144">
        <ele>115</ele>
        <time>2022-04-28T12:20:30Z</time>
      </trkpt>
      <trkpt lat="43.73449" lon="5.19132">
        <ele>115</ele>
        <time>2022-04-28T12:20:32Z</time>
      </trkpt>
      <trkpt lat="43.73446" lon="5.19127">
        <ele>115</ele>
        <time>2022-04-28T12:20:33Z</time>
      </trkpt>
      <trkpt lat="43.73439" lon="5.1911">
        <ele>115</ele>
        <time>2022-04-28T12:20:36Z</time>
      </trkpt>
      <trkpt lat="43.73423" lon="5.19055">
        <ele>115</ele>
        <time>2022-04-28T12:20:45Z</time>
      </trkpt>
      <trkpt lat="43.7342" lon="5.19042">
        <ele>115</ele>
        <time>2022-04-28T12:20:47Z</time>
      </trkpt>
      <trkpt lat="43.73412" lon="5.19019">
        <ele>115</ele>
        <time>2022-04-28T12:20:51Z</time>
      </trkpt>
      <trkpt lat="43.73385" lon="5.1893">
        <ele>115</ele>
        <time>2022-04-28T12:21:06Z</time>
      </trkpt>
      <trkpt lat="43.73379" lon="5.18908">
        <ele>115</ele>
        <time>2022-04-28T12:21:10Z</time>
      </trkpt>
      <trkpt lat="43.7336" lon="5.18849">
        <ele>115</ele>
        <time>2022-04-28T12:21:21Z</time>
      </trkpt>
      <trkpt lat="43.7333" lon="5.18776">
        <ele>115</ele>
        <time>2022-04-28T12:21:38Z</time>
      </trkpt>
      <trkpt lat="43.73316" lon="5.18747">
        <ele>115</ele>
        <time>2022-04-28T12:21:46Z</time>
      </trkpt>
      <trkpt lat="43.73313" lon="5.18742">
        <ele>115</ele>
        <time>2022-04-28T12:21:47Z</time>
      </trkpt>
      <trkpt lat="43.73292" lon="5.18711">
        <ele>115.017982</ele>
        <time>2022-04-28T12:21:54Z</time>
      </trkpt>
      <trkpt lat="43.73225" lon="5.18641">
        <ele>115.26049</ele>
        <time>2022-04-28T12:22:13Z</time>
      </trkpt>
      <trkpt lat="43.73167" lon="5.186">
        <ele>115.771034</ele>
        <time>2022-04-28T12:22:29Z</time>
      </trkpt>
      <trkpt lat="43.7312" lon="5.18593">
        <ele>116.41465</ele>
        <time>2022-04-28T12:22:44Z</time>
      </trkpt>
      <trkpt lat="43.73118" lon="5.18592">
        <ele>116.430557</ele>
        <time>2022-04-28T12:22:54Z</time>
      </trkpt>
      <trkpt lat="43.73115" lon="5.18589">
        <ele>116.437454</ele>
        <time>2022-04-28T12:23:18Z</time>
      </trkpt>
      <trkpt lat="43.73116" lon="5.1859">
        <ele>116.433846</ele>
        <time>2022-04-28T12:23:42Z</time>
      </trkpt>
      <trkpt lat="43.73115" lon="5.18588">
        <ele>116.470291</ele>
        <time>2022-04-28T12:23:58Z</time>
      </trkpt>
      <trkpt lat="43.73115" lon="5.18586">
        <ele>116.525543</ele>
        <time>2022-04-28T12:23:59Z</time>
      </trkpt>
      <trkpt lat="43.73116" lon="5.18584">
        <ele>116.603485</ele>
        <time>2022-04-28T12:24:00Z</time>
      </trkpt>
      <trkpt lat="43.73117" lon="5.18581">
        <ele>116.710281</ele>
        <time>2022-04-28T12:24:01Z</time>
      </trkpt>
      <trkpt lat="43.73118" lon="5.18576">
        <ele>116.852112</ele>
        <time>2022-04-28T12:24:02Z</time>
      </trkpt>
      <trkpt lat="43.73119" lon="5.18572">
        <ele>117.010536</ele>
        <time>2022-04-28T12:24:03Z</time>
      </trkpt>
      <trkpt lat="43.73129" lon="5.1851">
        <ele>119.126785</ele>
        <time>2022-04-28T12:24:15Z</time>
      </trkpt>
      <trkpt lat="43.73123" lon="5.18495">
        <ele>119.068504</ele>
        <time>2022-04-28T12:24:19Z</time>
      </trkpt>
      <trkpt lat="43.73121" lon="5.18495">
        <ele>118.979134</ele>
        <time>2022-04-28T12:24:20Z</time>
      </trkpt>
      <trkpt lat="43.73119" lon="5.18495">
        <ele>118.858078</ele>
        <time>2022-04-28T12:24:21Z</time>
      </trkpt>
      <trkpt lat="43.73082" lon="5.18497">
        <ele>117.220695</ele>
        <time>2022-04-28T12:24:30Z</time>
      </trkpt>
      <trkpt lat="43.73077" lon="5.18497">
        <ele>117.127708</ele>
        <time>2022-04-28T12:24:31Z</time>
      </trkpt>
      <trkpt lat="43.73036" lon="5.18497">
        <ele>116.365501</ele>
        <time>2022-04-28T12:24:42Z</time>
      </trkpt>
      <trkpt lat="43.73032" lon="5.18497">
        <ele>116.479599</ele>
        <time>2022-04-28T12:24:43Z</time>
      </trkpt>
      <trkpt lat="43.7301" lon="5.18501">
        <ele>116.946205</ele>
        <time>2022-04-28T12:24:48Z</time>
      </trkpt>
      <trkpt lat="43.72927" lon="5.18516">
        <ele>119.746796</ele>
        <time>2022-04-28T12:25:07Z</time>
      </trkpt>
      <trkpt lat="43.72857" lon="5.18529">
        <ele>121.90097</ele>
        <time>2022-04-28T12:25:23Z</time>
      </trkpt>
      <trkpt lat="43.72821" lon="5.18536">
        <ele>122.534615</ele>
        <time>2022-04-28T12:25:31Z</time>
      </trkpt>
      <trkpt lat="43.72816" lon="5.18535">
        <ele>122.686119</ele>
        <time>2022-04-28T12:25:32Z</time>
      </trkpt>
      <trkpt lat="43.72812" lon="5.18534">
        <ele>122.886261</ele>
        <time>2022-04-28T12:25:33Z</time>
      </trkpt>
      <trkpt lat="43.72755" lon="5.18515">
        <ele>124.803146</ele>
        <time>2022-04-28T12:25:50Z</time>
      </trkpt>
      <trkpt lat="43.7269" lon="5.18498">
        <ele>125.102768</ele>
        <time>2022-04-28T12:26:08Z</time>
      </trkpt>
      <trkpt lat="43.72634" lon="5.1847">
        <ele>125.662224</ele>
        <time>2022-04-28T12:26:25Z</time>
      </trkpt>
      <trkpt lat="43.7263" lon="5.18471">
        <ele>125.530037</ele>
        <time>2022-04-28T12:26:27Z</time>
      </trkpt>
      <trkpt lat="43.72621" lon="5.18475">
        <ele>125.147614</ele>
        <time>2022-04-28T12:26:35Z</time>
      </trkpt>
      <trkpt lat="43.72611" lon="5.18485">
        <ele>124.626945</ele>
        <time>2022-04-28T12:26:38Z</time>
      </trkpt>
      <trkpt lat="43.72607" lon="5.18488">
        <ele>124.453369</ele>
        <time>2022-04-28T12:26:39Z</time>
      </trkpt>
      <trkpt lat="43.72602" lon="5.18489">
        <ele>124.313484</ele>
        <time>2022-04-28T12:26:40Z</time>
      </trkpt>
      <trkpt lat="43.72581" lon="5.18491">
        <ele>123.777718</ele>
        <time>2022-04-28T12:26:44Z</time>
      </trkpt>
      <trkpt lat="43.7257" lon="5.18493">
        <ele>123.479652</ele>
        <time>2022-04-28T12:26:46Z</time>
      </trkpt>
      <trkpt lat="43.72487" lon="5.18502">
        <ele>121.702858</ele>
        <time>2022-04-28T12:27:03Z</time>
      </trkpt>
      <trkpt lat="43.72473" lon="5.18501">
        <ele>121.400291</ele>
        <time>2022-04-28T12:27:06Z</time>
      </trkpt>
      <trkpt lat="43.72469" lon="5.185">
        <ele>121.312134</ele>
        <time>2022-04-28T12:27:07Z</time>
      </trkpt>
      <trkpt lat="43.72466" lon="5.18497">
        <ele>121.237595</ele>
        <time>2022-04-28T12:27:08Z</time>
      </trkpt>
      <trkpt lat="43.72463" lon="5.18495">
        <ele>121.164658</ele>
        <time>2022-04-28T12:27:09Z</time>
      </trkpt>
      <trkpt lat="43.72459" lon="5.18494">
        <ele>121.081406</ele>
        <time>2022-04-28T12:27:10Z</time>
      </trkpt>
      <trkpt lat="43.72455" lon="5.18496">
        <ele>120.999512</ele>
        <time>2022-04-28T12:27:11Z</time>
      </trkpt>
      <trkpt lat="43.72452" lon="5.185">
        <ele>120.980637</ele>
        <time>2022-04-28T12:27:12Z</time>
      </trkpt>
      <trkpt lat="43.7245" lon="5.18504">
        <ele>120.960121</ele>
        <time>2022-04-28T12:27:13Z</time>
      </trkpt>
      <trkpt lat="43.72447" lon="5.18509">
        <ele>120.931</ele>
        <time>2022-04-28T12:27:14Z</time>
      </trkpt>
      <trkpt lat="43.72416" lon="5.18539">
        <ele>120.216568</ele>
        <time>2022-04-28T12:27:26Z</time>
      </trkpt>
      <trkpt lat="43.72414" lon="5.18537">
        <ele>120.21286</ele>
        <time>2022-04-28T12:27:27Z</time>
      </trkpt>
      <trkpt lat="43.72405" lon="5.1852">
        <ele>120.3368</ele>
        <time>2022-04-28T12:27:31Z</time>
      </trkpt>
      <trkpt lat="43.72403" lon="5.18515">
        <ele>120.377861</ele>
        <time>2022-04-28T12:27:32Z</time>
      </trkpt>
      <trkpt lat="43.72358" lon="5.18443">
        <ele>120</ele>
        <time>2022-04-28T12:27:48Z</time>
      </trkpt>
      <trkpt lat="43.72343" lon="5.18418">
        <ele>120</ele>
        <time>2022-04-28T12:27:53Z</time>
      </trkpt>
      <trkpt lat="43.72337" lon="5.18409">
        <ele>120</ele>
        <time>2022-04-28T12:27:55Z</time>
      </trkpt>
      <trkpt lat="43.72283" lon="5.18317">
        <ele>120</ele>
        <time>2022-04-28T12:28:13Z</time>
      </trkpt>
      <trkpt lat="43.7223" lon="5.18232">
        <ele>120</ele>
        <time>2022-04-28T12:28:31Z</time>
      </trkpt>
      <trkpt lat="43.72213" lon="5.18204">
        <ele>119.858719</ele>
        <time>2022-04-28T12:28:43Z</time>
      </trkpt>
      <trkpt lat="43.72213" lon="5.18202">
        <ele>119.844933</ele>
        <time>2022-04-28T12:28:49Z</time>
      </trkpt>
      <trkpt lat="43.72212" lon="5.18201">
        <ele>119.845688</ele>
        <time>2022-04-28T12:28:50Z</time>
      </trkpt>
      <trkpt lat="43.72211" lon="5.18201">
        <ele>119.854195</ele>
        <time>2022-04-28T12:28:51Z</time>
      </trkpt>
      <trkpt lat="43.72188" lon="5.18216">
        <ele>120</ele>
        <time>2022-04-28T12:28:59Z</time>
      </trkpt>
      <trkpt lat="43.72116" lon="5.18277">
        <ele>120</ele>
        <time>2022-04-28T12:29:18Z</time>
      </trkpt>
      <trkpt lat="43.7206" lon="5.18322">
        <ele>120</ele>
        <time>2022-04-28T12:29:32Z</time>
      </trkpt>
      <trkpt lat="43.72037" lon="5.18341">
        <ele>120.415207</ele>
        <time>2022-04-28T12:29:38Z</time>
      </trkpt>
      <trkpt lat="43.72001" lon="5.18371">
        <ele>121.093437</ele>
        <time>2022-04-28T12:29:47Z</time>
      </trkpt>
      <trkpt lat="43.71994" lon="5.18378">
        <ele>121.215034</ele>
        <time>2022-04-28T12:29:49Z</time>
      </trkpt>
      <trkpt lat="43.71946" lon="5.18438">
        <ele>122.347878</ele>
        <time>2022-04-28T12:30:04Z</time>
      </trkpt>
      <trkpt lat="43.71937" lon="5.18449">
        <ele>122.552246</ele>
        <time>2022-04-28T12:30:07Z</time>
      </trkpt>
      <trkpt lat="43.71934" lon="5.18453">
        <ele>122.617027</ele>
        <time>2022-04-28T12:30:08Z</time>
      </trkpt>
      <trkpt lat="43.71887" lon="5.18511">
        <ele>123.621475</ele>
        <time>2022-04-28T12:30:23Z</time>
      </trkpt>
      <trkpt lat="43.71828" lon="5.18583">
        <ele>124.905632</ele>
        <time>2022-04-28T12:30:42Z</time>
      </trkpt>
      <trkpt lat="43.71787" lon="5.18629">
        <ele>125</ele>
        <time>2022-04-28T12:30:55Z</time>
      </trkpt>
      <trkpt lat="43.71783" lon="5.18632">
        <ele>125</ele>
        <time>2022-04-28T12:30:56Z</time>
      </trkpt>
      <trkpt lat="43.71775" lon="5.18636">
        <ele>125.050819</ele>
        <time>2022-04-28T12:30:58Z</time>
      </trkpt>
      <trkpt lat="43.7177" lon="5.18637">
        <ele>125.171143</ele>
        <time>2022-04-28T12:30:59Z</time>
      </trkpt>
      <trkpt lat="43.71695" lon="5.18659">
        <ele>126.894775</ele>
        <time>2022-04-28T12:31:16Z</time>
      </trkpt>
      <trkpt lat="43.71617" lon="5.18681">
        <ele>128.448029</ele>
        <time>2022-04-28T12:31:33Z</time>
      </trkpt>
      <trkpt lat="43.71537" lon="5.18693">
        <ele>130.037216</ele>
        <time>2022-04-28T12:31:51Z</time>
      </trkpt>
      <trkpt lat="43.71468" lon="5.1869">
        <ele>131.715164</ele>
        <time>2022-04-28T12:32:07Z</time>
      </trkpt>
      <trkpt lat="43.71463" lon="5.1869">
        <ele>131.899353</ele>
        <time>2022-04-28T12:32:08Z</time>
      </trkpt>
      <trkpt lat="43.71459" lon="5.1869">
        <ele>132.042542</ele>
        <time>2022-04-28T12:32:09Z</time>
      </trkpt>
      <trkpt lat="43.71408" lon="5.18682">
        <ele>133.179337</ele>
        <time>2022-04-28T12:32:25Z</time>
      </trkpt>
      <trkpt lat="43.71402" lon="5.18678">
        <ele>133.30719</ele>
        <time>2022-04-28T12:32:37Z</time>
      </trkpt>
      <trkpt lat="43.71399" lon="5.18681">
        <ele>133.384552</ele>
        <time>2022-04-28T12:32:39Z</time>
      </trkpt>
      <trkpt lat="43.71398" lon="5.18683">
        <ele>133.410065</ele>
        <time>2022-04-28T12:32:40Z</time>
      </trkpt>
      <trkpt lat="43.71396" lon="5.18685">
        <ele>133.434097</ele>
        <time>2022-04-28T12:32:41Z</time>
      </trkpt>
      <trkpt lat="43.71396" lon="5.18687">
        <ele>133.452271</ele>
        <time>2022-04-28T12:32:42Z</time>
      </trkpt>
      <trkpt lat="43.71394" lon="5.18688">
        <ele>133.475983</ele>
        <time>2022-04-28T12:32:43Z</time>
      </trkpt>
      <trkpt lat="43.71393" lon="5.18691">
        <ele>133.514587</ele>
        <time>2022-04-28T12:32:44Z</time>
      </trkpt>
      <trkpt lat="43.71391" lon="5.18694">
        <ele>133.556854</ele>
        <time>2022-04-28T12:32:45Z</time>
      </trkpt>
      <trkpt lat="43.71389" lon="5.18697">
        <ele>133.593719</ele>
        <time>2022-04-28T12:32:46Z</time>
      </trkpt>
      <trkpt lat="43.71387" lon="5.18701">
        <ele>133.630707</ele>
        <time>2022-04-28T12:32:47Z</time>
      </trkpt>
      <trkpt lat="43.71364" lon="5.18749">
        <ele>134.258957</ele>
        <time>2022-04-28T12:32:57Z</time>
      </trkpt>
      <trkpt lat="43.71335" lon="5.1878">
        <ele>134.914413</ele>
        <time>2022-04-28T12:33:09Z</time>
      </trkpt>
      <trkpt lat="43.713" lon="5.18791">
        <ele>135.522064</ele>
        <time>2022-04-28T12:33:19Z</time>
      </trkpt>
      <trkpt lat="43.71261" lon="5.18803">
        <ele>136.382797</ele>
        <time>2022-04-28T12:33:29Z</time>
      </trkpt>
      <trkpt lat="43.71233" lon="5.18802">
        <ele>137.000519</ele>
        <time>2022-04-28T12:33:35Z</time>
      </trkpt>
      <trkpt lat="43.71219" lon="5.18799">
        <ele>137.026199</ele>
        <time>2022-04-28T12:33:38Z</time>
      </trkpt>
      <trkpt lat="43.712" lon="5.18797">
        <ele>137.049683</ele>
        <time>2022-04-28T12:33:42Z</time>
      </trkpt>
      <trkpt lat="43.71126" lon="5.18793">
        <ele>139.426193</ele>
        <time>2022-04-28T12:33:58Z</time>
      </trkpt>
      <trkpt lat="43.71107" lon="5.18797">
        <ele>139.826096</ele>
        <time>2022-04-28T12:34:02Z</time>
      </trkpt>
      <trkpt lat="43.71023" lon="5.18809">
        <ele>141.334946</ele>
        <time>2022-04-28T12:34:22Z</time>
      </trkpt>
      <trkpt lat="43.70987" lon="5.18821">
        <ele>143.343597</ele>
        <time>2022-04-28T12:34:35Z</time>
      </trkpt>
      <trkpt lat="43.70973" lon="5.18824">
        <ele>144.314484</ele>
        <time>2022-04-28T12:34:42Z</time>
      </trkpt>
      <trkpt lat="43.70972" lon="5.18821">
        <ele>144.37532</ele>
        <time>2022-04-28T12:34:43Z</time>
      </trkpt>
      <trkpt lat="43.70971" lon="5.1882">
        <ele>144.408859</ele>
        <time>2022-04-28T12:34:44Z</time>
      </trkpt>
      <trkpt lat="43.70971" lon="5.18818">
        <ele>144.414047</ele>
        <time>2022-04-28T12:34:45Z</time>
      </trkpt>
      <trkpt lat="43.70972" lon="5.18816">
        <ele>144.403458</ele>
        <time>2022-04-28T12:34:46Z</time>
      </trkpt>
      <trkpt lat="43.70972" lon="5.18813">
        <ele>144.409531</ele>
        <time>2022-04-28T12:34:47Z</time>
      </trkpt>
      <trkpt lat="43.70971" lon="5.18811">
        <ele>144.445602</ele>
        <time>2022-04-28T12:34:48Z</time>
      </trkpt>
      <trkpt lat="43.70963" lon="5.18768">
        <ele>145.03186</ele>
        <time>2022-04-28T12:35:01Z</time>
      </trkpt>
      <trkpt lat="43.7095" lon="5.18697">
        <ele>145.841995</ele>
        <time>2022-04-28T12:35:16Z</time>
      </trkpt>
      <trkpt lat="43.70932" lon="5.18601">
        <ele>148.103027</ele>
        <time>2022-04-28T12:35:36Z</time>
      </trkpt>
      <trkpt lat="43.70923" lon="5.18538">
        <ele>148.305237</ele>
        <time>2022-04-28T12:35:50Z</time>
      </trkpt>
      <trkpt lat="43.70911" lon="5.1846">
        <ele>149.774048</ele>
        <time>2022-04-28T12:36:06Z</time>
      </trkpt>
      <trkpt lat="43.709" lon="5.18398">
        <ele>151.065125</ele>
        <time>2022-04-28T12:36:20Z</time>
      </trkpt>
      <trkpt lat="43.70882" lon="5.18375">
        <ele>152.706787</ele>
        <time>2022-04-28T12:36:30Z</time>
      </trkpt>
      <trkpt lat="43.7088" lon="5.18376">
        <ele>152.833755</ele>
        <time>2022-04-28T12:36:31Z</time>
      </trkpt>
      <trkpt lat="43.70879" lon="5.18376">
        <ele>152.94223</ele>
        <time>2022-04-28T12:36:32Z</time>
      </trkpt>
      <trkpt lat="43.70878" lon="5.18377">
        <ele>153.049271</ele>
        <time>2022-04-28T12:36:33Z</time>
      </trkpt>
      <trkpt lat="43.70877" lon="5.18377">
        <ele>153.155823</ele>
        <time>2022-04-28T12:36:34Z</time>
      </trkpt>
      <trkpt lat="43.70875" lon="5.18376">
        <ele>153.237686</ele>
        <time>2022-04-28T12:36:35Z</time>
      </trkpt>
      <trkpt lat="43.70873" lon="5.18375">
        <ele>153.402939</ele>
        <time>2022-04-28T12:36:48Z</time>
      </trkpt>
      <trkpt lat="43.70874" lon="5.18377">
        <ele>153.400787</ele>
        <time>2022-04-28T12:37:14Z</time>
      </trkpt>
      <trkpt lat="43.70873" lon="5.18377">
        <ele>153.4487</ele>
        <time>2022-04-28T12:37:20Z</time>
      </trkpt>
      <trkpt lat="43.70871" lon="5.18388">
        <ele>153.790176</ele>
        <time>2022-04-28T12:37:29Z</time>
      </trkpt>
      <trkpt lat="43.70874" lon="5.18399">
        <ele>153.768158</ele>
        <time>2022-04-28T12:37:40Z</time>
      </trkpt>
      <trkpt lat="43.70877" lon="5.18419">
        <ele>153.634033</ele>
        <time>2022-04-28T12:37:55Z</time>
      </trkpt>
      <trkpt lat="43.70879" lon="5.1846">
        <ele>153.356949</ele>
        <time>2022-04-28T12:38:05Z</time>
      </trkpt>
      <trkpt lat="43.70886" lon="5.18518">
        <ele>151.696274</ele>
        <time>2022-04-28T12:38:18Z</time>
      </trkpt>
      <trkpt lat="43.70892" lon="5.18569">
        <ele>151.037079</ele>
        <time>2022-04-28T12:38:29Z</time>
      </trkpt>
      <trkpt lat="43.70883" lon="5.18623">
        <ele>150.680038</ele>
        <time>2022-04-28T12:38:42Z</time>
      </trkpt>
      <trkpt lat="43.70844" lon="5.18676">
        <ele>152.23497</ele>
        <time>2022-04-28T12:38:58Z</time>
      </trkpt>
      <trkpt lat="43.70816" lon="5.18716">
        <ele>153.163605</ele>
        <time>2022-04-28T12:39:12Z</time>
      </trkpt>
      <trkpt lat="43.70807" lon="5.18756">
        <ele>152.161667</ele>
        <time>2022-04-28T12:39:24Z</time>
      </trkpt>
      <trkpt lat="43.70801" lon="5.18755">
        <ele>152.67244</ele>
        <time>2022-04-28T12:39:35Z</time>
      </trkpt>
      <trkpt lat="43.70802" lon="5.18759">
        <ele>152.423569</ele>
        <time>2022-04-28T12:39:47Z</time>
      </trkpt>
      <trkpt lat="43.70802" lon="5.18759">
        <ele>152.394196</ele>
        <time>2022-04-28T12:39:48Z</time>
      </trkpt>
      <trkpt lat="43.70808" lon="5.18765">
        <ele>151.750977</ele>
        <time>2022-04-28T12:39:53Z</time>
      </trkpt>
      <trkpt lat="43.70808" lon="5.18767">
        <ele>151.629456</ele>
        <time>2022-04-28T12:39:54Z</time>
      </trkpt>
      <trkpt lat="43.70809" lon="5.18769">
        <ele>151.529053</ele>
        <time>2022-04-28T12:39:55Z</time>
      </trkpt>
      <trkpt lat="43.70808" lon="5.18771">
        <ele>151.472351</ele>
        <time>2022-04-28T12:39:56Z</time>
      </trkpt>
      <trkpt lat="43.70808" lon="5.18773">
        <ele>151.455826</ele>
        <time>2022-04-28T12:39:57Z</time>
      </trkpt>
      <trkpt lat="43.70807" lon="5.18774">
        <ele>151.49144</ele>
        <time>2022-04-28T12:39:58Z</time>
      </trkpt>
      <trkpt lat="43.70788" lon="5.18783">
        <ele>152.72644</ele>
        <time>2022-04-28T12:40:10Z</time>
      </trkpt>
      <trkpt lat="43.70764" lon="5.18799">
        <ele>154.305588</ele>
        <time>2022-04-28T12:40:23Z</time>
      </trkpt>
      <trkpt lat="43.70752" lon="5.18804">
        <ele>155.02803</ele>
        <time>2022-04-28T12:40:35Z</time>
      </trkpt>
      <trkpt lat="43.70753" lon="5.18806">
        <ele>154.915359</ele>
        <time>2022-04-28T12:40:55Z</time>
      </trkpt>
      <trkpt lat="43.70752" lon="5.18805">
        <ele>154.998779</ele>
        <time>2022-04-28T12:41:16Z</time>
      </trkpt>
      <trkpt lat="43.7075" lon="5.18804">
        <ele>155.136047</ele>
        <time>2022-04-28T12:41:49Z</time>
      </trkpt>
      <trkpt lat="43.70751" lon="5.18802">
        <ele>155.161392</ele>
        <time>2022-04-28T12:42:09Z</time>
      </trkpt>
      <trkpt lat="43.70752" lon="5.18801">
        <ele>155.117905</ele>
        <time>2022-04-28T12:42:31Z</time>
      </trkpt>
      <trkpt lat="43.70751" lon="5.18802">
        <ele>155.13858</ele>
        <time>2022-04-28T12:42:48Z</time>
      </trkpt>
      <trkpt lat="43.70756" lon="5.18802">
        <ele>154.845444</ele>
        <time>2022-04-28T12:42:59Z</time>
      </trkpt>
      <trkpt lat="43.70757" lon="5.18802">
        <ele>154.790115</ele>
        <time>2022-04-28T12:43:00Z</time>
      </trkpt>
      <trkpt lat="43.70758" lon="5.18801">
        <ele>154.690247</ele>
        <time>2022-04-28T12:43:01Z</time>
      </trkpt>
      <trkpt lat="43.70761" lon="5.18799">
        <ele>154.55574</ele>
        <time>2022-04-28T12:43:02Z</time>
      </trkpt>
      <trkpt lat="43.70763" lon="5.18797">
        <ele>154.410172</ele>
        <time>2022-04-28T12:43:03Z</time>
      </trkpt>
      <trkpt lat="43.708" lon="5.18776">
        <ele>151.902023</ele>
        <time>2022-04-28T12:43:16Z</time>
      </trkpt>
      <trkpt lat="43.70806" lon="5.1877">
        <ele>151.705856</ele>
        <time>2022-04-28T12:43:25Z</time>
      </trkpt>
      <trkpt lat="43.70805" lon="5.1877">
        <ele>151.74025</ele>
        <time>2022-04-28T12:43:58Z</time>
      </trkpt>
      <trkpt lat="43.70805" lon="5.18771">
        <ele>151.684845</ele>
        <time>2022-04-28T12:44:27Z</time>
      </trkpt>
      <trkpt lat="43.70806" lon="5.18771">
        <ele>151.671768</ele>
        <time>2022-04-28T12:44:55Z</time>
      </trkpt>
      <trkpt lat="43.70807" lon="5.18769">
        <ele>151.641571</ele>
        <time>2022-04-28T12:45:32Z</time>
      </trkpt>
      <trkpt lat="43.70807" lon="5.1877">
        <ele>151.628723</ele>
        <time>2022-04-28T12:45:35Z</time>
      </trkpt>
      <trkpt lat="43.70805" lon="5.18773">
        <ele>151.60202</ele>
        <time>2022-04-28T12:45:40Z</time>
      </trkpt>
      <trkpt lat="43.70801" lon="5.18776">
        <ele>151.839767</ele>
        <time>2022-04-28T12:45:48Z</time>
      </trkpt>
      <trkpt lat="43.7079" lon="5.18783">
        <ele>152.593307</ele>
        <time>2022-04-28T12:45:54Z</time>
      </trkpt>
      <trkpt lat="43.70787" lon="5.18783">
        <ele>152.806046</ele>
        <time>2022-04-28T12:45:55Z</time>
      </trkpt>
      <trkpt lat="43.70784" lon="5.18784">
        <ele>153.011597</ele>
        <time>2022-04-28T12:45:56Z</time>
      </trkpt>
      <trkpt lat="43.70781" lon="5.18785">
        <ele>153.248688</ele>
        <time>2022-04-28T12:45:57Z</time>
      </trkpt>
      <trkpt lat="43.70778" lon="5.18787">
        <ele>153.462097</ele>
        <time>2022-04-28T12:45:58Z</time>
      </trkpt>
      <trkpt lat="43.70775" lon="5.1879">
        <ele>153.655334</ele>
        <time>2022-04-28T12:45:59Z</time>
      </trkpt>
      <trkpt lat="43.70771" lon="5.18793">
        <ele>153.887817</ele>
        <time>2022-04-28T12:46:00Z</time>
      </trkpt>
      <trkpt lat="43.70737" lon="5.18822">
        <ele>155.362183</ele>
        <time>2022-04-28T12:46:12Z</time>
      </trkpt>
      <trkpt lat="43.70731" lon="5.18832">
        <ele>155.442474</ele>
        <time>2022-04-28T12:46:15Z</time>
      </trkpt>
      <trkpt lat="43.70728" lon="5.18833">
        <ele>155.779404</ele>
        <time>2022-04-28T12:46:16Z</time>
      </trkpt>
      <trkpt lat="43.70698" lon="5.18851">
        <ele>159.697372</ele>
        <time>2022-04-28T12:46:27Z</time>
      </trkpt>
      <trkpt lat="43.70668" lon="5.18879">
        <ele>161.845688</ele>
        <time>2022-04-28T12:46:37Z</time>
      </trkpt>
      <trkpt lat="43.70641" lon="5.18914">
        <ele>162.294662</ele>
        <time>2022-04-28T12:46:47Z</time>
      </trkpt>
      <trkpt lat="43.70626" lon="5.18955">
        <ele>165.201965</ele>
        <time>2022-04-28T12:46:58Z</time>
      </trkpt>
      <trkpt lat="43.70627" lon="5.19009">
        <ele>168.082382</ele>
        <time>2022-04-28T12:47:09Z</time>
      </trkpt>
      <trkpt lat="43.70609" lon="5.19063">
        <ele>167.423965</ele>
        <time>2022-04-28T12:47:20Z</time>
      </trkpt>
      <trkpt lat="43.70583" lon="5.19123">
        <ele>169.205963</ele>
        <time>2022-04-28T12:47:34Z</time>
      </trkpt>
      <trkpt lat="43.70559" lon="5.19159">
        <ele>170.022339</ele>
        <time>2022-04-28T12:47:45Z</time>
      </trkpt>
      <trkpt lat="43.70521" lon="5.1919">
        <ele>170.396255</ele>
        <time>2022-04-28T12:47:57Z</time>
      </trkpt>
      <trkpt lat="43.70475" lon="5.19193">
        <ele>169.528381</ele>
        <time>2022-04-28T12:48:09Z</time>
      </trkpt>
      <trkpt lat="43.70421" lon="5.19196">
        <ele>171.958542</ele>
        <time>2022-04-28T12:48:24Z</time>
      </trkpt>
      <trkpt lat="43.70407" lon="5.192">
        <ele>173.804123</ele>
        <time>2022-04-28T12:48:28Z</time>
      </trkpt>
      <trkpt lat="43.70404" lon="5.19199">
        <ele>173.936783</ele>
        <time>2022-04-28T12:48:29Z</time>
      </trkpt>
      <trkpt lat="43.70401" lon="5.19198">
        <ele>174.108887</ele>
        <time>2022-04-28T12:48:30Z</time>
      </trkpt>
      <trkpt lat="43.70395" lon="5.192">
        <ele>175.03154</ele>
        <time>2022-04-28T12:48:32Z</time>
      </trkpt>
      <trkpt lat="43.70386" lon="5.1921">
        <ele>176.804214</ele>
        <time>2022-04-28T12:48:37Z</time>
      </trkpt>
      <trkpt lat="43.70376" lon="5.19214">
        <ele>177.124832</ele>
        <time>2022-04-28T12:48:42Z</time>
      </trkpt>
      <trkpt lat="43.70353" lon="5.19256">
        <ele>177.353516</ele>
        <time>2022-04-28T12:48:55Z</time>
      </trkpt>
      <trkpt lat="43.70329" lon="5.19283">
        <ele>176.764313</ele>
        <time>2022-04-28T12:49:06Z</time>
      </trkpt>
      <trkpt lat="43.70327" lon="5.19285">
        <ele>176.43309</ele>
        <time>2022-04-28T12:49:07Z</time>
      </trkpt>
      <trkpt lat="43.70309" lon="5.19299">
        <ele>176.292892</ele>
        <time>2022-04-28T12:49:16Z</time>
      </trkpt>
      <trkpt lat="43.70298" lon="5.19303">
        <ele>176.599396</ele>
        <time>2022-04-28T12:49:20Z</time>
      </trkpt>
      <trkpt lat="43.70293" lon="5.1931">
        <ele>176.961319</ele>
        <time>2022-04-28T12:49:23Z</time>
      </trkpt>
      <trkpt lat="43.70291" lon="5.1932">
        <ele>177.901825</ele>
        <time>2022-04-28T12:49:27Z</time>
      </trkpt>
      <trkpt lat="43.70286" lon="5.19325">
        <ele>178.289078</ele>
        <time>2022-04-28T12:49:31Z</time>
      </trkpt>
      <trkpt lat="43.70281" lon="5.19338">
        <ele>178.986435</ele>
        <time>2022-04-28T12:49:35Z</time>
      </trkpt>
      <trkpt lat="43.70266" lon="5.19341">
        <ele>179.332321</ele>
        <time>2022-04-28T12:49:42Z</time>
      </trkpt>
      <trkpt lat="43.70254" lon="5.19348">
        <ele>180.005615</ele>
        <time>2022-04-28T12:49:46Z</time>
      </trkpt>
      <trkpt lat="43.70233" lon="5.19382">
        <ele>179.888168</ele>
        <time>2022-04-28T12:49:57Z</time>
      </trkpt>
      <trkpt lat="43.70227" lon="5.19392">
        <ele>179.922958</ele>
        <time>2022-04-28T12:50:00Z</time>
      </trkpt>
      <trkpt lat="43.70213" lon="5.19396">
        <ele>180.336182</ele>
        <time>2022-04-28T12:50:05Z</time>
      </trkpt>
      <trkpt lat="43.70189" lon="5.19413">
        <ele>180.411972</ele>
        <time>2022-04-28T12:50:16Z</time>
      </trkpt>
      <trkpt lat="43.7018" lon="5.19416">
        <ele>180.358078</ele>
        <time>2022-04-28T12:50:19Z</time>
      </trkpt>
      <trkpt lat="43.70166" lon="5.19418">
        <ele>180.946823</ele>
        <time>2022-04-28T12:50:24Z</time>
      </trkpt>
      <trkpt lat="43.70155" lon="5.19399">
        <ele>182.249329</ele>
        <time>2022-04-28T12:50:32Z</time>
      </trkpt>
      <trkpt lat="43.7015" lon="5.19404">
        <ele>182.29631</ele>
        <time>2022-04-28T12:50:34Z</time>
      </trkpt>
      <trkpt lat="43.70142" lon="5.19418">
        <ele>181.97731</ele>
        <time>2022-04-28T12:50:38Z</time>
      </trkpt>
      <trkpt lat="43.70112" lon="5.19429">
        <ele>183.844666</ele>
        <time>2022-04-28T12:50:48Z</time>
      </trkpt>
      <trkpt lat="43.70088" lon="5.19421">
        <ele>184.267227</ele>
        <time>2022-04-28T12:50:55Z</time>
      </trkpt>
      <trkpt lat="43.70071" lon="5.19426">
        <ele>185.628098</ele>
        <time>2022-04-28T12:51:00Z</time>
      </trkpt>
      <trkpt lat="43.7006" lon="5.19422">
        <ele>185.352127</ele>
        <time>2022-04-28T12:51:04Z</time>
      </trkpt>
      <trkpt lat="43.70048" lon="5.19405">
        <ele>185.964417</ele>
        <time>2022-04-28T12:51:09Z</time>
      </trkpt>
      <trkpt lat="43.70038" lon="5.19388">
        <ele>189.338242</ele>
        <time>2022-04-28T12:51:14Z</time>
      </trkpt>
      <trkpt lat="43.70025" lon="5.19372">
        <ele>190.886078</ele>
        <time>2022-04-28T12:51:20Z</time>
      </trkpt>
      <trkpt lat="43.70021" lon="5.19359">
        <ele>189.917389</ele>
        <time>2022-04-28T12:51:23Z</time>
      </trkpt>
      <trkpt lat="43.70009" lon="5.19358">
        <ele>189.888458</ele>
        <time>2022-04-28T12:51:27Z</time>
      </trkpt>
      <trkpt lat="43.69994" lon="5.19367">
        <ele>192.757568</ele>
        <time>2022-04-28T12:51:32Z</time>
      </trkpt>
      <trkpt lat="43.6998" lon="5.19369">
        <ele>193.591537</ele>
        <time>2022-04-28T12:51:37Z</time>
      </trkpt>
      <trkpt lat="43.69951" lon="5.19393">
        <ele>194.668518</ele>
        <time>2022-04-28T12:51:46Z</time>
      </trkpt>
      <trkpt lat="43.69922" lon="5.19418">
        <ele>195.380936</ele>
        <time>2022-04-28T12:51:56Z</time>
      </trkpt>
      <trkpt lat="43.69882" lon="5.19419">
        <ele>197.377197</ele>
        <time>2022-04-28T12:52:07Z</time>
      </trkpt>
      <trkpt lat="43.69876" lon="5.19415">
        <ele>196.958176</ele>
        <time>2022-04-28T12:52:17Z</time>
      </trkpt>
      <trkpt lat="43.69874" lon="5.19414">
        <ele>196.805328</ele>
        <time>2022-04-28T12:52:34Z</time>
      </trkpt>
      <trkpt lat="43.69873" lon="5.19415">
        <ele>197.063431</ele>
        <time>2022-04-28T12:53:08Z</time>
      </trkpt>
      <trkpt lat="43.69874" lon="5.19416">
        <ele>197.216797</ele>
        <time>2022-04-28T12:53:31Z</time>
      </trkpt>
      <trkpt lat="43.69875" lon="5.19416">
        <ele>197.257202</ele>
        <time>2022-04-28T12:53:55Z</time>
      </trkpt>
      <trkpt lat="43.69872" lon="5.19417">
        <ele>197.673615</ele>
        <time>2022-04-28T12:54:31Z</time>
      </trkpt>
      <trkpt lat="43.69877" lon="5.19414">
        <ele>196.682404</ele>
        <time>2022-04-28T12:54:54Z</time>
      </trkpt>
      <trkpt lat="43.69875" lon="5.19414">
        <ele>196.638</ele>
        <time>2022-04-28T12:55:17Z</time>
      </trkpt>
      <trkpt lat="43.69875" lon="5.19411">
        <ele>195.991165</ele>
        <time>2022-04-28T12:55:19Z</time>
      </trkpt>
      <trkpt lat="43.69883" lon="5.1937">
        <ele>196.904221</ele>
        <time>2022-04-28T12:55:30Z</time>
      </trkpt>
      <trkpt lat="43.6989" lon="5.19327">
        <ele>198.976212</ele>
        <time>2022-04-28T12:55:42Z</time>
      </trkpt>
      <trkpt lat="43.69903" lon="5.1929">
        <ele>200.835358</ele>
        <time>2022-04-28T12:55:52Z</time>
      </trkpt>
      <trkpt lat="43.69905" lon="5.19253">
        <ele>202.323425</ele>
        <time>2022-04-28T12:56:01Z</time>
      </trkpt>
      <trkpt lat="43.69891" lon="5.19205">
        <ele>203.041351</ele>
        <time>2022-04-28T12:56:13Z</time>
      </trkpt>
      <trkpt lat="43.69872" lon="5.19143">
        <ele>202.533798</ele>
        <time>2022-04-28T12:56:28Z</time>
      </trkpt>
      <trkpt lat="43.69842" lon="5.19127">
        <ele>205.852539</ele>
        <time>2022-04-28T12:56:39Z</time>
      </trkpt>
      <trkpt lat="43.69835" lon="5.19128">
        <ele>206.21347</ele>
        <time>2022-04-28T12:56:50Z</time>
      </trkpt>
      <trkpt lat="43.69836" lon="5.19128">
        <ele>206.162094</ele>
        <time>2022-04-28T12:56:59Z</time>
      </trkpt>
      <trkpt lat="43.69838" lon="5.19126">
        <ele>206.017746</ele>
        <time>2022-04-28T12:57:18Z</time>
      </trkpt>
      <trkpt lat="43.69837" lon="5.19129">
        <ele>206.159103</ele>
        <time>2022-04-28T12:57:40Z</time>
      </trkpt>
      <trkpt lat="43.69837" lon="5.19127">
        <ele>206.123337</ele>
        <time>2022-04-28T12:58:01Z</time>
      </trkpt>
      <trkpt lat="43.69836" lon="5.19128">
        <ele>206.175049</ele>
        <time>2022-04-28T12:58:24Z</time>
      </trkpt>
      <trkpt lat="43.69837" lon="5.19127">
        <ele>206.121979</ele>
        <time>2022-04-28T12:58:41Z</time>
      </trkpt>
      <trkpt lat="43.69837" lon="5.19129">
        <ele>206.11937</ele>
        <time>2022-04-28T12:59:08Z</time>
      </trkpt>
      <trkpt lat="43.69836" lon="5.19128">
        <ele>206.169556</ele>
        <time>2022-04-28T12:59:30Z</time>
      </trkpt>
      <trkpt lat="43.69835" lon="5.19127">
        <ele>206.188614</ele>
        <time>2022-04-28T12:59:48Z</time>
      </trkpt>
      <trkpt lat="43.69832" lon="5.19125">
        <ele>206.313217</ele>
        <time>2022-04-28T12:59:57Z</time>
      </trkpt>
      <trkpt lat="43.69831" lon="5.19125">
        <ele>206.331482</ele>
        <time>2022-04-28T12:59:58Z</time>
      </trkpt>
      <trkpt lat="43.69828" lon="5.19124">
        <ele>206.397659</ele>
        <time>2022-04-28T13:00:00Z</time>
      </trkpt>
      <trkpt lat="43.69826" lon="5.19124">
        <ele>206.474152</ele>
        <time>2022-04-28T13:00:01Z</time>
      </trkpt>
      <trkpt lat="43.69786" lon="5.19103">
        <ele>205.969284</ele>
        <time>2022-04-28T13:00:14Z</time>
      </trkpt>
      <trkpt lat="43.6974" lon="5.19074">
        <ele>206.756393</ele>
        <time>2022-04-28T13:00:28Z</time>
      </trkpt>
      <trkpt lat="43.69718" lon="5.19005">
        <ele>210.690948</ele>
        <time>2022-04-28T13:00:43Z</time>
      </trkpt>
      <trkpt lat="43.69704" lon="5.18932">
        <ele>211.786804</ele>
        <time>2022-04-28T13:00:58Z</time>
      </trkpt>
      <trkpt lat="43.69695" lon="5.18908">
        <ele>212.147858</ele>
        <time>2022-04-28T13:01:08Z</time>
      </trkpt>
      <trkpt lat="43.69696" lon="5.1891">
        <ele>212.084991</ele>
        <time>2022-04-28T13:01:09Z</time>
      </trkpt>
      <trkpt lat="43.69709" lon="5.18929">
        <ele>212.252106</ele>
        <time>2022-04-28T13:01:20Z</time>
      </trkpt>
      <trkpt lat="43.69708" lon="5.18931">
        <ele>212.116867</ele>
        <time>2022-04-28T13:01:49Z</time>
      </trkpt>
      <trkpt lat="43.69708" lon="5.18928">
        <ele>212.209045</ele>
        <time>2022-04-28T13:02:16Z</time>
      </trkpt>
      <trkpt lat="43.69708" lon="5.18928">
        <ele>212.197586</ele>
        <time>2022-04-28T13:02:36Z</time>
      </trkpt>
      <trkpt lat="43.69708" lon="5.18929">
        <ele>212.125778</ele>
        <time>2022-04-28T13:02:49Z</time>
      </trkpt>
      <trkpt lat="43.69704" lon="5.18926">
        <ele>211.898743</ele>
        <time>2022-04-28T13:03:13Z</time>
      </trkpt>
      <trkpt lat="43.69701" lon="5.18924">
        <ele>211.690979</ele>
        <time>2022-04-28T13:03:27Z</time>
      </trkpt>
      <trkpt lat="43.697" lon="5.18923">
        <ele>211.739899</ele>
        <time>2022-04-28T13:03:28Z</time>
      </trkpt>
      <trkpt lat="43.697" lon="5.18922">
        <ele>211.783554</ele>
        <time>2022-04-28T13:03:29Z</time>
      </trkpt>
      <trkpt lat="43.69699" lon="5.18922">
        <ele>211.82225</ele>
        <time>2022-04-28T13:03:30Z</time>
      </trkpt>
      <trkpt lat="43.69699" lon="5.18921">
        <ele>211.863174</ele>
        <time>2022-04-28T13:03:31Z</time>
      </trkpt>
      <trkpt lat="43.69698" lon="5.18919">
        <ele>211.930481</ele>
        <time>2022-04-28T13:03:32Z</time>
      </trkpt>
      <trkpt lat="43.69697" lon="5.18919">
        <ele>211.998871</ele>
        <time>2022-04-28T13:03:33Z</time>
      </trkpt>
      <trkpt lat="43.69698" lon="5.18917">
        <ele>211.938919</ele>
        <time>2022-04-28T13:03:46Z</time>
      </trkpt>
      <trkpt lat="43.69697" lon="5.18913">
        <ele>212.03389</ele>
        <time>2022-04-28T13:03:51Z</time>
      </trkpt>
      <trkpt lat="43.69696" lon="5.18911">
        <ele>212.086594</ele>
        <time>2022-04-28T13:03:52Z</time>
      </trkpt>
      <trkpt lat="43.69695" lon="5.18908">
        <ele>212.141632</ele>
        <time>2022-04-28T13:03:53Z</time>
      </trkpt>
      <trkpt lat="43.69664" lon="5.18878">
        <ele>213.480865</ele>
        <time>2022-04-28T13:04:06Z</time>
      </trkpt>
      <trkpt lat="43.69642" lon="5.18846">
        <ele>214.530136</ele>
        <time>2022-04-28T13:04:19Z</time>
      </trkpt>
      <trkpt lat="43.69627" lon="5.18802">
        <ele>215.21991</ele>
        <time>2022-04-28T13:04:33Z</time>
      </trkpt>
      <trkpt lat="43.69617" lon="5.1877">
        <ele>215.293945</ele>
        <time>2022-04-28T13:04:43Z</time>
      </trkpt>
      <trkpt lat="43.69601" lon="5.18719">
        <ele>216.933929</ele>
        <time>2022-04-28T13:04:59Z</time>
      </trkpt>
      <trkpt lat="43.69591" lon="5.18685">
        <ele>217.444046</ele>
        <time>2022-04-28T13:05:11Z</time>
      </trkpt>
      <trkpt lat="43.69588" lon="5.18684">
        <ele>217.456467</ele>
        <time>2022-04-28T13:05:12Z</time>
      </trkpt>
      <trkpt lat="43.69586" lon="5.18684">
        <ele>217.454346</ele>
        <time>2022-04-28T13:05:13Z</time>
      </trkpt>
      <trkpt lat="43.69584" lon="5.18685">
        <ele>217.445618</ele>
        <time>2022-04-28T13:05:14Z</time>
      </trkpt>
      <trkpt lat="43.69582" lon="5.18686">
        <ele>217.43103</ele>
        <time>2022-04-28T13:05:15Z</time>
      </trkpt>
      <trkpt lat="43.6958" lon="5.18686">
        <ele>217.415436</ele>
        <time>2022-04-28T13:05:16Z</time>
      </trkpt>
      <trkpt lat="43.69579" lon="5.18687">
        <ele>217.401672</ele>
        <time>2022-04-28T13:05:29Z</time>
      </trkpt>
      <trkpt lat="43.69579" lon="5.18689">
        <ele>217.378677</ele>
        <time>2022-04-28T13:05:35Z</time>
      </trkpt>
      <trkpt lat="43.69578" lon="5.18692">
        <ele>217.329575</ele>
        <time>2022-04-28T13:05:37Z</time>
      </trkpt>
      <trkpt lat="43.69576" lon="5.18694">
        <ele>217.29744</ele>
        <time>2022-04-28T13:05:38Z</time>
      </trkpt>
      <trkpt lat="43.69549" lon="5.18731">
        <ele>218.618866</ele>
        <time>2022-04-28T13:05:51Z</time>
      </trkpt>
      <trkpt lat="43.69528" lon="5.18773">
        <ele>220.945938</ele>
        <time>2022-04-28T13:06:03Z</time>
      </trkpt>
      <trkpt lat="43.6952" lon="5.18809">
        <ele>223.127579</ele>
        <time>2022-04-28T13:06:16Z</time>
      </trkpt>
      <trkpt lat="43.69517" lon="5.18806">
        <ele>223.234253</ele>
        <time>2022-04-28T13:06:36Z</time>
      </trkpt>
      <trkpt lat="43.69516" lon="5.18805">
        <ele>223.209549</ele>
        <time>2022-04-28T13:06:37Z</time>
      </trkpt>
      <trkpt lat="43.69516" lon="5.18803">
        <ele>223.190079</ele>
        <time>2022-04-28T13:06:38Z</time>
      </trkpt>
      <trkpt lat="43.69516" lon="5.188">
        <ele>223.093521</ele>
        <time>2022-04-28T13:06:39Z</time>
      </trkpt>
      <trkpt lat="43.69516" lon="5.18798">
        <ele>222.979446</ele>
        <time>2022-04-28T13:06:40Z</time>
      </trkpt>
      <trkpt lat="43.69516" lon="5.18794">
        <ele>222.787186</ele>
        <time>2022-04-28T13:06:41Z</time>
      </trkpt>
      <trkpt lat="43.69516" lon="5.1879">
        <ele>222.584732</ele>
        <time>2022-04-28T13:06:42Z</time>
      </trkpt>
      <trkpt lat="43.69516" lon="5.18785">
        <ele>222.391846</ele>
        <time>2022-04-28T13:06:43Z</time>
      </trkpt>
      <trkpt lat="43.69515" lon="5.18781">
        <ele>222.257782</ele>
        <time>2022-04-28T13:06:44Z</time>
      </trkpt>
      <trkpt lat="43.69514" lon="5.18775">
        <ele>222.140594</ele>
        <time>2022-04-28T13:06:45Z</time>
      </trkpt>
      <trkpt lat="43.69502" lon="5.18743">
        <ele>221.981384</ele>
        <time>2022-04-28T13:06:53Z</time>
      </trkpt>
      <trkpt lat="43.69503" lon="5.18711">
        <ele>220.672897</ele>
        <time>2022-04-28T13:07:00Z</time>
      </trkpt>
      <trkpt lat="43.69502" lon="5.18706">
        <ele>220.593689</ele>
        <time>2022-04-28T13:07:01Z</time>
      </trkpt>
      <trkpt lat="43.69493" lon="5.18639">
        <ele>220.244659</ele>
        <time>2022-04-28T13:07:15Z</time>
      </trkpt>
      <trkpt lat="43.69487" lon="5.18585">
        <ele>219.926102</ele>
        <time>2022-04-28T13:07:26Z</time>
      </trkpt>
      <trkpt lat="43.69458" lon="5.18495">
        <ele>221.935471</ele>
        <time>2022-04-28T13:07:45Z</time>
      </trkpt>
      <trkpt lat="43.69439" lon="5.1843">
        <ele>223.148682</ele>
        <time>2022-04-28T13:07:59Z</time>
      </trkpt>
      <trkpt lat="43.69414" lon="5.18368">
        <ele>225.224274</ele>
        <time>2022-04-28T13:08:14Z</time>
      </trkpt>
      <trkpt lat="43.69391" lon="5.18309">
        <ele>227.323853</ele>
        <time>2022-04-28T13:08:29Z</time>
      </trkpt>
      <trkpt lat="43.69362" lon="5.18256">
        <ele>230.130035</ele>
        <time>2022-04-28T13:08:45Z</time>
      </trkpt>
      <trkpt lat="43.6932" lon="5.1823">
        <ele>233.627823</ele>
        <time>2022-04-28T13:09:01Z</time>
      </trkpt>
      <trkpt lat="43.69281" lon="5.18216">
        <ele>236.530502</ele>
        <time>2022-04-28T13:09:16Z</time>
      </trkpt>
      <trkpt lat="43.69252" lon="5.18199">
        <ele>238.403061</ele>
        <time>2022-04-28T13:09:29Z</time>
      </trkpt>
      <trkpt lat="43.69227" lon="5.18246">
        <ele>237.765823</ele>
        <time>2022-04-28T13:09:42Z</time>
      </trkpt>
      <trkpt lat="43.69224" lon="5.18251">
        <ele>237.477432</ele>
        <time>2022-04-28T13:09:43Z</time>
      </trkpt>
      <trkpt lat="43.6922" lon="5.18255">
        <ele>237.182434</ele>
        <time>2022-04-28T13:09:44Z</time>
      </trkpt>
      <trkpt lat="43.69212" lon="5.18264">
        <ele>236.652481</ele>
        <time>2022-04-28T13:09:46Z</time>
      </trkpt>
      <trkpt lat="43.69207" lon="5.18267">
        <ele>236.422043</ele>
        <time>2022-04-28T13:09:47Z</time>
      </trkpt>
      <trkpt lat="43.69201" lon="5.1827">
        <ele>236.185028</ele>
        <time>2022-04-28T13:09:48Z</time>
      </trkpt>
      <trkpt lat="43.69169" lon="5.1828">
        <ele>235.142303</ele>
        <time>2022-04-28T13:09:54Z</time>
      </trkpt>
      <trkpt lat="43.69164" lon="5.18283">
        <ele>235.096161</ele>
        <time>2022-04-28T13:09:55Z</time>
      </trkpt>
      <trkpt lat="43.69159" lon="5.18287">
        <ele>234.991486</ele>
        <time>2022-04-28T13:09:56Z</time>
      </trkpt>
      <trkpt lat="43.69155" lon="5.18291">
        <ele>234.869247</ele>
        <time>2022-04-28T13:09:57Z</time>
      </trkpt>
      <trkpt lat="43.69151" lon="5.18295">
        <ele>234.728928</ele>
        <time>2022-04-28T13:09:58Z</time>
      </trkpt>
      <trkpt lat="43.69148" lon="5.18299">
        <ele>234.608795</ele>
        <time>2022-04-28T13:09:59Z</time>
      </trkpt>
      <trkpt lat="43.69144" lon="5.18303">
        <ele>234.495148</ele>
        <time>2022-04-28T13:10:00Z</time>
      </trkpt>
      <trkpt lat="43.69102" lon="5.18353">
        <ele>233.424316</ele>
        <time>2022-04-28T13:10:13Z</time>
      </trkpt>
      <trkpt lat="43.69098" lon="5.18356">
        <ele>233.416107</ele>
        <time>2022-04-28T13:10:14Z</time>
      </trkpt>
      <trkpt lat="43.69094" lon="5.18357">
        <ele>233.555069</ele>
        <time>2022-04-28T13:10:15Z</time>
      </trkpt>
      <trkpt lat="43.6909" lon="5.18357">
        <ele>233.714554</ele>
        <time>2022-04-28T13:10:16Z</time>
      </trkpt>
      <trkpt lat="43.69086" lon="5.18357">
        <ele>233.935028</ele>
        <time>2022-04-28T13:10:17Z</time>
      </trkpt>
      <trkpt lat="43.69074" lon="5.18358">
        <ele>233.969193</ele>
        <time>2022-04-28T13:10:20Z</time>
      </trkpt>
      <trkpt lat="43.6907" lon="5.18358">
        <ele>233.988571</ele>
        <time>2022-04-28T13:10:21Z</time>
      </trkpt>
      <trkpt lat="43.69045" lon="5.18357">
        <ele>234.299103</ele>
        <time>2022-04-28T13:10:27Z</time>
      </trkpt>
      <trkpt lat="43.69024" lon="5.18351">
        <ele>233.689117</ele>
        <time>2022-04-28T13:10:32Z</time>
      </trkpt>
      <trkpt lat="43.69014" lon="5.18347">
        <ele>233.443619</ele>
        <time>2022-04-28T13:10:34Z</time>
      </trkpt>
      <trkpt lat="43.69003" lon="5.18344">
        <ele>232.873352</ele>
        <time>2022-04-28T13:10:36Z</time>
      </trkpt>
      <trkpt lat="43.68998" lon="5.18344">
        <ele>232.420975</ele>
        <time>2022-04-28T13:10:37Z</time>
      </trkpt>
      <trkpt lat="43.68992" lon="5.18344">
        <ele>232.009186</ele>
        <time>2022-04-28T13:10:38Z</time>
      </trkpt>
      <trkpt lat="43.68987" lon="5.18343">
        <ele>231.767441</ele>
        <time>2022-04-28T13:10:39Z</time>
      </trkpt>
      <trkpt lat="43.68982" lon="5.1834">
        <ele>231.678802</ele>
        <time>2022-04-28T13:10:40Z</time>
      </trkpt>
      <trkpt lat="43.68977" lon="5.18337">
        <ele>231.674896</ele>
        <time>2022-04-28T13:10:41Z</time>
      </trkpt>
      <trkpt lat="43.68973" lon="5.18333">
        <ele>231.717896</ele>
        <time>2022-04-28T13:10:42Z</time>
      </trkpt>
      <trkpt lat="43.6897" lon="5.18329">
        <ele>231.822784</ele>
        <time>2022-04-28T13:10:43Z</time>
      </trkpt>
      <trkpt lat="43.68967" lon="5.18325">
        <ele>231.965942</ele>
        <time>2022-04-28T13:10:44Z</time>
      </trkpt>
      <trkpt lat="43.68964" lon="5.1832">
        <ele>232.131104</ele>
        <time>2022-04-28T13:10:45Z</time>
      </trkpt>
      <trkpt lat="43.68962" lon="5.18316">
        <ele>232.307053</ele>
        <time>2022-04-28T13:10:46Z</time>
      </trkpt>
      <trkpt lat="43.68949" lon="5.1828">
        <ele>232.518097</ele>
        <time>2022-04-28T13:10:56Z</time>
      </trkpt>
      <trkpt lat="43.68947" lon="5.1828">
        <ele>232.35675</ele>
        <time>2022-04-28T13:10:57Z</time>
      </trkpt>
      <trkpt lat="43.68945" lon="5.18283">
        <ele>231.971558</ele>
        <time>2022-04-28T13:11:00Z</time>
      </trkpt>
      <trkpt lat="43.68935" lon="5.18302">
        <ele>230.231033</ele>
        <time>2022-04-28T13:11:05Z</time>
      </trkpt>
      <trkpt lat="43.68931" lon="5.18307">
        <ele>229.70549</ele>
        <time>2022-04-28T13:11:06Z</time>
      </trkpt>
      <trkpt lat="43.68922" lon="5.18321">
        <ele>228.109116</ele>
        <time>2022-04-28T13:11:09Z</time>
      </trkpt>
      <trkpt lat="43.68919" lon="5.18327">
        <ele>227.694321</ele>
        <time>2022-04-28T13:11:10Z</time>
      </trkpt>
      <trkpt lat="43.68917" lon="5.18333">
        <ele>227.331329</ele>
        <time>2022-04-28T13:11:11Z</time>
      </trkpt>
      <trkpt lat="43.68915" lon="5.1834">
        <ele>227.019516</ele>
        <time>2022-04-28T13:11:12Z</time>
      </trkpt>
      <trkpt lat="43.68914" lon="5.18347">
        <ele>226.762741</ele>
        <time>2022-04-28T13:11:13Z</time>
      </trkpt>
      <trkpt lat="43.68913" lon="5.18354">
        <ele>226.539612</ele>
        <time>2022-04-28T13:11:14Z</time>
      </trkpt>
      <trkpt lat="43.68911" lon="5.18367">
        <ele>226.140457</ele>
        <time>2022-04-28T13:11:16Z</time>
      </trkpt>
      <trkpt lat="43.68909" lon="5.18373">
        <ele>225.851685</ele>
        <time>2022-04-28T13:11:17Z</time>
      </trkpt>
      <trkpt lat="43.68907" lon="5.18379">
        <ele>225.554031</ele>
        <time>2022-04-28T13:11:18Z</time>
      </trkpt>
      <trkpt lat="43.68904" lon="5.18382">
        <ele>225.324661</ele>
        <time>2022-04-28T13:11:19Z</time>
      </trkpt>
      <trkpt lat="43.68902" lon="5.18386">
        <ele>225.143921</ele>
        <time>2022-04-28T13:11:20Z</time>
      </trkpt>
      <trkpt lat="43.68899" lon="5.18389">
        <ele>224.963837</ele>
        <time>2022-04-28T13:11:21Z</time>
      </trkpt>
      <trkpt lat="43.68884" lon="5.18404">
        <ele>223.954071</ele>
        <time>2022-04-28T13:11:26Z</time>
      </trkpt>
      <trkpt lat="43.68881" lon="5.18408">
        <ele>223.695786</ele>
        <time>2022-04-28T13:11:27Z</time>
      </trkpt>
      <trkpt lat="43.68874" lon="5.18416">
        <ele>223.122513</ele>
        <time>2022-04-28T13:11:29Z</time>
      </trkpt>
      <trkpt lat="43.68863" lon="5.18427">
        <ele>222.163742</ele>
        <time>2022-04-28T13:11:33Z</time>
      </trkpt>
      <trkpt lat="43.6884" lon="5.18456">
        <ele>220.007568</ele>
        <time>2022-04-28T13:11:43Z</time>
      </trkpt>
      <trkpt lat="43.68836" lon="5.18462">
        <ele>219.537186</ele>
        <time>2022-04-28T13:11:45Z</time>
      </trkpt>
      <trkpt lat="43.68834" lon="5.18477">
        <ele>218.613983</ele>
        <time>2022-04-28T13:11:49Z</time>
      </trkpt>
      <trkpt lat="43.6883" lon="5.18487">
        <ele>217.889038</ele>
        <time>2022-04-28T13:11:52Z</time>
      </trkpt>
      <trkpt lat="43.6884" lon="5.18521">
        <ele>216.512344</ele>
        <time>2022-04-28T13:12:00Z</time>
      </trkpt>
      <trkpt lat="43.68847" lon="5.18531">
        <ele>216.436905</ele>
        <time>2022-04-28T13:12:03Z</time>
      </trkpt>
      <trkpt lat="43.68846" lon="5.18549">
        <ele>215.480408</ele>
        <time>2022-04-28T13:12:08Z</time>
      </trkpt>
      <trkpt lat="43.68834" lon="5.18586">
        <ele>211.736526</ele>
        <time>2022-04-28T13:12:16Z</time>
      </trkpt>
      <trkpt lat="43.68833" lon="5.18591">
        <ele>211.305603</ele>
        <time>2022-04-28T13:12:17Z</time>
      </trkpt>
      <trkpt lat="43.68832" lon="5.18601">
        <ele>210.458267</ele>
        <time>2022-04-28T13:12:19Z</time>
      </trkpt>
      <trkpt lat="43.6882" lon="5.18622">
        <ele>208.268555</ele>
        <time>2022-04-28T13:12:24Z</time>
      </trkpt>
      <trkpt lat="43.68813" lon="5.18633">
        <ele>207.039063</ele>
        <time>2022-04-28T13:12:28Z</time>
      </trkpt>
      <trkpt lat="43.68815" lon="5.18654">
        <ele>205.040054</ele>
        <time>2022-04-28T13:12:32Z</time>
      </trkpt>
      <trkpt lat="43.68814" lon="5.18671">
        <ele>203.468414</ele>
        <time>2022-04-28T13:12:36Z</time>
      </trkpt>
      <trkpt lat="43.68814" lon="5.18682">
        <ele>202.742325</ele>
        <time>2022-04-28T13:12:39Z</time>
      </trkpt>
      <trkpt lat="43.68795" lon="5.18711">
        <ele>200.899933</ele>
        <time>2022-04-28T13:12:49Z</time>
      </trkpt>
      <trkpt lat="43.68777" lon="5.18739">
        <ele>199.188416</ele>
        <time>2022-04-28T13:12:58Z</time>
      </trkpt>
      <trkpt lat="43.68751" lon="5.18787">
        <ele>197.253769</ele>
        <time>2022-04-28T13:13:07Z</time>
      </trkpt>
      <trkpt lat="43.68719" lon="5.18824">
        <ele>196.066345</ele>
        <time>2022-04-28T13:13:16Z</time>
      </trkpt>
      <trkpt lat="43.68716" lon="5.18828">
        <ele>195.903137</ele>
        <time>2022-04-28T13:13:17Z</time>
      </trkpt>
      <trkpt lat="43.68709" lon="5.18836">
        <ele>195.613113</ele>
        <time>2022-04-28T13:13:19Z</time>
      </trkpt>
      <trkpt lat="43.68706" lon="5.1884">
        <ele>195.471237</ele>
        <time>2022-04-28T13:13:20Z</time>
      </trkpt>
      <trkpt lat="43.68679" lon="5.18882">
        <ele>194.195694</ele>
        <time>2022-04-28T13:13:29Z</time>
      </trkpt>
      <trkpt lat="43.68672" lon="5.18892">
        <ele>193.791565</ele>
        <time>2022-04-28T13:13:31Z</time>
      </trkpt>
      <trkpt lat="43.68654" lon="5.18926">
        <ele>192.799301</ele>
        <time>2022-04-28T13:13:37Z</time>
      </trkpt>
      <trkpt lat="43.6865" lon="5.18931">
        <ele>192.720978</ele>
        <time>2022-04-28T13:13:38Z</time>
      </trkpt>
      <trkpt lat="43.68647" lon="5.18935">
        <ele>192.649704</ele>
        <time>2022-04-28T13:13:39Z</time>
      </trkpt>
      <trkpt lat="43.68633" lon="5.18955">
        <ele>192.320908</ele>
        <time>2022-04-28T13:13:44Z</time>
      </trkpt>
      <trkpt lat="43.68617" lon="5.18981">
        <ele>191.789536</ele>
        <time>2022-04-28T13:13:49Z</time>
      </trkpt>
      <trkpt lat="43.68613" lon="5.18985">
        <ele>191.651627</ele>
        <time>2022-04-28T13:13:50Z</time>
      </trkpt>
      <trkpt lat="43.68604" lon="5.18999">
        <ele>191.314545</ele>
        <time>2022-04-28T13:13:53Z</time>
      </trkpt>
      <trkpt lat="43.68601" lon="5.19003">
        <ele>191.223389</ele>
        <time>2022-04-28T13:13:54Z</time>
      </trkpt>
      <trkpt lat="43.68573" lon="5.19035">
        <ele>191.002533</ele>
        <time>2022-04-28T13:14:05Z</time>
      </trkpt>
      <trkpt lat="43.68552" lon="5.19062">
        <ele>190.983368</ele>
        <time>2022-04-28T13:14:16Z</time>
      </trkpt>
      <trkpt lat="43.68551" lon="5.19062">
        <ele>191.017715</ele>
        <time>2022-04-28T13:14:17Z</time>
      </trkpt>
      <trkpt lat="43.68549" lon="5.19061">
        <ele>191.058151</ele>
        <time>2022-04-28T13:14:18Z</time>
      </trkpt>
      <trkpt lat="43.68542" lon="5.19061">
        <ele>191.203964</ele>
        <time>2022-04-28T13:14:35Z</time>
      </trkpt>
      <trkpt lat="43.68538" lon="5.19066">
        <ele>191.212128</ele>
        <time>2022-04-28T13:14:56Z</time>
      </trkpt>
      <trkpt lat="43.68539" lon="5.19069">
        <ele>191.160095</ele>
        <time>2022-04-28T13:14:59Z</time>
      </trkpt>
      <trkpt lat="43.68538" lon="5.19072">
        <ele>191.119476</ele>
        <time>2022-04-28T13:15:00Z</time>
      </trkpt>
      <trkpt lat="43.68538" lon="5.19075">
        <ele>191.07579</ele>
        <time>2022-04-28T13:15:01Z</time>
      </trkpt>
      <trkpt lat="43.68537" lon="5.19079">
        <ele>191.028046</ele>
        <time>2022-04-28T13:15:02Z</time>
      </trkpt>
      <trkpt lat="43.68536" lon="5.19082">
        <ele>190.982437</ele>
        <time>2022-04-28T13:15:03Z</time>
      </trkpt>
      <trkpt lat="43.68535" lon="5.19086">
        <ele>190.952637</ele>
        <time>2022-04-28T13:15:04Z</time>
      </trkpt>
      <trkpt lat="43.68532" lon="5.1909">
        <ele>190.940674</ele>
        <time>2022-04-28T13:15:05Z</time>
      </trkpt>
      <trkpt lat="43.68529" lon="5.19094">
        <ele>190.943741</ele>
        <time>2022-04-28T13:15:06Z</time>
      </trkpt>
      <trkpt lat="43.68526" lon="5.19099">
        <ele>191.007675</ele>
        <time>2022-04-28T13:15:07Z</time>
      </trkpt>
      <trkpt lat="43.68523" lon="5.19103">
        <ele>191.079849</ele>
        <time>2022-04-28T13:15:08Z</time>
      </trkpt>
      <trkpt lat="43.6852" lon="5.19107">
        <ele>191.153702</ele>
        <time>2022-04-28T13:15:09Z</time>
      </trkpt>
      <trkpt lat="43.68516" lon="5.19111">
        <ele>191.228851</ele>
        <time>2022-04-28T13:15:10Z</time>
      </trkpt>
      <trkpt lat="43.68513" lon="5.19116">
        <ele>191.306</ele>
        <time>2022-04-28T13:15:11Z</time>
      </trkpt>
      <trkpt lat="43.68509" lon="5.19121">
        <ele>191.389969</ele>
        <time>2022-04-28T13:15:12Z</time>
      </trkpt>
      <trkpt lat="43.68479" lon="5.19161">
        <ele>192.023575</ele>
        <time>2022-04-28T13:15:22Z</time>
      </trkpt>
      <trkpt lat="43.68475" lon="5.19165">
        <ele>192.112686</ele>
        <time>2022-04-28T13:15:23Z</time>
      </trkpt>
      <trkpt lat="43.6845" lon="5.19194">
        <ele>192.652496</ele>
        <time>2022-04-28T13:15:30Z</time>
      </trkpt>
      <trkpt lat="43.68447" lon="5.19198">
        <ele>192.723816</ele>
        <time>2022-04-28T13:15:31Z</time>
      </trkpt>
      <trkpt lat="43.68444" lon="5.19202">
        <ele>192.789124</ele>
        <time>2022-04-28T13:15:32Z</time>
      </trkpt>
      <trkpt lat="43.68433" lon="5.19213">
        <ele>193.007355</ele>
        <time>2022-04-28T13:15:35Z</time>
      </trkpt>
      <trkpt lat="43.6843" lon="5.19217">
        <ele>193.087067</ele>
        <time>2022-04-28T13:15:36Z</time>
      </trkpt>
      <trkpt lat="43.68426" lon="5.19222">
        <ele>193.164825</ele>
        <time>2022-04-28T13:15:37Z</time>
      </trkpt>
      <trkpt lat="43.68423" lon="5.19227">
        <ele>193.240173</ele>
        <time>2022-04-28T13:15:38Z</time>
      </trkpt>
      <trkpt lat="43.68419" lon="5.19231">
        <ele>193.319122</ele>
        <time>2022-04-28T13:15:39Z</time>
      </trkpt>
      <trkpt lat="43.68416" lon="5.19235">
        <ele>193.391876</ele>
        <time>2022-04-28T13:15:40Z</time>
      </trkpt>
      <trkpt lat="43.68412" lon="5.1924">
        <ele>193.460541</ele>
        <time>2022-04-28T13:15:41Z</time>
      </trkpt>
      <trkpt lat="43.684" lon="5.19257">
        <ele>193.73613</ele>
        <time>2022-04-28T13:15:45Z</time>
      </trkpt>
      <trkpt lat="43.68396" lon="5.19261">
        <ele>193.816849</ele>
        <time>2022-04-28T13:15:46Z</time>
      </trkpt>
      <trkpt lat="43.68366" lon="5.193">
        <ele>194.465225</ele>
        <time>2022-04-28T13:15:59Z</time>
      </trkpt>
      <trkpt lat="43.68362" lon="5.19306">
        <ele>194.547287</ele>
        <time>2022-04-28T13:16:10Z</time>
      </trkpt>
      <trkpt lat="43.68361" lon="5.19308">
        <ele>194.566086</ele>
        <time>2022-04-28T13:16:11Z</time>
      </trkpt>
      <trkpt lat="43.6836" lon="5.19311">
        <ele>194.585678</ele>
        <time>2022-04-28T13:16:12Z</time>
      </trkpt>
      <trkpt lat="43.68358" lon="5.19314">
        <ele>194.623749</ele>
        <time>2022-04-28T13:16:13Z</time>
      </trkpt>
      <trkpt lat="43.68356" lon="5.19318">
        <ele>194.679535</ele>
        <time>2022-04-28T13:16:14Z</time>
      </trkpt>
      <trkpt lat="43.68353" lon="5.19321">
        <ele>194.732895</ele>
        <time>2022-04-28T13:16:15Z</time>
      </trkpt>
      <trkpt lat="43.68338" lon="5.19337">
        <ele>195.069336</ele>
        <time>2022-04-28T13:16:20Z</time>
      </trkpt>
      <trkpt lat="43.68334" lon="5.19341">
        <ele>195.1642</ele>
        <time>2022-04-28T13:16:21Z</time>
      </trkpt>
      <trkpt lat="43.68331" lon="5.19344">
        <ele>195.259552</ele>
        <time>2022-04-28T13:16:22Z</time>
      </trkpt>
      <trkpt lat="43.68287" lon="5.19386">
        <ele>197.255157</ele>
        <time>2022-04-28T13:16:38Z</time>
      </trkpt>
      <trkpt lat="43.68245" lon="5.19426">
        <ele>199.804214</ele>
        <time>2022-04-28T13:16:53Z</time>
      </trkpt>
      <trkpt lat="43.68234" lon="5.19464">
        <ele>201.310715</ele>
        <time>2022-04-28T13:17:03Z</time>
      </trkpt>
      <trkpt lat="43.68224" lon="5.19515">
        <ele>203.549133</ele>
        <time>2022-04-28T13:17:15Z</time>
      </trkpt>
      <trkpt lat="43.68221" lon="5.19549">
        <ele>204.211151</ele>
        <time>2022-04-28T13:17:22Z</time>
      </trkpt>
      <trkpt lat="43.68219" lon="5.19552">
        <ele>204.414551</ele>
        <time>2022-04-28T13:17:23Z</time>
      </trkpt>
      <trkpt lat="43.68216" lon="5.19555">
        <ele>204.648041</ele>
        <time>2022-04-28T13:17:24Z</time>
      </trkpt>
      <trkpt lat="43.68213" lon="5.19558">
        <ele>204.885574</ele>
        <time>2022-04-28T13:17:25Z</time>
      </trkpt>
      <trkpt lat="43.6821" lon="5.19561">
        <ele>205.112488</ele>
        <time>2022-04-28T13:17:26Z</time>
      </trkpt>
      <trkpt lat="43.68172" lon="5.19572">
        <ele>208.469467</ele>
        <time>2022-04-28T13:17:39Z</time>
      </trkpt>
      <trkpt lat="43.68145" lon="5.19529">
        <ele>209.996109</ele>
        <time>2022-04-28T13:17:51Z</time>
      </trkpt>
      <trkpt lat="43.68109" lon="5.19476">
        <ele>212.866943</ele>
        <time>2022-04-28T13:18:06Z</time>
      </trkpt>
      <trkpt lat="43.68086" lon="5.19461">
        <ele>214.370789</ele>
        <time>2022-04-28T13:18:13Z</time>
      </trkpt>
      <trkpt lat="43.68047" lon="5.1944">
        <ele>217.226349</ele>
        <time>2022-04-28T13:18:25Z</time>
      </trkpt>
      <trkpt lat="43.67995" lon="5.19389">
        <ele>217.603256</ele>
        <time>2022-04-28T13:18:41Z</time>
      </trkpt>
      <trkpt lat="43.67939" lon="5.19334">
        <ele>219.928864</ele>
        <time>2022-04-28T13:18:58Z</time>
      </trkpt>
      <trkpt lat="43.67901" lon="5.19292">
        <ele>220.196976</ele>
        <time>2022-04-28T13:19:13Z</time>
      </trkpt>
      <trkpt lat="43.67899" lon="5.19291">
        <ele>220.363281</ele>
        <time>2022-04-28T13:19:14Z</time>
      </trkpt>
      <trkpt lat="43.67897" lon="5.19292">
        <ele>220.606766</ele>
        <time>2022-04-28T13:19:15Z</time>
      </trkpt>
      <trkpt lat="43.67896" lon="5.19293">
        <ele>220.832291</ele>
        <time>2022-04-28T13:19:16Z</time>
      </trkpt>
      <trkpt lat="43.67894" lon="5.19295">
        <ele>221.081497</ele>
        <time>2022-04-28T13:19:17Z</time>
      </trkpt>
      <trkpt lat="43.67892" lon="5.19296">
        <ele>221.325104</ele>
        <time>2022-04-28T13:19:18Z</time>
      </trkpt>
      <trkpt lat="43.6789" lon="5.19297">
        <ele>221.712524</ele>
        <time>2022-04-28T13:19:19Z</time>
      </trkpt>
      <trkpt lat="43.67888" lon="5.19297">
        <ele>222.145569</ele>
        <time>2022-04-28T13:19:20Z</time>
      </trkpt>
      <trkpt lat="43.67886" lon="5.19297">
        <ele>222.54567</ele>
        <time>2022-04-28T13:19:21Z</time>
      </trkpt>
      <trkpt lat="43.67883" lon="5.19296">
        <ele>222.899704</ele>
        <time>2022-04-28T13:19:22Z</time>
      </trkpt>
      <trkpt lat="43.67877" lon="5.19294">
        <ele>223.877045</ele>
        <time>2022-04-28T13:19:25Z</time>
      </trkpt>
      <trkpt lat="43.67875" lon="5.19292">
        <ele>224.072556</ele>
        <time>2022-04-28T13:19:26Z</time>
      </trkpt>
      <trkpt lat="43.67842" lon="5.19269">
        <ele>226.982361</ele>
        <time>2022-04-28T13:19:39Z</time>
      </trkpt>
      <trkpt lat="43.67812" lon="5.19238">
        <ele>227.43602</ele>
        <time>2022-04-28T13:19:51Z</time>
      </trkpt>
      <trkpt lat="43.67785" lon="5.19202">
        <ele>227.586899</ele>
        <time>2022-04-28T13:20:03Z</time>
      </trkpt>
      <trkpt lat="43.67771" lon="5.19176">
        <ele>226.844177</ele>
        <time>2022-04-28T13:20:11Z</time>
      </trkpt>
      <trkpt lat="43.67742" lon="5.19134">
        <ele>226.975998</ele>
        <time>2022-04-28T13:20:22Z</time>
      </trkpt>
      <trkpt lat="43.67719" lon="5.19106">
        <ele>226.139923</ele>
        <time>2022-04-28T13:20:29Z</time>
      </trkpt>
      <trkpt lat="43.67716" lon="5.19102">
        <ele>226.278214</ele>
        <time>2022-04-28T13:20:30Z</time>
      </trkpt>
      <trkpt lat="43.67713" lon="5.19098">
        <ele>226.482803</ele>
        <time>2022-04-28T13:20:31Z</time>
      </trkpt>
      <trkpt lat="43.6771" lon="5.19094">
        <ele>226.74501</ele>
        <time>2022-04-28T13:20:32Z</time>
      </trkpt>
      <trkpt lat="43.67706" lon="5.19091">
        <ele>227.074661</ele>
        <time>2022-04-28T13:20:33Z</time>
      </trkpt>
      <trkpt lat="43.67673" lon="5.19045">
        <ele>227.725128</ele>
        <time>2022-04-28T13:20:44Z</time>
      </trkpt>
      <trkpt lat="43.67667" lon="5.19036">
        <ele>227.956589</ele>
        <time>2022-04-28T13:20:46Z</time>
      </trkpt>
      <trkpt lat="43.67664" lon="5.19032">
        <ele>228.090836</ele>
        <time>2022-04-28T13:20:47Z</time>
      </trkpt>
      <trkpt lat="43.6766" lon="5.19028">
        <ele>228.177429</ele>
        <time>2022-04-28T13:20:48Z</time>
      </trkpt>
      <trkpt lat="43.67643" lon="5.19006">
        <ele>227.636505</ele>
        <time>2022-04-28T13:20:54Z</time>
      </trkpt>
      <trkpt lat="43.6764" lon="5.19002">
        <ele>227.496185</ele>
        <time>2022-04-28T13:20:55Z</time>
      </trkpt>
      <trkpt lat="43.67636" lon="5.18999">
        <ele>227.291763</ele>
        <time>2022-04-28T13:20:56Z</time>
      </trkpt>
      <trkpt lat="43.67632" lon="5.18995">
        <ele>227.076416</ele>
        <time>2022-04-28T13:20:57Z</time>
      </trkpt>
      <trkpt lat="43.67628" lon="5.18992">
        <ele>227.025543</ele>
        <time>2022-04-28T13:20:58Z</time>
      </trkpt>
      <trkpt lat="43.67624" lon="5.1899">
        <ele>227.063263</ele>
        <time>2022-04-28T13:20:59Z</time>
      </trkpt>
      <trkpt lat="43.67582" lon="5.18959">
        <ele>229.046677</ele>
        <time>2022-04-28T13:21:11Z</time>
      </trkpt>
      <trkpt lat="43.67558" lon="5.18935">
        <ele>230.427475</ele>
        <time>2022-04-28T13:21:19Z</time>
      </trkpt>
      <trkpt lat="43.67555" lon="5.18932">
        <ele>230.656433</ele>
        <time>2022-04-28T13:21:20Z</time>
      </trkpt>
      <trkpt lat="43.67553" lon="5.18929">
        <ele>230.841522</ele>
        <time>2022-04-28T13:21:21Z</time>
      </trkpt>
      <trkpt lat="43.6754" lon="5.18904">
        <ele>231.52272</ele>
        <time>2022-04-28T13:21:33Z</time>
      </trkpt>
      <trkpt lat="43.67516" lon="5.18865">
        <ele>230.961685</ele>
        <time>2022-04-28T13:21:44Z</time>
      </trkpt>
      <trkpt lat="43.67483" lon="5.18838">
        <ele>232.929657</ele>
        <time>2022-04-28T13:21:55Z</time>
      </trkpt>
      <trkpt lat="43.67482" lon="5.18834">
        <ele>232.999115</ele>
        <time>2022-04-28T13:21:56Z</time>
      </trkpt>
      <trkpt lat="43.67482" lon="5.1883">
        <ele>232.992615</ele>
        <time>2022-04-28T13:21:57Z</time>
      </trkpt>
      <trkpt lat="43.67477" lon="5.18795">
        <ele>233.213333</ele>
        <time>2022-04-28T13:22:06Z</time>
      </trkpt>
      <trkpt lat="43.67474" lon="5.18794">
        <ele>233.506012</ele>
        <time>2022-04-28T13:22:07Z</time>
      </trkpt>
      <trkpt lat="43.67472" lon="5.18793">
        <ele>233.859238</ele>
        <time>2022-04-28T13:22:08Z</time>
      </trkpt>
      <trkpt lat="43.67469" lon="5.18792">
        <ele>234.23439</ele>
        <time>2022-04-28T13:22:09Z</time>
      </trkpt>
      <trkpt lat="43.67466" lon="5.18793">
        <ele>234.615036</ele>
        <time>2022-04-28T13:22:10Z</time>
      </trkpt>
      <trkpt lat="43.67463" lon="5.18794">
        <ele>235.029114</ele>
        <time>2022-04-28T13:22:11Z</time>
      </trkpt>
      <trkpt lat="43.67431" lon="5.18791">
        <ele>238.722031</ele>
        <time>2022-04-28T13:22:22Z</time>
      </trkpt>
      <trkpt lat="43.67415" lon="5.18789">
        <ele>240.707413</ele>
        <time>2022-04-28T13:22:28Z</time>
      </trkpt>
      <trkpt lat="43.67413" lon="5.1879">
        <ele>240.813461</ele>
        <time>2022-04-28T13:22:29Z</time>
      </trkpt>
      <trkpt lat="43.6741" lon="5.1879">
        <ele>241.167084</ele>
        <time>2022-04-28T13:22:30Z</time>
      </trkpt>
      <trkpt lat="43.67407" lon="5.18789">
        <ele>241.653702</ele>
        <time>2022-04-28T13:22:31Z</time>
      </trkpt>
      <trkpt lat="43.67405" lon="5.18788">
        <ele>242.317368</ele>
        <time>2022-04-28T13:22:32Z</time>
      </trkpt>
      <trkpt lat="43.67402" lon="5.18787">
        <ele>242.995193</ele>
        <time>2022-04-28T13:22:33Z</time>
      </trkpt>
      <trkpt lat="43.674" lon="5.18785">
        <ele>243.70343</ele>
        <time>2022-04-28T13:22:34Z</time>
      </trkpt>
      <trkpt lat="43.67398" lon="5.18783">
        <ele>244.396637</ele>
        <time>2022-04-28T13:22:35Z</time>
      </trkpt>
      <trkpt lat="43.67396" lon="5.18781">
        <ele>245.072647</ele>
        <time>2022-04-28T13:22:36Z</time>
      </trkpt>
      <trkpt lat="43.67393" lon="5.18779">
        <ele>245.762833</ele>
        <time>2022-04-28T13:22:37Z</time>
      </trkpt>
      <trkpt lat="43.67391" lon="5.18777">
        <ele>246.442825</ele>
        <time>2022-04-28T13:22:38Z</time>
      </trkpt>
      <trkpt lat="43.67364" lon="5.18764">
        <ele>252.611633</ele>
        <time>2022-04-28T13:22:49Z</time>
      </trkpt>
      <trkpt lat="43.67344" lon="5.18753">
        <ele>256.173492</ele>
        <time>2022-04-28T13:22:58Z</time>
      </trkpt>
      <trkpt lat="43.67333" lon="5.1875">
        <ele>257.595703</ele>
        <time>2022-04-28T13:23:02Z</time>
      </trkpt>
      <trkpt lat="43.6731" lon="5.18745">
        <ele>258.50177</ele>
        <time>2022-04-28T13:23:11Z</time>
      </trkpt>
      <trkpt lat="43.67276" lon="5.1874">
        <ele>256.751495</ele>
        <time>2022-04-28T13:23:23Z</time>
      </trkpt>
      <trkpt lat="43.67269" lon="5.18739">
        <ele>255.841446</ele>
        <time>2022-04-28T13:23:25Z</time>
      </trkpt>
      <trkpt lat="43.67246" lon="5.18734">
        <ele>252.71521</ele>
        <time>2022-04-28T13:23:35Z</time>
      </trkpt>
      <trkpt lat="43.67246" lon="5.18734">
        <ele>252.717484</ele>
        <time>2022-04-28T13:23:46Z</time>
      </trkpt>
      <trkpt lat="43.67244" lon="5.18733">
        <ele>252.41037</ele>
        <time>2022-04-28T13:23:47Z</time>
      </trkpt>
      <trkpt lat="43.67218" lon="5.18717">
        <ele>247.062698</ele>
        <time>2022-04-28T13:23:55Z</time>
      </trkpt>
      <trkpt lat="43.67214" lon="5.18716">
        <ele>246.510559</ele>
        <time>2022-04-28T13:23:56Z</time>
      </trkpt>
      <trkpt lat="43.6721" lon="5.18714">
        <ele>245.90654</ele>
        <time>2022-04-28T13:23:57Z</time>
      </trkpt>
      <trkpt lat="43.67205" lon="5.18712">
        <ele>245.235809</ele>
        <time>2022-04-28T13:23:58Z</time>
      </trkpt>
      <trkpt lat="43.672" lon="5.18709">
        <ele>244.529617</ele>
        <time>2022-04-28T13:23:59Z</time>
      </trkpt>
      <trkpt lat="43.67183" lon="5.18703">
        <ele>242.394302</ele>
        <time>2022-04-28T13:24:02Z</time>
      </trkpt>
      <trkpt lat="43.67171" lon="5.18701">
        <ele>241.39505</ele>
        <time>2022-04-28T13:24:04Z</time>
      </trkpt>
      <trkpt lat="43.67164" lon="5.18698">
        <ele>240.843918</ele>
        <time>2022-04-28T13:24:05Z</time>
      </trkpt>
      <trkpt lat="43.67158" lon="5.18696">
        <ele>240.254135</ele>
        <time>2022-04-28T13:24:06Z</time>
      </trkpt>
      <trkpt lat="43.67147" lon="5.1869">
        <ele>239.087814</ele>
        <time>2022-04-28T13:24:08Z</time>
      </trkpt>
      <trkpt lat="43.67134" lon="5.18686">
        <ele>238.031097</ele>
        <time>2022-04-28T13:24:11Z</time>
      </trkpt>
      <trkpt lat="43.67131" lon="5.18688">
        <ele>237.973709</ele>
        <time>2022-04-28T13:24:12Z</time>
      </trkpt>
      <trkpt lat="43.67129" lon="5.1869">
        <ele>237.937759</ele>
        <time>2022-04-28T13:24:13Z</time>
      </trkpt>
      <trkpt lat="43.67126" lon="5.18692">
        <ele>237.881973</ele>
        <time>2022-04-28T13:24:14Z</time>
      </trkpt>
      <trkpt lat="43.67122" lon="5.18694">
        <ele>237.804962</ele>
        <time>2022-04-28T13:24:15Z</time>
      </trkpt>
      <trkpt lat="43.67119" lon="5.18695">
        <ele>237.724152</ele>
        <time>2022-04-28T13:24:16Z</time>
      </trkpt>
      <trkpt lat="43.67108" lon="5.187">
        <ele>237.48024</ele>
        <time>2022-04-28T13:24:19Z</time>
      </trkpt>
      <trkpt lat="43.67104" lon="5.18703">
        <ele>237.505997</ele>
        <time>2022-04-28T13:24:20Z</time>
      </trkpt>
      <trkpt lat="43.671" lon="5.18705">
        <ele>237.550247</ele>
        <time>2022-04-28T13:24:21Z</time>
      </trkpt>
      <trkpt lat="43.67081" lon="5.18718">
        <ele>236.823212</ele>
        <time>2022-04-28T13:24:26Z</time>
      </trkpt>
      <trkpt lat="43.67072" lon="5.18723">
        <ele>236.616806</ele>
        <time>2022-04-28T13:24:28Z</time>
      </trkpt>
      <trkpt lat="43.67067" lon="5.18725">
        <ele>236.369354</ele>
        <time>2022-04-28T13:24:29Z</time>
      </trkpt>
      <trkpt lat="43.67063" lon="5.18727">
        <ele>236.128616</ele>
        <time>2022-04-28T13:24:30Z</time>
      </trkpt>
      <trkpt lat="43.67058" lon="5.18729">
        <ele>235.914978</ele>
        <time>2022-04-28T13:24:31Z</time>
      </trkpt>
      <trkpt lat="43.67053" lon="5.1873">
        <ele>235.578506</ele>
        <time>2022-04-28T13:24:32Z</time>
      </trkpt>
      <trkpt lat="43.67048" lon="5.1873">
        <ele>235.126862</ele>
        <time>2022-04-28T13:24:33Z</time>
      </trkpt>
      <trkpt lat="43.67043" lon="5.18731">
        <ele>234.737793</ele>
        <time>2022-04-28T13:24:34Z</time>
      </trkpt>
      <trkpt lat="43.67037" lon="5.18732">
        <ele>234.44194</ele>
        <time>2022-04-28T13:24:35Z</time>
      </trkpt>
      <trkpt lat="43.67032" lon="5.18733">
        <ele>234.130707</ele>
        <time>2022-04-28T13:24:36Z</time>
      </trkpt>
      <trkpt lat="43.67027" lon="5.18735">
        <ele>233.912079</ele>
        <time>2022-04-28T13:24:37Z</time>
      </trkpt>
      <trkpt lat="43.67023" lon="5.18738">
        <ele>233.856552</ele>
        <time>2022-04-28T13:24:38Z</time>
      </trkpt>
      <trkpt lat="43.67018" lon="5.1874">
        <ele>233.691513</ele>
        <time>2022-04-28T13:24:39Z</time>
      </trkpt>
      <trkpt lat="43.67004" lon="5.18743">
        <ele>232.983444</ele>
        <time>2022-04-28T13:24:42Z</time>
      </trkpt>
      <trkpt lat="43.66999" lon="5.18745">
        <ele>232.949371</ele>
        <time>2022-04-28T13:24:43Z</time>
      </trkpt>
      <trkpt lat="43.66995" lon="5.18746">
        <ele>232.823837</ele>
        <time>2022-04-28T13:24:44Z</time>
      </trkpt>
      <trkpt lat="43.66991" lon="5.18747">
        <ele>232.645782</ele>
        <time>2022-04-28T13:24:45Z</time>
      </trkpt>
      <trkpt lat="43.66987" lon="5.18747">
        <ele>232.403656</ele>
        <time>2022-04-28T13:24:46Z</time>
      </trkpt>
      <trkpt lat="43.66984" lon="5.18746">
        <ele>232.096939</ele>
        <time>2022-04-28T13:24:47Z</time>
      </trkpt>
      <trkpt lat="43.66965" lon="5.18745">
        <ele>230.687927</ele>
        <time>2022-04-28T13:24:51Z</time>
      </trkpt>
      <trkpt lat="43.66961" lon="5.18747">
        <ele>230.656693</ele>
        <time>2022-04-28T13:24:52Z</time>
      </trkpt>
      <trkpt lat="43.66957" lon="5.1875">
        <ele>230.923386</ele>
        <time>2022-04-28T13:24:53Z</time>
      </trkpt>
      <trkpt lat="43.66954" lon="5.18754">
        <ele>231.261703</ele>
        <time>2022-04-28T13:24:54Z</time>
      </trkpt>
      <trkpt lat="43.66951" lon="5.18758">
        <ele>231.540421</ele>
        <time>2022-04-28T13:24:55Z</time>
      </trkpt>
      <trkpt lat="43.66948" lon="5.1876">
        <ele>231.65239</ele>
        <time>2022-04-28T13:24:56Z</time>
      </trkpt>
      <trkpt lat="43.66944" lon="5.18761">
        <ele>231.647949</ele>
        <time>2022-04-28T13:24:57Z</time>
      </trkpt>
      <trkpt lat="43.6693" lon="5.18764">
        <ele>231.40509</ele>
        <time>2022-04-28T13:25:00Z</time>
      </trkpt>
      <trkpt lat="43.66925" lon="5.18764">
        <ele>231.219376</ele>
        <time>2022-04-28T13:25:01Z</time>
      </trkpt>
      <trkpt lat="43.66921" lon="5.18765">
        <ele>231.130676</ele>
        <time>2022-04-28T13:25:02Z</time>
      </trkpt>
      <trkpt lat="43.66917" lon="5.18766">
        <ele>231.142593</ele>
        <time>2022-04-28T13:25:03Z</time>
      </trkpt>
      <trkpt lat="43.66913" lon="5.18766">
        <ele>230.989197</ele>
        <time>2022-04-28T13:25:04Z</time>
      </trkpt>
      <trkpt lat="43.66908" lon="5.18765">
        <ele>230.674652</ele>
        <time>2022-04-28T13:25:05Z</time>
      </trkpt>
      <trkpt lat="43.66904" lon="5.18765">
        <ele>230.509277</ele>
        <time>2022-04-28T13:25:06Z</time>
      </trkpt>
      <trkpt lat="43.669" lon="5.18766">
        <ele>230.551529</ele>
        <time>2022-04-28T13:25:07Z</time>
      </trkpt>
      <trkpt lat="43.66896" lon="5.18767">
        <ele>230.593475</ele>
        <time>2022-04-28T13:25:08Z</time>
      </trkpt>
      <trkpt lat="43.66876" lon="5.1877">
        <ele>230.528595</ele>
        <time>2022-04-28T13:25:12Z</time>
      </trkpt>
      <trkpt lat="43.66846" lon="5.18774">
        <ele>230.656952</ele>
        <time>2022-04-28T13:25:18Z</time>
      </trkpt>
      <trkpt lat="43.66788" lon="5.18759">
        <ele>228.886185</ele>
        <time>2022-04-28T13:25:30Z</time>
      </trkpt>
      <trkpt lat="43.66773" lon="5.18752">
        <ele>227.917801</ele>
        <time>2022-04-28T13:25:33Z</time>
      </trkpt>
      <trkpt lat="43.66768" lon="5.18749">
        <ele>227.523392</ele>
        <time>2022-04-28T13:25:34Z</time>
      </trkpt>
      <trkpt lat="43.66763" lon="5.18748">
        <ele>227.275223</ele>
        <time>2022-04-28T13:25:35Z</time>
      </trkpt>
      <trkpt lat="43.66758" lon="5.18748">
        <ele>227.198318</ele>
        <time>2022-04-28T13:25:36Z</time>
      </trkpt>
      <trkpt lat="43.66753" lon="5.18748">
        <ele>227.138779</ele>
        <time>2022-04-28T13:25:37Z</time>
      </trkpt>
      <trkpt lat="43.66748" lon="5.18748">
        <ele>227.040176</ele>
        <time>2022-04-28T13:25:38Z</time>
      </trkpt>
      <trkpt lat="43.66723" lon="5.1875">
        <ele>226.175461</ele>
        <time>2022-04-28T13:25:43Z</time>
      </trkpt>
      <trkpt lat="43.66718" lon="5.18752">
        <ele>225.950195</ele>
        <time>2022-04-28T13:25:44Z</time>
      </trkpt>
      <trkpt lat="43.66713" lon="5.18754">
        <ele>225.736191</ele>
        <time>2022-04-28T13:25:45Z</time>
      </trkpt>
      <trkpt lat="43.66708" lon="5.18755">
        <ele>225.573242</ele>
        <time>2022-04-28T13:25:46Z</time>
      </trkpt>
      <trkpt lat="43.66703" lon="5.18757">
        <ele>225.382507</ele>
        <time>2022-04-28T13:25:47Z</time>
      </trkpt>
      <trkpt lat="43.66698" lon="5.18757">
        <ele>225.055359</ele>
        <time>2022-04-28T13:25:48Z</time>
      </trkpt>
      <trkpt lat="43.66693" lon="5.18757">
        <ele>224.59491</ele>
        <time>2022-04-28T13:25:49Z</time>
      </trkpt>
      <trkpt lat="43.66688" lon="5.18756">
        <ele>224.143433</ele>
        <time>2022-04-28T13:25:50Z</time>
      </trkpt>
      <trkpt lat="43.66683" lon="5.18756">
        <ele>223.729385</ele>
        <time>2022-04-28T13:25:51Z</time>
      </trkpt>
      <trkpt lat="43.66678" lon="5.18756">
        <ele>223.523056</ele>
        <time>2022-04-28T13:25:52Z</time>
      </trkpt>
      <trkpt lat="43.66644" lon="5.18764">
        <ele>222.269836</ele>
        <time>2022-04-28T13:25:59Z</time>
      </trkpt>
      <trkpt lat="43.6664" lon="5.18766">
        <ele>222.396973</ele>
        <time>2022-04-28T13:26:00Z</time>
      </trkpt>
      <trkpt lat="43.66638" lon="5.18768">
        <ele>222.551941</ele>
        <time>2022-04-28T13:26:01Z</time>
      </trkpt>
      <trkpt lat="43.66636" lon="5.1877">
        <ele>222.643143</ele>
        <time>2022-04-28T13:26:02Z</time>
      </trkpt>
      <trkpt lat="43.66633" lon="5.18771">
        <ele>222.638748</ele>
        <time>2022-04-28T13:26:03Z</time>
      </trkpt>
      <trkpt lat="43.66631" lon="5.18772">
        <ele>222.668823</ele>
        <time>2022-04-28T13:26:04Z</time>
      </trkpt>
      <trkpt lat="43.66628" lon="5.18774">
        <ele>222.786545</ele>
        <time>2022-04-28T13:26:05Z</time>
      </trkpt>
      <trkpt lat="43.66625" lon="5.18776">
        <ele>222.941132</ele>
        <time>2022-04-28T13:26:06Z</time>
      </trkpt>
      <trkpt lat="43.66621" lon="5.18779">
        <ele>223.098938</ele>
        <time>2022-04-28T13:26:07Z</time>
      </trkpt>
      <trkpt lat="43.66617" lon="5.1878">
        <ele>223.140244</ele>
        <time>2022-04-28T13:26:08Z</time>
      </trkpt>
      <trkpt lat="43.66613" lon="5.18781">
        <ele>223.021957</ele>
        <time>2022-04-28T13:26:09Z</time>
      </trkpt>
      <trkpt lat="43.66608" lon="5.1878">
        <ele>222.79213</ele>
        <time>2022-04-28T13:26:10Z</time>
      </trkpt>
      <trkpt lat="43.66604" lon="5.1878">
        <ele>222.600876</ele>
        <time>2022-04-28T13:26:11Z</time>
      </trkpt>
      <trkpt lat="43.666" lon="5.1878">
        <ele>222.560471</ele>
        <time>2022-04-28T13:26:12Z</time>
      </trkpt>
      <trkpt lat="43.66596" lon="5.1878">
        <ele>222.599213</ele>
        <time>2022-04-28T13:26:13Z</time>
      </trkpt>
      <trkpt lat="43.66588" lon="5.18777">
        <ele>222.522949</ele>
        <time>2022-04-28T13:26:15Z</time>
      </trkpt>
      <trkpt lat="43.66584" lon="5.18777">
        <ele>222.646545</ele>
        <time>2022-04-28T13:26:16Z</time>
      </trkpt>
      <trkpt lat="43.66581" lon="5.18778">
        <ele>222.848541</ele>
        <time>2022-04-28T13:26:17Z</time>
      </trkpt>
      <trkpt lat="43.66559" lon="5.18785">
        <ele>224.018478</ele>
        <time>2022-04-28T13:26:27Z</time>
      </trkpt>
      <trkpt lat="43.66558" lon="5.18785">
        <ele>224.004929</ele>
        <time>2022-04-28T13:26:43Z</time>
      </trkpt>
      <trkpt lat="43.66558" lon="5.18784">
        <ele>223.94339</ele>
        <time>2022-04-28T13:27:06Z</time>
      </trkpt>
      <trkpt lat="43.66553" lon="5.18783">
        <ele>223.640472</ele>
        <time>2022-04-28T13:27:26Z</time>
      </trkpt>
      <trkpt lat="43.66535" lon="5.18784">
        <ele>222.111038</ele>
        <time>2022-04-28T13:27:31Z</time>
      </trkpt>
      <trkpt lat="43.66531" lon="5.18785">
        <ele>221.86084</ele>
        <time>2022-04-28T13:27:32Z</time>
      </trkpt>
      <trkpt lat="43.66526" lon="5.18787">
        <ele>221.636581</ele>
        <time>2022-04-28T13:27:33Z</time>
      </trkpt>
      <trkpt lat="43.66521" lon="5.18789">
        <ele>221.452988</ele>
        <time>2022-04-28T13:27:34Z</time>
      </trkpt>
      <trkpt lat="43.66455" lon="5.18816">
        <ele>219.119614</ele>
        <time>2022-04-28T13:27:46Z</time>
      </trkpt>
      <trkpt lat="43.66433" lon="5.18824">
        <ele>218.640778</ele>
        <time>2022-04-28T13:27:50Z</time>
      </trkpt>
      <trkpt lat="43.66417" lon="5.18832">
        <ele>218.133789</ele>
        <time>2022-04-28T13:27:53Z</time>
      </trkpt>
      <trkpt lat="43.66393" lon="5.18844">
        <ele>217.165466</ele>
        <time>2022-04-28T13:27:58Z</time>
      </trkpt>
      <trkpt lat="43.66384" lon="5.18846">
        <ele>216.50116</ele>
        <time>2022-04-28T13:28:00Z</time>
      </trkpt>
      <trkpt lat="43.6638" lon="5.18848">
        <ele>216.298157</ele>
        <time>2022-04-28T13:28:01Z</time>
      </trkpt>
      <trkpt lat="43.66375" lon="5.18851">
        <ele>216.122696</ele>
        <time>2022-04-28T13:28:02Z</time>
      </trkpt>
      <trkpt lat="43.6637" lon="5.18854">
        <ele>216.116379</ele>
        <time>2022-04-28T13:28:03Z</time>
      </trkpt>
      <trkpt lat="43.66366" lon="5.18858">
        <ele>216.17926</ele>
        <time>2022-04-28T13:28:04Z</time>
      </trkpt>
      <trkpt lat="43.66363" lon="5.18862">
        <ele>216.329346</ele>
        <time>2022-04-28T13:28:05Z</time>
      </trkpt>
      <trkpt lat="43.66359" lon="5.18867">
        <ele>216.584259</ele>
        <time>2022-04-28T13:28:06Z</time>
      </trkpt>
      <trkpt lat="43.66357" lon="5.18872">
        <ele>216.851212</ele>
        <time>2022-04-28T13:28:07Z</time>
      </trkpt>
      <trkpt lat="43.66353" lon="5.18877">
        <ele>217.075851</ele>
        <time>2022-04-28T13:28:08Z</time>
      </trkpt>
      <trkpt lat="43.66333" lon="5.18909">
        <ele>218.392685</ele>
        <time>2022-04-28T13:28:15Z</time>
      </trkpt>
      <trkpt lat="43.6633" lon="5.18914">
        <ele>218.546295</ele>
        <time>2022-04-28T13:28:16Z</time>
      </trkpt>
      <trkpt lat="43.66328" lon="5.18918">
        <ele>218.731293</ele>
        <time>2022-04-28T13:28:17Z</time>
      </trkpt>
      <trkpt lat="43.66293" lon="5.18978">
        <ele>219.346237</ele>
        <time>2022-04-28T13:28:30Z</time>
      </trkpt>
      <trkpt lat="43.66291" lon="5.18982">
        <ele>219.317245</ele>
        <time>2022-04-28T13:28:31Z</time>
      </trkpt>
      <trkpt lat="43.66289" lon="5.18988">
        <ele>219.428238</ele>
        <time>2022-04-28T13:28:32Z</time>
      </trkpt>
      <trkpt lat="43.66262" lon="5.19069">
        <ele>220.132553</ele>
        <time>2022-04-28T13:28:46Z</time>
      </trkpt>
      <trkpt lat="43.66236" lon="5.1914">
        <ele>219.769119</ele>
        <time>2022-04-28T13:29:00Z</time>
      </trkpt>
      <trkpt lat="43.66204" lon="5.19187">
        <ele>219.950195</ele>
        <time>2022-04-28T13:29:12Z</time>
      </trkpt>
      <trkpt lat="43.66199" lon="5.19196">
        <ele>219.982193</ele>
        <time>2022-04-28T13:29:14Z</time>
      </trkpt>
      <trkpt lat="43.6619" lon="5.19209">
        <ele>219.934982</ele>
        <time>2022-04-28T13:29:17Z</time>
      </trkpt>
      <trkpt lat="43.66188" lon="5.19214">
        <ele>219.945999</ele>
        <time>2022-04-28T13:29:18Z</time>
      </trkpt>
      <trkpt lat="43.66187" lon="5.19218">
        <ele>219.96376</ele>
        <time>2022-04-28T13:29:19Z</time>
      </trkpt>
      <trkpt lat="43.66185" lon="5.19221">
        <ele>219.986588</ele>
        <time>2022-04-28T13:29:20Z</time>
      </trkpt>
      <trkpt lat="43.66183" lon="5.19225">
        <ele>220.331741</ele>
        <time>2022-04-28T13:29:21Z</time>
      </trkpt>
      <trkpt lat="43.6618" lon="5.19229">
        <ele>220.777664</ele>
        <time>2022-04-28T13:29:22Z</time>
      </trkpt>
      <trkpt lat="43.66178" lon="5.19234">
        <ele>221.19664</ele>
        <time>2022-04-28T13:29:23Z</time>
      </trkpt>
      <trkpt lat="43.66176" lon="5.19241">
        <ele>221.534302</ele>
        <time>2022-04-28T13:29:24Z</time>
      </trkpt>
      <trkpt lat="43.66176" lon="5.19246">
        <ele>221.754913</ele>
        <time>2022-04-28T13:29:25Z</time>
      </trkpt>
      <trkpt lat="43.66174" lon="5.19264">
        <ele>222.357651</ele>
        <time>2022-04-28T13:29:28Z</time>
      </trkpt>
      <trkpt lat="43.66164" lon="5.19301">
        <ele>222.838211</ele>
        <time>2022-04-28T13:29:35Z</time>
      </trkpt>
      <trkpt lat="43.66163" lon="5.19306">
        <ele>222.62709</ele>
        <time>2022-04-28T13:29:36Z</time>
      </trkpt>
      <trkpt lat="43.6616" lon="5.19317">
        <ele>222.163376</ele>
        <time>2022-04-28T13:29:38Z</time>
      </trkpt>
      <trkpt lat="43.6616" lon="5.19323">
        <ele>221.871689</ele>
        <time>2022-04-28T13:29:39Z</time>
      </trkpt>
      <trkpt lat="43.66161" lon="5.19326">
        <ele>221.610077</ele>
        <time>2022-04-28T13:29:40Z</time>
      </trkpt>
      <trkpt lat="43.66161" lon="5.19329">
        <ele>221.434601</ele>
        <time>2022-04-28T13:29:41Z</time>
      </trkpt>
      <trkpt lat="43.66161" lon="5.19332">
        <ele>221.264191</ele>
        <time>2022-04-28T13:29:42Z</time>
      </trkpt>
      <trkpt lat="43.66162" lon="5.19342">
        <ele>220.724442</ele>
        <time>2022-04-28T13:29:45Z</time>
      </trkpt>
      <trkpt lat="43.66164" lon="5.19365">
        <ele>219.734695</ele>
        <time>2022-04-28T13:29:51Z</time>
      </trkpt>
      <trkpt lat="43.66155" lon="5.19416">
        <ele>217.720016</ele>
        <time>2022-04-28T13:29:58Z</time>
      </trkpt>
      <trkpt lat="43.66139" lon="5.19568">
        <ele>215.448166</ele>
        <time>2022-04-28T13:30:17Z</time>
      </trkpt>
      <trkpt lat="43.66137" lon="5.19575">
        <ele>215.362579</ele>
        <time>2022-04-28T13:30:18Z</time>
      </trkpt>
      <trkpt lat="43.6612" lon="5.19679">
        <ele>215.304703</ele>
        <time>2022-04-28T13:30:32Z</time>
      </trkpt>
      <trkpt lat="43.66105" lon="5.19815">
        <ele>216.223923</ele>
        <time>2022-04-28T13:30:50Z</time>
      </trkpt>
      <trkpt lat="43.66101" lon="5.19919">
        <ele>218.168533</ele>
        <time>2022-04-28T13:31:04Z</time>
      </trkpt>
      <trkpt lat="43.66101" lon="5.19931">
        <ele>218.440643</ele>
        <time>2022-04-28T13:31:06Z</time>
      </trkpt>
      <trkpt lat="43.66101" lon="5.19937">
        <ele>218.634232</ele>
        <time>2022-04-28T13:31:07Z</time>
      </trkpt>
      <trkpt lat="43.66102" lon="5.19951">
        <ele>219.073029</ele>
        <time>2022-04-28T13:31:09Z</time>
      </trkpt>
      <trkpt lat="43.66103" lon="5.19957">
        <ele>219.321732</ele>
        <time>2022-04-28T13:31:10Z</time>
      </trkpt>
      <trkpt lat="43.66114" lon="5.20041">
        <ele>222.595856</ele>
        <time>2022-04-28T13:31:23Z</time>
      </trkpt>
      <trkpt lat="43.6612" lon="5.20103">
        <ele>224.969833</ele>
        <time>2022-04-28T13:31:33Z</time>
      </trkpt>
      <trkpt lat="43.66131" lon="5.20166">
        <ele>224.888229</ele>
        <time>2022-04-28T13:31:46Z</time>
      </trkpt>
      <trkpt lat="43.66138" lon="5.20199">
        <ele>224.77475</ele>
        <time>2022-04-28T13:31:58Z</time>
      </trkpt>
      <trkpt lat="43.6615" lon="5.20252">
        <ele>223.151596</ele>
        <time>2022-04-28T13:32:12Z</time>
      </trkpt>
      <trkpt lat="43.66151" lon="5.20328">
        <ele>220.398361</ele>
        <time>2022-04-28T13:32:24Z</time>
      </trkpt>
      <trkpt lat="43.66151" lon="5.20356">
        <ele>219.177689</ele>
        <time>2022-04-28T13:32:27Z</time>
      </trkpt>
      <trkpt lat="43.66149" lon="5.204">
        <ele>217.084961</ele>
        <time>2022-04-28T13:32:31Z</time>
      </trkpt>
      <trkpt lat="43.66144" lon="5.20487">
        <ele>213.789825</ele>
        <time>2022-04-28T13:32:39Z</time>
      </trkpt>
      <trkpt lat="43.66154" lon="5.20598">
        <ele>209.588165</ele>
        <time>2022-04-28T13:32:49Z</time>
      </trkpt>
      <trkpt lat="43.66156" lon="5.20609">
        <ele>209.237656</ele>
        <time>2022-04-28T13:32:50Z</time>
      </trkpt>
      <trkpt lat="43.6617" lon="5.207">
        <ele>207.87265</ele>
        <time>2022-04-28T13:33:00Z</time>
      </trkpt>
      <trkpt lat="43.6617" lon="5.20711">
        <ele>207.84935</ele>
        <time>2022-04-28T13:33:02Z</time>
      </trkpt>
      <trkpt lat="43.66169" lon="5.20727">
        <ele>208.148743</ele>
        <time>2022-04-28T13:33:04Z</time>
      </trkpt>
      <trkpt lat="43.66171" lon="5.20798">
        <ele>207.272171</ele>
        <time>2022-04-28T13:33:14Z</time>
      </trkpt>
      <trkpt lat="43.66171" lon="5.20806">
        <ele>207.014999</ele>
        <time>2022-04-28T13:33:15Z</time>
      </trkpt>
      <trkpt lat="43.66171" lon="5.20812">
        <ele>206.814346</ele>
        <time>2022-04-28T13:33:16Z</time>
      </trkpt>
      <trkpt lat="43.66171" lon="5.20818">
        <ele>206.701599</ele>
        <time>2022-04-28T13:33:17Z</time>
      </trkpt>
      <trkpt lat="43.6617" lon="5.20825">
        <ele>206.56308</ele>
        <time>2022-04-28T13:33:18Z</time>
      </trkpt>
      <trkpt lat="43.6617" lon="5.20832">
        <ele>206.401428</ele>
        <time>2022-04-28T13:33:19Z</time>
      </trkpt>
      <trkpt lat="43.66169" lon="5.20838">
        <ele>206.227966</ele>
        <time>2022-04-28T13:33:20Z</time>
      </trkpt>
      <trkpt lat="43.66161" lon="5.20893">
        <ele>204.832748</ele>
        <time>2022-04-28T13:33:27Z</time>
      </trkpt>
      <trkpt lat="43.66147" lon="5.2097">
        <ele>201.733032</ele>
        <time>2022-04-28T13:33:35Z</time>
      </trkpt>
      <trkpt lat="43.66146" lon="5.20981">
        <ele>201.126404</ele>
        <time>2022-04-28T13:33:36Z</time>
      </trkpt>
      <trkpt lat="43.66146" lon="5.20994">
        <ele>200.338043</ele>
        <time>2022-04-28T13:33:37Z</time>
      </trkpt>
      <trkpt lat="43.66148" lon="5.21005">
        <ele>199.694931</ele>
        <time>2022-04-28T13:33:38Z</time>
      </trkpt>
      <trkpt lat="43.66151" lon="5.21014">
        <ele>199.214844</ele>
        <time>2022-04-28T13:33:39Z</time>
      </trkpt>
      <trkpt lat="43.66154" lon="5.21024">
        <ele>198.921936</ele>
        <time>2022-04-28T13:33:40Z</time>
      </trkpt>
      <trkpt lat="43.66158" lon="5.21037">
        <ele>198.822815</ele>
        <time>2022-04-28T13:33:41Z</time>
      </trkpt>
      <trkpt lat="43.66159" lon="5.21048">
        <ele>198.768524</ele>
        <time>2022-04-28T13:33:42Z</time>
      </trkpt>
      <trkpt lat="43.66159" lon="5.21055">
        <ele>198.726639</ele>
        <time>2022-04-28T13:33:43Z</time>
      </trkpt>
      <trkpt lat="43.66159" lon="5.21063">
        <ele>198.672546</ele>
        <time>2022-04-28T13:33:44Z</time>
      </trkpt>
      <trkpt lat="43.66159" lon="5.21072">
        <ele>198.588348</ele>
        <time>2022-04-28T13:33:45Z</time>
      </trkpt>
      <trkpt lat="43.66155" lon="5.21105">
        <ele>198.337341</ele>
        <time>2022-04-28T13:33:49Z</time>
      </trkpt>
      <trkpt lat="43.66153" lon="5.21137">
        <ele>198.227325</ele>
        <time>2022-04-28T13:33:53Z</time>
      </trkpt>
      <trkpt lat="43.6614" lon="5.21253">
        <ele>199.225922</ele>
        <time>2022-04-28T13:34:10Z</time>
      </trkpt>
      <trkpt lat="43.66132" lon="5.21329">
        <ele>201.1371</ele>
        <time>2022-04-28T13:34:23Z</time>
      </trkpt>
      <trkpt lat="43.66127" lon="5.21394">
        <ele>204.893799</ele>
        <time>2022-04-28T13:34:37Z</time>
      </trkpt>
      <trkpt lat="43.66099" lon="5.21449">
        <ele>204.876938</ele>
        <time>2022-04-28T13:34:50Z</time>
      </trkpt>
      <trkpt lat="43.66081" lon="5.21488">
        <ele>202.807999</ele>
        <time>2022-04-28T13:34:57Z</time>
      </trkpt>
      <trkpt lat="43.66079" lon="5.21493">
        <ele>202.509171</ele>
        <time>2022-04-28T13:34:58Z</time>
      </trkpt>
      <trkpt lat="43.66047" lon="5.21575">
        <ele>201.513855</ele>
        <time>2022-04-28T13:35:12Z</time>
      </trkpt>
      <trkpt lat="43.66009" lon="5.21654">
        <ele>198.189819</ele>
        <time>2022-04-28T13:35:22Z</time>
      </trkpt>
      <trkpt lat="43.66006" lon="5.21663">
        <ele>197.69278</ele>
        <time>2022-04-28T13:35:23Z</time>
      </trkpt>
      <trkpt lat="43.65965" lon="5.21788">
        <ele>193.863602</ele>
        <time>2022-04-28T13:35:37Z</time>
      </trkpt>
      <trkpt lat="43.65942" lon="5.21882">
        <ele>194.854675</ele>
        <time>2022-04-28T13:35:48Z</time>
      </trkpt>
      <trkpt lat="43.65918" lon="5.21989">
        <ele>198.880371</ele>
        <time>2022-04-28T13:36:02Z</time>
      </trkpt>
      <trkpt lat="43.6591" lon="5.22011">
        <ele>199.519379</ele>
        <time>2022-04-28T13:36:05Z</time>
      </trkpt>
      <trkpt lat="43.65907" lon="5.22017">
        <ele>199.652176</ele>
        <time>2022-04-28T13:36:06Z</time>
      </trkpt>
      <trkpt lat="43.65901" lon="5.22038">
        <ele>200.119354</ele>
        <time>2022-04-28T13:36:09Z</time>
      </trkpt>
      <trkpt lat="43.65867" lon="5.22134">
        <ele>201.767654</ele>
        <time>2022-04-28T13:36:24Z</time>
      </trkpt>
      <trkpt lat="43.65859" lon="5.22144">
        <ele>201.422714</ele>
        <time>2022-04-28T13:36:26Z</time>
      </trkpt>
      <trkpt lat="43.65855" lon="5.22148">
        <ele>201.156219</ele>
        <time>2022-04-28T13:36:27Z</time>
      </trkpt>
      <trkpt lat="43.6585" lon="5.22151">
        <ele>200.796219</ele>
        <time>2022-04-28T13:36:28Z</time>
      </trkpt>
      <trkpt lat="43.65844" lon="5.22152">
        <ele>200.343643</ele>
        <time>2022-04-28T13:36:29Z</time>
      </trkpt>
      <trkpt lat="43.65839" lon="5.22153">
        <ele>199.859039</ele>
        <time>2022-04-28T13:36:30Z</time>
      </trkpt>
      <trkpt lat="43.65783" lon="5.2217">
        <ele>197.515442</ele>
        <time>2022-04-28T13:36:41Z</time>
      </trkpt>
      <trkpt lat="43.65766" lon="5.22181">
        <ele>196.783997</ele>
        <time>2022-04-28T13:36:45Z</time>
      </trkpt>
      <trkpt lat="43.65763" lon="5.22186">
        <ele>196.558899</ele>
        <time>2022-04-28T13:36:46Z</time>
      </trkpt>
      <trkpt lat="43.65761" lon="5.22193">
        <ele>196.372803</ele>
        <time>2022-04-28T13:36:47Z</time>
      </trkpt>
      <trkpt lat="43.65762" lon="5.22201">
        <ele>196.296265</ele>
        <time>2022-04-28T13:36:48Z</time>
      </trkpt>
      <trkpt lat="43.65763" lon="5.22207">
        <ele>196.309372</ele>
        <time>2022-04-28T13:36:49Z</time>
      </trkpt>
      <trkpt lat="43.65764" lon="5.22214">
        <ele>196.355957</ele>
        <time>2022-04-28T13:36:50Z</time>
      </trkpt>
      <trkpt lat="43.65767" lon="5.22225">
        <ele>196.523315</ele>
        <time>2022-04-28T13:36:52Z</time>
      </trkpt>
      <trkpt lat="43.65769" lon="5.2223">
        <ele>196.682602</ele>
        <time>2022-04-28T13:36:53Z</time>
      </trkpt>
      <trkpt lat="43.65771" lon="5.22235">
        <ele>196.826584</ele>
        <time>2022-04-28T13:36:54Z</time>
      </trkpt>
      <trkpt lat="43.65783" lon="5.22284">
        <ele>197.699509</ele>
        <time>2022-04-28T13:37:05Z</time>
      </trkpt>
      <trkpt lat="43.65783" lon="5.22291">
        <ele>197.662231</ele>
        <time>2022-04-28T13:37:06Z</time>
      </trkpt>
      <trkpt lat="43.65783" lon="5.22298">
        <ele>197.582962</ele>
        <time>2022-04-28T13:37:07Z</time>
      </trkpt>
      <trkpt lat="43.65783" lon="5.22307">
        <ele>197.331512</ele>
        <time>2022-04-28T13:37:08Z</time>
      </trkpt>
      <trkpt lat="43.65783" lon="5.22313">
        <ele>197.137283</ele>
        <time>2022-04-28T13:37:09Z</time>
      </trkpt>
      <trkpt lat="43.65781" lon="5.22329">
        <ele>196.507935</ele>
        <time>2022-04-28T13:37:11Z</time>
      </trkpt>
      <trkpt lat="43.65767" lon="5.22376">
        <ele>194.554474</ele>
        <time>2022-04-28T13:37:16Z</time>
      </trkpt>
      <trkpt lat="43.65759" lon="5.22396">
        <ele>193.966537</ele>
        <time>2022-04-28T13:37:18Z</time>
      </trkpt>
      <trkpt lat="43.65751" lon="5.22418">
        <ele>193.481262</ele>
        <time>2022-04-28T13:37:20Z</time>
      </trkpt>
      <trkpt lat="43.65722" lon="5.22506">
        <ele>191.498901</ele>
        <time>2022-04-28T13:37:27Z</time>
      </trkpt>
      <trkpt lat="43.65718" lon="5.22519">
        <ele>191.302368</ele>
        <time>2022-04-28T13:37:28Z</time>
      </trkpt>
      <trkpt lat="43.65708" lon="5.22557">
        <ele>190.589478</ele>
        <time>2022-04-28T13:37:31Z</time>
      </trkpt>
      <trkpt lat="43.65702" lon="5.22581">
        <ele>190.045273</ele>
        <time>2022-04-28T13:37:33Z</time>
      </trkpt>
      <trkpt lat="43.65693" lon="5.22624">
        <ele>189.46637</ele>
        <time>2022-04-28T13:37:37Z</time>
      </trkpt>
      <trkpt lat="43.65678" lon="5.22741">
        <ele>189.638077</ele>
        <time>2022-04-28T13:37:50Z</time>
      </trkpt>
      <trkpt lat="43.65673" lon="5.229">
        <ele>186.644592</ele>
        <time>2022-04-28T13:38:08Z</time>
      </trkpt>
      <trkpt lat="43.65671" lon="5.2291">
        <ele>186.395248</ele>
        <time>2022-04-28T13:38:09Z</time>
      </trkpt>
      <trkpt lat="43.65668" lon="5.22919">
        <ele>186.052933</ele>
        <time>2022-04-28T13:38:10Z</time>
      </trkpt>
      <trkpt lat="43.6565" lon="5.22964">
        <ele>184.528976</ele>
        <time>2022-04-28T13:38:15Z</time>
      </trkpt>
      <trkpt lat="43.65647" lon="5.22973">
        <ele>184.315277</ele>
        <time>2022-04-28T13:38:16Z</time>
      </trkpt>
      <trkpt lat="43.65646" lon="5.22983">
        <ele>184.032379</ele>
        <time>2022-04-28T13:38:17Z</time>
      </trkpt>
      <trkpt lat="43.65647" lon="5.22992">
        <ele>183.650131</ele>
        <time>2022-04-28T13:38:18Z</time>
      </trkpt>
      <trkpt lat="43.6566" lon="5.23066">
        <ele>179.888626</ele>
        <time>2022-04-28T13:38:25Z</time>
      </trkpt>
      <trkpt lat="43.65667" lon="5.23125">
        <ele>176.919159</ele>
        <time>2022-04-28T13:38:30Z</time>
      </trkpt>
      <trkpt lat="43.6567" lon="5.23161">
        <ele>175.538086</ele>
        <time>2022-04-28T13:38:33Z</time>
      </trkpt>
      <trkpt lat="43.65674" lon="5.23196">
        <ele>174.505402</ele>
        <time>2022-04-28T13:38:36Z</time>
      </trkpt>
      <trkpt lat="43.65677" lon="5.23207">
        <ele>174.234238</ele>
        <time>2022-04-28T13:38:37Z</time>
      </trkpt>
      <trkpt lat="43.65681" lon="5.23217">
        <ele>173.978104</ele>
        <time>2022-04-28T13:38:38Z</time>
      </trkpt>
      <trkpt lat="43.65704" lon="5.23271">
        <ele>172.348541</ele>
        <time>2022-04-28T13:38:44Z</time>
      </trkpt>
      <trkpt lat="43.65705" lon="5.23279">
        <ele>172.182083</ele>
        <time>2022-04-28T13:38:45Z</time>
      </trkpt>
      <trkpt lat="43.65703" lon="5.23287">
        <ele>172.013687</ele>
        <time>2022-04-28T13:38:46Z</time>
      </trkpt>
      <trkpt lat="43.65698" lon="5.23307">
        <ele>171.685196</ele>
        <time>2022-04-28T13:38:49Z</time>
      </trkpt>
      <trkpt lat="43.65687" lon="5.23336">
        <ele>171.215164</ele>
        <time>2022-04-28T13:38:53Z</time>
      </trkpt>
      <trkpt lat="43.65684" lon="5.23343">
        <ele>171.096786</ele>
        <time>2022-04-28T13:38:54Z</time>
      </trkpt>
      <trkpt lat="43.65649" lon="5.23444">
        <ele>170.578918</ele>
        <time>2022-04-28T13:39:08Z</time>
      </trkpt>
      <trkpt lat="43.65628" lon="5.23504">
        <ele>170.701721</ele>
        <time>2022-04-28T13:39:16Z</time>
      </trkpt>
      <trkpt lat="43.65626" lon="5.23511">
        <ele>170.759781</ele>
        <time>2022-04-28T13:39:17Z</time>
      </trkpt>
      <trkpt lat="43.65623" lon="5.23519">
        <ele>170.830643</ele>
        <time>2022-04-28T13:39:18Z</time>
      </trkpt>
      <trkpt lat="43.65617" lon="5.23532">
        <ele>170.926331</ele>
        <time>2022-04-28T13:39:20Z</time>
      </trkpt>
      <trkpt lat="43.65613" lon="5.23537">
        <ele>171.013367</ele>
        <time>2022-04-28T13:39:21Z</time>
      </trkpt>
      <trkpt lat="43.65605" lon="5.23555">
        <ele>171.187653</ele>
        <time>2022-04-28T13:39:24Z</time>
      </trkpt>
      <trkpt lat="43.65604" lon="5.23561">
        <ele>171.280685</ele>
        <time>2022-04-28T13:39:25Z</time>
      </trkpt>
      <trkpt lat="43.65603" lon="5.23566">
        <ele>171.361755</ele>
        <time>2022-04-28T13:39:26Z</time>
      </trkpt>
      <trkpt lat="43.65602" lon="5.23571">
        <ele>171.388504</ele>
        <time>2022-04-28T13:39:27Z</time>
      </trkpt>
      <trkpt lat="43.656" lon="5.23577">
        <ele>171.404144</ele>
        <time>2022-04-28T13:39:28Z</time>
      </trkpt>
      <trkpt lat="43.65598" lon="5.23583">
        <ele>171.405151</ele>
        <time>2022-04-28T13:39:29Z</time>
      </trkpt>
      <trkpt lat="43.65586" lon="5.23617">
        <ele>170.445297</ele>
        <time>2022-04-28T13:39:34Z</time>
      </trkpt>
      <trkpt lat="43.65583" lon="5.23624">
        <ele>170.129959</ele>
        <time>2022-04-28T13:39:35Z</time>
      </trkpt>
      <trkpt lat="43.65549" lon="5.23725">
        <ele>167.701279</ele>
        <time>2022-04-28T13:39:48Z</time>
      </trkpt>
      <trkpt lat="43.6554" lon="5.23755">
        <ele>168.005142</ele>
        <time>2022-04-28T13:39:52Z</time>
      </trkpt>
      <trkpt lat="43.65532" lon="5.23774">
        <ele>168.155167</ele>
        <time>2022-04-28T13:39:55Z</time>
      </trkpt>
      <trkpt lat="43.6553" lon="5.23781">
        <ele>168.122421</ele>
        <time>2022-04-28T13:39:56Z</time>
      </trkpt>
      <trkpt lat="43.65526" lon="5.23793">
        <ele>168.051514</ele>
        <time>2022-04-28T13:39:58Z</time>
      </trkpt>
      <trkpt lat="43.65525" lon="5.23799">
        <ele>168.02002</ele>
        <time>2022-04-28T13:39:59Z</time>
      </trkpt>
      <trkpt lat="43.65519" lon="5.23817">
        <ele>167.912643</ele>
        <time>2022-04-28T13:40:02Z</time>
      </trkpt>
      <trkpt lat="43.65517" lon="5.23823">
        <ele>167.872787</ele>
        <time>2022-04-28T13:40:03Z</time>
      </trkpt>
      <trkpt lat="43.65508" lon="5.23852">
        <ele>167.770996</ele>
        <time>2022-04-28T13:40:08Z</time>
      </trkpt>
      <trkpt lat="43.65507" lon="5.23859">
        <ele>167.786041</ele>
        <time>2022-04-28T13:40:09Z</time>
      </trkpt>
      <trkpt lat="43.65505" lon="5.23865">
        <ele>167.802597</ele>
        <time>2022-04-28T13:40:10Z</time>
      </trkpt>
      <trkpt lat="43.65483" lon="5.23924">
        <ele>168</ele>
        <time>2022-04-28T13:40:22Z</time>
      </trkpt>
      <trkpt lat="43.65471" lon="5.23969">
        <ele>167.950882</ele>
        <time>2022-04-28T13:40:32Z</time>
      </trkpt>
      <trkpt lat="43.65458" lon="5.24009">
        <ele>167.946899</ele>
        <time>2022-04-28T13:40:38Z</time>
      </trkpt>
      <trkpt lat="43.65456" lon="5.24015">
        <ele>167.975281</ele>
        <time>2022-04-28T13:40:39Z</time>
      </trkpt>
      <trkpt lat="43.65452" lon="5.24026">
        <ele>168.120193</ele>
        <time>2022-04-28T13:40:41Z</time>
      </trkpt>
      <trkpt lat="43.65449" lon="5.24031">
        <ele>168.202988</ele>
        <time>2022-04-28T13:40:42Z</time>
      </trkpt>
      <trkpt lat="43.65447" lon="5.24036">
        <ele>168.291977</ele>
        <time>2022-04-28T13:40:43Z</time>
      </trkpt>
      <trkpt lat="43.65446" lon="5.24042">
        <ele>168.385727</ele>
        <time>2022-04-28T13:40:44Z</time>
      </trkpt>
      <trkpt lat="43.65444" lon="5.24048">
        <ele>168.489182</ele>
        <time>2022-04-28T13:40:45Z</time>
      </trkpt>
      <trkpt lat="43.65442" lon="5.24055">
        <ele>168.601318</ele>
        <time>2022-04-28T13:40:46Z</time>
      </trkpt>
      <trkpt lat="43.65433" lon="5.24085">
        <ele>169.096939</ele>
        <time>2022-04-28T13:40:51Z</time>
      </trkpt>
      <trkpt lat="43.65431" lon="5.24097">
        <ele>169.286819</ele>
        <time>2022-04-28T13:40:53Z</time>
      </trkpt>
      <trkpt lat="43.65429" lon="5.24103">
        <ele>169.377029</ele>
        <time>2022-04-28T13:40:54Z</time>
      </trkpt>
      <trkpt lat="43.65416" lon="5.24157">
        <ele>170.268448</ele>
        <time>2022-04-28T13:41:06Z</time>
      </trkpt>
      <trkpt lat="43.65398" lon="5.2421">
        <ele>171.142227</ele>
        <time>2022-04-28T13:41:18Z</time>
      </trkpt>
      <trkpt lat="43.65378" lon="5.24272">
        <ele>172.007965</ele>
        <time>2022-04-28T13:41:30Z</time>
      </trkpt>
      <trkpt lat="43.65365" lon="5.24313">
        <ele>171.783859</ele>
        <time>2022-04-28T13:41:37Z</time>
      </trkpt>
      <trkpt lat="43.65361" lon="5.24324">
        <ele>171.70076</ele>
        <time>2022-04-28T13:41:39Z</time>
      </trkpt>
      <trkpt lat="43.65333" lon="5.24408">
        <ele>172.504303</ele>
        <time>2022-04-28T13:41:55Z</time>
      </trkpt>
      <trkpt lat="43.6532" lon="5.24448">
        <ele>172.900406</ele>
        <time>2022-04-28T13:42:07Z</time>
      </trkpt>
      <trkpt lat="43.65318" lon="5.24452">
        <ele>172.931549</ele>
        <time>2022-04-28T13:42:08Z</time>
      </trkpt>
      <trkpt lat="43.65314" lon="5.24476">
        <ele>173.243713</ele>
        <time>2022-04-28T13:42:13Z</time>
      </trkpt>
      <trkpt lat="43.65278" lon="5.24585">
        <ele>174.300461</ele>
        <time>2022-04-28T13:42:31Z</time>
      </trkpt>
      <trkpt lat="43.65255" lon="5.24627">
        <ele>174.505402</ele>
        <time>2022-04-28T13:42:39Z</time>
      </trkpt>
      <trkpt lat="43.65203" lon="5.24674">
        <ele>174.795761</ele>
        <time>2022-04-28T13:42:54Z</time>
      </trkpt>
      <trkpt lat="43.65194" lon="5.24681">
        <ele>174.908707</ele>
        <time>2022-04-28T13:43:03Z</time>
      </trkpt>
      <trkpt lat="43.65192" lon="5.24682">
        <ele>174.924133</ele>
        <time>2022-04-28T13:43:09Z</time>
      </trkpt>
      <trkpt lat="43.65178" lon="5.24678">
        <ele>174.711426</ele>
        <time>2022-04-28T13:43:16Z</time>
      </trkpt>
      <trkpt lat="43.65172" lon="5.24678">
        <ele>174.581116</ele>
        <time>2022-04-28T13:43:18Z</time>
      </trkpt>
      <trkpt lat="43.65168" lon="5.2468">
        <ele>174.539383</ele>
        <time>2022-04-28T13:43:19Z</time>
      </trkpt>
      <trkpt lat="43.65164" lon="5.24684">
        <ele>174.514359</ele>
        <time>2022-04-28T13:43:20Z</time>
      </trkpt>
      <trkpt lat="43.65161" lon="5.24686">
        <ele>174.471649</ele>
        <time>2022-04-28T13:43:21Z</time>
      </trkpt>
      <trkpt lat="43.65152" lon="5.2469">
        <ele>174.265915</ele>
        <time>2022-04-28T13:43:23Z</time>
      </trkpt>
      <trkpt lat="43.65138" lon="5.24694">
        <ele>173.965103</ele>
        <time>2022-04-28T13:43:26Z</time>
      </trkpt>
      <trkpt lat="43.65073" lon="5.24712">
        <ele>172.523361</ele>
        <time>2022-04-28T13:43:42Z</time>
      </trkpt>
      <trkpt lat="43.65033" lon="5.24722">
        <ele>171.532639</ele>
        <time>2022-04-28T13:43:54Z</time>
      </trkpt>
      <trkpt lat="43.65003" lon="5.24729">
        <ele>170.806763</ele>
        <time>2022-04-28T13:44:01Z</time>
      </trkpt>
      <trkpt lat="43.6498" lon="5.24733">
        <ele>170.407288</ele>
        <time>2022-04-28T13:44:06Z</time>
      </trkpt>
      <trkpt lat="43.64915" lon="5.24751">
        <ele>170.552612</ele>
        <time>2022-04-28T13:44:22Z</time>
      </trkpt>
      <trkpt lat="43.6486" lon="5.24763">
        <ele>171.200027</ele>
        <time>2022-04-28T13:44:35Z</time>
      </trkpt>
      <trkpt lat="43.64836" lon="5.24767">
        <ele>171.899078</ele>
        <time>2022-04-28T13:44:42Z</time>
      </trkpt>
      <trkpt lat="43.64834" lon="5.24772">
        <ele>172.121368</ele>
        <time>2022-04-28T13:44:46Z</time>
      </trkpt>
      <trkpt lat="43.64841" lon="5.24823">
        <ele>174.029053</ele>
        <time>2022-04-28T13:45:00Z</time>
      </trkpt>
      <trkpt lat="43.64863" lon="5.24869">
        <ele>175.734024</ele>
        <time>2022-04-28T13:45:13Z</time>
      </trkpt>
      <trkpt lat="43.64899" lon="5.24934">
        <ele>177.975174</ele>
        <time>2022-04-28T13:45:29Z</time>
      </trkpt>
      <trkpt lat="43.64913" lon="5.25004">
        <ele>180.469559</ele>
        <time>2022-04-28T13:45:44Z</time>
      </trkpt>
      <trkpt lat="43.64912" lon="5.25024">
        <ele>181.192688</ele>
        <time>2022-04-28T13:45:50Z</time>
      </trkpt>
      <trkpt lat="43.64888" lon="5.25034">
        <ele>182.860794</ele>
        <time>2022-04-28T13:45:58Z</time>
      </trkpt>
      <trkpt lat="43.64882" lon="5.25039">
        <ele>183.412155</ele>
        <time>2022-04-28T13:46:00Z</time>
      </trkpt>
      <trkpt lat="43.64866" lon="5.25062">
        <ele>185.646103</ele>
        <time>2022-04-28T13:46:07Z</time>
      </trkpt>
      <trkpt lat="43.64851" lon="5.25058">
        <ele>187.257889</ele>
        <time>2022-04-28T13:46:13Z</time>
      </trkpt>
      <trkpt lat="43.64819" lon="5.25022">
        <ele>189.104568</ele>
        <time>2022-04-28T13:46:27Z</time>
      </trkpt>
      <trkpt lat="43.64813" lon="5.25018">
        <ele>189.34462</ele>
        <time>2022-04-28T13:46:29Z</time>
      </trkpt>
      <trkpt lat="43.64799" lon="5.25018">
        <ele>190.724014</ele>
        <time>2022-04-28T13:46:34Z</time>
      </trkpt>
      <trkpt lat="43.64771" lon="5.25032">
        <ele>195.490692</ele>
        <time>2022-04-28T13:46:44Z</time>
      </trkpt>
      <trkpt lat="43.64734" lon="5.25044">
        <ele>199.493866</ele>
        <time>2022-04-28T13:46:57Z</time>
      </trkpt>
      <trkpt lat="43.64723" lon="5.25042">
        <ele>200.051712</ele>
        <time>2022-04-28T13:47:02Z</time>
      </trkpt>
      <trkpt lat="43.64689" lon="5.25029">
        <ele>201.121124</ele>
        <time>2022-04-28T13:47:15Z</time>
      </trkpt>
      <trkpt lat="43.64662" lon="5.25035">
        <ele>202.235718</ele>
        <time>2022-04-28T13:47:26Z</time>
      </trkpt>
      <trkpt lat="43.64645" lon="5.25063">
        <ele>203.818222</ele>
        <time>2022-04-28T13:47:36Z</time>
      </trkpt>
      <trkpt lat="43.64611" lon="5.25125">
        <ele>205.419174</ele>
        <time>2022-04-28T13:47:51Z</time>
      </trkpt>
      <trkpt lat="43.64572" lon="5.25197">
        <ele>204.720642</ele>
        <time>2022-04-28T13:48:06Z</time>
      </trkpt>
      <trkpt lat="43.64552" lon="5.25247">
        <ele>204.947937</ele>
        <time>2022-04-28T13:48:15Z</time>
      </trkpt>
      <trkpt lat="43.64533" lon="5.25278">
        <ele>204.757156</ele>
        <time>2022-04-28T13:48:21Z</time>
      </trkpt>
      <trkpt lat="43.64476" lon="5.25344">
        <ele>204.384659</ele>
        <time>2022-04-28T13:48:37Z</time>
      </trkpt>
      <trkpt lat="43.64453" lon="5.25382">
        <ele>204.828033</ele>
        <time>2022-04-28T13:48:45Z</time>
      </trkpt>
      <trkpt lat="43.64453" lon="5.25387">
        <ele>205.036102</ele>
        <time>2022-04-28T13:48:46Z</time>
      </trkpt>
      <trkpt lat="43.64454" lon="5.25393">
        <ele>205.331253</ele>
        <time>2022-04-28T13:48:47Z</time>
      </trkpt>
      <trkpt lat="43.64455" lon="5.25398">
        <ele>205.404251</ele>
        <time>2022-04-28T13:48:48Z</time>
      </trkpt>
      <trkpt lat="43.64466" lon="5.25421">
        <ele>205.887878</ele>
        <time>2022-04-28T13:48:53Z</time>
      </trkpt>
      <trkpt lat="43.64501" lon="5.25481">
        <ele>207.869324</ele>
        <time>2022-04-28T13:49:07Z</time>
      </trkpt>
      <trkpt lat="43.64505" lon="5.2549">
        <ele>208.282074</ele>
        <time>2022-04-28T13:49:09Z</time>
      </trkpt>
      <trkpt lat="43.64508" lon="5.25495">
        <ele>208.519547</ele>
        <time>2022-04-28T13:49:10Z</time>
      </trkpt>
      <trkpt lat="43.6451" lon="5.25499">
        <ele>208.741882</ele>
        <time>2022-04-28T13:49:11Z</time>
      </trkpt>
      <trkpt lat="43.64512" lon="5.25504">
        <ele>208.969131</ele>
        <time>2022-04-28T13:49:12Z</time>
      </trkpt>
      <trkpt lat="43.64514" lon="5.25509">
        <ele>209.211121</ele>
        <time>2022-04-28T13:49:13Z</time>
      </trkpt>
      <trkpt lat="43.64539" lon="5.25559">
        <ele>211.944855</ele>
        <time>2022-04-28T13:49:25Z</time>
      </trkpt>
      <trkpt lat="43.64539" lon="5.25563">
        <ele>212.025681</ele>
        <time>2022-04-28T13:49:26Z</time>
      </trkpt>
      <trkpt lat="43.64539" lon="5.25567">
        <ele>212.074921</ele>
        <time>2022-04-28T13:49:27Z</time>
      </trkpt>
      <trkpt lat="43.64538" lon="5.25571">
        <ele>212.11824</ele>
        <time>2022-04-28T13:49:28Z</time>
      </trkpt>
      <trkpt lat="43.64538" lon="5.25575">
        <ele>212.150421</ele>
        <time>2022-04-28T13:49:29Z</time>
      </trkpt>
      <trkpt lat="43.64535" lon="5.25578">
        <ele>212.118607</ele>
        <time>2022-04-28T13:49:30Z</time>
      </trkpt>
      <trkpt lat="43.64532" lon="5.25582">
        <ele>212.021729</ele>
        <time>2022-04-28T13:49:31Z</time>
      </trkpt>
      <trkpt lat="43.6453" lon="5.25584">
        <ele>211.958862</ele>
        <time>2022-04-28T13:49:32Z</time>
      </trkpt>
      <trkpt lat="43.64528" lon="5.25586">
        <ele>211.841644</ele>
        <time>2022-04-28T13:49:33Z</time>
      </trkpt>
      <trkpt lat="43.64526" lon="5.25588">
        <ele>211.742416</ele>
        <time>2022-04-28T13:49:34Z</time>
      </trkpt>
      <trkpt lat="43.64524" lon="5.2559">
        <ele>211.654404</ele>
        <time>2022-04-28T13:49:35Z</time>
      </trkpt>
      <trkpt lat="43.64522" lon="5.25592">
        <ele>211.54567</ele>
        <time>2022-04-28T13:49:36Z</time>
      </trkpt>
      <trkpt lat="43.6452" lon="5.25594">
        <ele>211.442505</ele>
        <time>2022-04-28T13:49:37Z</time>
      </trkpt>
      <trkpt lat="43.64519" lon="5.25598">
        <ele>211.388428</ele>
        <time>2022-04-28T13:49:38Z</time>
      </trkpt>
      <trkpt lat="43.64518" lon="5.25603">
        <ele>211.43602</ele>
        <time>2022-04-28T13:49:39Z</time>
      </trkpt>
      <trkpt lat="43.64519" lon="5.25605">
        <ele>211.513199</ele>
        <time>2022-04-28T13:49:40Z</time>
      </trkpt>
      <trkpt lat="43.6452" lon="5.25609">
        <ele>211.667221</ele>
        <time>2022-04-28T13:49:41Z</time>
      </trkpt>
      <trkpt lat="43.64522" lon="5.25614">
        <ele>211.858704</ele>
        <time>2022-04-28T13:49:42Z</time>
      </trkpt>
      <trkpt lat="43.64524" lon="5.25618">
        <ele>212.071838</ele>
        <time>2022-04-28T13:49:43Z</time>
      </trkpt>
      <trkpt lat="43.64526" lon="5.25623">
        <ele>212.312027</ele>
        <time>2022-04-28T13:49:44Z</time>
      </trkpt>
      <trkpt lat="43.64546" lon="5.25657">
        <ele>214.377487</ele>
        <time>2022-04-28T13:49:53Z</time>
      </trkpt>
      <trkpt lat="43.64567" lon="5.25696">
        <ele>215.824097</ele>
        <time>2022-04-28T13:50:03Z</time>
      </trkpt>
      <trkpt lat="43.64604" lon="5.25753">
        <ele>216.720596</ele>
        <time>2022-04-28T13:50:17Z</time>
      </trkpt>
      <trkpt lat="43.64619" lon="5.25775">
        <ele>216.961304</ele>
        <time>2022-04-28T13:50:22Z</time>
      </trkpt>
      <trkpt lat="43.64663" lon="5.25847">
        <ele>217.082047</ele>
        <time>2022-04-28T13:50:37Z</time>
      </trkpt>
      <trkpt lat="43.64666" lon="5.25851">
        <ele>217.153595</ele>
        <time>2022-04-28T13:50:38Z</time>
      </trkpt>
      <trkpt lat="43.64669" lon="5.25856">
        <ele>217.219147</ele>
        <time>2022-04-28T13:50:39Z</time>
      </trkpt>
      <trkpt lat="43.64698" lon="5.25917">
        <ele>218.199203</ele>
        <time>2022-04-28T13:50:53Z</time>
      </trkpt>
      <trkpt lat="43.64709" lon="5.25943">
        <ele>218.900253</ele>
        <time>2022-04-28T13:51:00Z</time>
      </trkpt>
      <trkpt lat="43.64703" lon="5.25962">
        <ele>219.057785</ele>
        <time>2022-04-28T13:51:07Z</time>
      </trkpt>
      <trkpt lat="43.64705" lon="5.25965">
        <ele>219.139191</ele>
        <time>2022-04-28T13:51:08Z</time>
      </trkpt>
      <trkpt lat="43.64706" lon="5.25968">
        <ele>219.223404</ele>
        <time>2022-04-28T13:51:09Z</time>
      </trkpt>
      <trkpt lat="43.64711" lon="5.25994">
        <ele>219.742615</ele>
        <time>2022-04-28T13:51:17Z</time>
      </trkpt>
      <trkpt lat="43.6471" lon="5.25997">
        <ele>219.769119</ele>
        <time>2022-04-28T13:51:18Z</time>
      </trkpt>
      <trkpt lat="43.64708" lon="5.26">
        <ele>219.785095</ele>
        <time>2022-04-28T13:51:19Z</time>
      </trkpt>
      <trkpt lat="43.64707" lon="5.26003">
        <ele>219.804596</ele>
        <time>2022-04-28T13:51:20Z</time>
      </trkpt>
      <trkpt lat="43.64705" lon="5.26006">
        <ele>219.836105</ele>
        <time>2022-04-28T13:51:21Z</time>
      </trkpt>
      <trkpt lat="43.64704" lon="5.2601">
        <ele>219.882065</ele>
        <time>2022-04-28T13:51:22Z</time>
      </trkpt>
      <trkpt lat="43.64704" lon="5.26014">
        <ele>219.948624</ele>
        <time>2022-04-28T13:51:23Z</time>
      </trkpt>
      <trkpt lat="43.64705" lon="5.26019">
        <ele>220.037643</ele>
        <time>2022-04-28T13:51:24Z</time>
      </trkpt>
      <trkpt lat="43.64705" lon="5.2604">
        <ele>220.612335</ele>
        <time>2022-04-28T13:51:30Z</time>
      </trkpt>
      <trkpt lat="43.64706" lon="5.26042">
        <ele>220.694122</ele>
        <time>2022-04-28T13:51:31Z</time>
      </trkpt>
      <trkpt lat="43.64707" lon="5.26044">
        <ele>220.776276</ele>
        <time>2022-04-28T13:51:32Z</time>
      </trkpt>
      <trkpt lat="43.6471" lon="5.26045">
        <ele>220.841843</ele>
        <time>2022-04-28T13:51:33Z</time>
      </trkpt>
      <trkpt lat="43.64712" lon="5.26045">
        <ele>220.877945</ele>
        <time>2022-04-28T13:51:34Z</time>
      </trkpt>
      <trkpt lat="43.64715" lon="5.26045">
        <ele>220.907364</ele>
        <time>2022-04-28T13:51:35Z</time>
      </trkpt>
      <trkpt lat="43.64755" lon="5.26041">
        <ele>221.484177</ele>
        <time>2022-04-28T13:51:48Z</time>
      </trkpt>
      <trkpt lat="43.64776" lon="5.26043">
        <ele>221.972977</ele>
        <time>2022-04-28T13:51:55Z</time>
      </trkpt>
      <trkpt lat="43.64778" lon="5.26046">
        <ele>222.042618</ele>
        <time>2022-04-28T13:51:56Z</time>
      </trkpt>
      <trkpt lat="43.64779" lon="5.26049">
        <ele>222.111847</ele>
        <time>2022-04-28T13:51:57Z</time>
      </trkpt>
      <trkpt lat="43.6478" lon="5.26063">
        <ele>222.385544</ele>
        <time>2022-04-28T13:52:00Z</time>
      </trkpt>
      <trkpt lat="43.6478" lon="5.26069">
        <ele>222.477997</ele>
        <time>2022-04-28T13:52:01Z</time>
      </trkpt>
      <trkpt lat="43.64777" lon="5.26088">
        <ele>222.730621</ele>
        <time>2022-04-28T13:52:04Z</time>
      </trkpt>
      <trkpt lat="43.64775" lon="5.26093">
        <ele>222.79628</ele>
        <time>2022-04-28T13:52:05Z</time>
      </trkpt>
      <trkpt lat="43.6477" lon="5.2612">
        <ele>223.295105</ele>
        <time>2022-04-28T13:52:10Z</time>
      </trkpt>
      <trkpt lat="43.6477" lon="5.26125">
        <ele>223.428284</ele>
        <time>2022-04-28T13:52:11Z</time>
      </trkpt>
      <trkpt lat="43.64771" lon="5.2613">
        <ele>223.536514</ele>
        <time>2022-04-28T13:52:12Z</time>
      </trkpt>
      <trkpt lat="43.64772" lon="5.26134">
        <ele>223.641602</ele>
        <time>2022-04-28T13:52:13Z</time>
      </trkpt>
      <trkpt lat="43.64774" lon="5.26139">
        <ele>223.736557</ele>
        <time>2022-04-28T13:52:14Z</time>
      </trkpt>
      <trkpt lat="43.64776" lon="5.26143">
        <ele>223.82251</ele>
        <time>2022-04-28T13:52:15Z</time>
      </trkpt>
      <trkpt lat="43.64781" lon="5.26154">
        <ele>224.075958</ele>
        <time>2022-04-28T13:52:18Z</time>
      </trkpt>
      <trkpt lat="43.64781" lon="5.26159">
        <ele>224.220337</ele>
        <time>2022-04-28T13:52:19Z</time>
      </trkpt>
      <trkpt lat="43.64776" lon="5.26169">
        <ele>224.489868</ele>
        <time>2022-04-28T13:52:21Z</time>
      </trkpt>
      <trkpt lat="43.64774" lon="5.26173">
        <ele>224.594025</ele>
        <time>2022-04-28T13:52:22Z</time>
      </trkpt>
      <trkpt lat="43.6477" lon="5.26185">
        <ele>224.916672</ele>
        <time>2022-04-28T13:52:25Z</time>
      </trkpt>
      <trkpt lat="43.6477" lon="5.2619">
        <ele>225.051025</ele>
        <time>2022-04-28T13:52:26Z</time>
      </trkpt>
      <trkpt lat="43.64778" lon="5.26213">
        <ele>225.83757</ele>
        <time>2022-04-28T13:52:31Z</time>
      </trkpt>
      <trkpt lat="43.64781" lon="5.26217">
        <ele>225.993484</ele>
        <time>2022-04-28T13:52:32Z</time>
      </trkpt>
      <trkpt lat="43.64823" lon="5.26269">
        <ele>227.634064</ele>
        <time>2022-04-28T13:52:47Z</time>
      </trkpt>
      <trkpt lat="43.64849" lon="5.26321">
        <ele>228.667175</ele>
        <time>2022-04-28T13:52:59Z</time>
      </trkpt>
      <trkpt lat="43.64862" lon="5.2637">
        <ele>229.461609</ele>
        <time>2022-04-28T13:53:10Z</time>
      </trkpt>
      <trkpt lat="43.64865" lon="5.26384">
        <ele>229.671539</ele>
        <time>2022-04-28T13:53:14Z</time>
      </trkpt>
      <trkpt lat="43.64864" lon="5.26386">
        <ele>229.715332</ele>
        <time>2022-04-28T13:53:15Z</time>
      </trkpt>
      <trkpt lat="43.64862" lon="5.26389">
        <ele>229.756653</ele>
        <time>2022-04-28T13:53:16Z</time>
      </trkpt>
      <trkpt lat="43.64861" lon="5.26391">
        <ele>229.800064</ele>
        <time>2022-04-28T13:53:17Z</time>
      </trkpt>
      <trkpt lat="43.64859" lon="5.26394">
        <ele>229.844498</ele>
        <time>2022-04-28T13:53:18Z</time>
      </trkpt>
      <trkpt lat="43.64845" lon="5.26417">
        <ele>230.117218</ele>
        <time>2022-04-28T13:53:30Z</time>
      </trkpt>
      <trkpt lat="43.64845" lon="5.26418">
        <ele>230.127396</ele>
        <time>2022-04-28T13:53:55Z</time>
      </trkpt>
      <trkpt lat="43.64844" lon="5.26419">
        <ele>230.140488</ele>
        <time>2022-04-28T13:53:57Z</time>
      </trkpt>
      <trkpt lat="43.64844" lon="5.26421">
        <ele>230.157928</ele>
        <time>2022-04-28T13:53:58Z</time>
      </trkpt>
      <trkpt lat="43.64843" lon="5.26422">
        <ele>230.176834</ele>
        <time>2022-04-28T13:53:59Z</time>
      </trkpt>
      <trkpt lat="43.64844" lon="5.26425">
        <ele>230.197678</ele>
        <time>2022-04-28T13:54:00Z</time>
      </trkpt>
      <trkpt lat="43.64846" lon="5.26428">
        <ele>230.202194</ele>
        <time>2022-04-28T13:54:01Z</time>
      </trkpt>
      <trkpt lat="43.64849" lon="5.2643">
        <ele>230.187851</ele>
        <time>2022-04-28T13:54:02Z</time>
      </trkpt>
      <trkpt lat="43.64852" lon="5.26432">
        <ele>230.162308</ele>
        <time>2022-04-28T13:54:03Z</time>
      </trkpt>
      <trkpt lat="43.64867" lon="5.26456">
        <ele>230.006271</ele>
        <time>2022-04-28T13:54:09Z</time>
      </trkpt>
      <trkpt lat="43.64869" lon="5.26462">
        <ele>229.997513</ele>
        <time>2022-04-28T13:54:10Z</time>
      </trkpt>
      <trkpt lat="43.6487" lon="5.26468">
        <ele>230.033783</ele>
        <time>2022-04-28T13:54:11Z</time>
      </trkpt>
      <trkpt lat="43.64872" lon="5.26481">
        <ele>230.239578</ele>
        <time>2022-04-28T13:54:13Z</time>
      </trkpt>
      <trkpt lat="43.64874" lon="5.26488">
        <ele>230.348312</ele>
        <time>2022-04-28T13:54:14Z</time>
      </trkpt>
      <trkpt lat="43.64877" lon="5.26494">
        <ele>230.439728</ele>
        <time>2022-04-28T13:54:15Z</time>
      </trkpt>
      <trkpt lat="43.64882" lon="5.265">
        <ele>230.539017</ele>
        <time>2022-04-28T13:54:16Z</time>
      </trkpt>
      <trkpt lat="43.64887" lon="5.26506">
        <ele>230.62561</ele>
        <time>2022-04-28T13:54:17Z</time>
      </trkpt>
      <trkpt lat="43.6489" lon="5.2651">
        <ele>230.694534</ele>
        <time>2022-04-28T13:54:18Z</time>
      </trkpt>
      <trkpt lat="43.64893" lon="5.26517">
        <ele>230.794937</ele>
        <time>2022-04-28T13:54:19Z</time>
      </trkpt>
      <trkpt lat="43.64896" lon="5.26525">
        <ele>230.936798</ele>
        <time>2022-04-28T13:54:20Z</time>
      </trkpt>
      <trkpt lat="43.64916" lon="5.26622">
        <ele>232.485092</ele>
        <time>2022-04-28T13:54:33Z</time>
      </trkpt>
      <trkpt lat="43.64919" lon="5.26653">
        <ele>232.974518</ele>
        <time>2022-04-28T13:54:37Z</time>
      </trkpt>
      <trkpt lat="43.64918" lon="5.26661">
        <ele>233.023376</ele>
        <time>2022-04-28T13:54:38Z</time>
      </trkpt>
      <trkpt lat="43.6491" lon="5.2669">
        <ele>233.054642</ele>
        <time>2022-04-28T13:54:42Z</time>
      </trkpt>
      <trkpt lat="43.64908" lon="5.26697">
        <ele>233.02684</ele>
        <time>2022-04-28T13:54:43Z</time>
      </trkpt>
      <trkpt lat="43.64904" lon="5.26703">
        <ele>232.994263</ele>
        <time>2022-04-28T13:54:44Z</time>
      </trkpt>
      <trkpt lat="43.64901" lon="5.26708">
        <ele>232.985977</ele>
        <time>2022-04-28T13:54:45Z</time>
      </trkpt>
      <trkpt lat="43.64896" lon="5.26711">
        <ele>232.986282</ele>
        <time>2022-04-28T13:54:46Z</time>
      </trkpt>
      <trkpt lat="43.64892" lon="5.26714">
        <ele>232.997269</ele>
        <time>2022-04-28T13:54:47Z</time>
      </trkpt>
      <trkpt lat="43.64888" lon="5.26719">
        <ele>233.03949</ele>
        <time>2022-04-28T13:54:48Z</time>
      </trkpt>
      <trkpt lat="43.64886" lon="5.26723">
        <ele>233.075867</ele>
        <time>2022-04-28T13:54:49Z</time>
      </trkpt>
      <trkpt lat="43.64883" lon="5.26728">
        <ele>233.110657</ele>
        <time>2022-04-28T13:54:50Z</time>
      </trkpt>
      <trkpt lat="43.64881" lon="5.26733">
        <ele>233.136627</ele>
        <time>2022-04-28T13:54:51Z</time>
      </trkpt>
      <trkpt lat="43.64863" lon="5.2675">
        <ele>233.041824</ele>
        <time>2022-04-28T13:54:59Z</time>
      </trkpt>
      <trkpt lat="43.64862" lon="5.2675">
        <ele>233.028519</ele>
        <time>2022-04-28T13:55:08Z</time>
      </trkpt>
      <trkpt lat="43.64841" lon="5.26767">
        <ele>232.594788</ele>
        <time>2022-04-28T13:55:19Z</time>
      </trkpt>
      <trkpt lat="43.64827" lon="5.26766">
        <ele>232.291183</ele>
        <time>2022-04-28T13:55:24Z</time>
      </trkpt>
      <trkpt lat="43.64842" lon="5.26753">
        <ele>232.614075</ele>
        <time>2022-04-28T13:55:32Z</time>
      </trkpt>
      <trkpt lat="43.64879" lon="5.26731">
        <ele>233.114853</ele>
        <time>2022-04-28T13:55:44Z</time>
      </trkpt>
      <trkpt lat="43.64881" lon="5.26733">
        <ele>233.135956</ele>
        <time>2022-04-28T13:55:45Z</time>
      </trkpt>
      <trkpt lat="43.64881" lon="5.26735">
        <ele>233.160416</ele>
        <time>2022-04-28T13:55:46Z</time>
      </trkpt>
      <trkpt lat="43.64881" lon="5.26738">
        <ele>233.175491</ele>
        <time>2022-04-28T13:55:47Z</time>
      </trkpt>
      <trkpt lat="43.64879" lon="5.2674">
        <ele>233.178375</ele>
        <time>2022-04-28T13:55:48Z</time>
      </trkpt>
      <trkpt lat="43.64876" lon="5.26743">
        <ele>233.171982</ele>
        <time>2022-04-28T13:55:49Z</time>
      </trkpt>
      <trkpt lat="43.64874" lon="5.26745">
        <ele>233.159149</ele>
        <time>2022-04-28T13:55:50Z</time>
      </trkpt>
      <trkpt lat="43.64872" lon="5.26746">
        <ele>233.140808</ele>
        <time>2022-04-28T13:55:51Z</time>
      </trkpt>
      <trkpt lat="43.64869" lon="5.26748">
        <ele>233.119446</ele>
        <time>2022-04-28T13:55:52Z</time>
      </trkpt>
      <trkpt lat="43.64863" lon="5.2675">
        <ele>233.048798</ele>
        <time>2022-04-28T13:56:01Z</time>
      </trkpt>
    </trkseg>
  </trk>
</gpx>